<?xml version="1.0" encoding="utf-8"?>
<gpx xmlns:xsi="http://www.w3.org/2001/XMLSchema-instance" xmlns:xsd="http://www.w3.org/2001/XMLSchema" xsi:schemaLocation="http://www.topografix.com/GPX/1/1 http://www.topografix.com/GPX/1/1/gpx.xsd" version="1.1" creator="SportTracks 3.1" xmlns="http://www.topografix.com/GPX/1/1">
 <metadata />
 <trk>
  <name />
  <cmt />
  <trkseg>
   <trkpt lat="46.2533912658691" lon="6.94597339630127">
    <ele>442.600006103516</ele>
    <time>2012-04-02T15:09:11Z</time>
   </trkpt>
   <trkpt lat="46.2534561157227" lon="6.94591331481934">
    <ele>443</ele>
    <time>2012-04-02T15:09:13Z</time>
   </trkpt>
   <trkpt lat="46.2535133361816" lon="6.94585561752319">
    <ele>443.399993896484</ele>
    <time>2012-04-02T15:09:15Z</time>
   </trkpt>
   <trkpt lat="46.2535400390625" lon="6.94582843780518">
    <ele>443.600006103516</ele>
    <time>2012-04-02T15:09:16Z</time>
   </trkpt>
   <trkpt lat="46.2535667419434" lon="6.94580221176148">
    <ele>443.600006103516</ele>
    <time>2012-04-02T15:09:17Z</time>
   </trkpt>
   <trkpt lat="46.2536201477051" lon="6.94574594497681">
    <ele>443.933349609375</ele>
    <time>2012-04-02T15:09:19Z</time>
   </trkpt>
   <trkpt lat="46.2537117004394" lon="6.9456729888916">
    <ele>444.433349609375</ele>
    <time>2012-04-02T15:09:22Z</time>
   </trkpt>
   <trkpt lat="46.253776550293" lon="6.94562816619873">
    <ele>444.766662597656</ele>
    <time>2012-04-02T15:09:24Z</time>
   </trkpt>
   <trkpt lat="46.2538032531738" lon="6.9456033706665">
    <ele>444.933349609375</ele>
    <time>2012-04-02T15:09:25Z</time>
   </trkpt>
   <trkpt lat="46.253833770752" lon="6.94558334350586">
    <ele>445.100006103516</ele>
    <time>2012-04-02T15:09:26Z</time>
   </trkpt>
   <trkpt lat="46.2538642883301" lon="6.94556856155396">
    <ele>445.266662597656</ele>
    <time>2012-04-02T15:09:27Z</time>
   </trkpt>
   <trkpt lat="46.2538909912109" lon="6.94555377960205">
    <ele>445.433349609375</ele>
    <time>2012-04-02T15:09:28Z</time>
   </trkpt>
   <trkpt lat="46.2539215087891" lon="6.94553709030151">
    <ele>445.600006103516</ele>
    <time>2012-04-02T15:09:29Z</time>
   </trkpt>
   <trkpt lat="46.2539825439453" lon="6.94550943374634">
    <ele>445.600006103516</ele>
    <time>2012-04-02T15:09:31Z</time>
   </trkpt>
   <trkpt lat="46.2540702819824" lon="6.94547653198242">
    <ele>446.480010986328</ele>
    <time>2012-04-02T15:09:34Z</time>
   </trkpt>
   <trkpt lat="46.2541007995606" lon="6.94546556472778">
    <ele>446.773345947266</ele>
    <time>2012-04-02T15:09:35Z</time>
   </trkpt>
   <trkpt lat="46.2541275024414" lon="6.94545555114746">
    <ele>447.066680908203</ele>
    <time>2012-04-02T15:09:36Z</time>
   </trkpt>
   <trkpt lat="46.2541542053223" lon="6.94544410705566">
    <ele>447.360015869141</ele>
    <time>2012-04-02T15:09:37Z</time>
   </trkpt>
   <trkpt lat="46.2541809082031" lon="6.94542837142944">
    <ele>447.653350830078</ele>
    <time>2012-04-02T15:09:38Z</time>
   </trkpt>
   <trkpt lat="46.2542915344238" lon="6.94538021087646">
    <ele>448.82666015625</ele>
    <time>2012-04-02T15:09:42Z</time>
   </trkpt>
   <trkpt lat="46.2543182373047" lon="6.94536972045898">
    <ele>449.119995117188</ele>
    <time>2012-04-02T15:09:43Z</time>
   </trkpt>
   <trkpt lat="46.2543449401856" lon="6.94535827636719">
    <ele>449.413330078125</ele>
    <time>2012-04-02T15:09:44Z</time>
   </trkpt>
   <trkpt lat="46.2543716430664" lon="6.94534635543823">
    <ele>449.706665039062</ele>
    <time>2012-04-02T15:09:45Z</time>
   </trkpt>
   <trkpt lat="46.2543983459473" lon="6.94533538818359">
    <ele>450</ele>
    <time>2012-04-02T15:09:46Z</time>
   </trkpt>
   <trkpt lat="46.2545204162598" lon="6.94527578353882">
    <ele>450</ele>
    <time>2012-04-02T15:09:51Z</time>
   </trkpt>
   <trkpt lat="46.2545471191406" lon="6.94525909423828">
    <ele>450.299987792969</ele>
    <time>2012-04-02T15:09:52Z</time>
   </trkpt>
   <trkpt lat="46.254566192627" lon="6.9452395439148">
    <ele>450.600006103516</ele>
    <time>2012-04-02T15:09:53Z</time>
   </trkpt>
   <trkpt lat="46.2545890808106" lon="6.94521760940552">
    <ele>450.899993896484</ele>
    <time>2012-04-02T15:09:54Z</time>
   </trkpt>
   <trkpt lat="46.2546081542969" lon="6.94519662857056">
    <ele>451.200012207031</ele>
    <time>2012-04-02T15:09:55Z</time>
   </trkpt>
   <trkpt lat="46.2546272277832" lon="6.9451732635498">
    <ele>451.5</ele>
    <time>2012-04-02T15:09:56Z</time>
   </trkpt>
   <trkpt lat="46.254711151123" lon="6.94505929946899">
    <ele>453</ele>
    <time>2012-04-02T15:10:01Z</time>
   </trkpt>
   <trkpt lat="46.2547302246094" lon="6.94503545761108">
    <ele>453.300018310547</ele>
    <time>2012-04-02T15:10:02Z</time>
   </trkpt>
   <trkpt lat="46.2547492980957" lon="6.94501209259033">
    <ele>453.600006103516</ele>
    <time>2012-04-02T15:10:03Z</time>
   </trkpt>
   <trkpt lat="46.2547760009766" lon="6.9449987411499">
    <ele>453.900024414062</ele>
    <time>2012-04-02T15:10:04Z</time>
   </trkpt>
   <trkpt lat="46.2547988891602" lon="6.94499349594116">
    <ele>454.200012207031</ele>
    <time>2012-04-02T15:10:05Z</time>
   </trkpt>
   <trkpt lat="46.2548294067383" lon="6.94499492645264">
    <ele>454.200012207031</ele>
    <time>2012-04-02T15:10:07Z</time>
   </trkpt>
   <trkpt lat="46.2548789978027" lon="6.94493007659912">
    <ele>454.661560058594</ele>
    <time>2012-04-02T15:10:10Z</time>
   </trkpt>
   <trkpt lat="46.2548828125" lon="6.94489288330078">
    <ele>454.815399169922</ele>
    <time>2012-04-02T15:10:11Z</time>
   </trkpt>
   <trkpt lat="46.254955291748" lon="6.94476795196533">
    <ele>455.430786132812</ele>
    <time>2012-04-02T15:10:15Z</time>
   </trkpt>
   <trkpt lat="46.2549743652344" lon="6.94474601745606">
    <ele>455.584625244141</ele>
    <time>2012-04-02T15:10:16Z</time>
   </trkpt>
   <trkpt lat="46.2549934387207" lon="6.94472169876099">
    <ele>455.738464355469</ele>
    <time>2012-04-02T15:10:17Z</time>
   </trkpt>
   <trkpt lat="46.255012512207" lon="6.94469690322876">
    <ele>455.892333984375</ele>
    <time>2012-04-02T15:10:18Z</time>
   </trkpt>
   <trkpt lat="46.2550315856934" lon="6.94467067718506">
    <ele>456.046173095703</ele>
    <time>2012-04-02T15:10:19Z</time>
   </trkpt>
   <trkpt lat="46.2550506591797" lon="6.94464778900146">
    <ele>456.200012207031</ele>
    <time>2012-04-02T15:10:20Z</time>
   </trkpt>
   <trkpt lat="46.255069732666" lon="6.94462728500366">
    <ele>456.200012207031</ele>
    <time>2012-04-02T15:10:21Z</time>
   </trkpt>
   <trkpt lat="46.2551116943359" lon="6.94458246231079">
    <ele>456.75</ele>
    <time>2012-04-02T15:10:23Z</time>
   </trkpt>
   <trkpt lat="46.2551536560059" lon="6.94454669952393">
    <ele>457.299987792969</ele>
    <time>2012-04-02T15:10:25Z</time>
   </trkpt>
   <trkpt lat="46.2551727294922" lon="6.94452953338623">
    <ele>457.575012207031</ele>
    <time>2012-04-02T15:10:26Z</time>
   </trkpt>
   <trkpt lat="46.2551918029785" lon="6.94451236724854">
    <ele>457.850006103516</ele>
    <time>2012-04-02T15:10:27Z</time>
   </trkpt>
   <trkpt lat="46.2552108764648" lon="6.94449424743652">
    <ele>458.125</ele>
    <time>2012-04-02T15:10:28Z</time>
   </trkpt>
   <trkpt lat="46.2552299499512" lon="6.94447660446167">
    <ele>458.399993896484</ele>
    <time>2012-04-02T15:10:29Z</time>
   </trkpt>
   <trkpt lat="46.2552680969238" lon="6.94444751739502">
    <ele>458.399993896484</ele>
    <time>2012-04-02T15:10:31Z</time>
   </trkpt>
   <trkpt lat="46.2553787231445" lon="6.94438314437866">
    <ele>459.649993896484</ele>
    <time>2012-04-02T15:10:36Z</time>
   </trkpt>
   <trkpt lat="46.2554016113281" lon="6.9443736076355">
    <ele>459.899993896484</ele>
    <time>2012-04-02T15:10:37Z</time>
   </trkpt>
   <trkpt lat="46.2554206848144" lon="6.94436311721802">
    <ele>460.149993896484</ele>
    <time>2012-04-02T15:10:38Z</time>
   </trkpt>
   <trkpt lat="46.255443572998" lon="6.94435214996338">
    <ele>460.399993896484</ele>
    <time>2012-04-02T15:10:39Z</time>
   </trkpt>
   <trkpt lat="46.2555885314941" lon="6.94431638717651">
    <ele>460.399993896484</ele>
    <time>2012-04-02T15:10:45Z</time>
   </trkpt>
   <trkpt lat="46.255615234375" lon="6.94431304931641">
    <ele>460.799987792969</ele>
    <time>2012-04-02T15:10:46Z</time>
   </trkpt>
   <trkpt lat="46.2556381225586" lon="6.94430589675903">
    <ele>461.199981689453</ele>
    <time>2012-04-02T15:10:47Z</time>
   </trkpt>
   <trkpt lat="46.2556571960449" lon="6.94429683685303">
    <ele>461.600006103516</ele>
    <time>2012-04-02T15:10:48Z</time>
   </trkpt>
   <trkpt lat="46.2556800842285" lon="6.94429016113281">
    <ele>462</ele>
    <time>2012-04-02T15:10:49Z</time>
   </trkpt>
   <trkpt lat="46.2557029724121" lon="6.9442834854126">
    <ele>462.399993896484</ele>
    <time>2012-04-02T15:10:50Z</time>
   </trkpt>
   <trkpt lat="46.2557220458984" lon="6.94427680969238">
    <ele>462.399993896484</ele>
    <time>2012-04-02T15:10:51Z</time>
   </trkpt>
   <trkpt lat="46.2558479309082" lon="6.94416856765747">
    <ele>463.799987792969</ele>
    <time>2012-04-02T15:10:58Z</time>
   </trkpt>
   <trkpt lat="46.2558555603027" lon="6.94414186477661">
    <ele>464</ele>
    <time>2012-04-02T15:10:59Z</time>
   </trkpt>
   <trkpt lat="46.2558631896973" lon="6.94411087036133">
    <ele>464.200012207031</ele>
    <time>2012-04-02T15:11:00Z</time>
   </trkpt>
   <trkpt lat="46.2558670043945" lon="6.94407415390015">
    <ele>464.399993896484</ele>
    <time>2012-04-02T15:11:01Z</time>
   </trkpt>
   <trkpt lat="46.2558670043945" lon="6.94403743743896">
    <ele>464.600006103516</ele>
    <time>2012-04-02T15:11:02Z</time>
   </trkpt>
   <trkpt lat="46.2558670043945" lon="6.94396829605102">
    <ele>464.600006103516</ele>
    <time>2012-04-02T15:11:04Z</time>
   </trkpt>
   <trkpt lat="46.2558097839356" lon="6.94386339187622">
    <ele>465.215393066406</ele>
    <time>2012-04-02T15:11:08Z</time>
   </trkpt>
   <trkpt lat="46.2557525634766" lon="6.94382905960083">
    <ele>465.676940917969</ele>
    <time>2012-04-02T15:11:11Z</time>
   </trkpt>
   <trkpt lat="46.2557067871094" lon="6.94381093978882">
    <ele>465.984619140625</ele>
    <time>2012-04-02T15:11:13Z</time>
   </trkpt>
   <trkpt lat="46.2556419372559" lon="6.94379329681396">
    <ele>466.446166992188</ele>
    <time>2012-04-02T15:11:16Z</time>
   </trkpt>
   <trkpt lat="46.2556228637695" lon="6.94379234313965">
    <ele>466.600006103516</ele>
    <time>2012-04-02T15:11:17Z</time>
   </trkpt>
   <trkpt lat="46.2555961608887" lon="6.94379186630249">
    <ele>466.753845214844</ele>
    <time>2012-04-02T15:11:18Z</time>
   </trkpt>
   <trkpt lat="46.2555694580078" lon="6.94379043579102">
    <ele>466.907684326172</ele>
    <time>2012-04-02T15:11:19Z</time>
   </trkpt>
   <trkpt lat="46.255542755127" lon="6.94378805160522">
    <ele>467.061553955078</ele>
    <time>2012-04-02T15:11:20Z</time>
   </trkpt>
   <trkpt lat="46.2553596496582" lon="6.9437780380249">
    <ele>468.138458251953</ele>
    <time>2012-04-02T15:11:27Z</time>
   </trkpt>
   <trkpt lat="46.2553329467773" lon="6.9437780380249">
    <ele>468.292327880859</ele>
    <time>2012-04-02T15:11:28Z</time>
   </trkpt>
   <trkpt lat="46.2553100585938" lon="6.94377422332764">
    <ele>468.446166992188</ele>
    <time>2012-04-02T15:11:29Z</time>
   </trkpt>
   <trkpt lat="46.2552833557129" lon="6.94377136230469">
    <ele>468.600006103516</ele>
    <time>2012-04-02T15:11:30Z</time>
   </trkpt>
   <trkpt lat="46.2551612854004" lon="6.94376516342163">
    <ele>468.600006103516</ele>
    <time>2012-04-02T15:11:35Z</time>
   </trkpt>
   <trkpt lat="46.2550849914551" lon="6.94376564025879">
    <ele>469.542846679688</ele>
    <time>2012-04-02T15:11:38Z</time>
   </trkpt>
   <trkpt lat="46.2550582885742" lon="6.9437665939331">
    <ele>469.857147216797</ele>
    <time>2012-04-02T15:11:39Z</time>
   </trkpt>
   <trkpt lat="46.2550315856934" lon="6.94376516342163">
    <ele>470.171417236328</ele>
    <time>2012-04-02T15:11:40Z</time>
   </trkpt>
   <trkpt lat="46.2550086975098" lon="6.94376230239868">
    <ele>470.485717773438</ele>
    <time>2012-04-02T15:11:41Z</time>
   </trkpt>
   <trkpt lat="46.2549858093262" lon="6.94376039505005">
    <ele>470.799987792969</ele>
    <time>2012-04-02T15:11:42Z</time>
   </trkpt>
   <trkpt lat="46.254940032959" lon="6.94375896453857">
    <ele>470.799987792969</ele>
    <time>2012-04-02T15:11:44Z</time>
   </trkpt>
   <trkpt lat="46.2548217773438" lon="6.94375944137573">
    <ele>471.849975585938</ele>
    <time>2012-04-02T15:11:49Z</time>
   </trkpt>
   <trkpt lat="46.2547950744629" lon="6.94376039505005">
    <ele>472.059997558594</ele>
    <time>2012-04-02T15:11:50Z</time>
   </trkpt>
   <trkpt lat="46.254768371582" lon="6.94376134872436">
    <ele>472.269989013672</ele>
    <time>2012-04-02T15:11:51Z</time>
   </trkpt>
   <trkpt lat="46.2547416687012" lon="6.94375896453857">
    <ele>472.47998046875</ele>
    <time>2012-04-02T15:11:52Z</time>
   </trkpt>
   <trkpt lat="46.2545547485352" lon="6.94373798370361">
    <ele>474.160003662109</ele>
    <time>2012-04-02T15:12:00Z</time>
   </trkpt>
   <trkpt lat="46.2545318603516" lon="6.94373798370361">
    <ele>474.369995117188</ele>
    <time>2012-04-02T15:12:01Z</time>
   </trkpt>
   <trkpt lat="46.254508972168" lon="6.9437370300293">
    <ele>474.579986572266</ele>
    <time>2012-04-02T15:12:02Z</time>
   </trkpt>
   <trkpt lat="46.2544860839844" lon="6.94373464584351">
    <ele>474.790008544922</ele>
    <time>2012-04-02T15:12:03Z</time>
   </trkpt>
   <trkpt lat="46.2544593811035" lon="6.94373369216919">
    <ele>475</ele>
    <time>2012-04-02T15:12:04Z</time>
   </trkpt>
   <trkpt lat="46.2543449401856" lon="6.94373512268066">
    <ele>475</ele>
    <time>2012-04-02T15:12:09Z</time>
   </trkpt>
   <trkpt lat="46.2542762756348" lon="6.94373512268066">
    <ele>475.94287109375</ele>
    <time>2012-04-02T15:12:12Z</time>
   </trkpt>
   <trkpt lat="46.2542533874512" lon="6.94373464584351">
    <ele>476.257141113281</ele>
    <time>2012-04-02T15:12:13Z</time>
   </trkpt>
   <trkpt lat="46.2542304992676" lon="6.94373369216919">
    <ele>476.571441650391</ele>
    <time>2012-04-02T15:12:14Z</time>
   </trkpt>
   <trkpt lat="46.2542114257812" lon="6.94373083114624">
    <ele>476.885711669922</ele>
    <time>2012-04-02T15:12:15Z</time>
   </trkpt>
   <trkpt lat="46.2541885375977" lon="6.94373035430908">
    <ele>477.200012207031</ele>
    <time>2012-04-02T15:12:16Z</time>
   </trkpt>
   <trkpt lat="46.2540893554688" lon="6.94373559951782">
    <ele>477.200012207031</ele>
    <time>2012-04-02T15:12:20Z</time>
   </trkpt>
   <trkpt lat="46.2540473937988" lon="6.9437313079834">
    <ele>477.866668701172</ele>
    <time>2012-04-02T15:12:22Z</time>
   </trkpt>
   <trkpt lat="46.2540245056152" lon="6.94372892379761">
    <ele>478.200012207031</ele>
    <time>2012-04-02T15:12:23Z</time>
   </trkpt>
   <trkpt lat="46.2540054321289" lon="6.94372606277466">
    <ele>478.533355712891</ele>
    <time>2012-04-02T15:12:24Z</time>
   </trkpt>
   <trkpt lat="46.2539825439453" lon="6.94372510910034">
    <ele>478.866668701172</ele>
    <time>2012-04-02T15:12:25Z</time>
   </trkpt>
   <trkpt lat="46.253963470459" lon="6.94372367858887">
    <ele>479.200012207031</ele>
    <time>2012-04-02T15:12:26Z</time>
   </trkpt>
   <trkpt lat="46.2538452148438" lon="6.94371747970581">
    <ele>479.200012207031</ele>
    <time>2012-04-02T15:12:31Z</time>
   </trkpt>
   <trkpt lat="46.2537956237793" lon="6.94372081756592">
    <ele>479.866668701172</ele>
    <time>2012-04-02T15:12:33Z</time>
   </trkpt>
   <trkpt lat="46.2537727355957" lon="6.94372272491455">
    <ele>480.200012207031</ele>
    <time>2012-04-02T15:12:34Z</time>
   </trkpt>
   <trkpt lat="46.2537498474121" lon="6.94372606277466">
    <ele>480.533355712891</ele>
    <time>2012-04-02T15:12:35Z</time>
   </trkpt>
   <trkpt lat="46.2537307739258" lon="6.94373035430908">
    <ele>480.866668701172</ele>
    <time>2012-04-02T15:12:36Z</time>
   </trkpt>
   <trkpt lat="46.2537078857422" lon="6.94373512268066">
    <ele>481.200012207031</ele>
    <time>2012-04-02T15:12:37Z</time>
   </trkpt>
   <trkpt lat="46.2536392211914" lon="6.94374799728394">
    <ele>481.200012207031</ele>
    <time>2012-04-02T15:12:40Z</time>
   </trkpt>
   <trkpt lat="46.2534713745117" lon="6.94380044937134">
    <ele>482.600006103516</ele>
    <time>2012-04-02T15:12:47Z</time>
   </trkpt>
   <trkpt lat="46.2534484863281" lon="6.94381046295166">
    <ele>482.799987792969</ele>
    <time>2012-04-02T15:12:48Z</time>
   </trkpt>
   <trkpt lat="46.2534217834473" lon="6.94382286071777">
    <ele>483</ele>
    <time>2012-04-02T15:12:49Z</time>
   </trkpt>
   <trkpt lat="46.2533950805664" lon="6.94383430480957">
    <ele>483.199981689453</ele>
    <time>2012-04-02T15:12:50Z</time>
   </trkpt>
   <trkpt lat="46.2533683776856" lon="6.94384336471558">
    <ele>483.399993896484</ele>
    <time>2012-04-02T15:12:51Z</time>
   </trkpt>
   <trkpt lat="46.2532119750977" lon="6.94391679763794">
    <ele>483.399993896484</ele>
    <time>2012-04-02T15:12:57Z</time>
   </trkpt>
   <trkpt lat="46.2530136108398" lon="6.94393587112427">
    <ele>484.333312988281</ele>
    <time>2012-04-02T15:13:04Z</time>
   </trkpt>
   <trkpt lat="46.2529907226562" lon="6.9439001083374">
    <ele>484.466674804688</ele>
    <time>2012-04-02T15:13:05Z</time>
   </trkpt>
   <trkpt lat="46.2529792785644" lon="6.94381713867188">
    <ele>484.733337402344</ele>
    <time>2012-04-02T15:13:07Z</time>
   </trkpt>
   <trkpt lat="46.2529830932617" lon="6.94377660751343">
    <ele>484.866668701172</ele>
    <time>2012-04-02T15:13:08Z</time>
   </trkpt>
   <trkpt lat="46.2529907226562" lon="6.9437403678894">
    <ele>485</ele>
    <time>2012-04-02T15:13:09Z</time>
   </trkpt>
   <trkpt lat="46.2530059814453" lon="6.94370985031128">
    <ele>485.133331298828</ele>
    <time>2012-04-02T15:13:10Z</time>
   </trkpt>
   <trkpt lat="46.2530212402344" lon="6.94368696212768">
    <ele>485.266662597656</ele>
    <time>2012-04-02T15:13:11Z</time>
   </trkpt>
   <trkpt lat="46.2530364990234" lon="6.94366788864136">
    <ele>485.399993896484</ele>
    <time>2012-04-02T15:13:12Z</time>
   </trkpt>
   <trkpt lat="46.253101348877" lon="6.94363498687744">
    <ele>485.399993896484</ele>
    <time>2012-04-02T15:13:15Z</time>
   </trkpt>
   <trkpt lat="46.2531471252441" lon="6.94361734390259">
    <ele>485.971435546875</ele>
    <time>2012-04-02T15:13:17Z</time>
   </trkpt>
   <trkpt lat="46.2531700134277" lon="6.94360542297363">
    <ele>486.257141113281</ele>
    <time>2012-04-02T15:13:18Z</time>
   </trkpt>
   <trkpt lat="46.2531929016113" lon="6.94359445571899">
    <ele>486.542846679688</ele>
    <time>2012-04-02T15:13:19Z</time>
   </trkpt>
   <trkpt lat="46.2532157897949" lon="6.9435863494873">
    <ele>486.828552246094</ele>
    <time>2012-04-02T15:13:20Z</time>
   </trkpt>
   <trkpt lat="46.2532386779785" lon="6.94357681274414">
    <ele>487.114288330078</ele>
    <time>2012-04-02T15:13:21Z</time>
   </trkpt>
   <trkpt lat="46.2532615661621" lon="6.94356393814087">
    <ele>487.399993896484</ele>
    <time>2012-04-02T15:13:22Z</time>
   </trkpt>
   <trkpt lat="46.2533264160156" lon="6.94352722167969">
    <ele>487.399993896484</ele>
    <time>2012-04-02T15:13:25Z</time>
   </trkpt>
   <trkpt lat="46.2534484863281" lon="6.94347333908081">
    <ele>488.774993896484</ele>
    <time>2012-04-02T15:13:30Z</time>
   </trkpt>
   <trkpt lat="46.2534713745117" lon="6.94346332550049">
    <ele>489.049987792969</ele>
    <time>2012-04-02T15:13:31Z</time>
   </trkpt>
   <trkpt lat="46.253490447998" lon="6.94345283508301">
    <ele>489.325012207031</ele>
    <time>2012-04-02T15:13:32Z</time>
   </trkpt>
   <trkpt lat="46.2535095214844" lon="6.9434404373169">
    <ele>489.600006103516</ele>
    <time>2012-04-02T15:13:33Z</time>
   </trkpt>
   <trkpt lat="46.2536506652832" lon="6.94337034225464">
    <ele>489.600006103516</ele>
    <time>2012-04-02T15:13:39Z</time>
   </trkpt>
   <trkpt lat="46.2536964416504" lon="6.94334363937378">
    <ele>490.266662597656</ele>
    <time>2012-04-02T15:13:41Z</time>
   </trkpt>
   <trkpt lat="46.253719329834" lon="6.94333076477051">
    <ele>490.600006103516</ele>
    <time>2012-04-02T15:13:42Z</time>
   </trkpt>
   <trkpt lat="46.2537422180176" lon="6.94332122802734">
    <ele>490.933349609375</ele>
    <time>2012-04-02T15:13:43Z</time>
   </trkpt>
   <trkpt lat="46.2537651062012" lon="6.94331312179565">
    <ele>491.266662597656</ele>
    <time>2012-04-02T15:13:44Z</time>
   </trkpt>
   <trkpt lat="46.2537841796875" lon="6.94330310821533">
    <ele>491.600006103516</ele>
    <time>2012-04-02T15:13:45Z</time>
   </trkpt>
   <trkpt lat="46.2538108825684" lon="6.94329166412354">
    <ele>491.600006103516</ele>
    <time>2012-04-02T15:13:46Z</time>
   </trkpt>
   <trkpt lat="46.2539482116699" lon="6.94322824478149">
    <ele>492.838714599609</ele>
    <time>2012-04-02T15:13:52Z</time>
   </trkpt>
   <trkpt lat="46.2539710998535" lon="6.94321918487549">
    <ele>493.045166015625</ele>
    <time>2012-04-02T15:13:53Z</time>
   </trkpt>
   <trkpt lat="46.2539901733398" lon="6.94320821762085">
    <ele>493.251617431641</ele>
    <time>2012-04-02T15:13:54Z</time>
   </trkpt>
   <trkpt lat="46.2540130615234" lon="6.9431962966919">
    <ele>493.458068847656</ele>
    <time>2012-04-02T15:13:55Z</time>
   </trkpt>
   <trkpt lat="46.2541770935059" lon="6.94312524795532">
    <ele>494.903228759766</ele>
    <time>2012-04-02T15:14:02Z</time>
   </trkpt>
   <trkpt lat="46.2541961669922" lon="6.94311380386352">
    <ele>495.109680175781</ele>
    <time>2012-04-02T15:14:03Z</time>
   </trkpt>
   <trkpt lat="46.2542190551758" lon="6.94310092926025">
    <ele>495.316131591797</ele>
    <time>2012-04-02T15:14:04Z</time>
   </trkpt>
   <trkpt lat="46.2542419433594" lon="6.94308757781982">
    <ele>495.522583007812</ele>
    <time>2012-04-02T15:14:05Z</time>
   </trkpt>
   <trkpt lat="46.2542610168457" lon="6.9430775642395">
    <ele>495.729034423828</ele>
    <time>2012-04-02T15:14:06Z</time>
   </trkpt>
   <trkpt lat="46.2544136047363" lon="6.94300127029419">
    <ele>497.174194335938</ele>
    <time>2012-04-02T15:14:13Z</time>
   </trkpt>
   <trkpt lat="46.2544364929199" lon="6.9429931640625">
    <ele>497.380645751953</ele>
    <time>2012-04-02T15:14:14Z</time>
   </trkpt>
   <trkpt lat="46.2544593811035" lon="6.9429817199707">
    <ele>497.587097167969</ele>
    <time>2012-04-02T15:14:15Z</time>
   </trkpt>
   <trkpt lat="46.2544822692871" lon="6.9429669380188">
    <ele>497.793548583984</ele>
    <time>2012-04-02T15:14:16Z</time>
   </trkpt>
   <trkpt lat="46.2545013427734" lon="6.94295454025268">
    <ele>498</ele>
    <time>2012-04-02T15:14:17Z</time>
   </trkpt>
   <trkpt lat="46.2545585632324" lon="6.94290065765381">
    <ele>498</ele>
    <time>2012-04-02T15:14:20Z</time>
   </trkpt>
   <trkpt lat="46.2546272277832" lon="6.94278192520142">
    <ele>499.100006103516</ele>
    <time>2012-04-02T15:14:24Z</time>
   </trkpt>
   <trkpt lat="46.2546348571777" lon="6.94274282455444">
    <ele>499.375</ele>
    <time>2012-04-02T15:14:25Z</time>
   </trkpt>
   <trkpt lat="46.254638671875" lon="6.94270086288452">
    <ele>499.650024414062</ele>
    <time>2012-04-02T15:14:26Z</time>
   </trkpt>
   <trkpt lat="46.254638671875" lon="6.94266080856323">
    <ele>499.925018310547</ele>
    <time>2012-04-02T15:14:27Z</time>
   </trkpt>
   <trkpt lat="46.2546348571777" lon="6.94262504577637">
    <ele>500.200012207031</ele>
    <time>2012-04-02T15:14:28Z</time>
   </trkpt>
   <trkpt lat="46.2546005249023" lon="6.94251203536987">
    <ele>500.200012207031</ele>
    <time>2012-04-02T15:14:31Z</time>
   </trkpt>
   <trkpt lat="46.2544822692871" lon="6.94243049621582">
    <ele>500.9619140625</ele>
    <time>2012-04-02T15:14:35Z</time>
   </trkpt>
   <trkpt lat="46.2543792724609" lon="6.94245290756226">
    <ele>501.533355712891</ele>
    <time>2012-04-02T15:14:38Z</time>
   </trkpt>
   <trkpt lat="46.2543182373047" lon="6.9424729347229">
    <ele>501.914306640625</ele>
    <time>2012-04-02T15:14:40Z</time>
   </trkpt>
   <trkpt lat="46.2542877197266" lon="6.94248723983765">
    <ele>502.104766845703</ele>
    <time>2012-04-02T15:14:41Z</time>
   </trkpt>
   <trkpt lat="46.2542572021484" lon="6.94249868392944">
    <ele>502.295257568359</ele>
    <time>2012-04-02T15:14:42Z</time>
   </trkpt>
   <trkpt lat="46.2542304992676" lon="6.94251203536987">
    <ele>502.485717773438</ele>
    <time>2012-04-02T15:14:43Z</time>
   </trkpt>
   <trkpt lat="46.2542037963867" lon="6.94252014160156">
    <ele>502.676208496094</ele>
    <time>2012-04-02T15:14:44Z</time>
   </trkpt>
   <trkpt lat="46.2540855407715" lon="6.94256782531738">
    <ele>503.438110351562</ele>
    <time>2012-04-02T15:14:48Z</time>
   </trkpt>
   <trkpt lat="46.2540626525879" lon="6.9425778388977">
    <ele>503.628570556641</ele>
    <time>2012-04-02T15:14:49Z</time>
   </trkpt>
   <trkpt lat="46.254035949707" lon="6.94258689880371">
    <ele>503.819061279297</ele>
    <time>2012-04-02T15:14:50Z</time>
   </trkpt>
   <trkpt lat="46.2540130615234" lon="6.94259738922119">
    <ele>504.009521484375</ele>
    <time>2012-04-02T15:14:51Z</time>
   </trkpt>
   <trkpt lat="46.2539863586426" lon="6.94260883331299">
    <ele>504.200012207031</ele>
    <time>2012-04-02T15:14:52Z</time>
   </trkpt>
   <trkpt lat="46.2538757324219" lon="6.94264364242554">
    <ele>504.200012207031</ele>
    <time>2012-04-02T15:14:56Z</time>
   </trkpt>
   <trkpt lat="46.2538452148438" lon="6.94265079498291">
    <ele>504.600006103516</ele>
    <time>2012-04-02T15:14:57Z</time>
   </trkpt>
   <trkpt lat="46.2538185119629" lon="6.94265794754028">
    <ele>505</ele>
    <time>2012-04-02T15:14:58Z</time>
   </trkpt>
   <trkpt lat="46.253791809082" lon="6.9426646232605">
    <ele>505.400024414062</ele>
    <time>2012-04-02T15:14:59Z</time>
   </trkpt>
   <trkpt lat="46.2537651062012" lon="6.9426703453064">
    <ele>505.800018310547</ele>
    <time>2012-04-02T15:15:00Z</time>
   </trkpt>
   <trkpt lat="46.253734588623" lon="6.9426794052124">
    <ele>506.200012207031</ele>
    <time>2012-04-02T15:15:01Z</time>
   </trkpt>
   <trkpt lat="46.2536773681641" lon="6.94269227981567">
    <ele>506.200012207031</ele>
    <time>2012-04-02T15:15:03Z</time>
   </trkpt>
   <trkpt lat="46.253589630127" lon="6.94269037246704">
    <ele>507.400024414062</ele>
    <time>2012-04-02T15:15:06Z</time>
   </trkpt>
   <trkpt lat="46.2535591125488" lon="6.94268655776978">
    <ele>507.800018310547</ele>
    <time>2012-04-02T15:15:07Z</time>
   </trkpt>
   <trkpt lat="46.2535285949707" lon="6.94268226623535">
    <ele>508.200012207031</ele>
    <time>2012-04-02T15:15:08Z</time>
   </trkpt>
   <trkpt lat="46.2534942626953" lon="6.94268226623535">
    <ele>508.600006103516</ele>
    <time>2012-04-02T15:15:09Z</time>
   </trkpt>
   <trkpt lat="46.2534370422363" lon="6.9426794052124">
    <ele>508.600006103516</ele>
    <time>2012-04-02T15:15:11Z</time>
   </trkpt>
   <trkpt lat="46.2533836364746" lon="6.94266939163208">
    <ele>509.266662597656</ele>
    <time>2012-04-02T15:15:13Z</time>
   </trkpt>
   <trkpt lat="46.2533569335938" lon="6.94266128540039">
    <ele>509.600006103516</ele>
    <time>2012-04-02T15:15:14Z</time>
   </trkpt>
   <trkpt lat="46.2533302307129" lon="6.94265460968018">
    <ele>509.933349609375</ele>
    <time>2012-04-02T15:15:15Z</time>
   </trkpt>
   <trkpt lat="46.2532997131348" lon="6.9426474571228">
    <ele>510.266662597656</ele>
    <time>2012-04-02T15:15:16Z</time>
   </trkpt>
   <trkpt lat="46.2532730102539" lon="6.94263935089111">
    <ele>510.600006103516</ele>
    <time>2012-04-02T15:15:17Z</time>
   </trkpt>
   <trkpt lat="46.253246307373" lon="6.94263172149658">
    <ele>510.600006103516</ele>
    <time>2012-04-02T15:15:18Z</time>
   </trkpt>
   <trkpt lat="46.2532196044922" lon="6.94262361526489">
    <ele>510.885711669922</ele>
    <time>2012-04-02T15:15:19Z</time>
   </trkpt>
   <trkpt lat="46.2531661987305" lon="6.94261074066162">
    <ele>511.457122802734</ele>
    <time>2012-04-02T15:15:21Z</time>
   </trkpt>
   <trkpt lat="46.2531394958496" lon="6.94260311126709">
    <ele>511.742858886719</ele>
    <time>2012-04-02T15:15:22Z</time>
   </trkpt>
   <trkpt lat="46.2531127929688" lon="6.9425950050354">
    <ele>512.028564453125</ele>
    <time>2012-04-02T15:15:23Z</time>
   </trkpt>
   <trkpt lat="46.2530860900879" lon="6.94258880615234">
    <ele>512.314270019531</ele>
    <time>2012-04-02T15:15:24Z</time>
   </trkpt>
   <trkpt lat="46.253059387207" lon="6.94257831573486">
    <ele>512.599975585938</ele>
    <time>2012-04-02T15:15:25Z</time>
   </trkpt>
   <trkpt lat="46.2530097961426" lon="6.9425539970398">
    <ele>512.599975585938</ele>
    <time>2012-04-02T15:15:27Z</time>
   </trkpt>
   <trkpt lat="46.2529411315918" lon="6.94252300262451">
    <ele>513.542846679688</ele>
    <time>2012-04-02T15:15:30Z</time>
   </trkpt>
   <trkpt lat="46.2529144287109" lon="6.94251298904419">
    <ele>513.857116699219</ele>
    <time>2012-04-02T15:15:31Z</time>
   </trkpt>
   <trkpt lat="46.2528915405273" lon="6.94250106811524">
    <ele>514.17138671875</ele>
    <time>2012-04-02T15:15:32Z</time>
   </trkpt>
   <trkpt lat="46.2528686523438" lon="6.94249153137207">
    <ele>514.485717773438</ele>
    <time>2012-04-02T15:15:33Z</time>
   </trkpt>
   <trkpt lat="46.2528457641602" lon="6.94248056411743">
    <ele>514.799987792969</ele>
    <time>2012-04-02T15:15:34Z</time>
   </trkpt>
   <trkpt lat="46.2528228759766" lon="6.94247007369995">
    <ele>514.799987792969</ele>
    <time>2012-04-02T15:15:35Z</time>
   </trkpt>
   <trkpt lat="46.2527465820312" lon="6.9424319267273">
    <ele>515.657104492188</ele>
    <time>2012-04-02T15:15:38Z</time>
   </trkpt>
   <trkpt lat="46.2527236938477" lon="6.94241952896118">
    <ele>515.94287109375</ele>
    <time>2012-04-02T15:15:39Z</time>
   </trkpt>
   <trkpt lat="46.2527046203613" lon="6.94239950180054">
    <ele>516.228576660156</ele>
    <time>2012-04-02T15:15:40Z</time>
   </trkpt>
   <trkpt lat="46.2526817321777" lon="6.94238710403442">
    <ele>516.514282226562</ele>
    <time>2012-04-02T15:15:41Z</time>
   </trkpt>
   <trkpt lat="46.2526588439941" lon="6.94237565994263">
    <ele>516.799987792969</ele>
    <time>2012-04-02T15:15:42Z</time>
   </trkpt>
   <trkpt lat="46.2525863647461" lon="6.9423336982727">
    <ele>516.799987792969</ele>
    <time>2012-04-02T15:15:45Z</time>
   </trkpt>
   <trkpt lat="46.2524871826172" lon="6.94227695465088">
    <ele>517.799987792969</ele>
    <time>2012-04-02T15:15:49Z</time>
   </trkpt>
   <trkpt lat="46.2524642944336" lon="6.9422664642334">
    <ele>518.049987792969</ele>
    <time>2012-04-02T15:15:50Z</time>
   </trkpt>
   <trkpt lat="46.2524452209473" lon="6.94225454330444">
    <ele>518.299987792969</ele>
    <time>2012-04-02T15:15:51Z</time>
   </trkpt>
   <trkpt lat="46.2524223327637" lon="6.94224119186401">
    <ele>518.549987792969</ele>
    <time>2012-04-02T15:15:52Z</time>
   </trkpt>
   <trkpt lat="46.2523994445801" lon="6.9422287940979">
    <ele>518.799987792969</ele>
    <time>2012-04-02T15:15:53Z</time>
   </trkpt>
   <trkpt lat="46.2523765563965" lon="6.94221687316894">
    <ele>518.799987792969</ele>
    <time>2012-04-02T15:15:54Z</time>
   </trkpt>
   <trkpt lat="46.2522888183594" lon="6.94216156005859">
    <ele>519.919982910156</ele>
    <time>2012-04-02T15:15:58Z</time>
   </trkpt>
   <trkpt lat="46.2522659301758" lon="6.94214582443237">
    <ele>520.200012207031</ele>
    <time>2012-04-02T15:15:59Z</time>
   </trkpt>
   <trkpt lat="46.2522430419922" lon="6.94212865829468">
    <ele>520.47998046875</ele>
    <time>2012-04-02T15:16:00Z</time>
   </trkpt>
   <trkpt lat="46.2522201538086" lon="6.94211483001709">
    <ele>520.760009765625</ele>
    <time>2012-04-02T15:16:01Z</time>
   </trkpt>
   <trkpt lat="46.252197265625" lon="6.94210290908814">
    <ele>521.039978027344</ele>
    <time>2012-04-02T15:16:02Z</time>
   </trkpt>
   <trkpt lat="46.2521324157715" lon="6.94206714630127">
    <ele>521.880004882812</ele>
    <time>2012-04-02T15:16:05Z</time>
   </trkpt>
   <trkpt lat="46.2521057128906" lon="6.94205570220947">
    <ele>522.159973144531</ele>
    <time>2012-04-02T15:16:06Z</time>
   </trkpt>
   <trkpt lat="46.252082824707" lon="6.94204378128052">
    <ele>522.440002441406</ele>
    <time>2012-04-02T15:16:07Z</time>
   </trkpt>
   <trkpt lat="46.2520599365234" lon="6.94203186035156">
    <ele>522.719970703125</ele>
    <time>2012-04-02T15:16:08Z</time>
   </trkpt>
   <trkpt lat="46.2520370483398" lon="6.94201993942261">
    <ele>523</ele>
    <time>2012-04-02T15:16:09Z</time>
   </trkpt>
   <trkpt lat="46.2520179748535" lon="6.94200706481934">
    <ele>523</ele>
    <time>2012-04-02T15:16:10Z</time>
   </trkpt>
   <trkpt lat="46.2519111633301" lon="6.94196033477783">
    <ele>524.235290527344</ele>
    <time>2012-04-02T15:16:15Z</time>
   </trkpt>
   <trkpt lat="46.2518882751465" lon="6.94194746017456">
    <ele>524.482360839844</ele>
    <time>2012-04-02T15:16:16Z</time>
   </trkpt>
   <trkpt lat="46.2518653869629" lon="6.94194078445435">
    <ele>524.729431152344</ele>
    <time>2012-04-02T15:16:17Z</time>
   </trkpt>
   <trkpt lat="46.251838684082" lon="6.94193267822266">
    <ele>524.976501464844</ele>
    <time>2012-04-02T15:16:18Z</time>
   </trkpt>
   <trkpt lat="46.2518157958984" lon="6.94192457199097">
    <ele>525.223510742188</ele>
    <time>2012-04-02T15:16:19Z</time>
   </trkpt>
   <trkpt lat="46.2517280578613" lon="6.94189310073852">
    <ele>526.211791992188</ele>
    <time>2012-04-02T15:16:23Z</time>
   </trkpt>
   <trkpt lat="46.2517051696777" lon="6.94188547134399">
    <ele>526.458862304688</ele>
    <time>2012-04-02T15:16:24Z</time>
   </trkpt>
   <trkpt lat="46.2516784667969" lon="6.94187879562378">
    <ele>526.705871582031</ele>
    <time>2012-04-02T15:16:25Z</time>
   </trkpt>
   <trkpt lat="46.2516593933106" lon="6.94187021255493">
    <ele>526.952941894531</ele>
    <time>2012-04-02T15:16:26Z</time>
   </trkpt>
   <trkpt lat="46.251636505127" lon="6.94185638427734">
    <ele>527.200012207031</ele>
    <time>2012-04-02T15:16:27Z</time>
   </trkpt>
   <trkpt lat="46.2515716552734" lon="6.94182348251343">
    <ele>527.200012207031</ele>
    <time>2012-04-02T15:16:30Z</time>
   </trkpt>
   <trkpt lat="46.2514762878418" lon="6.94178104400635">
    <ele>528.200012207031</ele>
    <time>2012-04-02T15:16:34Z</time>
   </trkpt>
   <trkpt lat="46.2514533996582" lon="6.94177293777466">
    <ele>528.450012207031</ele>
    <time>2012-04-02T15:16:35Z</time>
   </trkpt>
   <trkpt lat="46.2514305114746" lon="6.94176340103149">
    <ele>528.700012207031</ele>
    <time>2012-04-02T15:16:36Z</time>
   </trkpt>
   <trkpt lat="46.251407623291" lon="6.94175481796265">
    <ele>528.950012207031</ele>
    <time>2012-04-02T15:16:37Z</time>
   </trkpt>
   <trkpt lat="46.2513847351074" lon="6.94174575805664">
    <ele>529.200012207031</ele>
    <time>2012-04-02T15:16:38Z</time>
   </trkpt>
   <trkpt lat="46.251293182373" lon="6.94170999526978">
    <ele>529.200012207031</ele>
    <time>2012-04-02T15:16:42Z</time>
   </trkpt>
   <trkpt lat="46.251220703125" lon="6.94167804718018">
    <ele>530.300048828125</ele>
    <time>2012-04-02T15:16:45Z</time>
   </trkpt>
   <trkpt lat="46.2511940002441" lon="6.94166660308838">
    <ele>530.666687011719</ele>
    <time>2012-04-02T15:16:46Z</time>
   </trkpt>
   <trkpt lat="46.2511672973633" lon="6.94165658950806">
    <ele>531.033325195312</ele>
    <time>2012-04-02T15:16:47Z</time>
   </trkpt>
   <trkpt lat="46.2511444091797" lon="6.94164848327637">
    <ele>531.400024414062</ele>
    <time>2012-04-02T15:16:48Z</time>
   </trkpt>
   <trkpt lat="46.2511215209961" lon="6.94164037704468">
    <ele>531.400024414062</ele>
    <time>2012-04-02T15:16:49Z</time>
   </trkpt>
   <trkpt lat="46.2510986328125" lon="6.94162893295288">
    <ele>531.633361816406</ele>
    <time>2012-04-02T15:16:50Z</time>
   </trkpt>
   <trkpt lat="46.2510375976562" lon="6.9415864944458">
    <ele>532.333374023438</ele>
    <time>2012-04-02T15:16:53Z</time>
   </trkpt>
   <trkpt lat="46.2510147094727" lon="6.94156885147095">
    <ele>532.566711425781</ele>
    <time>2012-04-02T15:16:54Z</time>
   </trkpt>
   <trkpt lat="46.2509956359863" lon="6.9415488243103">
    <ele>532.800048828125</ele>
    <time>2012-04-02T15:16:55Z</time>
   </trkpt>
   <trkpt lat="46.2509727478027" lon="6.94153165817261">
    <ele>533.033325195312</ele>
    <time>2012-04-02T15:16:56Z</time>
   </trkpt>
   <trkpt lat="46.2509498596191" lon="6.94151592254639">
    <ele>533.266662597656</ele>
    <time>2012-04-02T15:16:57Z</time>
   </trkpt>
   <trkpt lat="46.2508316040039" lon="6.94141292572022">
    <ele>534.666687011719</ele>
    <time>2012-04-02T15:17:03Z</time>
   </trkpt>
   <trkpt lat="46.2508087158203" lon="6.94139432907104">
    <ele>534.900024414062</ele>
    <time>2012-04-02T15:17:04Z</time>
   </trkpt>
   <trkpt lat="46.250789642334" lon="6.94137716293335">
    <ele>535.133361816406</ele>
    <time>2012-04-02T15:17:05Z</time>
   </trkpt>
   <trkpt lat="46.2507705688477" lon="6.9413595199585">
    <ele>535.36669921875</ele>
    <time>2012-04-02T15:17:06Z</time>
   </trkpt>
   <trkpt lat="46.2507514953613" lon="6.94133806228638">
    <ele>535.599975585938</ele>
    <time>2012-04-02T15:17:07Z</time>
   </trkpt>
   <trkpt lat="46.2506675720215" lon="6.94123649597168">
    <ele>536.766662597656</ele>
    <time>2012-04-02T15:17:12Z</time>
   </trkpt>
   <trkpt lat="46.2506523132324" lon="6.94121885299683">
    <ele>537</ele>
    <time>2012-04-02T15:17:13Z</time>
   </trkpt>
   <trkpt lat="46.2506370544434" lon="6.9411997795105">
    <ele>537.233337402344</ele>
    <time>2012-04-02T15:17:14Z</time>
   </trkpt>
   <trkpt lat="46.2506256103516" lon="6.94118213653564">
    <ele>537.466674804688</ele>
    <time>2012-04-02T15:17:15Z</time>
   </trkpt>
   <trkpt lat="46.2506103515625" lon="6.94116640090942">
    <ele>537.700012207031</ele>
    <time>2012-04-02T15:17:16Z</time>
   </trkpt>
   <trkpt lat="46.2505302429199" lon="6.94107723236084">
    <ele>538.866638183594</ele>
    <time>2012-04-02T15:17:21Z</time>
   </trkpt>
   <trkpt lat="46.2505111694336" lon="6.94105100631714">
    <ele>539.099975585938</ele>
    <time>2012-04-02T15:17:22Z</time>
   </trkpt>
   <trkpt lat="46.2504920959473" lon="6.94103193283081">
    <ele>539.333312988281</ele>
    <time>2012-04-02T15:17:23Z</time>
   </trkpt>
   <trkpt lat="46.2504730224609" lon="6.94101190567017">
    <ele>539.566650390625</ele>
    <time>2012-04-02T15:17:24Z</time>
   </trkpt>
   <trkpt lat="46.2504539489746" lon="6.9409875869751">
    <ele>539.799987792969</ele>
    <time>2012-04-02T15:17:25Z</time>
   </trkpt>
   <trkpt lat="46.2503967285156" lon="6.94090509414673">
    <ele>539.799987792969</ele>
    <time>2012-04-02T15:17:28Z</time>
   </trkpt>
   <trkpt lat="46.2503776550293" lon="6.94088077545166">
    <ele>540.085693359375</ele>
    <time>2012-04-02T15:17:29Z</time>
   </trkpt>
   <trkpt lat="46.2503623962402" lon="6.94085645675659">
    <ele>540.371398925781</ele>
    <time>2012-04-02T15:17:30Z</time>
   </trkpt>
   <trkpt lat="46.2503433227539" lon="6.94082689285278">
    <ele>540.657104492188</ele>
    <time>2012-04-02T15:17:31Z</time>
   </trkpt>
   <trkpt lat="46.2503242492676" lon="6.94080400466919">
    <ele>540.94287109375</ele>
    <time>2012-04-02T15:17:32Z</time>
   </trkpt>
   <trkpt lat="46.2503051757812" lon="6.94078207015991">
    <ele>541.228576660156</ele>
    <time>2012-04-02T15:17:33Z</time>
   </trkpt>
   <trkpt lat="46.2502250671387" lon="6.94067478179932">
    <ele>542.657104492188</ele>
    <time>2012-04-02T15:17:38Z</time>
   </trkpt>
   <trkpt lat="46.2502021789551" lon="6.94065284729004">
    <ele>542.94287109375</ele>
    <time>2012-04-02T15:17:39Z</time>
   </trkpt>
   <trkpt lat="46.2501831054688" lon="6.9406328201294">
    <ele>543.228576660156</ele>
    <time>2012-04-02T15:17:40Z</time>
   </trkpt>
   <trkpt lat="46.2501678466797" lon="6.94061136245728">
    <ele>543.514282226562</ele>
    <time>2012-04-02T15:17:41Z</time>
   </trkpt>
   <trkpt lat="46.2501525878906" lon="6.94059228897095">
    <ele>543.799987792969</ele>
    <time>2012-04-02T15:17:42Z</time>
   </trkpt>
   <trkpt lat="46.2500953674316" lon="6.9405312538147">
    <ele>543.799987792969</ele>
    <time>2012-04-02T15:17:45Z</time>
   </trkpt>
   <trkpt lat="46.2500610351562" lon="6.9404993057251">
    <ele>544.533325195312</ele>
    <time>2012-04-02T15:17:47Z</time>
   </trkpt>
   <trkpt lat="46.2500457763672" lon="6.94048166275024">
    <ele>544.900024414062</ele>
    <time>2012-04-02T15:17:48Z</time>
   </trkpt>
   <trkpt lat="46.2500267028809" lon="6.94046354293823">
    <ele>545.266662597656</ele>
    <time>2012-04-02T15:17:49Z</time>
   </trkpt>
   <trkpt lat="46.2500076293945" lon="6.94044542312622">
    <ele>545.63330078125</ele>
    <time>2012-04-02T15:17:50Z</time>
   </trkpt>
   <trkpt lat="46.2499885559082" lon="6.94042634963989">
    <ele>546</ele>
    <time>2012-04-02T15:17:51Z</time>
   </trkpt>
   <trkpt lat="46.2499656677246" lon="6.94040584564209">
    <ele>546</ele>
    <time>2012-04-02T15:17:52Z</time>
   </trkpt>
   <trkpt lat="46.2498435974121" lon="6.94029569625854">
    <ele>547.389465332031</ele>
    <time>2012-04-02T15:17:58Z</time>
   </trkpt>
   <trkpt lat="46.2498245239258" lon="6.9402756690979">
    <ele>547.621032714844</ele>
    <time>2012-04-02T15:17:59Z</time>
   </trkpt>
   <trkpt lat="46.2498092651367" lon="6.9402585029602">
    <ele>547.852661132812</ele>
    <time>2012-04-02T15:18:00Z</time>
   </trkpt>
   <trkpt lat="46.2497901916504" lon="6.94024181365967">
    <ele>548.084228515625</ele>
    <time>2012-04-02T15:18:01Z</time>
   </trkpt>
   <trkpt lat="46.2496643066406" lon="6.94012022018433">
    <ele>549.473693847656</ele>
    <time>2012-04-02T15:18:07Z</time>
   </trkpt>
   <trkpt lat="46.2496452331543" lon="6.94009685516357">
    <ele>549.705261230469</ele>
    <time>2012-04-02T15:18:08Z</time>
   </trkpt>
   <trkpt lat="46.2496223449707" lon="6.94007539749146">
    <ele>549.936889648438</ele>
    <time>2012-04-02T15:18:09Z</time>
   </trkpt>
   <trkpt lat="46.2495994567871" lon="6.94005393981934">
    <ele>550.16845703125</ele>
    <time>2012-04-02T15:18:10Z</time>
   </trkpt>
   <trkpt lat="46.2495803833008" lon="6.94003295898438">
    <ele>550.400024414062</ele>
    <time>2012-04-02T15:18:11Z</time>
   </trkpt>
   <trkpt lat="46.2495040893555" lon="6.93993806838989">
    <ele>550.400024414062</ele>
    <time>2012-04-02T15:18:15Z</time>
   </trkpt>
   <trkpt lat="46.2494697570801" lon="6.93989372253418">
    <ele>551.066711425781</ele>
    <time>2012-04-02T15:18:17Z</time>
   </trkpt>
   <trkpt lat="46.2494506835938" lon="6.93987417221069">
    <ele>551.400024414062</ele>
    <time>2012-04-02T15:18:18Z</time>
   </trkpt>
   <trkpt lat="46.2494354248047" lon="6.93985223770142">
    <ele>551.733337402344</ele>
    <time>2012-04-02T15:18:19Z</time>
   </trkpt>
   <trkpt lat="46.2494201660156" lon="6.93983173370361">
    <ele>552.066711425781</ele>
    <time>2012-04-02T15:18:20Z</time>
   </trkpt>
   <trkpt lat="46.2494049072266" lon="6.93980932235718">
    <ele>552.400024414062</ele>
    <time>2012-04-02T15:18:21Z</time>
   </trkpt>
   <trkpt lat="46.2493705749512" lon="6.93976020812988">
    <ele>552.400024414062</ele>
    <time>2012-04-02T15:18:23Z</time>
   </trkpt>
   <trkpt lat="46.2493286132812" lon="6.93967962265015">
    <ele>553.400024414062</ele>
    <time>2012-04-02T15:18:26Z</time>
   </trkpt>
   <trkpt lat="46.2493133544922" lon="6.9396481513977">
    <ele>553.733337402344</ele>
    <time>2012-04-02T15:18:27Z</time>
   </trkpt>
   <trkpt lat="46.2492980957031" lon="6.93961954116821">
    <ele>554.066711425781</ele>
    <time>2012-04-02T15:18:28Z</time>
   </trkpt>
   <trkpt lat="46.2492828369141" lon="6.93959093093872">
    <ele>554.400024414062</ele>
    <time>2012-04-02T15:18:29Z</time>
   </trkpt>
   <trkpt lat="46.2492561340332" lon="6.93953943252564">
    <ele>554.400024414062</ele>
    <time>2012-04-02T15:18:31Z</time>
   </trkpt>
   <trkpt lat="46.2492027282715" lon="6.93943023681641">
    <ele>555.407409667969</ele>
    <time>2012-04-02T15:18:35Z</time>
   </trkpt>
   <trkpt lat="46.2491912841797" lon="6.93940019607544">
    <ele>555.659301757812</ele>
    <time>2012-04-02T15:18:36Z</time>
   </trkpt>
   <trkpt lat="46.2491798400879" lon="6.93937063217163">
    <ele>555.9111328125</ele>
    <time>2012-04-02T15:18:37Z</time>
   </trkpt>
   <trkpt lat="46.2491683959961" lon="6.93934202194214">
    <ele>556.162963867188</ele>
    <time>2012-04-02T15:18:38Z</time>
   </trkpt>
   <trkpt lat="46.249153137207" lon="6.93931198120117">
    <ele>556.414855957031</ele>
    <time>2012-04-02T15:18:39Z</time>
   </trkpt>
   <trkpt lat="46.2490844726562" lon="6.93912744522095">
    <ele>557.925964355469</ele>
    <time>2012-04-02T15:18:45Z</time>
   </trkpt>
   <trkpt lat="46.2490730285644" lon="6.93909740447998">
    <ele>558.177795410156</ele>
    <time>2012-04-02T15:18:46Z</time>
   </trkpt>
   <trkpt lat="46.2490615844727" lon="6.93906497955322">
    <ele>558.429626464844</ele>
    <time>2012-04-02T15:18:47Z</time>
   </trkpt>
   <trkpt lat="46.2490539550781" lon="6.93903350830078">
    <ele>558.681518554688</ele>
    <time>2012-04-02T15:18:48Z</time>
   </trkpt>
   <trkpt lat="46.2490425109863" lon="6.9390025138855">
    <ele>558.933349609375</ele>
    <time>2012-04-02T15:18:49Z</time>
   </trkpt>
   <trkpt lat="46.2489814758301" lon="6.93885278701782">
    <ele>560.192626953125</ele>
    <time>2012-04-02T15:18:54Z</time>
   </trkpt>
   <trkpt lat="46.248966217041" lon="6.93882751464844">
    <ele>560.444458007812</ele>
    <time>2012-04-02T15:18:55Z</time>
   </trkpt>
   <trkpt lat="46.2489547729492" lon="6.9387993812561">
    <ele>560.6962890625</ele>
    <time>2012-04-02T15:18:56Z</time>
   </trkpt>
   <trkpt lat="46.2489433288574" lon="6.93877553939819">
    <ele>560.948181152344</ele>
    <time>2012-04-02T15:18:57Z</time>
   </trkpt>
   <trkpt lat="46.2489280700684" lon="6.9387469291687">
    <ele>561.200012207031</ele>
    <time>2012-04-02T15:18:58Z</time>
   </trkpt>
   <trkpt lat="46.2488708496094" lon="6.93864822387695">
    <ele>561.200012207031</ele>
    <time>2012-04-02T15:19:02Z</time>
   </trkpt>
   <trkpt lat="46.248851776123" lon="6.93862199783325">
    <ele>561.600036621094</ele>
    <time>2012-04-02T15:19:03Z</time>
   </trkpt>
   <trkpt lat="46.248836517334" lon="6.93859767913818">
    <ele>562</ele>
    <time>2012-04-02T15:19:04Z</time>
   </trkpt>
   <trkpt lat="46.2488174438477" lon="6.93857288360596">
    <ele>562.400024414062</ele>
    <time>2012-04-02T15:19:05Z</time>
   </trkpt>
   <trkpt lat="46.2487983703613" lon="6.93855237960815">
    <ele>562.799987792969</ele>
    <time>2012-04-02T15:19:06Z</time>
   </trkpt>
   <trkpt lat="46.248779296875" lon="6.93853282928467">
    <ele>563.200012207031</ele>
    <time>2012-04-02T15:19:07Z</time>
   </trkpt>
   <trkpt lat="46.2487373352051" lon="6.93849563598633">
    <ele>563.200012207031</ele>
    <time>2012-04-02T15:19:09Z</time>
   </trkpt>
   <trkpt lat="46.2486572265625" lon="6.93842554092407">
    <ele>564.053344726562</ele>
    <time>2012-04-02T15:19:13Z</time>
   </trkpt>
   <trkpt lat="46.2486343383789" lon="6.93840837478638">
    <ele>564.266662597656</ele>
    <time>2012-04-02T15:19:14Z</time>
   </trkpt>
   <trkpt lat="46.248607635498" lon="6.93839263916016">
    <ele>564.47998046875</ele>
    <time>2012-04-02T15:19:15Z</time>
   </trkpt>
   <trkpt lat="46.2485847473144" lon="6.93838214874268">
    <ele>564.693359375</ele>
    <time>2012-04-02T15:19:16Z</time>
   </trkpt>
   <trkpt lat="46.2484169006348" lon="6.93835115432739">
    <ele>566.186645507812</ele>
    <time>2012-04-02T15:19:23Z</time>
   </trkpt>
   <trkpt lat="46.2483940124512" lon="6.93835163116455">
    <ele>566.400024414062</ele>
    <time>2012-04-02T15:19:24Z</time>
   </trkpt>
   <trkpt lat="46.2483673095703" lon="6.93835258483887">
    <ele>566.613342285156</ele>
    <time>2012-04-02T15:19:25Z</time>
   </trkpt>
   <trkpt lat="46.2483444213867" lon="6.93835401535034">
    <ele>566.82666015625</ele>
    <time>2012-04-02T15:19:26Z</time>
   </trkpt>
   <trkpt lat="46.2483215332031" lon="6.93835496902466">
    <ele>567.039978027344</ele>
    <time>2012-04-02T15:19:27Z</time>
   </trkpt>
   <trkpt lat="46.2481346130371" lon="6.93835878372192">
    <ele>568.746643066406</ele>
    <time>2012-04-02T15:19:35Z</time>
   </trkpt>
   <trkpt lat="46.2481117248535" lon="6.93835830688476">
    <ele>568.9599609375</ele>
    <time>2012-04-02T15:19:36Z</time>
   </trkpt>
   <trkpt lat="46.2480888366699" lon="6.93835496902466">
    <ele>569.17333984375</ele>
    <time>2012-04-02T15:19:37Z</time>
   </trkpt>
   <trkpt lat="46.2480659484863" lon="6.93835306167602">
    <ele>569.386657714844</ele>
    <time>2012-04-02T15:19:38Z</time>
   </trkpt>
   <trkpt lat="46.2480430603027" lon="6.93835115432739">
    <ele>569.599975585938</ele>
    <time>2012-04-02T15:19:39Z</time>
   </trkpt>
   <trkpt lat="46.247917175293" lon="6.93835020065308">
    <ele>569.599975585938</ele>
    <time>2012-04-02T15:19:44Z</time>
   </trkpt>
   <trkpt lat="46.2478942871094" lon="6.93834686279297">
    <ele>570</ele>
    <time>2012-04-02T15:19:45Z</time>
   </trkpt>
   <trkpt lat="46.2478675842285" lon="6.9383397102356">
    <ele>570.399963378906</ele>
    <time>2012-04-02T15:19:46Z</time>
   </trkpt>
   <trkpt lat="46.2478446960449" lon="6.93833303451538">
    <ele>570.799987792969</ele>
    <time>2012-04-02T15:19:47Z</time>
   </trkpt>
   <trkpt lat="46.2478218078613" lon="6.93832874298096">
    <ele>571.199951171875</ele>
    <time>2012-04-02T15:19:48Z</time>
   </trkpt>
   <trkpt lat="46.2477989196777" lon="6.93831443786621">
    <ele>571.599975585938</ele>
    <time>2012-04-02T15:19:49Z</time>
   </trkpt>
   <trkpt lat="46.2477760314941" lon="6.93830490112305">
    <ele>571.599975585938</ele>
    <time>2012-04-02T15:19:50Z</time>
   </trkpt>
   <trkpt lat="46.247688293457" lon="6.93825435638428">
    <ele>572.577758789062</ele>
    <time>2012-04-02T15:19:54Z</time>
   </trkpt>
   <trkpt lat="46.2476654052734" lon="6.93823766708374">
    <ele>572.822204589844</ele>
    <time>2012-04-02T15:19:55Z</time>
   </trkpt>
   <trkpt lat="46.2476463317871" lon="6.9382152557373">
    <ele>573.066650390625</ele>
    <time>2012-04-02T15:19:56Z</time>
   </trkpt>
   <trkpt lat="46.2476272583008" lon="6.93819952011108">
    <ele>573.311096191406</ele>
    <time>2012-04-02T15:19:57Z</time>
   </trkpt>
   <trkpt lat="46.2476081848144" lon="6.93818092346191">
    <ele>573.555541992188</ele>
    <time>2012-04-02T15:19:58Z</time>
   </trkpt>
   <trkpt lat="46.2475929260254" lon="6.93815898895264">
    <ele>573.799987792969</ele>
    <time>2012-04-02T15:19:59Z</time>
   </trkpt>
   <trkpt lat="46.2475051879883" lon="6.93805646896362">
    <ele>573.799987792969</ele>
    <time>2012-04-02T15:20:04Z</time>
   </trkpt>
   <trkpt lat="46.2474899291992" lon="6.93803119659424">
    <ele>574.239990234375</ele>
    <time>2012-04-02T15:20:05Z</time>
   </trkpt>
   <trkpt lat="46.2474784851074" lon="6.93800783157349">
    <ele>574.679992675781</ele>
    <time>2012-04-02T15:20:06Z</time>
   </trkpt>
   <trkpt lat="46.2474632263184" lon="6.93798303604126">
    <ele>575.119995117188</ele>
    <time>2012-04-02T15:20:07Z</time>
   </trkpt>
   <trkpt lat="46.2474479675293" lon="6.93795776367188">
    <ele>575.559997558594</ele>
    <time>2012-04-02T15:20:08Z</time>
   </trkpt>
   <trkpt lat="46.2474327087402" lon="6.93792724609375">
    <ele>576</ele>
    <time>2012-04-02T15:20:09Z</time>
   </trkpt>
   <trkpt lat="46.2474021911621" lon="6.93786859512329">
    <ele>576</ele>
    <time>2012-04-02T15:20:11Z</time>
   </trkpt>
   <trkpt lat="46.2473754882812" lon="6.93781518936157">
    <ele>576.666687011719</ele>
    <time>2012-04-02T15:20:13Z</time>
   </trkpt>
   <trkpt lat="46.2473602294922" lon="6.93779182434082">
    <ele>577</ele>
    <time>2012-04-02T15:20:14Z</time>
   </trkpt>
   <trkpt lat="46.2473487854004" lon="6.93776607513428">
    <ele>577.333312988281</ele>
    <time>2012-04-02T15:20:15Z</time>
   </trkpt>
   <trkpt lat="46.2473335266113" lon="6.93773698806763">
    <ele>577.666687011719</ele>
    <time>2012-04-02T15:20:16Z</time>
   </trkpt>
   <trkpt lat="46.2473220825195" lon="6.93770408630371">
    <ele>578</ele>
    <time>2012-04-02T15:20:17Z</time>
   </trkpt>
   <trkpt lat="46.2472953796387" lon="6.93763303756714">
    <ele>578</ele>
    <time>2012-04-02T15:20:19Z</time>
   </trkpt>
   <trkpt lat="46.2472686767578" lon="6.93755865097046">
    <ele>578.615356445312</ele>
    <time>2012-04-02T15:20:21Z</time>
   </trkpt>
   <trkpt lat="46.247257232666" lon="6.93752241134644">
    <ele>578.923095703125</ele>
    <time>2012-04-02T15:20:22Z</time>
   </trkpt>
   <trkpt lat="46.2472457885742" lon="6.93748569488525">
    <ele>579.230773925781</ele>
    <time>2012-04-02T15:20:23Z</time>
   </trkpt>
   <trkpt lat="46.2472381591797" lon="6.93745517730713">
    <ele>579.538452148438</ele>
    <time>2012-04-02T15:20:24Z</time>
   </trkpt>
   <trkpt lat="46.2472267150879" lon="6.937424659729">
    <ele>579.846130371094</ele>
    <time>2012-04-02T15:20:25Z</time>
   </trkpt>
   <trkpt lat="46.2471771240234" lon="6.93729972839356">
    <ele>581.076904296875</ele>
    <time>2012-04-02T15:20:29Z</time>
   </trkpt>
   <trkpt lat="46.2471656799316" lon="6.93726682662964">
    <ele>581.384643554688</ele>
    <time>2012-04-02T15:20:30Z</time>
   </trkpt>
   <trkpt lat="46.2471542358398" lon="6.93723106384277">
    <ele>581.692321777344</ele>
    <time>2012-04-02T15:20:31Z</time>
   </trkpt>
   <trkpt lat="46.2471504211426" lon="6.9371976852417">
    <ele>582</ele>
    <time>2012-04-02T15:20:32Z</time>
   </trkpt>
   <trkpt lat="46.2471046447754" lon="6.93707942962646">
    <ele>582</ele>
    <time>2012-04-02T15:20:36Z</time>
   </trkpt>
   <trkpt lat="46.2470817565918" lon="6.93702507019043">
    <ele>582.733337402344</ele>
    <time>2012-04-02T15:20:38Z</time>
   </trkpt>
   <trkpt lat="46.2470703125" lon="6.93699598312378">
    <ele>583.099975585938</ele>
    <time>2012-04-02T15:20:39Z</time>
   </trkpt>
   <trkpt lat="46.2470588684082" lon="6.93696784973144">
    <ele>583.466674804688</ele>
    <time>2012-04-02T15:20:40Z</time>
   </trkpt>
   <trkpt lat="46.2470474243164" lon="6.93693923950195">
    <ele>583.833374023438</ele>
    <time>2012-04-02T15:20:41Z</time>
   </trkpt>
   <trkpt lat="46.2470359802246" lon="6.93690872192383">
    <ele>584.200012207031</ele>
    <time>2012-04-02T15:20:42Z</time>
   </trkpt>
   <trkpt lat="46.2470054626465" lon="6.93681192398071">
    <ele>584.200012207031</ele>
    <time>2012-04-02T15:20:45Z</time>
   </trkpt>
   <trkpt lat="46.2469635009766" lon="6.93672609329224">
    <ele>585.05712890625</ele>
    <time>2012-04-02T15:20:48Z</time>
   </trkpt>
   <trkpt lat="46.2469520568848" lon="6.93669891357422">
    <ele>585.342895507812</ele>
    <time>2012-04-02T15:20:49Z</time>
   </trkpt>
   <trkpt lat="46.2469367980957" lon="6.93666934967041">
    <ele>585.628601074219</ele>
    <time>2012-04-02T15:20:50Z</time>
   </trkpt>
   <trkpt lat="46.2469253540039" lon="6.93663692474365">
    <ele>585.914306640625</ele>
    <time>2012-04-02T15:20:51Z</time>
   </trkpt>
   <trkpt lat="46.2469139099121" lon="6.93660831451416">
    <ele>586.200012207031</ele>
    <time>2012-04-02T15:20:52Z</time>
   </trkpt>
   <trkpt lat="46.246883392334" lon="6.93655252456665">
    <ele>586.200012207031</ele>
    <time>2012-04-02T15:20:54Z</time>
   </trkpt>
   <trkpt lat="46.2468681335449" lon="6.93652534484863">
    <ele>586.640014648438</ele>
    <time>2012-04-02T15:20:55Z</time>
   </trkpt>
   <trkpt lat="46.2468490600586" lon="6.93649864196777">
    <ele>587.080017089844</ele>
    <time>2012-04-02T15:20:56Z</time>
   </trkpt>
   <trkpt lat="46.2468376159668" lon="6.93647146224976">
    <ele>587.52001953125</ele>
    <time>2012-04-02T15:20:57Z</time>
   </trkpt>
   <trkpt lat="46.2468223571777" lon="6.93644857406616">
    <ele>587.960021972656</ele>
    <time>2012-04-02T15:20:58Z</time>
   </trkpt>
   <trkpt lat="46.2468070983887" lon="6.9364218711853">
    <ele>588.400024414062</ele>
    <time>2012-04-02T15:20:59Z</time>
   </trkpt>
   <trkpt lat="46.2467727661133" lon="6.93637037277222">
    <ele>588.400024414062</ele>
    <time>2012-04-02T15:21:01Z</time>
   </trkpt>
   <trkpt lat="46.246711730957" lon="6.93627166748047">
    <ele>589.288940429688</ele>
    <time>2012-04-02T15:21:05Z</time>
   </trkpt>
   <trkpt lat="46.246696472168" lon="6.93624877929688">
    <ele>589.511108398438</ele>
    <time>2012-04-02T15:21:06Z</time>
   </trkpt>
   <trkpt lat="46.2466773986816" lon="6.93622732162476">
    <ele>589.733337402344</ele>
    <time>2012-04-02T15:21:07Z</time>
   </trkpt>
   <trkpt lat="46.2466621398926" lon="6.93620681762695">
    <ele>589.95556640625</ele>
    <time>2012-04-02T15:21:08Z</time>
   </trkpt>
   <trkpt lat="46.2466430664062" lon="6.93618774414062">
    <ele>590.177795410156</ele>
    <time>2012-04-02T15:21:09Z</time>
   </trkpt>
   <trkpt lat="46.2465438842773" lon="6.93607378005982">
    <ele>591.511108398438</ele>
    <time>2012-04-02T15:21:15Z</time>
   </trkpt>
   <trkpt lat="46.246524810791" lon="6.93605804443359">
    <ele>591.733337402344</ele>
    <time>2012-04-02T15:21:16Z</time>
   </trkpt>
   <trkpt lat="46.2465057373047" lon="6.93603944778442">
    <ele>591.95556640625</ele>
    <time>2012-04-02T15:21:17Z</time>
   </trkpt>
   <trkpt lat="46.2464904785156" lon="6.93602323532104">
    <ele>592.177795410156</ele>
    <time>2012-04-02T15:21:18Z</time>
   </trkpt>
   <trkpt lat="46.2464714050293" lon="6.93600463867188">
    <ele>592.400024414062</ele>
    <time>2012-04-02T15:21:19Z</time>
   </trkpt>
   <trkpt lat="46.2464332580566" lon="6.93597364425659">
    <ele>592.400024414062</ele>
    <time>2012-04-02T15:21:21Z</time>
   </trkpt>
   <trkpt lat="46.2463073730469" lon="6.93589496612549">
    <ele>593.840026855469</ele>
    <time>2012-04-02T15:21:27Z</time>
   </trkpt>
   <trkpt lat="46.2462882995606" lon="6.93588209152222">
    <ele>594.080017089844</ele>
    <time>2012-04-02T15:21:28Z</time>
   </trkpt>
   <trkpt lat="46.246265411377" lon="6.93586778640747">
    <ele>594.320007324219</ele>
    <time>2012-04-02T15:21:29Z</time>
   </trkpt>
   <trkpt lat="46.2462425231934" lon="6.93585252761841">
    <ele>594.559997558594</ele>
    <time>2012-04-02T15:21:30Z</time>
   </trkpt>
   <trkpt lat="46.246223449707" lon="6.93584203720093">
    <ele>594.799987792969</ele>
    <time>2012-04-02T15:21:31Z</time>
   </trkpt>
   <trkpt lat="46.2461776733398" lon="6.93581819534302">
    <ele>594.799987792969</ele>
    <time>2012-04-02T15:21:33Z</time>
   </trkpt>
   <trkpt lat="46.2460708618164" lon="6.93578672409058">
    <ele>595.733337402344</ele>
    <time>2012-04-02T15:21:37Z</time>
   </trkpt>
   <trkpt lat="46.2460441589356" lon="6.93578100204468">
    <ele>595.966674804688</ele>
    <time>2012-04-02T15:21:38Z</time>
   </trkpt>
   <trkpt lat="46.246021270752" lon="6.93577480316162">
    <ele>596.200012207031</ele>
    <time>2012-04-02T15:21:39Z</time>
   </trkpt>
   <trkpt lat="46.2459983825684" lon="6.93577003479004">
    <ele>596.433349609375</ele>
    <time>2012-04-02T15:21:40Z</time>
   </trkpt>
   <trkpt lat="46.2459754943848" lon="6.93576335906982">
    <ele>596.666687011719</ele>
    <time>2012-04-02T15:21:41Z</time>
   </trkpt>
   <trkpt lat="46.2458267211914" lon="6.93574237823486">
    <ele>598.066650390625</ele>
    <time>2012-04-02T15:21:47Z</time>
   </trkpt>
   <trkpt lat="46.2458000183106" lon="6.93573665618896">
    <ele>598.299987792969</ele>
    <time>2012-04-02T15:21:48Z</time>
   </trkpt>
   <trkpt lat="46.245777130127" lon="6.93572950363159">
    <ele>598.533325195312</ele>
    <time>2012-04-02T15:21:49Z</time>
   </trkpt>
   <trkpt lat="46.2457504272461" lon="6.93572759628296">
    <ele>598.766662597656</ele>
    <time>2012-04-02T15:21:50Z</time>
   </trkpt>
   <trkpt lat="46.2457275390625" lon="6.93572568893433">
    <ele>599</ele>
    <time>2012-04-02T15:21:51Z</time>
   </trkpt>
   <trkpt lat="46.2455978393555" lon="6.93571519851685">
    <ele>599</ele>
    <time>2012-04-02T15:21:56Z</time>
   </trkpt>
   <trkpt lat="46.2455139160156" lon="6.935706615448">
    <ele>599.94287109375</ele>
    <time>2012-04-02T15:21:59Z</time>
   </trkpt>
   <trkpt lat="46.2454833984375" lon="6.93570566177368">
    <ele>600.257141113281</ele>
    <time>2012-04-02T15:22:00Z</time>
   </trkpt>
   <trkpt lat="46.2454566955566" lon="6.93570613861084">
    <ele>600.571411132812</ele>
    <time>2012-04-02T15:22:01Z</time>
   </trkpt>
   <trkpt lat="46.2454261779785" lon="6.93570470809936">
    <ele>600.8857421875</ele>
    <time>2012-04-02T15:22:02Z</time>
   </trkpt>
   <trkpt lat="46.2453956604004" lon="6.93570470809936">
    <ele>601.200012207031</ele>
    <time>2012-04-02T15:22:03Z</time>
   </trkpt>
   <trkpt lat="46.2453651428223" lon="6.93570041656494">
    <ele>601.200012207031</ele>
    <time>2012-04-02T15:22:04Z</time>
   </trkpt>
   <trkpt lat="46.2452011108398" lon="6.93563652038574">
    <ele>602.123107910156</ele>
    <time>2012-04-02T15:22:10Z</time>
   </trkpt>
   <trkpt lat="46.2451477050781" lon="6.93559980392456">
    <ele>602.430786132812</ele>
    <time>2012-04-02T15:22:12Z</time>
   </trkpt>
   <trkpt lat="46.2451210021973" lon="6.9355788230896">
    <ele>602.584655761719</ele>
    <time>2012-04-02T15:22:13Z</time>
   </trkpt>
   <trkpt lat="46.2450942993164" lon="6.93555355072022">
    <ele>602.738464355469</ele>
    <time>2012-04-02T15:22:14Z</time>
   </trkpt>
   <trkpt lat="46.2450714111328" lon="6.9355263710022">
    <ele>602.892333984375</ele>
    <time>2012-04-02T15:22:15Z</time>
   </trkpt>
   <trkpt lat="46.2450485229492" lon="6.93549537658691">
    <ele>603.046142578125</ele>
    <time>2012-04-02T15:22:16Z</time>
   </trkpt>
   <trkpt lat="46.2450256347656" lon="6.93546628952026">
    <ele>603.200012207031</ele>
    <time>2012-04-02T15:22:17Z</time>
   </trkpt>
   <trkpt lat="46.245002746582" lon="6.93543863296509">
    <ele>603.200012207031</ele>
    <time>2012-04-02T15:22:18Z</time>
   </trkpt>
   <trkpt lat="46.2448883056641" lon="6.93524312973022">
    <ele>604.300048828125</ele>
    <time>2012-04-02T15:22:24Z</time>
   </trkpt>
   <trkpt lat="46.2448654174805" lon="6.93517160415649">
    <ele>604.666687011719</ele>
    <time>2012-04-02T15:22:26Z</time>
   </trkpt>
   <trkpt lat="46.2448539733887" lon="6.93513298034668">
    <ele>604.850036621094</ele>
    <time>2012-04-02T15:22:27Z</time>
   </trkpt>
   <trkpt lat="46.2448501586914" lon="6.9350962638855">
    <ele>605.033325195312</ele>
    <time>2012-04-02T15:22:28Z</time>
   </trkpt>
   <trkpt lat="46.2448425292969" lon="6.93505859375">
    <ele>605.216674804688</ele>
    <time>2012-04-02T15:22:29Z</time>
   </trkpt>
   <trkpt lat="46.2448348999023" lon="6.93502235412598">
    <ele>605.400024414062</ele>
    <time>2012-04-02T15:22:30Z</time>
   </trkpt>
   <trkpt lat="46.2448196411133" lon="6.93490695953369">
    <ele>605.400024414062</ele>
    <time>2012-04-02T15:22:33Z</time>
   </trkpt>
   <trkpt lat="46.2448234558106" lon="6.93474912643433">
    <ele>606.384643554688</ele>
    <time>2012-04-02T15:22:37Z</time>
   </trkpt>
   <trkpt lat="46.2448272705078" lon="6.93471097946167">
    <ele>606.630798339844</ele>
    <time>2012-04-02T15:22:38Z</time>
   </trkpt>
   <trkpt lat="46.2448310852051" lon="6.93467092514038">
    <ele>606.876953125</ele>
    <time>2012-04-02T15:22:39Z</time>
   </trkpt>
   <trkpt lat="46.2448387145996" lon="6.93463277816772">
    <ele>607.123107910156</ele>
    <time>2012-04-02T15:22:40Z</time>
   </trkpt>
   <trkpt lat="46.2448425292969" lon="6.9345965385437">
    <ele>607.369262695312</ele>
    <time>2012-04-02T15:22:41Z</time>
   </trkpt>
   <trkpt lat="46.2448806762695" lon="6.9344220161438">
    <ele>608.599975585938</ele>
    <time>2012-04-02T15:22:46Z</time>
   </trkpt>
   <trkpt lat="46.2448921203613" lon="6.93438529968262">
    <ele>608.846130371094</ele>
    <time>2012-04-02T15:22:47Z</time>
   </trkpt>
   <trkpt lat="46.2449035644531" lon="6.93435382843018">
    <ele>609.09228515625</ele>
    <time>2012-04-02T15:22:48Z</time>
   </trkpt>
   <trkpt lat="46.2449150085449" lon="6.93432188034058">
    <ele>609.338439941406</ele>
    <time>2012-04-02T15:22:49Z</time>
   </trkpt>
   <trkpt lat="46.2449226379394" lon="6.9342885017395">
    <ele>609.584594726562</ele>
    <time>2012-04-02T15:22:50Z</time>
   </trkpt>
   <trkpt lat="46.2449836730957" lon="6.93413209915161">
    <ele>610.815368652344</ele>
    <time>2012-04-02T15:22:55Z</time>
   </trkpt>
   <trkpt lat="46.245002746582" lon="6.93409824371338">
    <ele>611.0615234375</ele>
    <time>2012-04-02T15:22:56Z</time>
   </trkpt>
   <trkpt lat="46.2450218200684" lon="6.93406534194946">
    <ele>611.307678222656</ele>
    <time>2012-04-02T15:22:57Z</time>
   </trkpt>
   <trkpt lat="46.2450370788574" lon="6.93402910232544">
    <ele>611.553833007812</ele>
    <time>2012-04-02T15:22:58Z</time>
   </trkpt>
   <trkpt lat="46.2450523376465" lon="6.93399381637573">
    <ele>611.799987792969</ele>
    <time>2012-04-02T15:22:59Z</time>
   </trkpt>
   <trkpt lat="46.2451019287109" lon="6.93388366699219">
    <ele>611.799987792969</ele>
    <time>2012-04-02T15:23:02Z</time>
   </trkpt>
   <trkpt lat="46.2451133728027" lon="6.93384838104248">
    <ele>612.239990234375</ele>
    <time>2012-04-02T15:23:03Z</time>
   </trkpt>
   <trkpt lat="46.2451248168945" lon="6.93381357192993">
    <ele>612.679992675781</ele>
    <time>2012-04-02T15:23:04Z</time>
   </trkpt>
   <trkpt lat="46.2451400756836" lon="6.93377923965454">
    <ele>613.119995117188</ele>
    <time>2012-04-02T15:23:05Z</time>
   </trkpt>
   <trkpt lat="46.2451515197754" lon="6.93374681472778">
    <ele>613.559997558594</ele>
    <time>2012-04-02T15:23:06Z</time>
   </trkpt>
   <trkpt lat="46.2451629638672" lon="6.93371534347534">
    <ele>614</ele>
    <time>2012-04-02T15:23:07Z</time>
   </trkpt>
   <trkpt lat="46.2451705932617" lon="6.93361234664917">
    <ele>614</ele>
    <time>2012-04-02T15:23:10Z</time>
   </trkpt>
   <trkpt lat="46.2451705932617" lon="6.93353843688965">
    <ele>614.666687011719</ele>
    <time>2012-04-02T15:23:12Z</time>
   </trkpt>
   <trkpt lat="46.2451667785644" lon="6.93349647521973">
    <ele>615</ele>
    <time>2012-04-02T15:23:13Z</time>
   </trkpt>
   <trkpt lat="46.2451629638672" lon="6.93345594406128">
    <ele>615.333312988281</ele>
    <time>2012-04-02T15:23:14Z</time>
   </trkpt>
   <trkpt lat="46.2451553344727" lon="6.93341779708862">
    <ele>615.666687011719</ele>
    <time>2012-04-02T15:23:15Z</time>
   </trkpt>
   <trkpt lat="46.2451477050781" lon="6.93338680267334">
    <ele>616</ele>
    <time>2012-04-02T15:23:16Z</time>
   </trkpt>
   <trkpt lat="46.2451362609863" lon="6.93335723876953">
    <ele>616</ele>
    <time>2012-04-02T15:23:17Z</time>
   </trkpt>
   <trkpt lat="46.2450866699219" lon="6.93321228027344">
    <ele>617.200012207031</ele>
    <time>2012-04-02T15:23:21Z</time>
   </trkpt>
   <trkpt lat="46.2450714111328" lon="6.93317699432373">
    <ele>617.5</ele>
    <time>2012-04-02T15:23:22Z</time>
   </trkpt>
   <trkpt lat="46.2450485229492" lon="6.93314027786255">
    <ele>617.799987792969</ele>
    <time>2012-04-02T15:23:23Z</time>
   </trkpt>
   <trkpt lat="46.2450294494629" lon="6.93310785293579">
    <ele>618.099975585938</ele>
    <time>2012-04-02T15:23:24Z</time>
   </trkpt>
   <trkpt lat="46.2449645996094" lon="6.93304014205933">
    <ele>619</ele>
    <time>2012-04-02T15:23:27Z</time>
   </trkpt>
   <trkpt lat="46.244945526123" lon="6.93302392959595">
    <ele>619.299987792969</ele>
    <time>2012-04-02T15:23:28Z</time>
   </trkpt>
   <trkpt lat="46.2449264526367" lon="6.93300867080688">
    <ele>619.600036621094</ele>
    <time>2012-04-02T15:23:29Z</time>
   </trkpt>
   <trkpt lat="46.2449073791504" lon="6.93299674987793">
    <ele>619.900024414062</ele>
    <time>2012-04-02T15:23:30Z</time>
   </trkpt>
   <trkpt lat="46.2448844909668" lon="6.93298673629761">
    <ele>620.200012207031</ele>
    <time>2012-04-02T15:23:31Z</time>
   </trkpt>
   <trkpt lat="46.2448196411133" lon="6.93297004699707">
    <ele>620.200012207031</ele>
    <time>2012-04-02T15:23:34Z</time>
   </trkpt>
   <trkpt lat="46.2447357177734" lon="6.93295335769653">
    <ele>621.141174316406</ele>
    <time>2012-04-02T15:23:38Z</time>
   </trkpt>
   <trkpt lat="46.2447166442871" lon="6.93295335769653">
    <ele>621.37646484375</ele>
    <time>2012-04-02T15:23:39Z</time>
   </trkpt>
   <trkpt lat="46.2446937561035" lon="6.93295574188232">
    <ele>621.611755371094</ele>
    <time>2012-04-02T15:23:40Z</time>
   </trkpt>
   <trkpt lat="46.2446708679199" lon="6.93296003341675">
    <ele>621.847045898438</ele>
    <time>2012-04-02T15:23:41Z</time>
   </trkpt>
   <trkpt lat="46.2446441650391" lon="6.9329628944397">
    <ele>622.082336425781</ele>
    <time>2012-04-02T15:23:42Z</time>
   </trkpt>
   <trkpt lat="46.244514465332" lon="6.93301343917847">
    <ele>623.494140625</ele>
    <time>2012-04-02T15:23:48Z</time>
   </trkpt>
   <trkpt lat="46.244499206543" lon="6.93301773071289">
    <ele>623.729431152344</ele>
    <time>2012-04-02T15:23:49Z</time>
   </trkpt>
   <trkpt lat="46.2444801330566" lon="6.93302392959595">
    <ele>623.964721679688</ele>
    <time>2012-04-02T15:23:50Z</time>
   </trkpt>
   <trkpt lat="46.2444610595703" lon="6.93303442001343">
    <ele>624.200012207031</ele>
    <time>2012-04-02T15:23:51Z</time>
   </trkpt>
   <trkpt lat="46.2444229125977" lon="6.93305397033691">
    <ele>624.200012207031</ele>
    <time>2012-04-02T15:23:54Z</time>
   </trkpt>
   <trkpt lat="46.2443618774414" lon="6.93307971954346">
    <ele>625.300048828125</ele>
    <time>2012-04-02T15:23:58Z</time>
   </trkpt>
   <trkpt lat="46.2443428039551" lon="6.9330883026123">
    <ele>625.575012207031</ele>
    <time>2012-04-02T15:23:59Z</time>
   </trkpt>
   <trkpt lat="46.244327545166" lon="6.93310022354126">
    <ele>625.850036621094</ele>
    <time>2012-04-02T15:24:00Z</time>
   </trkpt>
   <trkpt lat="46.2443084716797" lon="6.93311452865601">
    <ele>626.125</ele>
    <time>2012-04-02T15:24:01Z</time>
   </trkpt>
   <trkpt lat="46.2442893981934" lon="6.9331226348877">
    <ele>626.400024414062</ele>
    <time>2012-04-02T15:24:02Z</time>
   </trkpt>
   <trkpt lat="46.2442398071289" lon="6.93313598632812">
    <ele>626.400024414062</ele>
    <time>2012-04-02T15:24:05Z</time>
   </trkpt>
   <trkpt lat="46.2441825866699" lon="6.93314981460571">
    <ele>627.225036621094</ele>
    <time>2012-04-02T15:24:08Z</time>
   </trkpt>
   <trkpt lat="46.2441635131836" lon="6.93315076828003">
    <ele>627.5</ele>
    <time>2012-04-02T15:24:09Z</time>
   </trkpt>
   <trkpt lat="46.244140625" lon="6.93314981460571">
    <ele>627.775024414062</ele>
    <time>2012-04-02T15:24:10Z</time>
   </trkpt>
   <trkpt lat="46.2441215515137" lon="6.93315124511719">
    <ele>628.049987792969</ele>
    <time>2012-04-02T15:24:11Z</time>
   </trkpt>
   <trkpt lat="46.2440986633301" lon="6.93315410614014">
    <ele>628.325012207031</ele>
    <time>2012-04-02T15:24:12Z</time>
   </trkpt>
   <trkpt lat="46.244010925293" lon="6.93310976028442">
    <ele>629.700012207031</ele>
    <time>2012-04-02T15:24:17Z</time>
   </trkpt>
   <trkpt lat="46.2439956665039" lon="6.93309020996094">
    <ele>629.974975585938</ele>
    <time>2012-04-02T15:24:18Z</time>
   </trkpt>
   <trkpt lat="46.2439765930176" lon="6.93307399749756">
    <ele>630.25</ele>
    <time>2012-04-02T15:24:19Z</time>
   </trkpt>
   <trkpt lat="46.2439575195312" lon="6.93304777145386">
    <ele>630.524963378906</ele>
    <time>2012-04-02T15:24:20Z</time>
   </trkpt>
   <trkpt lat="46.2439422607422" lon="6.93301868438721">
    <ele>630.799987792969</ele>
    <time>2012-04-02T15:24:21Z</time>
   </trkpt>
   <trkpt lat="46.2439308166504" lon="6.93298149108887">
    <ele>630.799987792969</ele>
    <time>2012-04-02T15:24:22Z</time>
   </trkpt>
   <trkpt lat="46.2439002990723" lon="6.93282175064087">
    <ele>631.799987792969</ele>
    <time>2012-04-02T15:24:26Z</time>
   </trkpt>
   <trkpt lat="46.2438926696777" lon="6.93278980255127">
    <ele>632.049987792969</ele>
    <time>2012-04-02T15:24:27Z</time>
   </trkpt>
   <trkpt lat="46.2438888549805" lon="6.93275737762451">
    <ele>632.299987792969</ele>
    <time>2012-04-02T15:24:28Z</time>
   </trkpt>
   <trkpt lat="46.2438888549805" lon="6.93272733688354">
    <ele>632.549987792969</ele>
    <time>2012-04-02T15:24:29Z</time>
   </trkpt>
   <trkpt lat="46.2438888549805" lon="6.9326982498169">
    <ele>632.799987792969</ele>
    <time>2012-04-02T15:24:30Z</time>
   </trkpt>
   <trkpt lat="46.2439002990723" lon="6.93264150619507">
    <ele>632.799987792969</ele>
    <time>2012-04-02T15:24:32Z</time>
   </trkpt>
   <trkpt lat="46.2439079284668" lon="6.93258810043335">
    <ele>633.317626953125</ele>
    <time>2012-04-02T15:24:34Z</time>
   </trkpt>
   <trkpt lat="46.2439193725586" lon="6.932532787323">
    <ele>633.835266113281</ele>
    <time>2012-04-02T15:24:36Z</time>
   </trkpt>
   <trkpt lat="46.2439308166504" lon="6.9325065612793">
    <ele>634.094116210938</ele>
    <time>2012-04-02T15:24:37Z</time>
   </trkpt>
   <trkpt lat="46.2439346313477" lon="6.93248128890991">
    <ele>634.352966308594</ele>
    <time>2012-04-02T15:24:38Z</time>
   </trkpt>
   <trkpt lat="46.2439422607422" lon="6.9324517250061">
    <ele>634.611755371094</ele>
    <time>2012-04-02T15:24:39Z</time>
   </trkpt>
   <trkpt lat="46.2439041137695" lon="6.93242406845093">
    <ele>634.87060546875</ele>
    <time>2012-04-02T15:24:40Z</time>
   </trkpt>
   <trkpt lat="46.2439346313477" lon="6.93229675292969">
    <ele>636.164733886719</ele>
    <time>2012-04-02T15:24:45Z</time>
   </trkpt>
   <trkpt lat="46.2439460754394" lon="6.93227338790894">
    <ele>636.423522949219</ele>
    <time>2012-04-02T15:24:46Z</time>
   </trkpt>
   <trkpt lat="46.2439613342285" lon="6.93225145339966">
    <ele>636.682373046875</ele>
    <time>2012-04-02T15:24:47Z</time>
   </trkpt>
   <trkpt lat="46.2439765930176" lon="6.9322304725647">
    <ele>636.941162109375</ele>
    <time>2012-04-02T15:24:48Z</time>
   </trkpt>
   <trkpt lat="46.2439918518066" lon="6.93220710754394">
    <ele>637.200012207031</ele>
    <time>2012-04-02T15:24:49Z</time>
   </trkpt>
   <trkpt lat="46.2440567016602" lon="6.93210697174072">
    <ele>637.200012207031</ele>
    <time>2012-04-02T15:24:53Z</time>
   </trkpt>
   <trkpt lat="46.2440719604492" lon="6.93208074569702">
    <ele>637.600036621094</ele>
    <time>2012-04-02T15:24:54Z</time>
   </trkpt>
   <trkpt lat="46.2440872192383" lon="6.93205738067627">
    <ele>638</ele>
    <time>2012-04-02T15:24:55Z</time>
   </trkpt>
   <trkpt lat="46.2441024780273" lon="6.93203353881836">
    <ele>638.400024414062</ele>
    <time>2012-04-02T15:24:56Z</time>
   </trkpt>
   <trkpt lat="46.2441177368164" lon="6.93200969696045">
    <ele>638.799987792969</ele>
    <time>2012-04-02T15:24:57Z</time>
   </trkpt>
   <trkpt lat="46.2441329956055" lon="6.93198680877686">
    <ele>639.200012207031</ele>
    <time>2012-04-02T15:24:58Z</time>
   </trkpt>
   <trkpt lat="46.2441749572754" lon="6.93190717697144">
    <ele>639.200012207031</ele>
    <time>2012-04-02T15:25:01Z</time>
   </trkpt>
   <trkpt lat="46.2442169189453" lon="6.93179178237915">
    <ele>640.300048828125</ele>
    <time>2012-04-02T15:25:05Z</time>
   </trkpt>
   <trkpt lat="46.2442245483398" lon="6.93176174163818">
    <ele>640.575012207031</ele>
    <time>2012-04-02T15:25:06Z</time>
   </trkpt>
   <trkpt lat="46.2442321777344" lon="6.93173217773438">
    <ele>640.850036621094</ele>
    <time>2012-04-02T15:25:07Z</time>
   </trkpt>
   <trkpt lat="46.2442398071289" lon="6.93170261383057">
    <ele>641.125</ele>
    <time>2012-04-02T15:25:08Z</time>
   </trkpt>
   <trkpt lat="46.2442436218262" lon="6.93167066574097">
    <ele>641.400024414062</ele>
    <time>2012-04-02T15:25:09Z</time>
   </trkpt>
   <trkpt lat="46.2442359924316" lon="6.93158626556396">
    <ele>641.400024414062</ele>
    <time>2012-04-02T15:25:12Z</time>
   </trkpt>
   <trkpt lat="46.244213104248" lon="6.93150568008423">
    <ele>641.888916015625</ele>
    <time>2012-04-02T15:25:14Z</time>
   </trkpt>
   <trkpt lat="46.2441825866699" lon="6.9314136505127">
    <ele>642.622192382812</ele>
    <time>2012-04-02T15:25:17Z</time>
   </trkpt>
   <trkpt lat="46.2441673278809" lon="6.93138980865478">
    <ele>642.866638183594</ele>
    <time>2012-04-02T15:25:18Z</time>
   </trkpt>
   <trkpt lat="46.2441558837891" lon="6.93137264251709">
    <ele>643.111083984375</ele>
    <time>2012-04-02T15:25:19Z</time>
   </trkpt>
   <trkpt lat="46.244140625" lon="6.93135643005371">
    <ele>643.355529785156</ele>
    <time>2012-04-02T15:25:20Z</time>
   </trkpt>
   <trkpt lat="46.2441177368164" lon="6.93134307861328">
    <ele>643.599975585938</ele>
    <time>2012-04-02T15:25:21Z</time>
   </trkpt>
   <trkpt lat="46.244010925293" lon="6.93131113052368">
    <ele>643.599975585938</ele>
    <time>2012-04-02T15:25:25Z</time>
   </trkpt>
   <trkpt lat="46.2438545227051" lon="6.9313440322876">
    <ele>644.690856933594</ele>
    <time>2012-04-02T15:25:31Z</time>
   </trkpt>
   <trkpt lat="46.2438316345215" lon="6.93135070800781">
    <ele>644.872680664062</ele>
    <time>2012-04-02T15:25:32Z</time>
   </trkpt>
   <trkpt lat="46.2438087463379" lon="6.9313554763794">
    <ele>645.054504394531</ele>
    <time>2012-04-02T15:25:33Z</time>
   </trkpt>
   <trkpt lat="46.2437858581543" lon="6.9313645362854">
    <ele>645.236328125</ele>
    <time>2012-04-02T15:25:34Z</time>
   </trkpt>
   <trkpt lat="46.2437629699707" lon="6.93137216567993">
    <ele>645.418151855469</ele>
    <time>2012-04-02T15:25:35Z</time>
   </trkpt>
   <trkpt lat="46.2437400817871" lon="6.93138074874878">
    <ele>645.599975585938</ele>
    <time>2012-04-02T15:25:36Z</time>
   </trkpt>
   <trkpt lat="46.2436904907227" lon="6.93139600753784">
    <ele>645.599975585938</ele>
    <time>2012-04-02T15:25:38Z</time>
   </trkpt>
   <trkpt lat="46.2435836791992" lon="6.93142366409302">
    <ele>646.909057617188</ele>
    <time>2012-04-02T15:25:44Z</time>
   </trkpt>
   <trkpt lat="46.2435646057129" lon="6.93143081665039">
    <ele>647.127258300781</ele>
    <time>2012-04-02T15:25:45Z</time>
   </trkpt>
   <trkpt lat="46.2435493469238" lon="6.9314374923706">
    <ele>647.345458984375</ele>
    <time>2012-04-02T15:25:46Z</time>
   </trkpt>
   <trkpt lat="46.2435302734375" lon="6.93144845962524">
    <ele>647.563659667969</ele>
    <time>2012-04-02T15:25:47Z</time>
   </trkpt>
   <trkpt lat="46.2435073852539" lon="6.93146514892578">
    <ele>647.781799316406</ele>
    <time>2012-04-02T15:25:48Z</time>
   </trkpt>
   <trkpt lat="46.243480682373" lon="6.93149614334106">
    <ele>648</ele>
    <time>2012-04-02T15:25:49Z</time>
   </trkpt>
   <trkpt lat="46.2434349060059" lon="6.93153810501099">
    <ele>648</ele>
    <time>2012-04-02T15:25:51Z</time>
   </trkpt>
   <trkpt lat="46.2433853149414" lon="6.93157720565796">
    <ele>648.666687011719</ele>
    <time>2012-04-02T15:25:53Z</time>
   </trkpt>
   <trkpt lat="46.2433624267578" lon="6.93159484863281">
    <ele>649</ele>
    <time>2012-04-02T15:25:54Z</time>
   </trkpt>
   <trkpt lat="46.243335723877" lon="6.93161487579346">
    <ele>649.333312988281</ele>
    <time>2012-04-02T15:25:55Z</time>
   </trkpt>
   <trkpt lat="46.2433128356934" lon="6.93163299560547">
    <ele>649.666687011719</ele>
    <time>2012-04-02T15:25:56Z</time>
   </trkpt>
   <trkpt lat="46.2432861328125" lon="6.93164873123169">
    <ele>650</ele>
    <time>2012-04-02T15:25:57Z</time>
   </trkpt>
   <trkpt lat="46.2432594299316" lon="6.93165969848633">
    <ele>650</ele>
    <time>2012-04-02T15:25:58Z</time>
   </trkpt>
   <trkpt lat="46.2431411743164" lon="6.93172311782837">
    <ele>650.977783203125</ele>
    <time>2012-04-02T15:26:02Z</time>
   </trkpt>
   <trkpt lat="46.2431144714356" lon="6.93173885345459">
    <ele>651.222229003906</ele>
    <time>2012-04-02T15:26:03Z</time>
   </trkpt>
   <trkpt lat="46.2430877685547" lon="6.93175601959228">
    <ele>651.466674804688</ele>
    <time>2012-04-02T15:26:04Z</time>
   </trkpt>
   <trkpt lat="46.2430610656738" lon="6.93177270889282">
    <ele>651.711120605469</ele>
    <time>2012-04-02T15:26:05Z</time>
   </trkpt>
   <trkpt lat="46.2430305480957" lon="6.93178653717041">
    <ele>651.95556640625</ele>
    <time>2012-04-02T15:26:06Z</time>
   </trkpt>
   <trkpt lat="46.2428703308106" lon="6.93182516098022">
    <ele>653.666687011719</ele>
    <time>2012-04-02T15:26:13Z</time>
   </trkpt>
   <trkpt lat="46.242847442627" lon="6.93181610107422">
    <ele>653.9111328125</ele>
    <time>2012-04-02T15:26:14Z</time>
   </trkpt>
   <trkpt lat="46.2428283691406" lon="6.93180990219116">
    <ele>654.155578613281</ele>
    <time>2012-04-02T15:26:15Z</time>
   </trkpt>
   <trkpt lat="46.242805480957" lon="6.9318037033081">
    <ele>654.400024414062</ele>
    <time>2012-04-02T15:26:16Z</time>
   </trkpt>
   <trkpt lat="46.2426910400391" lon="6.93174076080322">
    <ele>654.400024414062</ele>
    <time>2012-04-02T15:26:21Z</time>
   </trkpt>
   <trkpt lat="46.2426719665527" lon="6.93172216415405">
    <ele>654.800048828125</ele>
    <time>2012-04-02T15:26:22Z</time>
   </trkpt>
   <trkpt lat="46.2426528930664" lon="6.93170356750488">
    <ele>655.200012207031</ele>
    <time>2012-04-02T15:26:23Z</time>
   </trkpt>
   <trkpt lat="46.2426300048828" lon="6.93168592453003">
    <ele>655.600036621094</ele>
    <time>2012-04-02T15:26:24Z</time>
   </trkpt>
   <trkpt lat="46.2426109313965" lon="6.93166828155518">
    <ele>656</ele>
    <time>2012-04-02T15:26:25Z</time>
   </trkpt>
   <trkpt lat="46.2425880432129" lon="6.93164968490601">
    <ele>656.400024414062</ele>
    <time>2012-04-02T15:26:26Z</time>
   </trkpt>
   <trkpt lat="46.242488861084" lon="6.93156385421753">
    <ele>656.400024414062</ele>
    <time>2012-04-02T15:26:31Z</time>
   </trkpt>
   <trkpt lat="46.2424697875977" lon="6.93154954910278">
    <ele>656.840026855469</ele>
    <time>2012-04-02T15:26:32Z</time>
   </trkpt>
   <trkpt lat="46.2424468994141" lon="6.93153285980225">
    <ele>657.280029296875</ele>
    <time>2012-04-02T15:26:33Z</time>
   </trkpt>
   <trkpt lat="46.2424278259277" lon="6.93151473999024">
    <ele>657.719970703125</ele>
    <time>2012-04-02T15:26:34Z</time>
   </trkpt>
   <trkpt lat="46.2424087524414" lon="6.93149995803833">
    <ele>658.159973144531</ele>
    <time>2012-04-02T15:26:35Z</time>
   </trkpt>
   <trkpt lat="46.2423858642578" lon="6.93149137496948">
    <ele>658.599975585938</ele>
    <time>2012-04-02T15:26:36Z</time>
   </trkpt>
   <trkpt lat="46.2423477172852" lon="6.93146324157715">
    <ele>658.599975585938</ele>
    <time>2012-04-02T15:26:38Z</time>
   </trkpt>
   <trkpt lat="46.2422790527344" lon="6.93140649795532">
    <ele>659.457092285156</ele>
    <time>2012-04-02T15:26:41Z</time>
   </trkpt>
   <trkpt lat="46.242259979248" lon="6.93138742446899">
    <ele>659.742858886719</ele>
    <time>2012-04-02T15:26:42Z</time>
   </trkpt>
   <trkpt lat="46.2422370910644" lon="6.93136835098267">
    <ele>660.028564453125</ele>
    <time>2012-04-02T15:26:43Z</time>
   </trkpt>
   <trkpt lat="46.2422180175781" lon="6.93134689331055">
    <ele>660.314270019531</ele>
    <time>2012-04-02T15:26:44Z</time>
   </trkpt>
   <trkpt lat="46.2421989440918" lon="6.93132495880127">
    <ele>660.599975585938</ele>
    <time>2012-04-02T15:26:45Z</time>
   </trkpt>
   <trkpt lat="46.2421569824219" lon="6.93127107620239">
    <ele>660.599975585938</ele>
    <time>2012-04-02T15:26:47Z</time>
   </trkpt>
   <trkpt lat="46.2421188354492" lon="6.93122100830078">
    <ele>661.266662597656</ele>
    <time>2012-04-02T15:26:49Z</time>
   </trkpt>
   <trkpt lat="46.2420997619629" lon="6.9312047958374">
    <ele>661.599975585938</ele>
    <time>2012-04-02T15:26:50Z</time>
   </trkpt>
   <trkpt lat="46.2420806884766" lon="6.93119096755982">
    <ele>661.933288574219</ele>
    <time>2012-04-02T15:26:51Z</time>
   </trkpt>
   <trkpt lat="46.2420616149902" lon="6.93117570877075">
    <ele>662.266662597656</ele>
    <time>2012-04-02T15:26:52Z</time>
   </trkpt>
   <trkpt lat="46.2420463562012" lon="6.9311580657959">
    <ele>662.599975585938</ele>
    <time>2012-04-02T15:26:53Z</time>
   </trkpt>
   <trkpt lat="46.2420234680176" lon="6.93114328384399">
    <ele>662.599975585938</ele>
    <time>2012-04-02T15:26:54Z</time>
   </trkpt>
   <trkpt lat="46.2419090270996" lon="6.93104362487793">
    <ele>663.92626953125</ele>
    <time>2012-04-02T15:27:00Z</time>
   </trkpt>
   <trkpt lat="46.241886138916" lon="6.93103122711182">
    <ele>664.147338867188</ele>
    <time>2012-04-02T15:27:01Z</time>
   </trkpt>
   <trkpt lat="46.2418670654297" lon="6.93102073669434">
    <ele>664.368408203125</ele>
    <time>2012-04-02T15:27:02Z</time>
   </trkpt>
   <trkpt lat="46.2418441772461" lon="6.93100595474243">
    <ele>664.589477539062</ele>
    <time>2012-04-02T15:27:03Z</time>
   </trkpt>
   <trkpt lat="46.2418212890625" lon="6.93099594116211">
    <ele>664.810485839844</ele>
    <time>2012-04-02T15:27:04Z</time>
   </trkpt>
   <trkpt lat="46.2417144775391" lon="6.93094539642334">
    <ele>665.915771484375</ele>
    <time>2012-04-02T15:27:09Z</time>
   </trkpt>
   <trkpt lat="46.2416915893555" lon="6.93093347549438">
    <ele>666.136840820312</ele>
    <time>2012-04-02T15:27:10Z</time>
   </trkpt>
   <trkpt lat="46.2416687011719" lon="6.93092489242554">
    <ele>666.35791015625</ele>
    <time>2012-04-02T15:27:11Z</time>
   </trkpt>
   <trkpt lat="46.241641998291" lon="6.93092107772827">
    <ele>666.578918457031</ele>
    <time>2012-04-02T15:27:12Z</time>
   </trkpt>
   <trkpt lat="46.2416152954102" lon="6.93091440200806">
    <ele>666.799987792969</ele>
    <time>2012-04-02T15:27:13Z</time>
   </trkpt>
   <trkpt lat="46.2415657043457" lon="6.93090200424194">
    <ele>666.799987792969</ele>
    <time>2012-04-02T15:27:15Z</time>
   </trkpt>
   <trkpt lat="46.2414474487305" lon="6.93088340759277">
    <ele>668.022216796875</ele>
    <time>2012-04-02T15:27:20Z</time>
   </trkpt>
   <trkpt lat="46.2414283752441" lon="6.9308819770813">
    <ele>668.266662597656</ele>
    <time>2012-04-02T15:27:21Z</time>
   </trkpt>
   <trkpt lat="46.2414093017578" lon="6.93088054656982">
    <ele>668.511108398438</ele>
    <time>2012-04-02T15:27:22Z</time>
   </trkpt>
   <trkpt lat="46.2413902282715" lon="6.93087577819824">
    <ele>668.755554199219</ele>
    <time>2012-04-02T15:27:23Z</time>
   </trkpt>
   <trkpt lat="46.2413673400879" lon="6.93087196350098">
    <ele>669</ele>
    <time>2012-04-02T15:27:24Z</time>
   </trkpt>
   <trkpt lat="46.2412414550781" lon="6.93084526062012">
    <ele>669</ele>
    <time>2012-04-02T15:27:29Z</time>
   </trkpt>
   <trkpt lat="46.2411918640137" lon="6.93083238601685">
    <ele>669.666687011719</ele>
    <time>2012-04-02T15:27:31Z</time>
   </trkpt>
   <trkpt lat="46.2411689758301" lon="6.93082857131958">
    <ele>670</ele>
    <time>2012-04-02T15:27:32Z</time>
   </trkpt>
   <trkpt lat="46.2411460876465" lon="6.93082618713379">
    <ele>670.333312988281</ele>
    <time>2012-04-02T15:27:33Z</time>
   </trkpt>
   <trkpt lat="46.2411231994629" lon="6.93081998825073">
    <ele>670.666687011719</ele>
    <time>2012-04-02T15:27:34Z</time>
   </trkpt>
   <trkpt lat="46.2411003112793" lon="6.93081474304199">
    <ele>671</ele>
    <time>2012-04-02T15:27:35Z</time>
   </trkpt>
   <trkpt lat="46.2410736083984" lon="6.93080806732178">
    <ele>671</ele>
    <time>2012-04-02T15:27:36Z</time>
   </trkpt>
   <trkpt lat="46.2409553527832" lon="6.93079328536987">
    <ele>671.833312988281</ele>
    <time>2012-04-02T15:27:41Z</time>
   </trkpt>
   <trkpt lat="46.2408752441406" lon="6.93078422546387">
    <ele>672.333312988281</ele>
    <time>2012-04-02T15:27:44Z</time>
   </trkpt>
   <trkpt lat="46.2408485412598" lon="6.93078184127808">
    <ele>672.5</ele>
    <time>2012-04-02T15:27:45Z</time>
   </trkpt>
   <trkpt lat="46.2408256530762" lon="6.93077993392944">
    <ele>672.666687011719</ele>
    <time>2012-04-02T15:27:46Z</time>
   </trkpt>
   <trkpt lat="46.2407989501953" lon="6.93077564239502">
    <ele>672.833312988281</ele>
    <time>2012-04-02T15:27:47Z</time>
   </trkpt>
   <trkpt lat="46.2407722473144" lon="6.93077421188354">
    <ele>673</ele>
    <time>2012-04-02T15:27:48Z</time>
   </trkpt>
   <trkpt lat="46.2406234741211" lon="6.93074321746826">
    <ele>673</ele>
    <time>2012-04-02T15:27:54Z</time>
   </trkpt>
   <trkpt lat="46.2405738830566" lon="6.93072986602783">
    <ele>673.666687011719</ele>
    <time>2012-04-02T15:27:56Z</time>
   </trkpt>
   <trkpt lat="46.240550994873" lon="6.93072319030762">
    <ele>674</ele>
    <time>2012-04-02T15:27:57Z</time>
   </trkpt>
   <trkpt lat="46.2405242919922" lon="6.93071699142456">
    <ele>674.333312988281</ele>
    <time>2012-04-02T15:27:58Z</time>
   </trkpt>
   <trkpt lat="46.2405014038086" lon="6.93070840835571">
    <ele>674.666687011719</ele>
    <time>2012-04-02T15:27:59Z</time>
   </trkpt>
   <trkpt lat="46.240478515625" lon="6.93069934844971">
    <ele>675</ele>
    <time>2012-04-02T15:28:00Z</time>
   </trkpt>
   <trkpt lat="46.2404556274414" lon="6.93068933486938">
    <ele>675</ele>
    <time>2012-04-02T15:28:01Z</time>
   </trkpt>
   <trkpt lat="46.2403106689453" lon="6.93063926696777">
    <ele>676.320007324219</ele>
    <time>2012-04-02T15:28:07Z</time>
   </trkpt>
   <trkpt lat="46.2402877807617" lon="6.93062925338745">
    <ele>676.5400390625</ele>
    <time>2012-04-02T15:28:08Z</time>
   </trkpt>
   <trkpt lat="46.2402648925781" lon="6.93061399459839">
    <ele>676.760009765625</ele>
    <time>2012-04-02T15:28:09Z</time>
   </trkpt>
   <trkpt lat="46.2402420043945" lon="6.93060207366943">
    <ele>676.97998046875</ele>
    <time>2012-04-02T15:28:10Z</time>
   </trkpt>
   <trkpt lat="46.2402191162109" lon="6.930588722229">
    <ele>677.200012207031</ele>
    <time>2012-04-02T15:28:11Z</time>
   </trkpt>
   <trkpt lat="46.2401123046875" lon="6.93050813674927">
    <ele>677.200012207031</ele>
    <time>2012-04-02T15:28:16Z</time>
   </trkpt>
   <trkpt lat="46.2400512695312" lon="6.93046474456787">
    <ele>678.200012207031</ele>
    <time>2012-04-02T15:28:19Z</time>
   </trkpt>
   <trkpt lat="46.2400321960449" lon="6.93044757843018">
    <ele>678.533325195312</ele>
    <time>2012-04-02T15:28:20Z</time>
   </trkpt>
   <trkpt lat="46.2400131225586" lon="6.93042898178101">
    <ele>678.86669921875</ele>
    <time>2012-04-02T15:28:21Z</time>
   </trkpt>
   <trkpt lat="46.2399940490723" lon="6.93040990829468">
    <ele>679.200012207031</ele>
    <time>2012-04-02T15:28:22Z</time>
   </trkpt>
   <trkpt lat="46.2399559020996" lon="6.93037843704224">
    <ele>679.200012207031</ele>
    <time>2012-04-02T15:28:24Z</time>
   </trkpt>
   <trkpt lat="46.2398834228516" lon="6.93030834197998">
    <ele>680.114318847656</ele>
    <time>2012-04-02T15:28:28Z</time>
   </trkpt>
   <trkpt lat="46.2398643493652" lon="6.93028545379639">
    <ele>680.342834472656</ele>
    <time>2012-04-02T15:28:29Z</time>
   </trkpt>
   <trkpt lat="46.2398452758789" lon="6.93026733398438">
    <ele>680.571411132812</ele>
    <time>2012-04-02T15:28:30Z</time>
   </trkpt>
   <trkpt lat="46.2398262023926" lon="6.93024730682373">
    <ele>680.799987792969</ele>
    <time>2012-04-02T15:28:31Z</time>
   </trkpt>
   <trkpt lat="46.2398071289062" lon="6.93022680282593">
    <ele>681.028564453125</ele>
    <time>2012-04-02T15:28:32Z</time>
   </trkpt>
   <trkpt lat="46.2396926879883" lon="6.93011808395386">
    <ele>682.400024414062</ele>
    <time>2012-04-02T15:28:38Z</time>
   </trkpt>
   <trkpt lat="46.2396697998047" lon="6.93010473251343">
    <ele>682.628540039062</ele>
    <time>2012-04-02T15:28:39Z</time>
   </trkpt>
   <trkpt lat="46.2396507263184" lon="6.93009042739868">
    <ele>682.857116699219</ele>
    <time>2012-04-02T15:28:40Z</time>
   </trkpt>
   <trkpt lat="46.2396240234375" lon="6.93007946014404">
    <ele>683.085693359375</ele>
    <time>2012-04-02T15:28:41Z</time>
   </trkpt>
   <trkpt lat="46.2396011352539" lon="6.9300651550293">
    <ele>683.314270019531</ele>
    <time>2012-04-02T15:28:42Z</time>
   </trkpt>
   <trkpt lat="46.2394638061523" lon="6.92999362945557">
    <ele>684.685668945312</ele>
    <time>2012-04-02T15:28:48Z</time>
   </trkpt>
   <trkpt lat="46.2394409179688" lon="6.92998790740967">
    <ele>684.914245605469</ele>
    <time>2012-04-02T15:28:49Z</time>
   </trkpt>
   <trkpt lat="46.2394180297852" lon="6.92998218536377">
    <ele>685.142822265625</ele>
    <time>2012-04-02T15:28:50Z</time>
   </trkpt>
   <trkpt lat="46.2393913269043" lon="6.92997217178345">
    <ele>685.371398925781</ele>
    <time>2012-04-02T15:28:51Z</time>
   </trkpt>
   <trkpt lat="46.239372253418" lon="6.92996597290039">
    <ele>685.599975585938</ele>
    <time>2012-04-02T15:28:52Z</time>
   </trkpt>
   <trkpt lat="46.2392539978027" lon="6.9299430847168">
    <ele>685.599975585938</ele>
    <time>2012-04-02T15:28:57Z</time>
   </trkpt>
   <trkpt lat="46.2391548156738" lon="6.92995262145996">
    <ele>686.484191894531</ele>
    <time>2012-04-02T15:29:01Z</time>
   </trkpt>
   <trkpt lat="46.2391319274902" lon="6.92995452880859">
    <ele>686.705261230469</ele>
    <time>2012-04-02T15:29:02Z</time>
   </trkpt>
   <trkpt lat="46.2391052246094" lon="6.92995405197144">
    <ele>686.92626953125</ele>
    <time>2012-04-02T15:29:03Z</time>
   </trkpt>
   <trkpt lat="46.2390823364258" lon="6.92995357513428">
    <ele>687.147338867188</ele>
    <time>2012-04-02T15:29:04Z</time>
   </trkpt>
   <trkpt lat="46.2390594482422" lon="6.92995929718018">
    <ele>687.368408203125</ele>
    <time>2012-04-02T15:29:05Z</time>
   </trkpt>
   <trkpt lat="46.238883972168" lon="6.93001413345337">
    <ele>688.915771484375</ele>
    <time>2012-04-02T15:29:12Z</time>
   </trkpt>
   <trkpt lat="46.2388610839844" lon="6.93002414703369">
    <ele>689.136840820312</ele>
    <time>2012-04-02T15:29:13Z</time>
   </trkpt>
   <trkpt lat="46.238842010498" lon="6.93002796173096">
    <ele>689.35791015625</ele>
    <time>2012-04-02T15:29:14Z</time>
   </trkpt>
   <trkpt lat="46.2388153076172" lon="6.93003368377686">
    <ele>689.578918457031</ele>
    <time>2012-04-02T15:29:15Z</time>
   </trkpt>
   <trkpt lat="46.2387924194336" lon="6.93004417419434">
    <ele>689.799987792969</ele>
    <time>2012-04-02T15:29:16Z</time>
   </trkpt>
   <trkpt lat="46.2387008666992" lon="6.93008279800415">
    <ele>689.799987792969</ele>
    <time>2012-04-02T15:29:20Z</time>
   </trkpt>
   <trkpt lat="46.238582611084" lon="6.93009757995606">
    <ele>690.9052734375</ele>
    <time>2012-04-02T15:29:25Z</time>
   </trkpt>
   <trkpt lat="46.2385597229004" lon="6.93009185791016">
    <ele>691.126281738281</ele>
    <time>2012-04-02T15:29:26Z</time>
   </trkpt>
   <trkpt lat="46.2385368347168" lon="6.93008947372436">
    <ele>691.347351074219</ele>
    <time>2012-04-02T15:29:27Z</time>
   </trkpt>
   <trkpt lat="46.2385101318359" lon="6.93008947372436">
    <ele>691.568420410156</ele>
    <time>2012-04-02T15:29:28Z</time>
   </trkpt>
   <trkpt lat="46.2384796142578" lon="6.93008708953857">
    <ele>691.789489746094</ele>
    <time>2012-04-02T15:29:29Z</time>
   </trkpt>
   <trkpt lat="46.2383270263672" lon="6.93006610870361">
    <ele>693.115783691406</ele>
    <time>2012-04-02T15:29:35Z</time>
   </trkpt>
   <trkpt lat="46.2383003234863" lon="6.93005609512329">
    <ele>693.336853027344</ele>
    <time>2012-04-02T15:29:36Z</time>
   </trkpt>
   <trkpt lat="46.23828125" lon="6.93004608154297">
    <ele>693.557922363281</ele>
    <time>2012-04-02T15:29:37Z</time>
   </trkpt>
   <trkpt lat="46.2382583618164" lon="6.93003845214844">
    <ele>693.778930664062</ele>
    <time>2012-04-02T15:29:38Z</time>
   </trkpt>
   <trkpt lat="46.2382354736328" lon="6.9300274848938">
    <ele>694</ele>
    <time>2012-04-02T15:29:39Z</time>
   </trkpt>
   <trkpt lat="46.2381057739258" lon="6.92992448806763">
    <ele>694</ele>
    <time>2012-04-02T15:29:45Z</time>
   </trkpt>
   <trkpt lat="46.2380485534668" lon="6.92985439300537">
    <ele>694.857116699219</ele>
    <time>2012-04-02T15:29:48Z</time>
   </trkpt>
   <trkpt lat="46.2380294799805" lon="6.92983293533325">
    <ele>695.142883300781</ele>
    <time>2012-04-02T15:29:49Z</time>
   </trkpt>
   <trkpt lat="46.2380065917969" lon="6.92981338500976">
    <ele>695.428588867188</ele>
    <time>2012-04-02T15:29:50Z</time>
   </trkpt>
   <trkpt lat="46.2379875183106" lon="6.92979288101196">
    <ele>695.714294433594</ele>
    <time>2012-04-02T15:29:51Z</time>
   </trkpt>
   <trkpt lat="46.2379684448242" lon="6.92977476119995">
    <ele>696</ele>
    <time>2012-04-02T15:29:52Z</time>
   </trkpt>
   <trkpt lat="46.2379455566406" lon="6.92974472045898">
    <ele>696</ele>
    <time>2012-04-02T15:29:53Z</time>
   </trkpt>
   <trkpt lat="46.2378311157227" lon="6.92961120605469">
    <ele>697.466674804688</ele>
    <time>2012-04-02T15:29:59Z</time>
   </trkpt>
   <trkpt lat="46.2378158569336" lon="6.92958831787109">
    <ele>697.711120605469</ele>
    <time>2012-04-02T15:30:00Z</time>
   </trkpt>
   <trkpt lat="46.23779296875" lon="6.92956638336182">
    <ele>697.95556640625</ele>
    <time>2012-04-02T15:30:01Z</time>
   </trkpt>
   <trkpt lat="46.2377738952637" lon="6.92954635620117">
    <ele>698.200012207031</ele>
    <time>2012-04-02T15:30:02Z</time>
   </trkpt>
   <trkpt lat="46.2376480102539" lon="6.92941427230835">
    <ele>698.200012207031</ele>
    <time>2012-04-02T15:30:08Z</time>
   </trkpt>
   <trkpt lat="46.2375831604004" lon="6.92933368682861">
    <ele>699.05712890625</ele>
    <time>2012-04-02T15:30:11Z</time>
   </trkpt>
   <trkpt lat="46.2375564575195" lon="6.92931318283081">
    <ele>699.342895507812</ele>
    <time>2012-04-02T15:30:12Z</time>
   </trkpt>
   <trkpt lat="46.2375335693359" lon="6.92929220199585">
    <ele>699.628601074219</ele>
    <time>2012-04-02T15:30:13Z</time>
   </trkpt>
   <trkpt lat="46.2375106811523" lon="6.92927312850952">
    <ele>699.914306640625</ele>
    <time>2012-04-02T15:30:14Z</time>
   </trkpt>
   <trkpt lat="46.2374877929688" lon="6.92925548553467">
    <ele>700.200012207031</ele>
    <time>2012-04-02T15:30:15Z</time>
   </trkpt>
   <trkpt lat="46.2374649047852" lon="6.92923498153686">
    <ele>700.200012207031</ele>
    <time>2012-04-02T15:30:16Z</time>
   </trkpt>
   <trkpt lat="46.2373046875" lon="6.92907285690308">
    <ele>701.600036621094</ele>
    <time>2012-04-02T15:30:23Z</time>
   </trkpt>
   <trkpt lat="46.2372817993164" lon="6.92904281616211">
    <ele>701.799987792969</ele>
    <time>2012-04-02T15:30:24Z</time>
   </trkpt>
   <trkpt lat="46.2372589111328" lon="6.92901611328125">
    <ele>702</ele>
    <time>2012-04-02T15:30:25Z</time>
   </trkpt>
   <trkpt lat="46.2372360229492" lon="6.92898988723755">
    <ele>702.200012207031</ele>
    <time>2012-04-02T15:30:26Z</time>
   </trkpt>
   <trkpt lat="46.2370986938477" lon="6.92877006530762">
    <ele>702.200012207031</ele>
    <time>2012-04-02T15:30:33Z</time>
   </trkpt>
   <trkpt lat="46.2370529174805" lon="6.92863273620606">
    <ele>703.200012207031</ele>
    <time>2012-04-02T15:30:37Z</time>
   </trkpt>
   <trkpt lat="46.2370376586914" lon="6.92859649658203">
    <ele>703.450012207031</ele>
    <time>2012-04-02T15:30:38Z</time>
   </trkpt>
   <trkpt lat="46.2370262145996" lon="6.92856216430664">
    <ele>703.700012207031</ele>
    <time>2012-04-02T15:30:39Z</time>
   </trkpt>
   <trkpt lat="46.2370147705078" lon="6.92852735519409">
    <ele>703.950012207031</ele>
    <time>2012-04-02T15:30:40Z</time>
   </trkpt>
   <trkpt lat="46.2369995117188" lon="6.92849397659302">
    <ele>704.200012207031</ele>
    <time>2012-04-02T15:30:41Z</time>
   </trkpt>
   <trkpt lat="46.2369232177734" lon="6.92828273773193">
    <ele>704.200012207031</ele>
    <time>2012-04-02T15:30:47Z</time>
   </trkpt>
   <trkpt lat="46.2369079589844" lon="6.92824840545654">
    <ele>704.566650390625</ele>
    <time>2012-04-02T15:30:48Z</time>
   </trkpt>
   <trkpt lat="46.236888885498" lon="6.9281759262085">
    <ele>705.300048828125</ele>
    <time>2012-04-02T15:30:50Z</time>
   </trkpt>
   <trkpt lat="46.2368812561035" lon="6.92814016342163">
    <ele>705.666687011719</ele>
    <time>2012-04-02T15:30:51Z</time>
   </trkpt>
   <trkpt lat="46.2368698120117" lon="6.92810678482056">
    <ele>706.033325195312</ele>
    <time>2012-04-02T15:30:52Z</time>
   </trkpt>
   <trkpt lat="46.2368545532227" lon="6.92806959152222">
    <ele>706.400024414062</ele>
    <time>2012-04-02T15:30:53Z</time>
   </trkpt>
   <trkpt lat="46.2368240356445" lon="6.92796659469604">
    <ele>706.400024414062</ele>
    <time>2012-04-02T15:30:56Z</time>
   </trkpt>
   <trkpt lat="46.2367515563965" lon="6.92774152755737">
    <ele>707.490905761719</ele>
    <time>2012-04-02T15:31:02Z</time>
   </trkpt>
   <trkpt lat="46.2367401123047" lon="6.92770338058472">
    <ele>707.672729492188</ele>
    <time>2012-04-02T15:31:03Z</time>
   </trkpt>
   <trkpt lat="46.2367286682129" lon="6.92766809463501">
    <ele>707.854553222656</ele>
    <time>2012-04-02T15:31:04Z</time>
   </trkpt>
   <trkpt lat="46.2367172241211" lon="6.92763423919678">
    <ele>708.036376953125</ele>
    <time>2012-04-02T15:31:05Z</time>
   </trkpt>
   <trkpt lat="46.2367057800293" lon="6.92760133743286">
    <ele>708.218200683594</ele>
    <time>2012-04-02T15:31:06Z</time>
   </trkpt>
   <trkpt lat="46.2366943359375" lon="6.927565574646">
    <ele>708.400024414062</ele>
    <time>2012-04-02T15:31:07Z</time>
   </trkpt>
   <trkpt lat="46.2366638183594" lon="6.92746305465698">
    <ele>708.400024414062</ele>
    <time>2012-04-02T15:31:10Z</time>
   </trkpt>
   <trkpt lat="46.2366333007812" lon="6.92736339569092">
    <ele>709.400024414062</ele>
    <time>2012-04-02T15:31:13Z</time>
   </trkpt>
   <trkpt lat="46.2366218566894" lon="6.927330493927">
    <ele>709.733337402344</ele>
    <time>2012-04-02T15:31:14Z</time>
   </trkpt>
   <trkpt lat="46.2366104125977" lon="6.92729330062866">
    <ele>710.066711425781</ele>
    <time>2012-04-02T15:31:15Z</time>
   </trkpt>
   <trkpt lat="46.2365989685059" lon="6.92725563049316">
    <ele>710.400024414062</ele>
    <time>2012-04-02T15:31:16Z</time>
   </trkpt>
   <trkpt lat="46.2365646362305" lon="6.92714834213257">
    <ele>710.400024414062</ele>
    <time>2012-04-02T15:31:19Z</time>
   </trkpt>
   <trkpt lat="46.2365188598633" lon="6.92701101303101">
    <ele>711.5</ele>
    <time>2012-04-02T15:31:23Z</time>
   </trkpt>
   <trkpt lat="46.2365036010742" lon="6.92698001861572">
    <ele>711.775024414062</ele>
    <time>2012-04-02T15:31:24Z</time>
   </trkpt>
   <trkpt lat="46.2364883422852" lon="6.92695093154907">
    <ele>712.049987792969</ele>
    <time>2012-04-02T15:31:25Z</time>
   </trkpt>
   <trkpt lat="46.2364692687988" lon="6.92692041397095">
    <ele>712.324951171875</ele>
    <time>2012-04-02T15:31:26Z</time>
   </trkpt>
   <trkpt lat="46.2364540100098" lon="6.9268913269043">
    <ele>712.599975585938</ele>
    <time>2012-04-02T15:31:27Z</time>
   </trkpt>
   <trkpt lat="46.2363510131836" lon="6.9267144203186">
    <ele>712.599975585938</ele>
    <time>2012-04-02T15:31:33Z</time>
   </trkpt>
   <trkpt lat="46.2362174987793" lon="6.92656564712524">
    <ele>713.933288574219</ele>
    <time>2012-04-02T15:31:39Z</time>
   </trkpt>
   <trkpt lat="46.2361907958984" lon="6.92654180526733">
    <ele>714.155517578125</ele>
    <time>2012-04-02T15:31:40Z</time>
   </trkpt>
   <trkpt lat="46.2361679077148" lon="6.92651557922363">
    <ele>714.377746582031</ele>
    <time>2012-04-02T15:31:41Z</time>
   </trkpt>
   <trkpt lat="46.2361373901367" lon="6.92649507522583">
    <ele>714.599975585938</ele>
    <time>2012-04-02T15:31:42Z</time>
   </trkpt>
   <trkpt lat="46.2360534667969" lon="6.92643976211548">
    <ele>714.599975585938</ele>
    <time>2012-04-02T15:31:45Z</time>
   </trkpt>
   <trkpt lat="46.235897064209" lon="6.92634582519531">
    <ele>715.919982910156</ele>
    <time>2012-04-02T15:31:51Z</time>
   </trkpt>
   <trkpt lat="46.2358741760254" lon="6.92633056640625">
    <ele>716.140014648438</ele>
    <time>2012-04-02T15:31:52Z</time>
   </trkpt>
   <trkpt lat="46.2358436584473" lon="6.92632293701172">
    <ele>716.359985351562</ele>
    <time>2012-04-02T15:31:53Z</time>
   </trkpt>
   <trkpt lat="46.2358207702637" lon="6.92631006240845">
    <ele>716.579956054688</ele>
    <time>2012-04-02T15:31:54Z</time>
   </trkpt>
   <trkpt lat="46.2357940673828" lon="6.9262957572937">
    <ele>716.799987792969</ele>
    <time>2012-04-02T15:31:55Z</time>
   </trkpt>
   <trkpt lat="46.2356567382812" lon="6.92623281478882">
    <ele>716.799987792969</ele>
    <time>2012-04-02T15:32:00Z</time>
   </trkpt>
   <trkpt lat="46.2355499267578" lon="6.92616367340088">
    <ele>717.799987792969</ele>
    <time>2012-04-02T15:32:04Z</time>
   </trkpt>
   <trkpt lat="46.235523223877" lon="6.92614650726318">
    <ele>718.049987792969</ele>
    <time>2012-04-02T15:32:05Z</time>
   </trkpt>
   <trkpt lat="46.2354965209961" lon="6.92613077163696">
    <ele>718.299987792969</ele>
    <time>2012-04-02T15:32:06Z</time>
   </trkpt>
   <trkpt lat="46.2354736328125" lon="6.92611122131348">
    <ele>718.549987792969</ele>
    <time>2012-04-02T15:32:07Z</time>
   </trkpt>
   <trkpt lat="46.2354507446289" lon="6.92609119415283">
    <ele>718.799987792969</ele>
    <time>2012-04-02T15:32:08Z</time>
   </trkpt>
   <trkpt lat="46.2353210449219" lon="6.92600059509277">
    <ele>718.799987792969</ele>
    <time>2012-04-02T15:32:13Z</time>
   </trkpt>
   <trkpt lat="46.2352333068848" lon="6.92591094970703">
    <ele>719.733337402344</ele>
    <time>2012-04-02T15:32:17Z</time>
   </trkpt>
   <trkpt lat="46.2352104187012" lon="6.92588710784912">
    <ele>719.966674804688</ele>
    <time>2012-04-02T15:32:18Z</time>
   </trkpt>
   <trkpt lat="46.2351913452148" lon="6.9258599281311">
    <ele>720.200012207031</ele>
    <time>2012-04-02T15:32:19Z</time>
   </trkpt>
   <trkpt lat="46.2351684570312" lon="6.92583847045898">
    <ele>720.433349609375</ele>
    <time>2012-04-02T15:32:20Z</time>
   </trkpt>
   <trkpt lat="46.2351455688477" lon="6.92581415176392">
    <ele>720.666687011719</ele>
    <time>2012-04-02T15:32:21Z</time>
   </trkpt>
   <trkpt lat="46.2349967956543" lon="6.92562484741211">
    <ele>722.299987792969</ele>
    <time>2012-04-02T15:32:28Z</time>
   </trkpt>
   <trkpt lat="46.234977722168" lon="6.92559909820557">
    <ele>722.533325195312</ele>
    <time>2012-04-02T15:32:29Z</time>
   </trkpt>
   <trkpt lat="46.2349548339844" lon="6.92557334899902">
    <ele>722.766662597656</ele>
    <time>2012-04-02T15:32:30Z</time>
   </trkpt>
   <trkpt lat="46.234935760498" lon="6.92554950714111">
    <ele>723</ele>
    <time>2012-04-02T15:32:31Z</time>
   </trkpt>
   <trkpt lat="46.2348289489746" lon="6.92542362213135">
    <ele>723</ele>
    <time>2012-04-02T15:32:36Z</time>
   </trkpt>
   <trkpt lat="46.2347679138184" lon="6.92534303665161">
    <ele>723.94287109375</ele>
    <time>2012-04-02T15:32:39Z</time>
   </trkpt>
   <trkpt lat="46.234748840332" lon="6.92531728744507">
    <ele>724.257141113281</ele>
    <time>2012-04-02T15:32:40Z</time>
   </trkpt>
   <trkpt lat="46.2347259521484" lon="6.92529153823852">
    <ele>724.571411132812</ele>
    <time>2012-04-02T15:32:41Z</time>
   </trkpt>
   <trkpt lat="46.2347068786621" lon="6.92526721954346">
    <ele>724.8857421875</ele>
    <time>2012-04-02T15:32:42Z</time>
   </trkpt>
   <trkpt lat="46.2346878051758" lon="6.9252438545227">
    <ele>725.200012207031</ele>
    <time>2012-04-02T15:32:43Z</time>
   </trkpt>
   <trkpt lat="46.2346458435059" lon="6.92519807815552">
    <ele>725.200012207031</ele>
    <time>2012-04-02T15:32:45Z</time>
   </trkpt>
   <trkpt lat="46.2344703674316" lon="6.92501735687256">
    <ele>726.654541015625</ele>
    <time>2012-04-02T15:32:53Z</time>
   </trkpt>
   <trkpt lat="46.2344512939453" lon="6.92499446868896">
    <ele>726.836364746094</ele>
    <time>2012-04-02T15:32:54Z</time>
   </trkpt>
   <trkpt lat="46.2344284057617" lon="6.92497205734253">
    <ele>727.018188476562</ele>
    <time>2012-04-02T15:32:55Z</time>
   </trkpt>
   <trkpt lat="46.2344017028809" lon="6.9249529838562">
    <ele>727.200012207031</ele>
    <time>2012-04-02T15:32:56Z</time>
   </trkpt>
   <trkpt lat="46.2342567443848" lon="6.9248309135437">
    <ele>727.200012207031</ele>
    <time>2012-04-02T15:33:02Z</time>
   </trkpt>
   <trkpt lat="46.2341766357422" lon="6.92477226257324">
    <ele>727.900024414062</ele>
    <time>2012-04-02T15:33:05Z</time>
   </trkpt>
   <trkpt lat="46.2341499328613" lon="6.92475652694702">
    <ele>728.133361816406</ele>
    <time>2012-04-02T15:33:06Z</time>
   </trkpt>
   <trkpt lat="46.2341194152832" lon="6.92473411560059">
    <ele>728.36669921875</ele>
    <time>2012-04-02T15:33:07Z</time>
   </trkpt>
   <trkpt lat="46.2340965270996" lon="6.92471551895142">
    <ele>728.600036621094</ele>
    <time>2012-04-02T15:33:08Z</time>
   </trkpt>
   <trkpt lat="46.2340660095215" lon="6.92469215393066">
    <ele>728.833374023438</ele>
    <time>2012-04-02T15:33:09Z</time>
   </trkpt>
   <trkpt lat="46.2338714599609" lon="6.92449712753296">
    <ele>730.700012207031</ele>
    <time>2012-04-02T15:33:17Z</time>
   </trkpt>
   <trkpt lat="46.2338485717773" lon="6.92447566986084">
    <ele>730.933349609375</ele>
    <time>2012-04-02T15:33:18Z</time>
   </trkpt>
   <trkpt lat="46.2338256835938" lon="6.92445135116577">
    <ele>731.166687011719</ele>
    <time>2012-04-02T15:33:19Z</time>
   </trkpt>
   <trkpt lat="46.2338066101074" lon="6.9244236946106">
    <ele>731.400024414062</ele>
    <time>2012-04-02T15:33:20Z</time>
   </trkpt>
   <trkpt lat="46.2337036132812" lon="6.9242787361145">
    <ele>731.400024414062</ele>
    <time>2012-04-02T15:33:25Z</time>
   </trkpt>
   <trkpt lat="46.2336387634277" lon="6.92409706115723">
    <ele>732.511108398438</ele>
    <time>2012-04-02T15:33:30Z</time>
   </trkpt>
   <trkpt lat="46.2336235046387" lon="6.9240608215332">
    <ele>732.733337402344</ele>
    <time>2012-04-02T15:33:31Z</time>
   </trkpt>
   <trkpt lat="46.2336082458496" lon="6.92402362823486">
    <ele>732.95556640625</ele>
    <time>2012-04-02T15:33:32Z</time>
   </trkpt>
   <trkpt lat="46.2335929870606" lon="6.92398643493652">
    <ele>733.177795410156</ele>
    <time>2012-04-02T15:33:33Z</time>
   </trkpt>
   <trkpt lat="46.2335777282715" lon="6.92395210266113">
    <ele>733.400024414062</ele>
    <time>2012-04-02T15:33:34Z</time>
   </trkpt>
   <trkpt lat="46.233512878418" lon="6.92373895645142">
    <ele>734.733337402344</ele>
    <time>2012-04-02T15:33:40Z</time>
   </trkpt>
   <trkpt lat="46.2334976196289" lon="6.92370462417602">
    <ele>734.95556640625</ele>
    <time>2012-04-02T15:33:41Z</time>
   </trkpt>
   <trkpt lat="46.2334823608398" lon="6.92367172241211">
    <ele>735.177795410156</ele>
    <time>2012-04-02T15:33:42Z</time>
   </trkpt>
   <trkpt lat="46.2334747314453" lon="6.92363214492798">
    <ele>735.400024414062</ele>
    <time>2012-04-02T15:33:43Z</time>
   </trkpt>
   <trkpt lat="46.2334136962891" lon="6.92346429824829">
    <ele>735.400024414062</ele>
    <time>2012-04-02T15:33:48Z</time>
   </trkpt>
   <trkpt lat="46.2333831787109" lon="6.92336177825928">
    <ele>736.257141113281</ele>
    <time>2012-04-02T15:33:51Z</time>
   </trkpt>
   <trkpt lat="46.2333717346191" lon="6.92332649230957">
    <ele>736.542907714844</ele>
    <time>2012-04-02T15:33:52Z</time>
   </trkpt>
   <trkpt lat="46.2333602905273" lon="6.92328882217407">
    <ele>736.82861328125</ele>
    <time>2012-04-02T15:33:53Z</time>
   </trkpt>
   <trkpt lat="46.2333450317383" lon="6.92325258255005">
    <ele>737.114318847656</ele>
    <time>2012-04-02T15:33:54Z</time>
   </trkpt>
   <trkpt lat="46.2333297729492" lon="6.92321538925171">
    <ele>737.400024414062</ele>
    <time>2012-04-02T15:33:55Z</time>
   </trkpt>
   <trkpt lat="46.2333183288574" lon="6.92318058013916">
    <ele>737.400024414062</ele>
    <time>2012-04-02T15:33:56Z</time>
   </trkpt>
   <trkpt lat="46.2332077026367" lon="6.92297029495239">
    <ele>738.672729492188</ele>
    <time>2012-04-02T15:34:03Z</time>
   </trkpt>
   <trkpt lat="46.2331886291504" lon="6.92294502258301">
    <ele>738.854553222656</ele>
    <time>2012-04-02T15:34:04Z</time>
   </trkpt>
   <trkpt lat="46.2331771850586" lon="6.92291498184204">
    <ele>739.036376953125</ele>
    <time>2012-04-02T15:34:05Z</time>
   </trkpt>
   <trkpt lat="46.2331581115723" lon="6.92288684844971">
    <ele>739.218200683594</ele>
    <time>2012-04-02T15:34:06Z</time>
   </trkpt>
   <trkpt lat="46.2331428527832" lon="6.92285776138306">
    <ele>739.400024414062</ele>
    <time>2012-04-02T15:34:07Z</time>
   </trkpt>
   <trkpt lat="46.2331085205078" lon="6.92280912399292">
    <ele>739.400024414062</ele>
    <time>2012-04-02T15:34:09Z</time>
   </trkpt>
   <trkpt lat="46.2329788208008" lon="6.92266225814819">
    <ele>740.600036621094</ele>
    <time>2012-04-02T15:34:15Z</time>
   </trkpt>
   <trkpt lat="46.2329559326172" lon="6.92264175415039">
    <ele>740.800048828125</ele>
    <time>2012-04-02T15:34:16Z</time>
   </trkpt>
   <trkpt lat="46.2329292297363" lon="6.92262077331543">
    <ele>741</ele>
    <time>2012-04-02T15:34:17Z</time>
   </trkpt>
   <trkpt lat="46.2329063415527" lon="6.92260646820068">
    <ele>741.200012207031</ele>
    <time>2012-04-02T15:34:18Z</time>
   </trkpt>
   <trkpt lat="46.2328834533691" lon="6.92259311676025">
    <ele>741.400024414062</ele>
    <time>2012-04-02T15:34:19Z</time>
   </trkpt>
   <trkpt lat="46.232723236084" lon="6.92249536514282">
    <ele>741.400024414062</ele>
    <time>2012-04-02T15:34:25Z</time>
   </trkpt>
   <trkpt lat="46.2325897216797" lon="6.92243194580078">
    <ele>742.775024414062</ele>
    <time>2012-04-02T15:34:30Z</time>
   </trkpt>
   <trkpt lat="46.2325630187988" lon="6.92241477966309">
    <ele>743.049987792969</ele>
    <time>2012-04-02T15:34:31Z</time>
   </trkpt>
   <trkpt lat="46.2325325012207" lon="6.92239475250244">
    <ele>743.324951171875</ele>
    <time>2012-04-02T15:34:32Z</time>
   </trkpt>
   <trkpt lat="46.2325096130371" lon="6.92238092422485">
    <ele>743.599975585938</ele>
    <time>2012-04-02T15:34:33Z</time>
   </trkpt>
   <trkpt lat="46.2324829101562" lon="6.92236280441284">
    <ele>743.599975585938</ele>
    <time>2012-04-02T15:34:34Z</time>
   </trkpt>
   <trkpt lat="46.2322845458984" lon="6.92219638824463">
    <ele>745.123046875</ele>
    <time>2012-04-02T15:34:43Z</time>
   </trkpt>
   <trkpt lat="46.2322578430176" lon="6.9221830368042">
    <ele>745.292297363281</ele>
    <time>2012-04-02T15:34:44Z</time>
   </trkpt>
   <trkpt lat="46.232234954834" lon="6.92216396331787">
    <ele>745.461547851562</ele>
    <time>2012-04-02T15:34:45Z</time>
   </trkpt>
   <trkpt lat="46.2322120666504" lon="6.92214441299438">
    <ele>745.630737304688</ele>
    <time>2012-04-02T15:34:46Z</time>
   </trkpt>
   <trkpt lat="46.2321929931641" lon="6.92211961746216">
    <ele>745.799987792969</ele>
    <time>2012-04-02T15:34:47Z</time>
   </trkpt>
   <trkpt lat="46.2321472167969" lon="6.9220757484436">
    <ele>745.799987792969</ele>
    <time>2012-04-02T15:34:49Z</time>
   </trkpt>
   <trkpt lat="46.2320175170898" lon="6.92193841934204">
    <ele>746.815368652344</ele>
    <time>2012-04-02T15:34:55Z</time>
   </trkpt>
   <trkpt lat="46.2319564819336" lon="6.92185115814209">
    <ele>747.323059082031</ele>
    <time>2012-04-02T15:34:58Z</time>
   </trkpt>
   <trkpt lat="46.2319412231445" lon="6.92181587219238">
    <ele>747.492309570312</ele>
    <time>2012-04-02T15:34:59Z</time>
   </trkpt>
   <trkpt lat="46.23193359375" lon="6.92177200317383">
    <ele>747.661560058594</ele>
    <time>2012-04-02T15:35:00Z</time>
   </trkpt>
   <trkpt lat="46.2319259643555" lon="6.92171287536621">
    <ele>747.830749511719</ele>
    <time>2012-04-02T15:35:01Z</time>
   </trkpt>
   <trkpt lat="46.2319221496582" lon="6.92166090011597">
    <ele>748</ele>
    <time>2012-04-02T15:35:02Z</time>
   </trkpt>
   <trkpt lat="46.2318801879883" lon="6.92141342163086">
    <ele>748</ele>
    <time>2012-04-02T15:35:07Z</time>
   </trkpt>
   <trkpt lat="46.2318382263184" lon="6.92113590240478">
    <ele>749.320007324219</ele>
    <time>2012-04-02T15:35:13Z</time>
   </trkpt>
   <trkpt lat="46.2318305969238" lon="6.92109441757202">
    <ele>749.5400390625</ele>
    <time>2012-04-02T15:35:14Z</time>
   </trkpt>
   <trkpt lat="46.231819152832" lon="6.92105150222778">
    <ele>749.760009765625</ele>
    <time>2012-04-02T15:35:15Z</time>
   </trkpt>
   <trkpt lat="46.2318115234375" lon="6.92100858688354">
    <ele>749.97998046875</ele>
    <time>2012-04-02T15:35:16Z</time>
   </trkpt>
   <trkpt lat="46.231803894043" lon="6.92096710205078">
    <ele>750.200012207031</ele>
    <time>2012-04-02T15:35:17Z</time>
   </trkpt>
   <trkpt lat="46.2317581176758" lon="6.92072057723999">
    <ele>750.200012207031</ele>
    <time>2012-04-02T15:35:23Z</time>
   </trkpt>
   <trkpt lat="46.2317504882812" lon="6.9206805229187">
    <ele>750.600036621094</ele>
    <time>2012-04-02T15:35:24Z</time>
   </trkpt>
   <trkpt lat="46.2317390441894" lon="6.92064189910889">
    <ele>751</ele>
    <time>2012-04-02T15:35:25Z</time>
   </trkpt>
   <trkpt lat="46.2317276000977" lon="6.92060279846191">
    <ele>751.400024414062</ele>
    <time>2012-04-02T15:35:26Z</time>
   </trkpt>
   <trkpt lat="46.2317161560059" lon="6.92056274414062">
    <ele>751.799987792969</ele>
    <time>2012-04-02T15:35:27Z</time>
   </trkpt>
   <trkpt lat="46.2317008972168" lon="6.9205265045166">
    <ele>752.200012207031</ele>
    <time>2012-04-02T15:35:28Z</time>
   </trkpt>
   <trkpt lat="46.2316513061523" lon="6.92038059234619">
    <ele>752.200012207031</ele>
    <time>2012-04-02T15:35:32Z</time>
   </trkpt>
   <trkpt lat="46.2315444946289" lon="6.92016649246216">
    <ele>753.52001953125</ele>
    <time>2012-04-02T15:35:38Z</time>
   </trkpt>
   <trkpt lat="46.2315254211426" lon="6.9201340675354">
    <ele>753.739990234375</ele>
    <time>2012-04-02T15:35:39Z</time>
   </trkpt>
   <trkpt lat="46.2315063476562" lon="6.92010068893433">
    <ele>753.960021972656</ele>
    <time>2012-04-02T15:35:40Z</time>
   </trkpt>
   <trkpt lat="46.2314872741699" lon="6.92006874084473">
    <ele>754.180053710938</ele>
    <time>2012-04-02T15:35:41Z</time>
   </trkpt>
   <trkpt lat="46.2314682006836" lon="6.92003393173218">
    <ele>754.400024414062</ele>
    <time>2012-04-02T15:35:42Z</time>
   </trkpt>
   <trkpt lat="46.2313385009766" lon="6.91980409622192">
    <ele>754.400024414062</ele>
    <time>2012-04-02T15:35:49Z</time>
   </trkpt>
   <trkpt lat="46.2313117980957" lon="6.91965675354004">
    <ele>755.400024414062</ele>
    <time>2012-04-02T15:35:53Z</time>
   </trkpt>
   <trkpt lat="46.2313232421875" lon="6.91961860656738">
    <ele>755.650024414062</ele>
    <time>2012-04-02T15:35:54Z</time>
   </trkpt>
   <trkpt lat="46.2313346862793" lon="6.91958999633789">
    <ele>755.900024414062</ele>
    <time>2012-04-02T15:35:55Z</time>
   </trkpt>
   <trkpt lat="46.2313537597656" lon="6.9195671081543">
    <ele>756.150024414062</ele>
    <time>2012-04-02T15:35:56Z</time>
   </trkpt>
   <trkpt lat="46.2313766479492" lon="6.9195671081543">
    <ele>756.400024414062</ele>
    <time>2012-04-02T15:35:57Z</time>
   </trkpt>
   <trkpt lat="46.2314033508301" lon="6.9195671081543">
    <ele>756.400024414062</ele>
    <time>2012-04-02T15:35:58Z</time>
   </trkpt>
   <trkpt lat="46.2314720153809" lon="6.91962003707886">
    <ele>757.342834472656</ele>
    <time>2012-04-02T15:36:01Z</time>
   </trkpt>
   <trkpt lat="46.2314872741699" lon="6.91964817047119">
    <ele>757.657165527344</ele>
    <time>2012-04-02T15:36:02Z</time>
   </trkpt>
   <trkpt lat="46.231502532959" lon="6.91967582702637">
    <ele>757.971435546875</ele>
    <time>2012-04-02T15:36:03Z</time>
   </trkpt>
   <trkpt lat="46.231517791748" lon="6.91970348358154">
    <ele>758.285705566406</ele>
    <time>2012-04-02T15:36:04Z</time>
   </trkpt>
   <trkpt lat="46.2315292358398" lon="6.91973876953125">
    <ele>758.599975585938</ele>
    <time>2012-04-02T15:36:05Z</time>
   </trkpt>
   <trkpt lat="46.2315788269043" lon="6.91986656188965">
    <ele>758.599975585938</ele>
    <time>2012-04-02T15:36:09Z</time>
   </trkpt>
   <trkpt lat="46.2316131591797" lon="6.91993379592896">
    <ele>759.399963378906</ele>
    <time>2012-04-02T15:36:11Z</time>
   </trkpt>
   <trkpt lat="46.2316246032715" lon="6.91996955871582">
    <ele>759.799987792969</ele>
    <time>2012-04-02T15:36:12Z</time>
   </trkpt>
   <trkpt lat="46.2316398620606" lon="6.92000579833984">
    <ele>760.199951171875</ele>
    <time>2012-04-02T15:36:13Z</time>
   </trkpt>
   <trkpt lat="46.2316513061523" lon="6.92004251480102">
    <ele>760.599975585938</ele>
    <time>2012-04-02T15:36:14Z</time>
   </trkpt>
   <trkpt lat="46.2316703796387" lon="6.92010736465454">
    <ele>760.599975585938</ele>
    <time>2012-04-02T15:36:16Z</time>
   </trkpt>
   <trkpt lat="46.2317047119141" lon="6.92020034790039">
    <ele>761.457092285156</ele>
    <time>2012-04-02T15:36:19Z</time>
   </trkpt>
   <trkpt lat="46.2317123413086" lon="6.92023277282715">
    <ele>761.742858886719</ele>
    <time>2012-04-02T15:36:20Z</time>
   </trkpt>
   <trkpt lat="46.2317199707031" lon="6.9202675819397">
    <ele>762.028564453125</ele>
    <time>2012-04-02T15:36:21Z</time>
   </trkpt>
   <trkpt lat="46.2317276000977" lon="6.9202995300293">
    <ele>762.314270019531</ele>
    <time>2012-04-02T15:36:22Z</time>
   </trkpt>
   <trkpt lat="46.2317428588867" lon="6.92032957077026">
    <ele>762.599975585938</ele>
    <time>2012-04-02T15:36:23Z</time>
   </trkpt>
   <trkpt lat="46.2317771911621" lon="6.92041063308716">
    <ele>762.599975585938</ele>
    <time>2012-04-02T15:36:26Z</time>
   </trkpt>
   <trkpt lat="46.231819152832" lon="6.92049980163574">
    <ele>763.457092285156</ele>
    <time>2012-04-02T15:36:29Z</time>
   </trkpt>
   <trkpt lat="46.2318344116211" lon="6.92052936553955">
    <ele>763.742858886719</ele>
    <time>2012-04-02T15:36:30Z</time>
   </trkpt>
   <trkpt lat="46.2318496704102" lon="6.92056274414062">
    <ele>764.028564453125</ele>
    <time>2012-04-02T15:36:31Z</time>
   </trkpt>
   <trkpt lat="46.2318649291992" lon="6.92059946060181">
    <ele>764.314270019531</ele>
    <time>2012-04-02T15:36:32Z</time>
   </trkpt>
   <trkpt lat="46.231876373291" lon="6.9206337928772">
    <ele>764.599975585938</ele>
    <time>2012-04-02T15:36:33Z</time>
   </trkpt>
   <trkpt lat="46.2318916320801" lon="6.92067289352417">
    <ele>764.599975585938</ele>
    <time>2012-04-02T15:36:34Z</time>
   </trkpt>
   <trkpt lat="46.2319068908691" lon="6.9207444190979">
    <ele>765.333312988281</ele>
    <time>2012-04-02T15:36:36Z</time>
   </trkpt>
   <trkpt lat="46.2319145202637" lon="6.92078113555908">
    <ele>765.699951171875</ele>
    <time>2012-04-02T15:36:37Z</time>
   </trkpt>
   <trkpt lat="46.2319183349609" lon="6.92081546783447">
    <ele>766.066650390625</ele>
    <time>2012-04-02T15:36:38Z</time>
   </trkpt>
   <trkpt lat="46.23193359375" lon="6.92085361480713">
    <ele>766.433349609375</ele>
    <time>2012-04-02T15:36:39Z</time>
   </trkpt>
   <trkpt lat="46.2319450378418" lon="6.92088079452515">
    <ele>766.799987792969</ele>
    <time>2012-04-02T15:36:40Z</time>
   </trkpt>
   <trkpt lat="46.2319602966309" lon="6.92090892791748">
    <ele>766.799987792969</ele>
    <time>2012-04-02T15:36:41Z</time>
   </trkpt>
   <trkpt lat="46.2320709228516" lon="6.92105484008789">
    <ele>768.022216796875</ele>
    <time>2012-04-02T15:36:46Z</time>
   </trkpt>
   <trkpt lat="46.2320861816406" lon="6.92108297348022">
    <ele>768.266662597656</ele>
    <time>2012-04-02T15:36:47Z</time>
   </trkpt>
   <trkpt lat="46.2321014404297" lon="6.9211106300354">
    <ele>768.511108398438</ele>
    <time>2012-04-02T15:36:48Z</time>
   </trkpt>
   <trkpt lat="46.232120513916" lon="6.92113542556763">
    <ele>768.755554199219</ele>
    <time>2012-04-02T15:36:49Z</time>
   </trkpt>
   <trkpt lat="46.2321395874023" lon="6.92116022109985">
    <ele>769</ele>
    <time>2012-04-02T15:36:50Z</time>
   </trkpt>
   <trkpt lat="46.2322540283203" lon="6.92128086090088">
    <ele>769</ele>
    <time>2012-04-02T15:36:56Z</time>
   </trkpt>
   <trkpt lat="46.2322731018066" lon="6.9212965965271">
    <ele>769.440002441406</ele>
    <time>2012-04-02T15:36:57Z</time>
   </trkpt>
   <trkpt lat="46.232292175293" lon="6.92131423950195">
    <ele>769.880004882812</ele>
    <time>2012-04-02T15:36:58Z</time>
   </trkpt>
   <trkpt lat="46.2323112487793" lon="6.92133092880249">
    <ele>770.320007324219</ele>
    <time>2012-04-02T15:36:59Z</time>
   </trkpt>
   <trkpt lat="46.2323303222656" lon="6.92135000228882">
    <ele>770.760009765625</ele>
    <time>2012-04-02T15:37:00Z</time>
   </trkpt>
   <trkpt lat="46.2323532104492" lon="6.92136001586914">
    <ele>771.200012207031</ele>
    <time>2012-04-02T15:37:01Z</time>
   </trkpt>
   <trkpt lat="46.2323989868164" lon="6.92140245437622">
    <ele>771.200012207031</ele>
    <time>2012-04-02T15:37:03Z</time>
   </trkpt>
   <trkpt lat="46.2325019836426" lon="6.92145204544067">
    <ele>772.200012207031</ele>
    <time>2012-04-02T15:37:07Z</time>
   </trkpt>
   <trkpt lat="46.2325286865234" lon="6.92146730422974">
    <ele>772.450012207031</ele>
    <time>2012-04-02T15:37:08Z</time>
   </trkpt>
   <trkpt lat="46.232551574707" lon="6.92148113250732">
    <ele>772.700012207031</ele>
    <time>2012-04-02T15:37:09Z</time>
   </trkpt>
   <trkpt lat="46.2325782775879" lon="6.92149305343628">
    <ele>772.950012207031</ele>
    <time>2012-04-02T15:37:10Z</time>
   </trkpt>
   <trkpt lat="46.2326049804688" lon="6.92150688171387">
    <ele>773.200012207031</ele>
    <time>2012-04-02T15:37:11Z</time>
   </trkpt>
   <trkpt lat="46.2327728271484" lon="6.92153596878052">
    <ele>773.200012207031</ele>
    <time>2012-04-02T15:37:17Z</time>
   </trkpt>
   <trkpt lat="46.2329368591309" lon="6.92155027389526">
    <ele>774.533325195312</ele>
    <time>2012-04-02T15:37:23Z</time>
   </trkpt>
   <trkpt lat="46.2329597473144" lon="6.92155170440674">
    <ele>774.755554199219</ele>
    <time>2012-04-02T15:37:24Z</time>
   </trkpt>
   <trkpt lat="46.2329902648926" lon="6.92155313491821">
    <ele>774.977783203125</ele>
    <time>2012-04-02T15:37:25Z</time>
   </trkpt>
   <trkpt lat="46.2330207824707" lon="6.92155504226685">
    <ele>775.200012207031</ele>
    <time>2012-04-02T15:37:26Z</time>
   </trkpt>
   <trkpt lat="46.2331924438477" lon="6.92157220840454">
    <ele>775.200012207031</ele>
    <time>2012-04-02T15:37:32Z</time>
   </trkpt>
   <trkpt lat="46.2333374023438" lon="6.92160749435425">
    <ele>775.985717773438</ele>
    <time>2012-04-02T15:37:37Z</time>
   </trkpt>
   <trkpt lat="46.2334251403809" lon="6.92163705825806">
    <ele>776.457153320312</ele>
    <time>2012-04-02T15:37:40Z</time>
   </trkpt>
   <trkpt lat="46.2334823608398" lon="6.92166376113892">
    <ele>776.771423339844</ele>
    <time>2012-04-02T15:37:42Z</time>
   </trkpt>
   <trkpt lat="46.233512878418" lon="6.92168140411377">
    <ele>776.928588867188</ele>
    <time>2012-04-02T15:37:43Z</time>
   </trkpt>
   <trkpt lat="46.2335395812988" lon="6.92169904708862">
    <ele>777.085754394531</ele>
    <time>2012-04-02T15:37:44Z</time>
   </trkpt>
   <trkpt lat="46.2335662841797" lon="6.92171716690064">
    <ele>777.242858886719</ele>
    <time>2012-04-02T15:37:45Z</time>
   </trkpt>
   <trkpt lat="46.2335929870606" lon="6.92174196243286">
    <ele>777.400024414062</ele>
    <time>2012-04-02T15:37:46Z</time>
   </trkpt>
   <trkpt lat="46.2336196899414" lon="6.92176151275635">
    <ele>777.400024414062</ele>
    <time>2012-04-02T15:37:47Z</time>
   </trkpt>
   <trkpt lat="46.2337837219238" lon="6.92191648483276">
    <ele>778.799987792969</ele>
    <time>2012-04-02T15:37:54Z</time>
   </trkpt>
   <trkpt lat="46.2338371276856" lon="6.92196178436279">
    <ele>779.200012207031</ele>
    <time>2012-04-02T15:37:56Z</time>
   </trkpt>
   <trkpt lat="46.2338600158691" lon="6.92198705673218">
    <ele>779.400024414062</ele>
    <time>2012-04-02T15:37:57Z</time>
   </trkpt>
   <trkpt lat="46.23388671875" lon="6.92200756072998">
    <ele>779.599975585938</ele>
    <time>2012-04-02T15:37:58Z</time>
   </trkpt>
   <trkpt lat="46.2339057922363" lon="6.92202758789062">
    <ele>779.799987792969</ele>
    <time>2012-04-02T15:37:59Z</time>
   </trkpt>
   <trkpt lat="46.2339286804199" lon="6.92204332351685">
    <ele>780</ele>
    <time>2012-04-02T15:38:00Z</time>
   </trkpt>
   <trkpt lat="46.2340316772461" lon="6.92211008071899">
    <ele>780.799987792969</ele>
    <time>2012-04-02T15:38:04Z</time>
   </trkpt>
   <trkpt lat="46.2340507507324" lon="6.92211866378784">
    <ele>781</ele>
    <time>2012-04-02T15:38:05Z</time>
   </trkpt>
   <trkpt lat="46.2340812683106" lon="6.92212915420532">
    <ele>781.199951171875</ele>
    <time>2012-04-02T15:38:06Z</time>
   </trkpt>
   <trkpt lat="46.2341079711914" lon="6.9221396446228">
    <ele>781.399963378906</ele>
    <time>2012-04-02T15:38:07Z</time>
   </trkpt>
   <trkpt lat="46.234130859375" lon="6.92215156555176">
    <ele>781.599975585938</ele>
    <time>2012-04-02T15:38:08Z</time>
   </trkpt>
   <trkpt lat="46.2341842651367" lon="6.92216873168945">
    <ele>781.599975585938</ele>
    <time>2012-04-02T15:38:10Z</time>
   </trkpt>
   <trkpt lat="46.2343673706055" lon="6.92221927642822">
    <ele>783</ele>
    <time>2012-04-02T15:38:17Z</time>
   </trkpt>
   <trkpt lat="46.2343902587891" lon="6.92222213745117">
    <ele>783.200012207031</ele>
    <time>2012-04-02T15:38:18Z</time>
   </trkpt>
   <trkpt lat="46.2344169616699" lon="6.92222690582275">
    <ele>783.399963378906</ele>
    <time>2012-04-02T15:38:19Z</time>
   </trkpt>
   <trkpt lat="46.234447479248" lon="6.92223072052002">
    <ele>783.599975585938</ele>
    <time>2012-04-02T15:38:20Z</time>
   </trkpt>
   <trkpt lat="46.2344741821289" lon="6.9222354888916">
    <ele>783.799987792969</ele>
    <time>2012-04-02T15:38:21Z</time>
   </trkpt>
   <trkpt lat="46.2345848083496" lon="6.92224740982056">
    <ele>783.799987792969</ele>
    <time>2012-04-02T15:38:25Z</time>
   </trkpt>
   <trkpt lat="46.2346649169922" lon="6.92226409912109">
    <ele>784.567993164062</ele>
    <time>2012-04-02T15:38:28Z</time>
   </trkpt>
   <trkpt lat="46.234691619873" lon="6.92226839065552">
    <ele>784.823974609375</ele>
    <time>2012-04-02T15:38:29Z</time>
   </trkpt>
   <trkpt lat="46.2347145080566" lon="6.92227363586426">
    <ele>785.080017089844</ele>
    <time>2012-04-02T15:38:30Z</time>
   </trkpt>
   <trkpt lat="46.2347412109375" lon="6.92227745056152">
    <ele>785.335998535156</ele>
    <time>2012-04-02T15:38:31Z</time>
   </trkpt>
   <trkpt lat="46.2347640991211" lon="6.92228269577026">
    <ele>785.591979980469</ele>
    <time>2012-04-02T15:38:32Z</time>
   </trkpt>
   <trkpt lat="46.2349052429199" lon="6.92232275009155">
    <ele>787.127990722656</ele>
    <time>2012-04-02T15:38:38Z</time>
   </trkpt>
   <trkpt lat="46.2349281311035" lon="6.92232894897461">
    <ele>787.383972167969</ele>
    <time>2012-04-02T15:38:39Z</time>
   </trkpt>
   <trkpt lat="46.2349510192871" lon="6.92234039306641">
    <ele>787.640014648438</ele>
    <time>2012-04-02T15:38:40Z</time>
   </trkpt>
   <trkpt lat="46.2349739074707" lon="6.92234563827515">
    <ele>787.89599609375</ele>
    <time>2012-04-02T15:38:41Z</time>
   </trkpt>
   <trkpt lat="46.2350883483887" lon="6.92239475250244">
    <ele>789.176025390625</ele>
    <time>2012-04-02T15:38:46Z</time>
   </trkpt>
   <trkpt lat="46.2351112365723" lon="6.9224042892456">
    <ele>789.432006835938</ele>
    <time>2012-04-02T15:38:47Z</time>
   </trkpt>
   <trkpt lat="46.2351303100586" lon="6.92241716384888">
    <ele>789.68798828125</ele>
    <time>2012-04-02T15:38:48Z</time>
   </trkpt>
   <trkpt lat="46.2351531982422" lon="6.92242574691772">
    <ele>789.944030761719</ele>
    <time>2012-04-02T15:38:49Z</time>
   </trkpt>
   <trkpt lat="46.2351760864258" lon="6.92243719100952">
    <ele>790.200012207031</ele>
    <time>2012-04-02T15:38:50Z</time>
   </trkpt>
   <trkpt lat="46.235237121582" lon="6.92247247695923">
    <ele>790.200012207031</ele>
    <time>2012-04-02T15:38:53Z</time>
   </trkpt>
   <trkpt lat="46.2353134155273" lon="6.92250633239746">
    <ele>790.941162109375</ele>
    <time>2012-04-02T15:38:56Z</time>
   </trkpt>
   <trkpt lat="46.2353324890137" lon="6.92251968383789">
    <ele>791.188232421875</ele>
    <time>2012-04-02T15:38:57Z</time>
   </trkpt>
   <trkpt lat="46.2353591918945" lon="6.92253065109253">
    <ele>791.435302734375</ele>
    <time>2012-04-02T15:38:58Z</time>
   </trkpt>
   <trkpt lat="46.2353782653809" lon="6.9225435256958">
    <ele>791.682373046875</ele>
    <time>2012-04-02T15:38:59Z</time>
   </trkpt>
   <trkpt lat="46.2353973388672" lon="6.92255067825317">
    <ele>791.929443359375</ele>
    <time>2012-04-02T15:39:00Z</time>
   </trkpt>
   <trkpt lat="46.235538482666" lon="6.92261457443237">
    <ele>793.411804199219</ele>
    <time>2012-04-02T15:39:06Z</time>
   </trkpt>
   <trkpt lat="46.2355651855469" lon="6.92262983322144">
    <ele>793.658874511719</ele>
    <time>2012-04-02T15:39:07Z</time>
   </trkpt>
   <trkpt lat="46.2355880737305" lon="6.92263793945312">
    <ele>793.905883789062</ele>
    <time>2012-04-02T15:39:08Z</time>
   </trkpt>
   <trkpt lat="46.2356147766113" lon="6.92264938354492">
    <ele>794.152954101562</ele>
    <time>2012-04-02T15:39:09Z</time>
   </trkpt>
   <trkpt lat="46.2356338500977" lon="6.92265796661377">
    <ele>794.400024414062</ele>
    <time>2012-04-02T15:39:10Z</time>
   </trkpt>
   <trkpt lat="46.2357444763184" lon="6.9227032661438">
    <ele>794.400024414062</ele>
    <time>2012-04-02T15:39:15Z</time>
   </trkpt>
   <trkpt lat="46.2357711791992" lon="6.92270803451538">
    <ele>794.800048828125</ele>
    <time>2012-04-02T15:39:16Z</time>
   </trkpt>
   <trkpt lat="46.2357940673828" lon="6.9227147102356">
    <ele>795.200012207031</ele>
    <time>2012-04-02T15:39:17Z</time>
   </trkpt>
   <trkpt lat="46.2358169555664" lon="6.92272233963013">
    <ele>795.600036621094</ele>
    <time>2012-04-02T15:39:18Z</time>
   </trkpt>
   <trkpt lat="46.23583984375" lon="6.92273044586182">
    <ele>796</ele>
    <time>2012-04-02T15:39:19Z</time>
   </trkpt>
   <trkpt lat="46.2358627319336" lon="6.92274236679077">
    <ele>796.400024414062</ele>
    <time>2012-04-02T15:39:20Z</time>
   </trkpt>
   <trkpt lat="46.2358856201172" lon="6.92274808883667">
    <ele>796.400024414062</ele>
    <time>2012-04-02T15:39:21Z</time>
   </trkpt>
   <trkpt lat="46.2360076904297" lon="6.92277956008911">
    <ele>797.775024414062</ele>
    <time>2012-04-02T15:39:26Z</time>
   </trkpt>
   <trkpt lat="46.2360305786133" lon="6.92278909683228">
    <ele>798.049987792969</ele>
    <time>2012-04-02T15:39:27Z</time>
   </trkpt>
   <trkpt lat="46.2360572814941" lon="6.92279529571533">
    <ele>798.324951171875</ele>
    <time>2012-04-02T15:39:28Z</time>
   </trkpt>
   <trkpt lat="46.2360801696777" lon="6.92280435562134">
    <ele>798.599975585938</ele>
    <time>2012-04-02T15:39:29Z</time>
   </trkpt>
   <trkpt lat="46.2361946105957" lon="6.92283058166504">
    <ele>798.599975585938</ele>
    <time>2012-04-02T15:39:34Z</time>
   </trkpt>
   <trkpt lat="46.2362442016602" lon="6.92284107208252">
    <ele>799.333312988281</ele>
    <time>2012-04-02T15:39:36Z</time>
   </trkpt>
   <trkpt lat="46.236270904541" lon="6.9228458404541">
    <ele>799.699951171875</ele>
    <time>2012-04-02T15:39:37Z</time>
   </trkpt>
   <trkpt lat="46.2362937927246" lon="6.92284727096558">
    <ele>800.066650390625</ele>
    <time>2012-04-02T15:39:38Z</time>
   </trkpt>
   <trkpt lat="46.2363166809082" lon="6.92284822463989">
    <ele>800.433349609375</ele>
    <time>2012-04-02T15:39:39Z</time>
   </trkpt>
   <trkpt lat="46.2363395690918" lon="6.92285299301148">
    <ele>800.799987792969</ele>
    <time>2012-04-02T15:39:40Z</time>
   </trkpt>
   <trkpt lat="46.2363624572754" lon="6.92285776138306">
    <ele>800.799987792969</ele>
    <time>2012-04-02T15:39:41Z</time>
   </trkpt>
   <trkpt lat="46.2364654541016" lon="6.92287254333496">
    <ele>801.733337402344</ele>
    <time>2012-04-02T15:39:45Z</time>
   </trkpt>
   <trkpt lat="46.2364921569824" lon="6.92287635803223">
    <ele>801.966674804688</ele>
    <time>2012-04-02T15:39:46Z</time>
   </trkpt>
   <trkpt lat="46.2365188598633" lon="6.92287921905518">
    <ele>802.200012207031</ele>
    <time>2012-04-02T15:39:47Z</time>
   </trkpt>
   <trkpt lat="46.2365417480469" lon="6.92288494110107">
    <ele>802.433349609375</ele>
    <time>2012-04-02T15:39:48Z</time>
   </trkpt>
   <trkpt lat="46.2365646362305" lon="6.92288970947266">
    <ele>802.666687011719</ele>
    <time>2012-04-02T15:39:49Z</time>
   </trkpt>
   <trkpt lat="46.2366981506348" lon="6.92290163040161">
    <ele>804.066650390625</ele>
    <time>2012-04-02T15:39:55Z</time>
   </trkpt>
   <trkpt lat="46.2367210388184" lon="6.92290830612183">
    <ele>804.299987792969</ele>
    <time>2012-04-02T15:39:56Z</time>
   </trkpt>
   <trkpt lat="46.236743927002" lon="6.92290782928467">
    <ele>804.533325195312</ele>
    <time>2012-04-02T15:39:57Z</time>
   </trkpt>
   <trkpt lat="46.2367706298828" lon="6.92291069030762">
    <ele>804.766662597656</ele>
    <time>2012-04-02T15:39:58Z</time>
   </trkpt>
   <trkpt lat="46.2367935180664" lon="6.92291259765625">
    <ele>805</ele>
    <time>2012-04-02T15:39:59Z</time>
   </trkpt>
   <trkpt lat="46.2368431091309" lon="6.92291498184204">
    <ele>805</ele>
    <time>2012-04-02T15:40:01Z</time>
   </trkpt>
   <trkpt lat="46.2369346618652" lon="6.92291116714478">
    <ele>805.888916015625</ele>
    <time>2012-04-02T15:40:05Z</time>
   </trkpt>
   <trkpt lat="46.2369613647461" lon="6.92291402816772">
    <ele>806.111083984375</ele>
    <time>2012-04-02T15:40:06Z</time>
   </trkpt>
   <trkpt lat="46.2369804382324" lon="6.92291736602783">
    <ele>806.333312988281</ele>
    <time>2012-04-02T15:40:07Z</time>
   </trkpt>
   <trkpt lat="46.237003326416" lon="6.92292356491089">
    <ele>806.555541992188</ele>
    <time>2012-04-02T15:40:08Z</time>
   </trkpt>
   <trkpt lat="46.2370262145996" lon="6.9229302406311">
    <ele>806.777770996094</ele>
    <time>2012-04-02T15:40:09Z</time>
   </trkpt>
   <trkpt lat="46.2370491027832" lon="6.92293357849121">
    <ele>807</ele>
    <time>2012-04-02T15:40:10Z</time>
   </trkpt>
   <trkpt lat="46.2371940612793" lon="6.92294073104858">
    <ele>807</ele>
    <time>2012-04-02T15:40:16Z</time>
   </trkpt>
   <trkpt lat="46.2372207641602" lon="6.92293787002564">
    <ele>807.549987792969</ele>
    <time>2012-04-02T15:40:17Z</time>
   </trkpt>
   <trkpt lat="46.2372436523438" lon="6.92293739318848">
    <ele>808.099975585938</ele>
    <time>2012-04-02T15:40:18Z</time>
   </trkpt>
   <trkpt lat="46.2372665405273" lon="6.92294120788574">
    <ele>808.650024414062</ele>
    <time>2012-04-02T15:40:19Z</time>
   </trkpt>
   <trkpt lat="46.2372894287109" lon="6.92294120788574">
    <ele>809.200012207031</ele>
    <time>2012-04-02T15:40:20Z</time>
   </trkpt>
   <trkpt lat="46.2373313903809" lon="6.92294406890869">
    <ele>809.200012207031</ele>
    <time>2012-04-02T15:40:22Z</time>
   </trkpt>
   <trkpt lat="46.2374267578125" lon="6.92294502258301">
    <ele>810.200012207031</ele>
    <time>2012-04-02T15:40:26Z</time>
   </trkpt>
   <trkpt lat="46.2374458312988" lon="6.92294406890869">
    <ele>810.450012207031</ele>
    <time>2012-04-02T15:40:27Z</time>
   </trkpt>
   <trkpt lat="46.2374687194824" lon="6.92294073104858">
    <ele>810.700012207031</ele>
    <time>2012-04-02T15:40:28Z</time>
   </trkpt>
   <trkpt lat="46.237491607666" lon="6.92294502258301">
    <ele>810.950012207031</ele>
    <time>2012-04-02T15:40:29Z</time>
   </trkpt>
   <trkpt lat="46.2375183105469" lon="6.92294788360596">
    <ele>811.200012207031</ele>
    <time>2012-04-02T15:40:30Z</time>
   </trkpt>
   <trkpt lat="46.2376594543457" lon="6.9229736328125">
    <ele>811.200012207031</ele>
    <time>2012-04-02T15:40:36Z</time>
   </trkpt>
   <trkpt lat="46.2377090454102" lon="6.92297506332398">
    <ele>811.933349609375</ele>
    <time>2012-04-02T15:40:38Z</time>
   </trkpt>
   <trkpt lat="46.237735748291" lon="6.92297697067261">
    <ele>812.300048828125</ele>
    <time>2012-04-02T15:40:39Z</time>
   </trkpt>
   <trkpt lat="46.2377586364746" lon="6.92297887802124">
    <ele>812.666687011719</ele>
    <time>2012-04-02T15:40:40Z</time>
   </trkpt>
   <trkpt lat="46.2377853393555" lon="6.92298078536987">
    <ele>813.033325195312</ele>
    <time>2012-04-02T15:40:41Z</time>
   </trkpt>
   <trkpt lat="46.2378082275391" lon="6.92298603057861">
    <ele>813.400024414062</ele>
    <time>2012-04-02T15:40:42Z</time>
   </trkpt>
   <trkpt lat="46.2378311157227" lon="6.9229907989502">
    <ele>813.400024414062</ele>
    <time>2012-04-02T15:40:43Z</time>
   </trkpt>
   <trkpt lat="46.2379379272461" lon="6.92300081253052">
    <ele>814.239990234375</ele>
    <time>2012-04-02T15:40:47Z</time>
   </trkpt>
   <trkpt lat="46.2379608154297" lon="6.92300176620483">
    <ele>814.450012207031</ele>
    <time>2012-04-02T15:40:48Z</time>
   </trkpt>
   <trkpt lat="46.2379837036133" lon="6.9230055809021">
    <ele>814.660034179688</ele>
    <time>2012-04-02T15:40:49Z</time>
   </trkpt>
   <trkpt lat="46.2380065917969" lon="6.92301225662232">
    <ele>814.869995117188</ele>
    <time>2012-04-02T15:40:50Z</time>
   </trkpt>
   <trkpt lat="46.2380294799805" lon="6.9230170249939">
    <ele>815.080017089844</ele>
    <time>2012-04-02T15:40:51Z</time>
   </trkpt>
   <trkpt lat="46.2382125854492" lon="6.92305374145508">
    <ele>816.760009765625</ele>
    <time>2012-04-02T15:40:59Z</time>
   </trkpt>
   <trkpt lat="46.2382392883301" lon="6.92305612564087">
    <ele>816.969970703125</ele>
    <time>2012-04-02T15:41:00Z</time>
   </trkpt>
   <trkpt lat="46.2382621765137" lon="6.92306089401245">
    <ele>817.179992675781</ele>
    <time>2012-04-02T15:41:01Z</time>
   </trkpt>
   <trkpt lat="46.2382850646973" lon="6.92307424545288">
    <ele>817.389953613281</ele>
    <time>2012-04-02T15:41:02Z</time>
   </trkpt>
   <trkpt lat="46.2383079528809" lon="6.9230842590332">
    <ele>817.599975585938</ele>
    <time>2012-04-02T15:41:03Z</time>
   </trkpt>
   <trkpt lat="46.2384033203125" lon="6.92312145233154">
    <ele>817.599975585938</ele>
    <time>2012-04-02T15:41:07Z</time>
   </trkpt>
   <trkpt lat="46.238452911377" lon="6.9231390953064">
    <ele>818.266662597656</ele>
    <time>2012-04-02T15:41:09Z</time>
   </trkpt>
   <trkpt lat="46.2384757995606" lon="6.92314958572388">
    <ele>818.599975585938</ele>
    <time>2012-04-02T15:41:10Z</time>
   </trkpt>
   <trkpt lat="46.2385025024414" lon="6.92315816879272">
    <ele>818.933288574219</ele>
    <time>2012-04-02T15:41:11Z</time>
   </trkpt>
   <trkpt lat="46.238525390625" lon="6.92316579818726">
    <ele>819.266662597656</ele>
    <time>2012-04-02T15:41:12Z</time>
   </trkpt>
   <trkpt lat="46.2385520935059" lon="6.92317247390747">
    <ele>819.599975585938</ele>
    <time>2012-04-02T15:41:13Z</time>
   </trkpt>
   <trkpt lat="46.2385711669922" lon="6.92318820953369">
    <ele>819.599975585938</ele>
    <time>2012-04-02T15:41:14Z</time>
   </trkpt>
   <trkpt lat="46.2387275695801" lon="6.9232497215271">
    <ele>820.799987792969</ele>
    <time>2012-04-02T15:41:20Z</time>
   </trkpt>
   <trkpt lat="46.2387504577637" lon="6.92325925827026">
    <ele>821</ele>
    <time>2012-04-02T15:41:21Z</time>
   </trkpt>
   <trkpt lat="46.2387733459473" lon="6.92326498031616">
    <ele>821.200012207031</ele>
    <time>2012-04-02T15:41:22Z</time>
   </trkpt>
   <trkpt lat="46.2388000488281" lon="6.92327260971069">
    <ele>821.399963378906</ele>
    <time>2012-04-02T15:41:23Z</time>
   </trkpt>
   <trkpt lat="46.2388191223144" lon="6.9232759475708">
    <ele>821.599975585938</ele>
    <time>2012-04-02T15:41:24Z</time>
   </trkpt>
   <trkpt lat="46.2388381958008" lon="6.92328310012817">
    <ele>821.799987792969</ele>
    <time>2012-04-02T15:41:25Z</time>
   </trkpt>
   <trkpt lat="46.238883972168" lon="6.92329263687134">
    <ele>821.799987792969</ele>
    <time>2012-04-02T15:41:27Z</time>
   </trkpt>
   <trkpt lat="46.2390289306641" lon="6.923255443573">
    <ele>823.174987792969</ele>
    <time>2012-04-02T15:41:32Z</time>
   </trkpt>
   <trkpt lat="46.2390518188477" lon="6.92323398590088">
    <ele>823.450012207031</ele>
    <time>2012-04-02T15:41:33Z</time>
   </trkpt>
   <trkpt lat="46.239070892334" lon="6.92321014404297">
    <ele>823.724975585938</ele>
    <time>2012-04-02T15:41:34Z</time>
   </trkpt>
   <trkpt lat="46.2390785217285" lon="6.92317962646484">
    <ele>824</ele>
    <time>2012-04-02T15:41:35Z</time>
   </trkpt>
   <trkpt lat="46.2390937805176" lon="6.92310905456543">
    <ele>824</ele>
    <time>2012-04-02T15:41:37Z</time>
   </trkpt>
   <trkpt lat="46.2390480041504" lon="6.922935962677">
    <ele>824.666687011719</ele>
    <time>2012-04-02T15:41:42Z</time>
   </trkpt>
   <trkpt lat="46.2389221191406" lon="6.9228105545044">
    <ele>825.466674804688</ele>
    <time>2012-04-02T15:41:48Z</time>
   </trkpt>
   <trkpt lat="46.2388916015625" lon="6.92280292510986">
    <ele>825.599975585938</ele>
    <time>2012-04-02T15:41:49Z</time>
   </trkpt>
   <trkpt lat="46.2388687133789" lon="6.92278623580933">
    <ele>825.733337402344</ele>
    <time>2012-04-02T15:41:50Z</time>
   </trkpt>
   <trkpt lat="46.2388381958008" lon="6.9227786064148">
    <ele>825.866638183594</ele>
    <time>2012-04-02T15:41:51Z</time>
   </trkpt>
   <trkpt lat="46.2388114929199" lon="6.92277002334595">
    <ele>826</ele>
    <time>2012-04-02T15:41:52Z</time>
   </trkpt>
   <trkpt lat="46.2387542724609" lon="6.92275810241699">
    <ele>826</ele>
    <time>2012-04-02T15:41:54Z</time>
   </trkpt>
   <trkpt lat="46.2385711669922" lon="6.92271280288696">
    <ele>827.358825683594</ele>
    <time>2012-04-02T15:42:01Z</time>
   </trkpt>
   <trkpt lat="46.2384986877441" lon="6.922682762146">
    <ele>827.941162109375</ele>
    <time>2012-04-02T15:42:04Z</time>
   </trkpt>
   <trkpt lat="46.2384719848633" lon="6.92267370223999">
    <ele>828.135314941406</ele>
    <time>2012-04-02T15:42:05Z</time>
   </trkpt>
   <trkpt lat="46.2384490966797" lon="6.92266035079956">
    <ele>828.329406738281</ele>
    <time>2012-04-02T15:42:06Z</time>
   </trkpt>
   <trkpt lat="46.2384223937988" lon="6.92265319824219">
    <ele>828.523498535156</ele>
    <time>2012-04-02T15:42:07Z</time>
   </trkpt>
   <trkpt lat="46.2383995056152" lon="6.92264080047607">
    <ele>828.717651367188</ele>
    <time>2012-04-02T15:42:08Z</time>
   </trkpt>
   <trkpt lat="46.2382354736328" lon="6.92252159118652">
    <ele>830.076477050781</ele>
    <time>2012-04-02T15:42:15Z</time>
   </trkpt>
   <trkpt lat="46.2382125854492" lon="6.92250394821167">
    <ele>830.270568847656</ele>
    <time>2012-04-02T15:42:16Z</time>
   </trkpt>
   <trkpt lat="46.2381896972656" lon="6.92248296737671">
    <ele>830.464660644531</ele>
    <time>2012-04-02T15:42:17Z</time>
   </trkpt>
   <trkpt lat="46.2381706237793" lon="6.92246341705322">
    <ele>830.658813476562</ele>
    <time>2012-04-02T15:42:18Z</time>
   </trkpt>
   <trkpt lat="46.238151550293" lon="6.92244338989258">
    <ele>830.852905273438</ele>
    <time>2012-04-02T15:42:19Z</time>
   </trkpt>
   <trkpt lat="46.2380485534668" lon="6.92235565185547">
    <ele>831.823486328125</ele>
    <time>2012-04-02T15:42:24Z</time>
   </trkpt>
   <trkpt lat="46.2380294799805" lon="6.9223370552063">
    <ele>832.017639160156</ele>
    <time>2012-04-02T15:42:25Z</time>
   </trkpt>
   <trkpt lat="46.2380065917969" lon="6.92231845855713">
    <ele>832.211730957031</ele>
    <time>2012-04-02T15:42:26Z</time>
   </trkpt>
   <trkpt lat="46.2379913330078" lon="6.92229652404785">
    <ele>832.405883789062</ele>
    <time>2012-04-02T15:42:27Z</time>
   </trkpt>
   <trkpt lat="46.2379684448242" lon="6.92227554321289">
    <ele>832.599975585938</ele>
    <time>2012-04-02T15:42:28Z</time>
   </trkpt>
   <trkpt lat="46.2378692626953" lon="6.92219400405884">
    <ele>832.599975585938</ele>
    <time>2012-04-02T15:42:33Z</time>
   </trkpt>
   <trkpt lat="46.237850189209" lon="6.92218112945557">
    <ele>833</ele>
    <time>2012-04-02T15:42:34Z</time>
   </trkpt>
   <trkpt lat="46.2378273010254" lon="6.92216920852661">
    <ele>833.399963378906</ele>
    <time>2012-04-02T15:42:35Z</time>
   </trkpt>
   <trkpt lat="46.2378082275391" lon="6.92215776443482">
    <ele>833.799987792969</ele>
    <time>2012-04-02T15:42:36Z</time>
   </trkpt>
   <trkpt lat="46.2377891540527" lon="6.92214584350586">
    <ele>834.199951171875</ele>
    <time>2012-04-02T15:42:37Z</time>
   </trkpt>
   <trkpt lat="46.2377624511719" lon="6.9221363067627">
    <ele>834.599975585938</ele>
    <time>2012-04-02T15:42:38Z</time>
   </trkpt>
   <trkpt lat="46.237678527832" lon="6.92208480834961">
    <ele>834.599975585938</ele>
    <time>2012-04-02T15:42:42Z</time>
   </trkpt>
   <trkpt lat="46.2375984191894" lon="6.92204141616821">
    <ele>835.599975585938</ele>
    <time>2012-04-02T15:42:46Z</time>
   </trkpt>
   <trkpt lat="46.2375793457031" lon="6.92202949523926">
    <ele>835.849975585938</ele>
    <time>2012-04-02T15:42:47Z</time>
   </trkpt>
   <trkpt lat="46.2375564575195" lon="6.92201709747314">
    <ele>836.099975585938</ele>
    <time>2012-04-02T15:42:48Z</time>
   </trkpt>
   <trkpt lat="46.2375335693359" lon="6.92200469970703">
    <ele>836.349975585938</ele>
    <time>2012-04-02T15:42:49Z</time>
   </trkpt>
   <trkpt lat="46.2375106811523" lon="6.92199611663818">
    <ele>836.599975585938</ele>
    <time>2012-04-02T15:42:50Z</time>
   </trkpt>
   <trkpt lat="46.2374877929688" lon="6.92198419570923">
    <ele>836.599975585938</ele>
    <time>2012-04-02T15:42:51Z</time>
   </trkpt>
   <trkpt lat="46.2373504638672" lon="6.92192649841309">
    <ele>837.799987792969</ele>
    <time>2012-04-02T15:42:57Z</time>
   </trkpt>
   <trkpt lat="46.2373237609863" lon="6.92191791534424">
    <ele>838</ele>
    <time>2012-04-02T15:42:58Z</time>
   </trkpt>
   <trkpt lat="46.2373008728027" lon="6.9219069480896">
    <ele>838.199951171875</ele>
    <time>2012-04-02T15:42:59Z</time>
   </trkpt>
   <trkpt lat="46.2372779846191" lon="6.92189693450928">
    <ele>838.399963378906</ele>
    <time>2012-04-02T15:43:00Z</time>
   </trkpt>
   <trkpt lat="46.2370872497559" lon="6.92178869247436">
    <ele>840</ele>
    <time>2012-04-02T15:43:08Z</time>
   </trkpt>
   <trkpt lat="46.2370681762695" lon="6.92177438735962">
    <ele>840.200012207031</ele>
    <time>2012-04-02T15:43:09Z</time>
   </trkpt>
   <trkpt lat="46.2370491027832" lon="6.92176008224487">
    <ele>840.399963378906</ele>
    <time>2012-04-02T15:43:10Z</time>
   </trkpt>
   <trkpt lat="46.2370262145996" lon="6.92174673080444">
    <ele>840.599975585938</ele>
    <time>2012-04-02T15:43:11Z</time>
   </trkpt>
   <trkpt lat="46.2369995117188" lon="6.9217324256897">
    <ele>840.799987792969</ele>
    <time>2012-04-02T15:43:12Z</time>
   </trkpt>
   <trkpt lat="46.2368621826172" lon="6.92162752151489">
    <ele>840.799987792969</ele>
    <time>2012-04-02T15:43:18Z</time>
   </trkpt>
   <trkpt lat="46.2368392944336" lon="6.92160940170288">
    <ele>841.200012207031</ele>
    <time>2012-04-02T15:43:19Z</time>
   </trkpt>
   <trkpt lat="46.23681640625" lon="6.92159080505371">
    <ele>841.599975585938</ele>
    <time>2012-04-02T15:43:20Z</time>
   </trkpt>
   <trkpt lat="46.2367935180664" lon="6.92157411575317">
    <ele>842</ele>
    <time>2012-04-02T15:43:21Z</time>
   </trkpt>
   <trkpt lat="46.2367744445801" lon="6.92155599594116">
    <ele>842.399963378906</ele>
    <time>2012-04-02T15:43:22Z</time>
   </trkpt>
   <trkpt lat="46.2367553710938" lon="6.92153978347778">
    <ele>842.799987792969</ele>
    <time>2012-04-02T15:43:23Z</time>
   </trkpt>
   <trkpt lat="46.2366714477539" lon="6.92146921157837">
    <ele>842.799987792969</ele>
    <time>2012-04-02T15:43:27Z</time>
   </trkpt>
   <trkpt lat="46.236629486084" lon="6.92142963409424">
    <ele>843.533325195312</ele>
    <time>2012-04-02T15:43:29Z</time>
   </trkpt>
   <trkpt lat="46.2366104125977" lon="6.92141199111938">
    <ele>843.900024414062</ele>
    <time>2012-04-02T15:43:30Z</time>
   </trkpt>
   <trkpt lat="46.2365875244141" lon="6.9213924407959">
    <ele>844.266662597656</ele>
    <time>2012-04-02T15:43:31Z</time>
   </trkpt>
   <trkpt lat="46.2365684509277" lon="6.92137622833252">
    <ele>844.63330078125</ele>
    <time>2012-04-02T15:43:32Z</time>
   </trkpt>
   <trkpt lat="46.2365493774414" lon="6.92135524749756">
    <ele>845</ele>
    <time>2012-04-02T15:43:33Z</time>
   </trkpt>
   <trkpt lat="46.2365074157715" lon="6.92130947113037">
    <ele>845</ele>
    <time>2012-04-02T15:43:35Z</time>
   </trkpt>
   <trkpt lat="46.2364120483398" lon="6.92119550704956">
    <ele>846.166687011719</ele>
    <time>2012-04-02T15:43:40Z</time>
   </trkpt>
   <trkpt lat="46.2363891601562" lon="6.92117786407471">
    <ele>846.400024414062</ele>
    <time>2012-04-02T15:43:41Z</time>
   </trkpt>
   <trkpt lat="46.2363700866699" lon="6.92115926742554">
    <ele>846.633361816406</ele>
    <time>2012-04-02T15:43:42Z</time>
   </trkpt>
   <trkpt lat="46.2363510131836" lon="6.92113924026489">
    <ele>846.86669921875</ele>
    <time>2012-04-02T15:43:43Z</time>
   </trkpt>
   <trkpt lat="46.2363319396973" lon="6.92111587524414">
    <ele>847.099975585938</ele>
    <time>2012-04-02T15:43:44Z</time>
   </trkpt>
   <trkpt lat="46.2362365722656" lon="6.92100811004639">
    <ele>848.266662597656</ele>
    <time>2012-04-02T15:43:49Z</time>
   </trkpt>
   <trkpt lat="46.2362174987793" lon="6.92098569869995">
    <ele>848.5</ele>
    <time>2012-04-02T15:43:50Z</time>
   </trkpt>
   <trkpt lat="46.2361946105957" lon="6.92096042633057">
    <ele>848.733337402344</ele>
    <time>2012-04-02T15:43:51Z</time>
   </trkpt>
   <trkpt lat="46.2361755371094" lon="6.92093801498413">
    <ele>848.966674804688</ele>
    <time>2012-04-02T15:43:52Z</time>
   </trkpt>
   <trkpt lat="46.2361602783203" lon="6.92091703414917">
    <ele>849.200012207031</ele>
    <time>2012-04-02T15:43:53Z</time>
   </trkpt>
   <trkpt lat="46.2360763549805" lon="6.92083787918091">
    <ele>849.200012207031</ele>
    <time>2012-04-02T15:43:57Z</time>
   </trkpt>
   <trkpt lat="46.2360229492188" lon="6.92077875137329">
    <ele>850.142883300781</ele>
    <time>2012-04-02T15:44:00Z</time>
   </trkpt>
   <trkpt lat="46.2360038757324" lon="6.92076444625854">
    <ele>850.457153320312</ele>
    <time>2012-04-02T15:44:01Z</time>
   </trkpt>
   <trkpt lat="46.2359848022461" lon="6.92074489593506">
    <ele>850.771423339844</ele>
    <time>2012-04-02T15:44:02Z</time>
   </trkpt>
   <trkpt lat="46.235969543457" lon="6.92072486877441">
    <ele>851.085754394531</ele>
    <time>2012-04-02T15:44:03Z</time>
   </trkpt>
   <trkpt lat="46.235954284668" lon="6.92070579528809">
    <ele>851.400024414062</ele>
    <time>2012-04-02T15:44:04Z</time>
   </trkpt>
   <trkpt lat="46.2358589172363" lon="6.92058992385864">
    <ele>851.400024414062</ele>
    <time>2012-04-02T15:44:08Z</time>
   </trkpt>
   <trkpt lat="46.2358207702637" lon="6.92052936553955">
    <ele>852.066711425781</ele>
    <time>2012-04-02T15:44:10Z</time>
   </trkpt>
   <trkpt lat="46.2358055114746" lon="6.92049932479858">
    <ele>852.400024414062</ele>
    <time>2012-04-02T15:44:11Z</time>
   </trkpt>
   <trkpt lat="46.2357902526856" lon="6.92047023773193">
    <ele>852.733337402344</ele>
    <time>2012-04-02T15:44:12Z</time>
   </trkpt>
   <trkpt lat="46.2357711791992" lon="6.92043972015381">
    <ele>853.066711425781</ele>
    <time>2012-04-02T15:44:13Z</time>
   </trkpt>
   <trkpt lat="46.2357559204102" lon="6.92041254043579">
    <ele>853.400024414062</ele>
    <time>2012-04-02T15:44:14Z</time>
   </trkpt>
   <trkpt lat="46.2357368469238" lon="6.92038202285767">
    <ele>853.400024414062</ele>
    <time>2012-04-02T15:44:15Z</time>
   </trkpt>
   <trkpt lat="46.2356834411621" lon="6.92029666900635">
    <ele>854.176513671875</ele>
    <time>2012-04-02T15:44:18Z</time>
   </trkpt>
   <trkpt lat="46.2356605529785" lon="6.9202675819397">
    <ele>854.435302734375</ele>
    <time>2012-04-02T15:44:19Z</time>
   </trkpt>
   <trkpt lat="46.2356414794922" lon="6.9202389717102">
    <ele>854.694152832031</ele>
    <time>2012-04-02T15:44:20Z</time>
   </trkpt>
   <trkpt lat="46.2356185913086" lon="6.92021036148071">
    <ele>854.952941894531</ele>
    <time>2012-04-02T15:44:21Z</time>
   </trkpt>
   <trkpt lat="46.235595703125" lon="6.92018270492554">
    <ele>855.211791992188</ele>
    <time>2012-04-02T15:44:22Z</time>
   </trkpt>
   <trkpt lat="46.2354774475098" lon="6.92001628875732">
    <ele>856.764709472656</ele>
    <time>2012-04-02T15:44:28Z</time>
   </trkpt>
   <trkpt lat="46.2354583740234" lon="6.91998815536499">
    <ele>857.023498535156</ele>
    <time>2012-04-02T15:44:29Z</time>
   </trkpt>
   <trkpt lat="46.2354393005371" lon="6.91996002197266">
    <ele>857.282348632812</ele>
    <time>2012-04-02T15:44:30Z</time>
   </trkpt>
   <trkpt lat="46.2354164123535" lon="6.9199333190918">
    <ele>857.541137695312</ele>
    <time>2012-04-02T15:44:31Z</time>
   </trkpt>
   <trkpt lat="46.2354011535644" lon="6.91990613937378">
    <ele>857.799987792969</ele>
    <time>2012-04-02T15:44:32Z</time>
   </trkpt>
   <trkpt lat="46.2353668212891" lon="6.91985177993774">
    <ele>857.799987792969</ele>
    <time>2012-04-02T15:44:34Z</time>
   </trkpt>
   <trkpt lat="46.2353134155273" lon="6.91976737976074">
    <ele>858.900024414062</ele>
    <time>2012-04-02T15:44:37Z</time>
   </trkpt>
   <trkpt lat="46.235294342041" lon="6.91974115371704">
    <ele>859.266662597656</ele>
    <time>2012-04-02T15:44:38Z</time>
   </trkpt>
   <trkpt lat="46.2352752685547" lon="6.91971635818482">
    <ele>859.63330078125</ele>
    <time>2012-04-02T15:44:39Z</time>
   </trkpt>
   <trkpt lat="46.2352523803711" lon="6.91969156265259">
    <ele>860</ele>
    <time>2012-04-02T15:44:40Z</time>
   </trkpt>
   <trkpt lat="46.2352256774902" lon="6.91966867446899">
    <ele>860</ele>
    <time>2012-04-02T15:44:41Z</time>
   </trkpt>
   <trkpt lat="46.2351608276367" lon="6.91956520080566">
    <ele>861.099975585938</ele>
    <time>2012-04-02T15:44:45Z</time>
   </trkpt>
   <trkpt lat="46.2351455688477" lon="6.91953945159912">
    <ele>861.375</ele>
    <time>2012-04-02T15:44:46Z</time>
   </trkpt>
   <trkpt lat="46.2351341247559" lon="6.91951417922974">
    <ele>861.650024414062</ele>
    <time>2012-04-02T15:44:47Z</time>
   </trkpt>
   <trkpt lat="46.2351188659668" lon="6.91948699951172">
    <ele>861.924987792969</ele>
    <time>2012-04-02T15:44:48Z</time>
   </trkpt>
   <trkpt lat="46.2351036071777" lon="6.91945838928223">
    <ele>862.200012207031</ele>
    <time>2012-04-02T15:44:49Z</time>
   </trkpt>
   <trkpt lat="46.2350234985352" lon="6.91933822631836">
    <ele>862.200012207031</ele>
    <time>2012-04-02T15:44:54Z</time>
   </trkpt>
   <trkpt lat="46.2350082397461" lon="6.91931247711182">
    <ele>862.640014648438</ele>
    <time>2012-04-02T15:44:55Z</time>
   </trkpt>
   <trkpt lat="46.234992980957" lon="6.91928768157959">
    <ele>863.080017089844</ele>
    <time>2012-04-02T15:44:56Z</time>
   </trkpt>
   <trkpt lat="46.234977722168" lon="6.91926193237305">
    <ele>863.52001953125</ele>
    <time>2012-04-02T15:44:57Z</time>
   </trkpt>
   <trkpt lat="46.2349662780762" lon="6.91923713684082">
    <ele>863.960021972656</ele>
    <time>2012-04-02T15:44:58Z</time>
   </trkpt>
   <trkpt lat="46.2349510192871" lon="6.91921091079712">
    <ele>864.400024414062</ele>
    <time>2012-04-02T15:44:59Z</time>
   </trkpt>
   <trkpt lat="46.2349052429199" lon="6.91912984848022">
    <ele>864.400024414062</ele>
    <time>2012-04-02T15:45:02Z</time>
   </trkpt>
   <trkpt lat="46.2348556518555" lon="6.91904878616333">
    <ele>865.257141113281</ele>
    <time>2012-04-02T15:45:05Z</time>
   </trkpt>
   <trkpt lat="46.2348365783691" lon="6.91902589797974">
    <ele>865.542907714844</ele>
    <time>2012-04-02T15:45:06Z</time>
   </trkpt>
   <trkpt lat="46.2348175048828" lon="6.91900157928467">
    <ele>865.82861328125</ele>
    <time>2012-04-02T15:45:07Z</time>
   </trkpt>
   <trkpt lat="46.234806060791" lon="6.9189715385437">
    <ele>866.114318847656</ele>
    <time>2012-04-02T15:45:08Z</time>
   </trkpt>
   <trkpt lat="46.234790802002" lon="6.91894626617432">
    <ele>866.400024414062</ele>
    <time>2012-04-02T15:45:09Z</time>
   </trkpt>
   <trkpt lat="46.2347793579102" lon="6.91891813278198">
    <ele>866.400024414062</ele>
    <time>2012-04-02T15:45:10Z</time>
   </trkpt>
   <trkpt lat="46.2347221374512" lon="6.91881608963013">
    <ele>867.424011230469</ele>
    <time>2012-04-02T15:45:14Z</time>
   </trkpt>
   <trkpt lat="46.2347068786621" lon="6.91879415512085">
    <ele>867.679992675781</ele>
    <time>2012-04-02T15:45:15Z</time>
   </trkpt>
   <trkpt lat="46.2346878051758" lon="6.9187707901001">
    <ele>867.93603515625</ele>
    <time>2012-04-02T15:45:16Z</time>
   </trkpt>
   <trkpt lat="46.234676361084" lon="6.91874599456787">
    <ele>868.192016601562</ele>
    <time>2012-04-02T15:45:17Z</time>
   </trkpt>
   <trkpt lat="46.2346649169922" lon="6.91872072219849">
    <ele>868.447998046875</ele>
    <time>2012-04-02T15:45:18Z</time>
   </trkpt>
   <trkpt lat="46.2345848083496" lon="6.91855812072754">
    <ele>869.984008789062</ele>
    <time>2012-04-02T15:45:24Z</time>
   </trkpt>
   <trkpt lat="46.2345733642578" lon="6.91853189468384">
    <ele>870.239990234375</ele>
    <time>2012-04-02T15:45:25Z</time>
   </trkpt>
   <trkpt lat="46.2345581054688" lon="6.91850423812866">
    <ele>870.495971679688</ele>
    <time>2012-04-02T15:45:26Z</time>
   </trkpt>
   <trkpt lat="46.234546661377" lon="6.91847705841064">
    <ele>870.752014160156</ele>
    <time>2012-04-02T15:45:27Z</time>
   </trkpt>
   <trkpt lat="46.2345352172852" lon="6.91844701766968">
    <ele>871.007995605469</ele>
    <time>2012-04-02T15:45:28Z</time>
   </trkpt>
   <trkpt lat="46.2344932556152" lon="6.91836357116699">
    <ele>871.776000976562</ele>
    <time>2012-04-02T15:45:31Z</time>
   </trkpt>
   <trkpt lat="46.2344779968262" lon="6.91833639144898">
    <ele>872.031982421875</ele>
    <time>2012-04-02T15:45:32Z</time>
   </trkpt>
   <trkpt lat="46.2344627380371" lon="6.91831111907959">
    <ele>872.287963867188</ele>
    <time>2012-04-02T15:45:33Z</time>
   </trkpt>
   <trkpt lat="46.2344436645508" lon="6.91828298568726">
    <ele>872.544006347656</ele>
    <time>2012-04-02T15:45:34Z</time>
   </trkpt>
   <trkpt lat="46.2344284057617" lon="6.91825580596924">
    <ele>872.799987792969</ele>
    <time>2012-04-02T15:45:35Z</time>
   </trkpt>
   <trkpt lat="46.2343597412109" lon="6.91812658309936">
    <ele>872.799987792969</ele>
    <time>2012-04-02T15:45:40Z</time>
   </trkpt>
   <trkpt lat="46.2343330383301" lon="6.9180760383606">
    <ele>873.466674804688</ele>
    <time>2012-04-02T15:45:42Z</time>
   </trkpt>
   <trkpt lat="46.234317779541" lon="6.91804695129394">
    <ele>873.799987792969</ele>
    <time>2012-04-02T15:45:43Z</time>
   </trkpt>
   <trkpt lat="46.2343063354492" lon="6.91801834106445">
    <ele>874.13330078125</ele>
    <time>2012-04-02T15:45:44Z</time>
   </trkpt>
   <trkpt lat="46.2342910766602" lon="6.91799116134644">
    <ele>874.466674804688</ele>
    <time>2012-04-02T15:45:45Z</time>
   </trkpt>
   <trkpt lat="46.2342796325684" lon="6.91796016693115">
    <ele>874.799987792969</ele>
    <time>2012-04-02T15:45:46Z</time>
   </trkpt>
   <trkpt lat="46.2342491149902" lon="6.91790199279785">
    <ele>874.799987792969</ele>
    <time>2012-04-02T15:45:48Z</time>
   </trkpt>
   <trkpt lat="46.234203338623" lon="6.91781282424927">
    <ele>875.900024414062</ele>
    <time>2012-04-02T15:45:51Z</time>
   </trkpt>
   <trkpt lat="46.234188079834" lon="6.91778564453125">
    <ele>876.266662597656</ele>
    <time>2012-04-02T15:45:52Z</time>
   </trkpt>
   <trkpt lat="46.2341728210449" lon="6.91775608062744">
    <ele>876.63330078125</ele>
    <time>2012-04-02T15:45:53Z</time>
   </trkpt>
   <trkpt lat="46.2341575622559" lon="6.91772556304932">
    <ele>877</ele>
    <time>2012-04-02T15:45:54Z</time>
   </trkpt>
   <trkpt lat="46.2341423034668" lon="6.91769409179688">
    <ele>877</ele>
    <time>2012-04-02T15:45:55Z</time>
   </trkpt>
   <trkpt lat="46.2340850830078" lon="6.91757774353027">
    <ele>878.099975585938</ele>
    <time>2012-04-02T15:45:59Z</time>
   </trkpt>
   <trkpt lat="46.234073638916" lon="6.91754817962646">
    <ele>878.375</ele>
    <time>2012-04-02T15:46:00Z</time>
   </trkpt>
   <trkpt lat="46.234058380127" lon="6.91751718521118">
    <ele>878.650024414062</ele>
    <time>2012-04-02T15:46:01Z</time>
   </trkpt>
   <trkpt lat="46.2340469360352" lon="6.91748523712158">
    <ele>878.924987792969</ele>
    <time>2012-04-02T15:46:02Z</time>
   </trkpt>
   <trkpt lat="46.2340354919434" lon="6.91745758056641">
    <ele>879.200012207031</ele>
    <time>2012-04-02T15:46:03Z</time>
   </trkpt>
   <trkpt lat="46.2340202331543" lon="6.91742849349976">
    <ele>879.200012207031</ele>
    <time>2012-04-02T15:46:04Z</time>
   </trkpt>
   <trkpt lat="46.2339477539062" lon="6.91729021072388">
    <ele>880.305297851562</ele>
    <time>2012-04-02T15:46:09Z</time>
   </trkpt>
   <trkpt lat="46.2339324951172" lon="6.9172625541687">
    <ele>880.526306152344</ele>
    <time>2012-04-02T15:46:10Z</time>
   </trkpt>
   <trkpt lat="46.2339172363281" lon="6.91723394393921">
    <ele>880.747375488281</ele>
    <time>2012-04-02T15:46:11Z</time>
   </trkpt>
   <trkpt lat="46.2339057922363" lon="6.9172043800354">
    <ele>880.968444824219</ele>
    <time>2012-04-02T15:46:12Z</time>
   </trkpt>
   <trkpt lat="46.2338905334473" lon="6.91717338562012">
    <ele>881.189514160156</ele>
    <time>2012-04-02T15:46:13Z</time>
   </trkpt>
   <trkpt lat="46.2338066101074" lon="6.91699123382568">
    <ele>882.515808105469</ele>
    <time>2012-04-02T15:46:19Z</time>
   </trkpt>
   <trkpt lat="46.2337913513184" lon="6.91696453094482">
    <ele>882.736877441406</ele>
    <time>2012-04-02T15:46:20Z</time>
   </trkpt>
   <trkpt lat="46.2337760925293" lon="6.91693830490112">
    <ele>882.957946777344</ele>
    <time>2012-04-02T15:46:21Z</time>
   </trkpt>
   <trkpt lat="46.2337608337402" lon="6.91691064834595">
    <ele>883.178955078125</ele>
    <time>2012-04-02T15:46:22Z</time>
   </trkpt>
   <trkpt lat="46.2337455749512" lon="6.91688060760498">
    <ele>883.400024414062</ele>
    <time>2012-04-02T15:46:23Z</time>
   </trkpt>
   <trkpt lat="46.2336692810059" lon="6.91672945022583">
    <ele>883.400024414062</ele>
    <time>2012-04-02T15:46:28Z</time>
   </trkpt>
   <trkpt lat="46.2336082458496" lon="6.91661787033081">
    <ele>884.5</ele>
    <time>2012-04-02T15:46:32Z</time>
   </trkpt>
   <trkpt lat="46.2335929870606" lon="6.916588306427">
    <ele>884.775024414062</ele>
    <time>2012-04-02T15:46:33Z</time>
   </trkpt>
   <trkpt lat="46.2335739135742" lon="6.91656064987183">
    <ele>885.049987792969</ele>
    <time>2012-04-02T15:46:34Z</time>
   </trkpt>
   <trkpt lat="46.2335624694824" lon="6.91653156280518">
    <ele>885.324951171875</ele>
    <time>2012-04-02T15:46:35Z</time>
   </trkpt>
   <trkpt lat="46.2335510253906" lon="6.91650438308716">
    <ele>885.599975585938</ele>
    <time>2012-04-02T15:46:36Z</time>
   </trkpt>
   <trkpt lat="46.2334671020508" lon="6.91637182235718">
    <ele>885.599975585938</ele>
    <time>2012-04-02T15:46:41Z</time>
   </trkpt>
   <trkpt lat="46.2333984375" lon="6.91626214981079">
    <ele>886.699951171875</ele>
    <time>2012-04-02T15:46:45Z</time>
   </trkpt>
   <trkpt lat="46.2333869934082" lon="6.91623163223267">
    <ele>886.974975585938</ele>
    <time>2012-04-02T15:46:46Z</time>
   </trkpt>
   <trkpt lat="46.2333679199219" lon="6.9162015914917">
    <ele>887.25</ele>
    <time>2012-04-02T15:46:47Z</time>
   </trkpt>
   <trkpt lat="46.2333488464356" lon="6.91616916656494">
    <ele>887.524963378906</ele>
    <time>2012-04-02T15:46:48Z</time>
   </trkpt>
   <trkpt lat="46.2333335876465" lon="6.91614055633545">
    <ele>887.799987792969</ele>
    <time>2012-04-02T15:46:49Z</time>
   </trkpt>
   <trkpt lat="46.2332038879394" lon="6.91590404510498">
    <ele>887.799987792969</ele>
    <time>2012-04-02T15:46:57Z</time>
   </trkpt>
   <trkpt lat="46.2331924438477" lon="6.91587114334106">
    <ele>888.239990234375</ele>
    <time>2012-04-02T15:46:58Z</time>
   </trkpt>
   <trkpt lat="46.2331771850586" lon="6.91584062576294">
    <ele>888.679992675781</ele>
    <time>2012-04-02T15:46:59Z</time>
   </trkpt>
   <trkpt lat="46.2331619262695" lon="6.9158091545105">
    <ele>889.119995117188</ele>
    <time>2012-04-02T15:47:00Z</time>
   </trkpt>
   <trkpt lat="46.2331428527832" lon="6.91577959060669">
    <ele>889.559997558594</ele>
    <time>2012-04-02T15:47:01Z</time>
   </trkpt>
   <trkpt lat="46.2331314086914" lon="6.91574811935425">
    <ele>890</ele>
    <time>2012-04-02T15:47:02Z</time>
   </trkpt>
   <trkpt lat="46.2331047058106" lon="6.915687084198">
    <ele>890</ele>
    <time>2012-04-02T15:47:04Z</time>
   </trkpt>
   <trkpt lat="46.2330131530762" lon="6.91548442840576">
    <ele>891.200012207031</ele>
    <time>2012-04-02T15:47:10Z</time>
   </trkpt>
   <trkpt lat="46.2329978942871" lon="6.91545248031616">
    <ele>891.400024414062</ele>
    <time>2012-04-02T15:47:11Z</time>
   </trkpt>
   <trkpt lat="46.232982635498" lon="6.91542339324951">
    <ele>891.599975585938</ele>
    <time>2012-04-02T15:47:12Z</time>
   </trkpt>
   <trkpt lat="46.2329711914062" lon="6.9153938293457">
    <ele>891.799987792969</ele>
    <time>2012-04-02T15:47:13Z</time>
   </trkpt>
   <trkpt lat="46.2329559326172" lon="6.91536569595337">
    <ele>892</ele>
    <time>2012-04-02T15:47:14Z</time>
   </trkpt>
   <trkpt lat="46.2328681945801" lon="6.91522884368896">
    <ele>892</ele>
    <time>2012-04-02T15:47:19Z</time>
   </trkpt>
   <trkpt lat="46.2328033447266" lon="6.91515398025513">
    <ele>892.857116699219</ele>
    <time>2012-04-02T15:47:22Z</time>
   </trkpt>
   <trkpt lat="46.2327842712402" lon="6.91512775421143">
    <ele>893.142883300781</ele>
    <time>2012-04-02T15:47:23Z</time>
   </trkpt>
   <trkpt lat="46.2327575683594" lon="6.91510629653931">
    <ele>893.428588867188</ele>
    <time>2012-04-02T15:47:24Z</time>
   </trkpt>
   <trkpt lat="46.232738494873" lon="6.91508197784424">
    <ele>893.714294433594</ele>
    <time>2012-04-02T15:47:25Z</time>
   </trkpt>
   <trkpt lat="46.2327156066894" lon="6.91505908966064">
    <ele>894</ele>
    <time>2012-04-02T15:47:26Z</time>
   </trkpt>
   <trkpt lat="46.2326927185059" lon="6.91503477096558">
    <ele>894</ele>
    <time>2012-04-02T15:47:27Z</time>
   </trkpt>
   <trkpt lat="46.2326049804688" lon="6.91494703292847">
    <ele>894.571411132812</ele>
    <time>2012-04-02T15:47:31Z</time>
   </trkpt>
   <trkpt lat="46.2324905395508" lon="6.91483879089356">
    <ele>895.285705566406</ele>
    <time>2012-04-02T15:47:36Z</time>
   </trkpt>
   <trkpt lat="46.2324714660644" lon="6.91481828689575">
    <ele>895.428588867188</ele>
    <time>2012-04-02T15:47:37Z</time>
   </trkpt>
   <trkpt lat="46.2324485778809" lon="6.91479730606079">
    <ele>895.571411132812</ele>
    <time>2012-04-02T15:47:38Z</time>
   </trkpt>
   <trkpt lat="46.2324256896973" lon="6.91477632522583">
    <ele>895.714294433594</ele>
    <time>2012-04-02T15:47:39Z</time>
   </trkpt>
   <trkpt lat="46.2324104309082" lon="6.91475248336792">
    <ele>895.857116699219</ele>
    <time>2012-04-02T15:47:40Z</time>
   </trkpt>
   <trkpt lat="46.2323989868164" lon="6.91472244262695">
    <ele>896</ele>
    <time>2012-04-02T15:47:41Z</time>
   </trkpt>
   <trkpt lat="46.2323799133301" lon="6.91464996337891">
    <ele>896</ele>
    <time>2012-04-02T15:47:43Z</time>
   </trkpt>
   <trkpt lat="46.2324066162109" lon="6.9145245552063">
    <ele>896.799987792969</ele>
    <time>2012-04-02T15:47:47Z</time>
   </trkpt>
   <trkpt lat="46.2324256896973" lon="6.91450881958008">
    <ele>897</ele>
    <time>2012-04-02T15:47:48Z</time>
   </trkpt>
   <trkpt lat="46.2324676513672" lon="6.9144926071167">
    <ele>897.400024414062</ele>
    <time>2012-04-02T15:47:50Z</time>
   </trkpt>
   <trkpt lat="46.232494354248" lon="6.91449594497681">
    <ele>897.600036621094</ele>
    <time>2012-04-02T15:47:51Z</time>
   </trkpt>
   <trkpt lat="46.2325210571289" lon="6.91450262069702">
    <ele>897.799987792969</ele>
    <time>2012-04-02T15:47:52Z</time>
   </trkpt>
   <trkpt lat="46.2325439453125" lon="6.91451978683472">
    <ele>898</ele>
    <time>2012-04-02T15:47:53Z</time>
   </trkpt>
   <trkpt lat="46.2325630187988" lon="6.91453742980957">
    <ele>898.200012207031</ele>
    <time>2012-04-02T15:47:54Z</time>
   </trkpt>
   <trkpt lat="46.2326202392578" lon="6.91459894180298">
    <ele>898.200012207031</ele>
    <time>2012-04-02T15:47:57Z</time>
   </trkpt>
   <trkpt lat="46.2326393127441" lon="6.91462135314941">
    <ele>898.640014648438</ele>
    <time>2012-04-02T15:47:58Z</time>
   </trkpt>
   <trkpt lat="46.2326583862305" lon="6.91464805603027">
    <ele>899.080017089844</ele>
    <time>2012-04-02T15:47:59Z</time>
   </trkpt>
   <trkpt lat="46.2326774597168" lon="6.91467428207398">
    <ele>899.52001953125</ele>
    <time>2012-04-02T15:48:00Z</time>
   </trkpt>
   <trkpt lat="46.2326965332031" lon="6.91470241546631">
    <ele>899.960021972656</ele>
    <time>2012-04-02T15:48:01Z</time>
   </trkpt>
   <trkpt lat="46.2327156066894" lon="6.91472816467285">
    <ele>900.400024414062</ele>
    <time>2012-04-02T15:48:02Z</time>
   </trkpt>
   <trkpt lat="46.2327766418457" lon="6.91480922698975">
    <ele>900.400024414062</ele>
    <time>2012-04-02T15:48:05Z</time>
   </trkpt>
   <trkpt lat="46.2328491210938" lon="6.9149112701416">
    <ele>901.400024414062</ele>
    <time>2012-04-02T15:48:09Z</time>
   </trkpt>
   <trkpt lat="46.2328681945801" lon="6.91493558883667">
    <ele>901.650024414062</ele>
    <time>2012-04-02T15:48:10Z</time>
   </trkpt>
   <trkpt lat="46.2328872680664" lon="6.91496133804321">
    <ele>901.900024414062</ele>
    <time>2012-04-02T15:48:11Z</time>
   </trkpt>
   <trkpt lat="46.2329063415527" lon="6.91498422622681">
    <ele>902.150024414062</ele>
    <time>2012-04-02T15:48:12Z</time>
   </trkpt>
   <trkpt lat="46.2329216003418" lon="6.91500759124756">
    <ele>902.400024414062</ele>
    <time>2012-04-02T15:48:13Z</time>
   </trkpt>
   <trkpt lat="46.2329406738281" lon="6.91503095626831">
    <ele>902.400024414062</ele>
    <time>2012-04-02T15:48:14Z</time>
   </trkpt>
   <trkpt lat="46.2330703735352" lon="6.91517305374146">
    <ele>903.799987792969</ele>
    <time>2012-04-02T15:48:21Z</time>
   </trkpt>
   <trkpt lat="46.2330894470215" lon="6.91519165039062">
    <ele>904</ele>
    <time>2012-04-02T15:48:22Z</time>
   </trkpt>
   <trkpt lat="46.2331085205078" lon="6.9152102470398">
    <ele>904.200012207031</ele>
    <time>2012-04-02T15:48:23Z</time>
   </trkpt>
   <trkpt lat="46.2331275939941" lon="6.91522550582886">
    <ele>904.399963378906</ele>
    <time>2012-04-02T15:48:24Z</time>
   </trkpt>
   <trkpt lat="46.2331466674805" lon="6.91523885726929">
    <ele>904.599975585938</ele>
    <time>2012-04-02T15:48:25Z</time>
   </trkpt>
   <trkpt lat="46.2332458496094" lon="6.91533899307251">
    <ele>904.599975585938</ele>
    <time>2012-04-02T15:48:30Z</time>
   </trkpt>
   <trkpt lat="46.2333068847656" lon="6.91539621353149">
    <ele>905.457092285156</ele>
    <time>2012-04-02T15:48:33Z</time>
   </trkpt>
   <trkpt lat="46.2333297729492" lon="6.91541910171509">
    <ele>905.742858886719</ele>
    <time>2012-04-02T15:48:34Z</time>
   </trkpt>
   <trkpt lat="46.2333488464356" lon="6.91543769836426">
    <ele>906.028564453125</ele>
    <time>2012-04-02T15:48:35Z</time>
   </trkpt>
   <trkpt lat="46.2333679199219" lon="6.91545963287354">
    <ele>906.314270019531</ele>
    <time>2012-04-02T15:48:36Z</time>
   </trkpt>
   <trkpt lat="46.2333869934082" lon="6.91547727584839">
    <ele>906.599975585938</ele>
    <time>2012-04-02T15:48:37Z</time>
   </trkpt>
   <trkpt lat="46.2334671020508" lon="6.91555213928223">
    <ele>906.599975585938</ele>
    <time>2012-04-02T15:48:41Z</time>
   </trkpt>
   <trkpt lat="46.2335052490234" lon="6.9155912399292">
    <ele>907.399963378906</ele>
    <time>2012-04-02T15:48:43Z</time>
   </trkpt>
   <trkpt lat="46.233528137207" lon="6.91561079025268">
    <ele>907.799987792969</ele>
    <time>2012-04-02T15:48:44Z</time>
   </trkpt>
   <trkpt lat="46.2335472106934" lon="6.91563081741333">
    <ele>908.199951171875</ele>
    <time>2012-04-02T15:48:45Z</time>
   </trkpt>
   <trkpt lat="46.2335662841797" lon="6.91565227508545">
    <ele>908.599975585938</ele>
    <time>2012-04-02T15:48:46Z</time>
   </trkpt>
   <trkpt lat="46.233642578125" lon="6.91572904586792">
    <ele>908.599975585938</ele>
    <time>2012-04-02T15:48:50Z</time>
   </trkpt>
   <trkpt lat="46.233715057373" lon="6.91580152511597">
    <ele>909.599975585938</ele>
    <time>2012-04-02T15:48:54Z</time>
   </trkpt>
   <trkpt lat="46.2337341308594" lon="6.91582202911377">
    <ele>909.849975585938</ele>
    <time>2012-04-02T15:48:55Z</time>
   </trkpt>
   <trkpt lat="46.233757019043" lon="6.91584205627441">
    <ele>910.099975585938</ele>
    <time>2012-04-02T15:48:56Z</time>
   </trkpt>
   <trkpt lat="46.2337760925293" lon="6.91586208343506">
    <ele>910.349975585938</ele>
    <time>2012-04-02T15:48:57Z</time>
   </trkpt>
   <trkpt lat="46.2337989807129" lon="6.91588354110718">
    <ele>910.599975585938</ele>
    <time>2012-04-02T15:48:58Z</time>
   </trkpt>
   <trkpt lat="46.2339324951172" lon="6.9160041809082">
    <ele>910.599975585938</ele>
    <time>2012-04-02T15:49:04Z</time>
   </trkpt>
   <trkpt lat="46.2339515686035" lon="6.91602754592896">
    <ele>911.039978027344</ele>
    <time>2012-04-02T15:49:05Z</time>
   </trkpt>
   <trkpt lat="46.2339706420898" lon="6.91604661941528">
    <ele>911.47998046875</ele>
    <time>2012-04-02T15:49:06Z</time>
   </trkpt>
   <trkpt lat="46.2339935302734" lon="6.91606760025024">
    <ele>911.919982910156</ele>
    <time>2012-04-02T15:49:07Z</time>
   </trkpt>
   <trkpt lat="46.2340126037598" lon="6.91608190536499">
    <ele>912.359985351562</ele>
    <time>2012-04-02T15:49:08Z</time>
   </trkpt>
   <trkpt lat="46.2340316772461" lon="6.91610336303711">
    <ele>912.799987792969</ele>
    <time>2012-04-02T15:49:09Z</time>
   </trkpt>
   <trkpt lat="46.2340507507324" lon="6.91612434387207">
    <ele>912.799987792969</ele>
    <time>2012-04-02T15:49:10Z</time>
   </trkpt>
   <trkpt lat="46.2341918945312" lon="6.91626024246216">
    <ele>914.200012207031</ele>
    <time>2012-04-02T15:49:17Z</time>
   </trkpt>
   <trkpt lat="46.2342109680176" lon="6.91628265380859">
    <ele>914.400024414062</ele>
    <time>2012-04-02T15:49:18Z</time>
   </trkpt>
   <trkpt lat="46.2342338562012" lon="6.91630601882935">
    <ele>914.599975585938</ele>
    <time>2012-04-02T15:49:19Z</time>
   </trkpt>
   <trkpt lat="46.2342567443848" lon="6.9163293838501">
    <ele>914.799987792969</ele>
    <time>2012-04-02T15:49:20Z</time>
   </trkpt>
   <trkpt lat="46.2342758178711" lon="6.91635131835938">
    <ele>915</ele>
    <time>2012-04-02T15:49:21Z</time>
   </trkpt>
   <trkpt lat="46.2344017028809" lon="6.91646480560303">
    <ele>915</ele>
    <time>2012-04-02T15:49:27Z</time>
   </trkpt>
   <trkpt lat="46.2344398498535" lon="6.91650676727295">
    <ele>915.666687011719</ele>
    <time>2012-04-02T15:49:29Z</time>
   </trkpt>
   <trkpt lat="46.2344589233398" lon="6.91652679443359">
    <ele>916</ele>
    <time>2012-04-02T15:49:30Z</time>
   </trkpt>
   <trkpt lat="46.2344779968262" lon="6.91654586791992">
    <ele>916.333312988281</ele>
    <time>2012-04-02T15:49:31Z</time>
   </trkpt>
   <trkpt lat="46.2345008850098" lon="6.91656255722046">
    <ele>916.666687011719</ele>
    <time>2012-04-02T15:49:32Z</time>
   </trkpt>
   <trkpt lat="46.2345237731934" lon="6.916579246521">
    <ele>917</ele>
    <time>2012-04-02T15:49:33Z</time>
   </trkpt>
   <trkpt lat="46.2345809936523" lon="6.91663551330566">
    <ele>917</ele>
    <time>2012-04-02T15:49:36Z</time>
   </trkpt>
   <trkpt lat="46.2346458435059" lon="6.91669845581055">
    <ele>917.94287109375</ele>
    <time>2012-04-02T15:49:39Z</time>
   </trkpt>
   <trkpt lat="46.2346687316894" lon="6.91671991348267">
    <ele>918.257141113281</ele>
    <time>2012-04-02T15:49:40Z</time>
   </trkpt>
   <trkpt lat="46.234691619873" lon="6.91674041748047">
    <ele>918.571411132812</ele>
    <time>2012-04-02T15:49:41Z</time>
   </trkpt>
   <trkpt lat="46.2347145080566" lon="6.91675996780396">
    <ele>918.8857421875</ele>
    <time>2012-04-02T15:49:42Z</time>
   </trkpt>
   <trkpt lat="46.234733581543" lon="6.91677951812744">
    <ele>919.200012207031</ele>
    <time>2012-04-02T15:49:43Z</time>
   </trkpt>
   <trkpt lat="46.2347755432129" lon="6.91681337356567">
    <ele>919.200012207031</ele>
    <time>2012-04-02T15:49:45Z</time>
   </trkpt>
   <trkpt lat="46.2348785400391" lon="6.91690731048584">
    <ele>920.311096191406</ele>
    <time>2012-04-02T15:49:50Z</time>
   </trkpt>
   <trkpt lat="46.2349014282227" lon="6.91693067550659">
    <ele>920.533325195312</ele>
    <time>2012-04-02T15:49:51Z</time>
   </trkpt>
   <trkpt lat="46.2349243164062" lon="6.91695404052734">
    <ele>920.755554199219</ele>
    <time>2012-04-02T15:49:52Z</time>
   </trkpt>
   <trkpt lat="46.2349433898926" lon="6.91697788238525">
    <ele>920.977783203125</ele>
    <time>2012-04-02T15:49:53Z</time>
   </trkpt>
   <trkpt lat="46.2349662780762" lon="6.91699743270874">
    <ele>921.200012207031</ele>
    <time>2012-04-02T15:49:54Z</time>
   </trkpt>
   <trkpt lat="46.2350692749023" lon="6.91710329055786">
    <ele>922.311096191406</ele>
    <time>2012-04-02T15:49:59Z</time>
   </trkpt>
   <trkpt lat="46.2350883483887" lon="6.91712474822998">
    <ele>922.533325195312</ele>
    <time>2012-04-02T15:50:00Z</time>
   </trkpt>
   <trkpt lat="46.235107421875" lon="6.91714477539062">
    <ele>922.755554199219</ele>
    <time>2012-04-02T15:50:01Z</time>
   </trkpt>
   <trkpt lat="46.2351264953613" lon="6.91716432571411">
    <ele>922.977783203125</ele>
    <time>2012-04-02T15:50:02Z</time>
   </trkpt>
   <trkpt lat="46.2351417541504" lon="6.91718339920044">
    <ele>923.200012207031</ele>
    <time>2012-04-02T15:50:03Z</time>
   </trkpt>
   <trkpt lat="46.235221862793" lon="6.91728734970093">
    <ele>923.200012207031</ele>
    <time>2012-04-02T15:50:07Z</time>
   </trkpt>
   <trkpt lat="46.2353286743164" lon="6.91740894317627">
    <ele>924.422241210938</ele>
    <time>2012-04-02T15:50:12Z</time>
   </trkpt>
   <trkpt lat="46.2353477478027" lon="6.91743755340576">
    <ele>924.666687011719</ele>
    <time>2012-04-02T15:50:13Z</time>
   </trkpt>
   <trkpt lat="46.2353706359863" lon="6.91746139526367">
    <ele>924.9111328125</ele>
    <time>2012-04-02T15:50:14Z</time>
   </trkpt>
   <trkpt lat="46.2353897094727" lon="6.91748332977295">
    <ele>925.155578613281</ele>
    <time>2012-04-02T15:50:15Z</time>
   </trkpt>
   <trkpt lat="46.235408782959" lon="6.91750335693359">
    <ele>925.400024414062</ele>
    <time>2012-04-02T15:50:16Z</time>
   </trkpt>
   <trkpt lat="46.235424041748" lon="6.91752624511719">
    <ele>925.400024414062</ele>
    <time>2012-04-02T15:50:17Z</time>
   </trkpt>
   <trkpt lat="46.2355270385742" lon="6.91765642166138">
    <ele>926.733337402344</ele>
    <time>2012-04-02T15:50:23Z</time>
   </trkpt>
   <trkpt lat="46.2355461120606" lon="6.91767978668213">
    <ele>926.95556640625</ele>
    <time>2012-04-02T15:50:24Z</time>
   </trkpt>
   <trkpt lat="46.2355613708496" lon="6.91770076751709">
    <ele>927.177795410156</ele>
    <time>2012-04-02T15:50:25Z</time>
   </trkpt>
   <trkpt lat="46.2355766296387" lon="6.91772079467774">
    <ele>927.400024414062</ele>
    <time>2012-04-02T15:50:26Z</time>
   </trkpt>
   <trkpt lat="46.235595703125" lon="6.91774225234985">
    <ele>927.400024414062</ele>
    <time>2012-04-02T15:50:27Z</time>
   </trkpt>
   <trkpt lat="46.2357025146484" lon="6.91788339614868">
    <ele>928.719970703125</ele>
    <time>2012-04-02T15:50:33Z</time>
   </trkpt>
   <trkpt lat="46.2357215881348" lon="6.91790294647217">
    <ele>928.940002441406</ele>
    <time>2012-04-02T15:50:34Z</time>
   </trkpt>
   <trkpt lat="46.2357406616211" lon="6.91792631149292">
    <ele>929.159973144531</ele>
    <time>2012-04-02T15:50:35Z</time>
   </trkpt>
   <trkpt lat="46.2357597351074" lon="6.91794681549072">
    <ele>929.380004882812</ele>
    <time>2012-04-02T15:50:36Z</time>
   </trkpt>
   <trkpt lat="46.2357788085938" lon="6.91796493530274">
    <ele>929.599975585938</ele>
    <time>2012-04-02T15:50:37Z</time>
   </trkpt>
   <trkpt lat="46.2358474731445" lon="6.91804647445679">
    <ele>929.599975585938</ele>
    <time>2012-04-02T15:50:41Z</time>
   </trkpt>
   <trkpt lat="46.2359237670898" lon="6.91812801361084">
    <ele>930.555541992188</ele>
    <time>2012-04-02T15:50:45Z</time>
   </trkpt>
   <trkpt lat="46.2359428405762" lon="6.91814756393433">
    <ele>930.79443359375</ele>
    <time>2012-04-02T15:50:46Z</time>
   </trkpt>
   <trkpt lat="46.2359619140625" lon="6.91816854476929">
    <ele>931.033325195312</ele>
    <time>2012-04-02T15:50:47Z</time>
   </trkpt>
   <trkpt lat="46.2359809875488" lon="6.91818761825562">
    <ele>931.272216796875</ele>
    <time>2012-04-02T15:50:48Z</time>
   </trkpt>
   <trkpt lat="46.2360038757324" lon="6.91820430755615">
    <ele>931.511108398438</ele>
    <time>2012-04-02T15:50:49Z</time>
   </trkpt>
   <trkpt lat="46.2361030578613" lon="6.91830587387085">
    <ele>932.70556640625</ele>
    <time>2012-04-02T15:50:54Z</time>
   </trkpt>
   <trkpt lat="46.2361259460449" lon="6.91832780838013">
    <ele>932.944458007812</ele>
    <time>2012-04-02T15:50:55Z</time>
   </trkpt>
   <trkpt lat="46.2361488342285" lon="6.91834783554077">
    <ele>933.183349609375</ele>
    <time>2012-04-02T15:50:56Z</time>
   </trkpt>
   <trkpt lat="46.2361717224121" lon="6.91836738586426">
    <ele>933.422241210938</ele>
    <time>2012-04-02T15:50:57Z</time>
   </trkpt>
   <trkpt lat="46.2361946105957" lon="6.91838455200195">
    <ele>933.6611328125</ele>
    <time>2012-04-02T15:50:58Z</time>
   </trkpt>
   <trkpt lat="46.2363204956055" lon="6.91848564147949">
    <ele>935.094421386719</ele>
    <time>2012-04-02T15:51:04Z</time>
   </trkpt>
   <trkpt lat="46.2363433837891" lon="6.91849708557129">
    <ele>935.333312988281</ele>
    <time>2012-04-02T15:51:05Z</time>
   </trkpt>
   <trkpt lat="46.2363662719727" lon="6.91850852966309">
    <ele>935.572204589844</ele>
    <time>2012-04-02T15:51:06Z</time>
   </trkpt>
   <trkpt lat="46.2363891601562" lon="6.91851854324341">
    <ele>935.811096191406</ele>
    <time>2012-04-02T15:51:07Z</time>
   </trkpt>
   <trkpt lat="46.2364120483398" lon="6.91853141784668">
    <ele>936.049987792969</ele>
    <time>2012-04-02T15:51:08Z</time>
   </trkpt>
   <trkpt lat="46.2365455627441" lon="6.9185848236084">
    <ele>937.483337402344</ele>
    <time>2012-04-02T15:51:14Z</time>
   </trkpt>
   <trkpt lat="46.2365684509277" lon="6.91859149932861">
    <ele>937.722229003906</ele>
    <time>2012-04-02T15:51:15Z</time>
   </trkpt>
   <trkpt lat="46.2365989685059" lon="6.91860246658325">
    <ele>937.961120605469</ele>
    <time>2012-04-02T15:51:16Z</time>
   </trkpt>
   <trkpt lat="46.2366256713867" lon="6.91860914230347">
    <ele>938.200012207031</ele>
    <time>2012-04-02T15:51:17Z</time>
   </trkpt>
   <trkpt lat="46.236701965332" lon="6.91863203048706">
    <ele>938.200012207031</ele>
    <time>2012-04-02T15:51:20Z</time>
   </trkpt>
   <trkpt lat="46.23681640625" lon="6.91867733001709">
    <ele>939.25</ele>
    <time>2012-04-02T15:51:24Z</time>
   </trkpt>
   <trkpt lat="46.2368469238281" lon="6.91868877410889">
    <ele>939.512512207031</ele>
    <time>2012-04-02T15:51:25Z</time>
   </trkpt>
   <trkpt lat="46.236873626709" lon="6.91869688034058">
    <ele>939.775024414062</ele>
    <time>2012-04-02T15:51:26Z</time>
   </trkpt>
   <trkpt lat="46.2368965148926" lon="6.91870498657226">
    <ele>940.037536621094</ele>
    <time>2012-04-02T15:51:27Z</time>
   </trkpt>
   <trkpt lat="46.2369194030762" lon="6.91871309280396">
    <ele>940.300048828125</ele>
    <time>2012-04-02T15:51:28Z</time>
   </trkpt>
   <trkpt lat="46.2370147705078" lon="6.91875314712524">
    <ele>941.350036621094</ele>
    <time>2012-04-02T15:51:32Z</time>
   </trkpt>
   <trkpt lat="46.2370414733887" lon="6.91876459121704">
    <ele>941.612548828125</ele>
    <time>2012-04-02T15:51:33Z</time>
   </trkpt>
   <trkpt lat="46.2370681762695" lon="6.91877555847168">
    <ele>941.875</ele>
    <time>2012-04-02T15:51:34Z</time>
   </trkpt>
   <trkpt lat="46.2370986938477" lon="6.9187822341919">
    <ele>942.137512207031</ele>
    <time>2012-04-02T15:51:35Z</time>
   </trkpt>
   <trkpt lat="46.2371215820312" lon="6.91879224777222">
    <ele>942.400024414062</ele>
    <time>2012-04-02T15:51:36Z</time>
   </trkpt>
   <trkpt lat="46.237232208252" lon="6.91881990432739">
    <ele>942.400024414062</ele>
    <time>2012-04-02T15:51:40Z</time>
   </trkpt>
   <trkpt lat="46.2372550964356" lon="6.91882228851318">
    <ele>942.840026855469</ele>
    <time>2012-04-02T15:51:41Z</time>
   </trkpt>
   <trkpt lat="46.2372779846191" lon="6.91883230209351">
    <ele>943.280029296875</ele>
    <time>2012-04-02T15:51:42Z</time>
   </trkpt>
   <trkpt lat="46.2373008728027" lon="6.91883993148804">
    <ele>943.719970703125</ele>
    <time>2012-04-02T15:51:43Z</time>
   </trkpt>
   <trkpt lat="46.2373275756836" lon="6.91884899139404">
    <ele>944.159973144531</ele>
    <time>2012-04-02T15:51:44Z</time>
   </trkpt>
   <trkpt lat="46.2373542785644" lon="6.91886377334595">
    <ele>944.599975585938</ele>
    <time>2012-04-02T15:51:45Z</time>
   </trkpt>
   <trkpt lat="46.2373847961426" lon="6.91887903213501">
    <ele>944.599975585938</ele>
    <time>2012-04-02T15:51:46Z</time>
   </trkpt>
   <trkpt lat="46.2374725341797" lon="6.91893434524536">
    <ele>945.682312011719</ele>
    <time>2012-04-02T15:51:50Z</time>
   </trkpt>
   <trkpt lat="46.237491607666" lon="6.91894483566284">
    <ele>945.952941894531</ele>
    <time>2012-04-02T15:51:51Z</time>
   </trkpt>
   <trkpt lat="46.2375144958496" lon="6.9189567565918">
    <ele>946.223510742188</ele>
    <time>2012-04-02T15:51:52Z</time>
   </trkpt>
   <trkpt lat="46.2375373840332" lon="6.91897010803223">
    <ele>946.494079589844</ele>
    <time>2012-04-02T15:51:53Z</time>
   </trkpt>
   <trkpt lat="46.2375564575195" lon="6.91898202896118">
    <ele>946.764709472656</ele>
    <time>2012-04-02T15:51:54Z</time>
   </trkpt>
   <trkpt lat="46.2376899719238" lon="6.91905832290649">
    <ele>948.11767578125</ele>
    <time>2012-04-02T15:51:59Z</time>
   </trkpt>
   <trkpt lat="46.2377128601074" lon="6.91907072067261">
    <ele>948.388244628906</ele>
    <time>2012-04-02T15:52:00Z</time>
   </trkpt>
   <trkpt lat="46.237735748291" lon="6.91908645629883">
    <ele>948.658813476562</ele>
    <time>2012-04-02T15:52:01Z</time>
   </trkpt>
   <trkpt lat="46.2377586364746" lon="6.91910314559936">
    <ele>948.929443359375</ele>
    <time>2012-04-02T15:52:02Z</time>
   </trkpt>
   <trkpt lat="46.2377853393555" lon="6.9191164970398">
    <ele>949.200012207031</ele>
    <time>2012-04-02T15:52:03Z</time>
   </trkpt>
   <trkpt lat="46.2378082275391" lon="6.9191312789917">
    <ele>949.200012207031</ele>
    <time>2012-04-02T15:52:04Z</time>
   </trkpt>
   <trkpt lat="46.2378768920898" lon="6.91917610168457">
    <ele>950.05712890625</ele>
    <time>2012-04-02T15:52:07Z</time>
   </trkpt>
   <trkpt lat="46.2378959655762" lon="6.91918992996216">
    <ele>950.342895507812</ele>
    <time>2012-04-02T15:52:08Z</time>
   </trkpt>
   <trkpt lat="46.2379188537598" lon="6.91920232772827">
    <ele>950.628601074219</ele>
    <time>2012-04-02T15:52:09Z</time>
   </trkpt>
   <trkpt lat="46.2379379272461" lon="6.91921615600586">
    <ele>950.914306640625</ele>
    <time>2012-04-02T15:52:10Z</time>
   </trkpt>
   <trkpt lat="46.2379570007324" lon="6.91922950744629">
    <ele>951.200012207031</ele>
    <time>2012-04-02T15:52:11Z</time>
   </trkpt>
   <trkpt lat="46.2379989624023" lon="6.91924905776978">
    <ele>951.200012207031</ele>
    <time>2012-04-02T15:52:13Z</time>
   </trkpt>
   <trkpt lat="46.2380828857422" lon="6.91930103302002">
    <ele>952.148132324219</ele>
    <time>2012-04-02T15:52:17Z</time>
   </trkpt>
   <trkpt lat="46.2381057739258" lon="6.9193172454834">
    <ele>952.385192871094</ele>
    <time>2012-04-02T15:52:18Z</time>
   </trkpt>
   <trkpt lat="46.2381248474121" lon="6.91932964324951">
    <ele>952.622253417969</ele>
    <time>2012-04-02T15:52:19Z</time>
   </trkpt>
   <trkpt lat="46.238151550293" lon="6.91934251785278">
    <ele>952.859252929688</ele>
    <time>2012-04-02T15:52:20Z</time>
   </trkpt>
   <trkpt lat="46.2381706237793" lon="6.9193525314331">
    <ele>953.096313476562</ele>
    <time>2012-04-02T15:52:21Z</time>
   </trkpt>
   <trkpt lat="46.2382965087891" lon="6.91941356658936">
    <ele>954.518493652344</ele>
    <time>2012-04-02T15:52:27Z</time>
   </trkpt>
   <trkpt lat="46.2383193969727" lon="6.91942548751831">
    <ele>954.755554199219</ele>
    <time>2012-04-02T15:52:28Z</time>
   </trkpt>
   <trkpt lat="46.2383422851562" lon="6.91943454742432">
    <ele>954.992553710938</ele>
    <time>2012-04-02T15:52:29Z</time>
   </trkpt>
   <trkpt lat="46.2383651733398" lon="6.91944360733032">
    <ele>955.229614257812</ele>
    <time>2012-04-02T15:52:30Z</time>
   </trkpt>
   <trkpt lat="46.2384796142578" lon="6.91948413848877">
    <ele>956.65185546875</ele>
    <time>2012-04-02T15:52:36Z</time>
   </trkpt>
   <trkpt lat="46.2384948730469" lon="6.91948699951172">
    <ele>956.888854980469</ele>
    <time>2012-04-02T15:52:37Z</time>
   </trkpt>
   <trkpt lat="46.2385101318359" lon="6.91949367523193">
    <ele>957.125915527344</ele>
    <time>2012-04-02T15:52:38Z</time>
   </trkpt>
   <trkpt lat="46.2385292053223" lon="6.91949939727783">
    <ele>957.362915039062</ele>
    <time>2012-04-02T15:52:39Z</time>
   </trkpt>
   <trkpt lat="46.2385520935059" lon="6.91951036453247">
    <ele>957.599975585938</ele>
    <time>2012-04-02T15:52:40Z</time>
   </trkpt>
   <trkpt lat="46.2386283874512" lon="6.91953468322754">
    <ele>957.599975585938</ele>
    <time>2012-04-02T15:52:43Z</time>
   </trkpt>
   <trkpt lat="46.2386894226074" lon="6.91955661773682">
    <ele>958.387451171875</ele>
    <time>2012-04-02T15:52:46Z</time>
   </trkpt>
   <trkpt lat="46.2387161254883" lon="6.91956567764282">
    <ele>958.649963378906</ele>
    <time>2012-04-02T15:52:47Z</time>
   </trkpt>
   <trkpt lat="46.2387390136719" lon="6.9195671081543">
    <ele>958.912475585938</ele>
    <time>2012-04-02T15:52:48Z</time>
   </trkpt>
   <trkpt lat="46.2387657165527" lon="6.91957426071167">
    <ele>959.174987792969</ele>
    <time>2012-04-02T15:52:49Z</time>
   </trkpt>
   <trkpt lat="46.2387962341309" lon="6.91958093643188">
    <ele>959.4375</ele>
    <time>2012-04-02T15:52:50Z</time>
   </trkpt>
   <trkpt lat="46.2389297485352" lon="6.91960430145264">
    <ele>960.75</ele>
    <time>2012-04-02T15:52:55Z</time>
   </trkpt>
   <trkpt lat="46.2389526367188" lon="6.91960716247559">
    <ele>961.012512207031</ele>
    <time>2012-04-02T15:52:56Z</time>
   </trkpt>
   <trkpt lat="46.2389755249023" lon="6.91960191726685">
    <ele>961.274963378906</ele>
    <time>2012-04-02T15:52:57Z</time>
   </trkpt>
   <trkpt lat="46.2390022277832" lon="6.91960096359253">
    <ele>961.537475585938</ele>
    <time>2012-04-02T15:52:58Z</time>
   </trkpt>
   <trkpt lat="46.2390289306641" lon="6.91959238052368">
    <ele>961.799987792969</ele>
    <time>2012-04-02T15:52:59Z</time>
   </trkpt>
   <trkpt lat="46.239070892334" lon="6.91956329345703">
    <ele>961.799987792969</ele>
    <time>2012-04-02T15:53:01Z</time>
   </trkpt>
   <trkpt lat="46.2390899658203" lon="6.91953706741333">
    <ele>962.04443359375</ele>
    <time>2012-04-02T15:53:02Z</time>
   </trkpt>
   <trkpt lat="46.2391471862793" lon="6.91941213607788">
    <ele>963.022216796875</ele>
    <time>2012-04-02T15:53:06Z</time>
   </trkpt>
   <trkpt lat="46.2391510009766" lon="6.91937780380249">
    <ele>963.266662597656</ele>
    <time>2012-04-02T15:53:07Z</time>
   </trkpt>
   <trkpt lat="46.2391471862793" lon="6.9193377494812">
    <ele>963.511108398438</ele>
    <time>2012-04-02T15:53:08Z</time>
   </trkpt>
   <trkpt lat="46.239143371582" lon="6.9193000793457">
    <ele>963.755554199219</ele>
    <time>2012-04-02T15:53:09Z</time>
   </trkpt>
   <trkpt lat="46.2391319274902" lon="6.91926050186157">
    <ele>964</ele>
    <time>2012-04-02T15:53:10Z</time>
   </trkpt>
   <trkpt lat="46.239086151123" lon="6.91917324066162">
    <ele>964</ele>
    <time>2012-04-02T15:53:13Z</time>
   </trkpt>
   <trkpt lat="46.2389640808106" lon="6.91910409927368">
    <ele>964.526306152344</ele>
    <time>2012-04-02T15:53:18Z</time>
   </trkpt>
   <trkpt lat="46.2387771606445" lon="6.91908693313599">
    <ele>965.26318359375</ele>
    <time>2012-04-02T15:53:25Z</time>
   </trkpt>
   <trkpt lat="46.238697052002" lon="6.91907501220703">
    <ele>965.578918457031</ele>
    <time>2012-04-02T15:53:28Z</time>
   </trkpt>
   <trkpt lat="46.2386741638184" lon="6.91906929016113">
    <ele>965.684204101562</ele>
    <time>2012-04-02T15:53:29Z</time>
   </trkpt>
   <trkpt lat="46.2386512756348" lon="6.91906452178955">
    <ele>965.789489746094</ele>
    <time>2012-04-02T15:53:30Z</time>
   </trkpt>
   <trkpt lat="46.2386245727539" lon="6.91906118392944">
    <ele>965.894714355469</ele>
    <time>2012-04-02T15:53:31Z</time>
   </trkpt>
   <trkpt lat="46.2386016845703" lon="6.91905307769775">
    <ele>966</ele>
    <time>2012-04-02T15:53:32Z</time>
   </trkpt>
   <trkpt lat="46.2385063171387" lon="6.9190092086792">
    <ele>966</ele>
    <time>2012-04-02T15:53:36Z</time>
   </trkpt>
   <trkpt lat="46.2384452819824" lon="6.91897010803223">
    <ele>967</ele>
    <time>2012-04-02T15:53:39Z</time>
   </trkpt>
   <trkpt lat="46.2384223937988" lon="6.91896057128906">
    <ele>967.333312988281</ele>
    <time>2012-04-02T15:53:40Z</time>
   </trkpt>
   <trkpt lat="46.2384033203125" lon="6.91894769668579">
    <ele>967.666687011719</ele>
    <time>2012-04-02T15:53:41Z</time>
   </trkpt>
   <trkpt lat="46.2383842468262" lon="6.91893196105957">
    <ele>968</ele>
    <time>2012-04-02T15:53:42Z</time>
   </trkpt>
   <trkpt lat="46.2383499145508" lon="6.91889429092407">
    <ele>968</ele>
    <time>2012-04-02T15:53:44Z</time>
   </trkpt>
   <trkpt lat="46.2382698059082" lon="6.91882276535034">
    <ele>968.988220214844</ele>
    <time>2012-04-02T15:53:48Z</time>
   </trkpt>
   <trkpt lat="46.2382545471191" lon="6.91880559921265">
    <ele>969.235290527344</ele>
    <time>2012-04-02T15:53:49Z</time>
   </trkpt>
   <trkpt lat="46.2382392883301" lon="6.91878175735474">
    <ele>969.482360839844</ele>
    <time>2012-04-02T15:53:50Z</time>
   </trkpt>
   <trkpt lat="46.2382202148438" lon="6.91876077651978">
    <ele>969.729431152344</ele>
    <time>2012-04-02T15:53:51Z</time>
   </trkpt>
   <trkpt lat="46.2381973266602" lon="6.91873645782471">
    <ele>969.976501464844</ele>
    <time>2012-04-02T15:53:52Z</time>
   </trkpt>
   <trkpt lat="46.2381134033203" lon="6.9186429977417">
    <ele>971.211791992188</ele>
    <time>2012-04-02T15:53:57Z</time>
   </trkpt>
   <trkpt lat="46.2380981445312" lon="6.91862392425537">
    <ele>971.458862304688</ele>
    <time>2012-04-02T15:53:58Z</time>
   </trkpt>
   <trkpt lat="46.2380828857422" lon="6.91860485076904">
    <ele>971.705871582031</ele>
    <time>2012-04-02T15:53:59Z</time>
   </trkpt>
   <trkpt lat="46.2380638122559" lon="6.91858768463135">
    <ele>971.952941894531</ele>
    <time>2012-04-02T15:54:00Z</time>
   </trkpt>
   <trkpt lat="46.2380485534668" lon="6.91857194900513">
    <ele>972.200012207031</ele>
    <time>2012-04-02T15:54:01Z</time>
   </trkpt>
   <trkpt lat="46.2379837036133" lon="6.91851949691772">
    <ele>972.200012207031</ele>
    <time>2012-04-02T15:54:04Z</time>
   </trkpt>
   <trkpt lat="46.2378616333008" lon="6.91839408874512">
    <ele>973.422241210938</ele>
    <time>2012-04-02T15:54:09Z</time>
   </trkpt>
   <trkpt lat="46.2378349304199" lon="6.91837120056152">
    <ele>973.666687011719</ele>
    <time>2012-04-02T15:54:10Z</time>
   </trkpt>
   <trkpt lat="46.2378158569336" lon="6.91834878921509">
    <ele>973.9111328125</ele>
    <time>2012-04-02T15:54:11Z</time>
   </trkpt>
   <trkpt lat="46.2377967834473" lon="6.9183235168457">
    <ele>974.155578613281</ele>
    <time>2012-04-02T15:54:12Z</time>
   </trkpt>
   <trkpt lat="46.2377777099609" lon="6.91829776763916">
    <ele>974.400024414062</ele>
    <time>2012-04-02T15:54:13Z</time>
   </trkpt>
   <trkpt lat="46.2376594543457" lon="6.91815662384033">
    <ele>974.400024414062</ele>
    <time>2012-04-02T15:54:19Z</time>
   </trkpt>
   <trkpt lat="46.2375640869141" lon="6.91806983947754">
    <ele>975.400024414062</ele>
    <time>2012-04-02T15:54:23Z</time>
   </trkpt>
   <trkpt lat="46.2375411987305" lon="6.91804647445679">
    <ele>975.650024414062</ele>
    <time>2012-04-02T15:54:24Z</time>
   </trkpt>
   <trkpt lat="46.2375221252441" lon="6.91802358627319">
    <ele>975.900024414062</ele>
    <time>2012-04-02T15:54:25Z</time>
   </trkpt>
   <trkpt lat="46.2374954223633" lon="6.9180006980896">
    <ele>976.150024414062</ele>
    <time>2012-04-02T15:54:26Z</time>
   </trkpt>
   <trkpt lat="46.237476348877" lon="6.91798067092896">
    <ele>976.400024414062</ele>
    <time>2012-04-02T15:54:27Z</time>
   </trkpt>
   <trkpt lat="46.2373046875" lon="6.91781902313232">
    <ele>976.400024414062</ele>
    <time>2012-04-02T15:54:35Z</time>
   </trkpt>
   <trkpt lat="46.2371864318848" lon="6.91769409179688">
    <ele>977.511108398438</ele>
    <time>2012-04-02T15:54:40Z</time>
   </trkpt>
   <trkpt lat="46.2371597290039" lon="6.91766500473022">
    <ele>977.733337402344</ele>
    <time>2012-04-02T15:54:41Z</time>
   </trkpt>
   <trkpt lat="46.2371368408203" lon="6.91763734817505">
    <ele>977.95556640625</ele>
    <time>2012-04-02T15:54:42Z</time>
   </trkpt>
   <trkpt lat="46.237117767334" lon="6.91761159896851">
    <ele>978.177795410156</ele>
    <time>2012-04-02T15:54:43Z</time>
   </trkpt>
   <trkpt lat="46.2370948791504" lon="6.91758298873901">
    <ele>978.400024414062</ele>
    <time>2012-04-02T15:54:44Z</time>
   </trkpt>
   <trkpt lat="46.2370758056641" lon="6.91756105422974">
    <ele>978.400024414062</ele>
    <time>2012-04-02T15:54:45Z</time>
   </trkpt>
   <trkpt lat="46.2370147705078" lon="6.91747999191284">
    <ele>978.950012207031</ele>
    <time>2012-04-02T15:54:48Z</time>
   </trkpt>
   <trkpt lat="46.236888885498" lon="6.91732025146484">
    <ele>980.049987792969</ele>
    <time>2012-04-02T15:54:54Z</time>
   </trkpt>
   <trkpt lat="46.2368698120117" lon="6.91728734970093">
    <ele>980.233337402344</ele>
    <time>2012-04-02T15:54:55Z</time>
   </trkpt>
   <trkpt lat="46.2368545532227" lon="6.91725730895996">
    <ele>980.416625976562</ele>
    <time>2012-04-02T15:54:56Z</time>
   </trkpt>
   <trkpt lat="46.2368354797363" lon="6.91722917556763">
    <ele>980.599975585938</ele>
    <time>2012-04-02T15:54:57Z</time>
   </trkpt>
   <trkpt lat="46.236743927002" lon="6.91704320907593">
    <ele>980.599975585938</ele>
    <time>2012-04-02T15:55:03Z</time>
   </trkpt>
   <trkpt lat="46.2367172241211" lon="6.91698789596558">
    <ele>981.266662597656</ele>
    <time>2012-04-02T15:55:05Z</time>
   </trkpt>
   <trkpt lat="46.236701965332" lon="6.9169602394104">
    <ele>981.599975585938</ele>
    <time>2012-04-02T15:55:06Z</time>
   </trkpt>
   <trkpt lat="46.236686706543" lon="6.91693019866943">
    <ele>981.933288574219</ele>
    <time>2012-04-02T15:55:07Z</time>
   </trkpt>
   <trkpt lat="46.2366714477539" lon="6.91690063476562">
    <ele>982.266662597656</ele>
    <time>2012-04-02T15:55:08Z</time>
   </trkpt>
   <trkpt lat="46.2366561889648" lon="6.91686964035034">
    <ele>982.599975585938</ele>
    <time>2012-04-02T15:55:09Z</time>
   </trkpt>
   <trkpt lat="46.2365493774414" lon="6.91664886474609">
    <ele>982.599975585938</ele>
    <time>2012-04-02T15:55:16Z</time>
   </trkpt>
   <trkpt lat="46.2365036010742" lon="6.91654586791992">
    <ele>983.799987792969</ele>
    <time>2012-04-02T15:55:19Z</time>
   </trkpt>
   <trkpt lat="46.2364883422852" lon="6.91651487350464">
    <ele>984.200012207031</ele>
    <time>2012-04-02T15:55:20Z</time>
   </trkpt>
   <trkpt lat="46.2364730834961" lon="6.91648149490356">
    <ele>984.599975585938</ele>
    <time>2012-04-02T15:55:21Z</time>
   </trkpt>
   <trkpt lat="46.236457824707" lon="6.91645193099976">
    <ele>985</ele>
    <time>2012-04-02T15:55:22Z</time>
   </trkpt>
   <trkpt lat="46.2364234924316" lon="6.91639709472656">
    <ele>985</ele>
    <time>2012-04-02T15:55:24Z</time>
   </trkpt>
   <trkpt lat="46.2363548278809" lon="6.91624689102173">
    <ele>986.111083984375</ele>
    <time>2012-04-02T15:55:29Z</time>
   </trkpt>
   <trkpt lat="46.2363395690918" lon="6.91621589660644">
    <ele>986.333312988281</ele>
    <time>2012-04-02T15:55:30Z</time>
   </trkpt>
   <trkpt lat="46.236328125" lon="6.91618299484253">
    <ele>986.555541992188</ele>
    <time>2012-04-02T15:55:31Z</time>
   </trkpt>
   <trkpt lat="46.2363128662109" lon="6.91615295410156">
    <ele>986.777770996094</ele>
    <time>2012-04-02T15:55:32Z</time>
   </trkpt>
   <trkpt lat="46.2362976074219" lon="6.91612911224365">
    <ele>987</ele>
    <time>2012-04-02T15:55:33Z</time>
   </trkpt>
   <trkpt lat="46.2362174987793" lon="6.91599702835083">
    <ele>988.111083984375</ele>
    <time>2012-04-02T15:55:38Z</time>
   </trkpt>
   <trkpt lat="46.236198425293" lon="6.91597080230713">
    <ele>988.333312988281</ele>
    <time>2012-04-02T15:55:39Z</time>
   </trkpt>
   <trkpt lat="46.2361831665039" lon="6.91593790054321">
    <ele>988.555541992188</ele>
    <time>2012-04-02T15:55:40Z</time>
   </trkpt>
   <trkpt lat="46.2361679077148" lon="6.9159049987793">
    <ele>988.777770996094</ele>
    <time>2012-04-02T15:55:41Z</time>
   </trkpt>
   <trkpt lat="46.2361526489258" lon="6.91587400436401">
    <ele>989</ele>
    <time>2012-04-02T15:55:42Z</time>
   </trkpt>
   <trkpt lat="46.236083984375" lon="6.91575956344604">
    <ele>989</ele>
    <time>2012-04-02T15:55:46Z</time>
   </trkpt>
   <trkpt lat="46.2360382080078" lon="6.91567659378052">
    <ele>989.700012207031</ele>
    <time>2012-04-02T15:55:49Z</time>
   </trkpt>
   <trkpt lat="46.2360191345215" lon="6.91565084457398">
    <ele>989.933349609375</ele>
    <time>2012-04-02T15:55:50Z</time>
   </trkpt>
   <trkpt lat="46.2360038757324" lon="6.91562080383301">
    <ele>990.166687011719</ele>
    <time>2012-04-02T15:55:51Z</time>
   </trkpt>
   <trkpt lat="46.2359886169434" lon="6.91559457778931">
    <ele>990.400024414062</ele>
    <time>2012-04-02T15:55:52Z</time>
   </trkpt>
   <trkpt lat="46.2359733581543" lon="6.91556453704834">
    <ele>990.633361816406</ele>
    <time>2012-04-02T15:55:53Z</time>
   </trkpt>
   <trkpt lat="46.2358741760254" lon="6.91537284851074">
    <ele>992.266662597656</ele>
    <time>2012-04-02T15:56:00Z</time>
   </trkpt>
   <trkpt lat="46.2358589172363" lon="6.9153470993042">
    <ele>992.5</ele>
    <time>2012-04-02T15:56:01Z</time>
   </trkpt>
   <trkpt lat="46.23583984375" lon="6.91531991958618">
    <ele>992.733337402344</ele>
    <time>2012-04-02T15:56:02Z</time>
   </trkpt>
   <trkpt lat="46.2358283996582" lon="6.91529226303101">
    <ele>992.966674804688</ele>
    <time>2012-04-02T15:56:03Z</time>
   </trkpt>
   <trkpt lat="46.2358093261719" lon="6.91526126861572">
    <ele>993.200012207031</ele>
    <time>2012-04-02T15:56:04Z</time>
   </trkpt>
   <trkpt lat="46.2357711791992" lon="6.91518497467041">
    <ele>993.200012207031</ele>
    <time>2012-04-02T15:56:07Z</time>
   </trkpt>
   <trkpt lat="46.2357292175293" lon="6.91510772705078">
    <ele>994.05712890625</ele>
    <time>2012-04-02T15:56:10Z</time>
   </trkpt>
   <trkpt lat="46.2357139587402" lon="6.91508293151856">
    <ele>994.342895507812</ele>
    <time>2012-04-02T15:56:11Z</time>
   </trkpt>
   <trkpt lat="46.2357025146484" lon="6.91505575180054">
    <ele>994.628601074219</ele>
    <time>2012-04-02T15:56:12Z</time>
   </trkpt>
   <trkpt lat="46.2356872558594" lon="6.91502952575684">
    <ele>994.914306640625</ele>
    <time>2012-04-02T15:56:13Z</time>
   </trkpt>
   <trkpt lat="46.2356796264648" lon="6.91500282287598">
    <ele>995.200012207031</ele>
    <time>2012-04-02T15:56:14Z</time>
   </trkpt>
   <trkpt lat="46.2356109619141" lon="6.91485548019409">
    <ele>995.200012207031</ele>
    <time>2012-04-02T15:56:19Z</time>
   </trkpt>
   <trkpt lat="46.2355728149414" lon="6.91479301452637">
    <ele>995.933349609375</ele>
    <time>2012-04-02T15:56:21Z</time>
   </trkpt>
   <trkpt lat="46.2355499267578" lon="6.9147629737854">
    <ele>996.300048828125</ele>
    <time>2012-04-02T15:56:22Z</time>
   </trkpt>
   <trkpt lat="46.2355346679688" lon="6.91473531723022">
    <ele>996.666687011719</ele>
    <time>2012-04-02T15:56:23Z</time>
   </trkpt>
   <trkpt lat="46.2355155944824" lon="6.91470718383789">
    <ele>997.033325195312</ele>
    <time>2012-04-02T15:56:24Z</time>
   </trkpt>
   <trkpt lat="46.2354965209961" lon="6.91467475891113">
    <ele>997.400024414062</ele>
    <time>2012-04-02T15:56:25Z</time>
   </trkpt>
   <trkpt lat="46.2354850769043" lon="6.91464424133301">
    <ele>997.400024414062</ele>
    <time>2012-04-02T15:56:26Z</time>
   </trkpt>
   <trkpt lat="46.2353706359863" lon="6.91443490982056">
    <ele>998.940002441406</ele>
    <time>2012-04-02T15:56:33Z</time>
   </trkpt>
   <trkpt lat="46.2353515625" lon="6.91440534591675">
    <ele>999.159973144531</ele>
    <time>2012-04-02T15:56:34Z</time>
   </trkpt>
   <trkpt lat="46.2353363037109" lon="6.91437721252441">
    <ele>999.380004882812</ele>
    <time>2012-04-02T15:56:35Z</time>
   </trkpt>
   <trkpt lat="46.2353248596191" lon="6.91434907913208">
    <ele>999.599975585938</ele>
    <time>2012-04-02T15:56:36Z</time>
   </trkpt>
   <trkpt lat="46.235237121582" lon="6.91415357589722">
    <ele>999.599975585938</ele>
    <time>2012-04-02T15:56:42Z</time>
   </trkpt>
   <trkpt lat="46.2352142333984" lon="6.9140887260437">
    <ele>1000.26666259766</ele>
    <time>2012-04-02T15:56:44Z</time>
   </trkpt>
   <trkpt lat="46.2351951599121" lon="6.91405820846558">
    <ele>1000.59997558594</ele>
    <time>2012-04-02T15:56:45Z</time>
   </trkpt>
   <trkpt lat="46.235179901123" lon="6.91402864456177">
    <ele>1000.93328857422</ele>
    <time>2012-04-02T15:56:46Z</time>
   </trkpt>
   <trkpt lat="46.235164642334" lon="6.91399526596069">
    <ele>1001.26666259766</ele>
    <time>2012-04-02T15:56:47Z</time>
   </trkpt>
   <trkpt lat="46.2351455688477" lon="6.9139609336853">
    <ele>1001.59997558594</ele>
    <time>2012-04-02T15:56:48Z</time>
   </trkpt>
   <trkpt lat="46.2351112365723" lon="6.9138970375061">
    <ele>1001.59997558594</ele>
    <time>2012-04-02T15:56:50Z</time>
   </trkpt>
   <trkpt lat="46.2349739074707" lon="6.91363525390625">
    <ele>1002.69995117188</ele>
    <time>2012-04-02T15:56:58Z</time>
   </trkpt>
   <trkpt lat="46.2349052429199" lon="6.91350317001343">
    <ele>1003.25</ele>
    <time>2012-04-02T15:57:02Z</time>
   </trkpt>
   <trkpt lat="46.2348861694336" lon="6.91347074508667">
    <ele>1003.38751220703</ele>
    <time>2012-04-02T15:57:03Z</time>
   </trkpt>
   <trkpt lat="46.2348670959473" lon="6.91343927383423">
    <ele>1003.52496337891</ele>
    <time>2012-04-02T15:57:04Z</time>
   </trkpt>
   <trkpt lat="46.2348480224609" lon="6.91340637207031">
    <ele>1003.66247558594</ele>
    <time>2012-04-02T15:57:05Z</time>
   </trkpt>
   <trkpt lat="46.2348327636719" lon="6.91337013244629">
    <ele>1003.79998779297</ele>
    <time>2012-04-02T15:57:06Z</time>
   </trkpt>
   <trkpt lat="46.2346878051758" lon="6.91319370269775">
    <ele>1003.79998779297</ele>
    <time>2012-04-02T15:57:12Z</time>
   </trkpt>
   <trkpt lat="46.2345314025879" lon="6.91297197341919">
    <ele>1004.79998779297</ele>
    <time>2012-04-02T15:57:19Z</time>
   </trkpt>
   <trkpt lat="46.2345199584961" lon="6.91285037994385">
    <ele>1005.22857666016</ele>
    <time>2012-04-02T15:57:22Z</time>
   </trkpt>
   <trkpt lat="46.2345275878906" lon="6.91281414031982">
    <ele>1005.37139892578</ele>
    <time>2012-04-02T15:57:23Z</time>
   </trkpt>
   <trkpt lat="46.2345428466797" lon="6.91278457641602">
    <ele>1005.51428222656</ele>
    <time>2012-04-02T15:57:24Z</time>
   </trkpt>
   <trkpt lat="46.234561920166" lon="6.91276168823242">
    <ele>1005.65710449219</ele>
    <time>2012-04-02T15:57:25Z</time>
   </trkpt>
   <trkpt lat="46.2345962524414" lon="6.91275453567505">
    <ele>1005.79998779297</ele>
    <time>2012-04-02T15:57:26Z</time>
   </trkpt>
   <trkpt lat="46.2346305847168" lon="6.91276502609253">
    <ele>1005.79998779297</ele>
    <time>2012-04-02T15:57:27Z</time>
   </trkpt>
   <trkpt lat="46.2347373962402" lon="6.91289567947388">
    <ele>1006.67498779297</ele>
    <time>2012-04-02T15:57:32Z</time>
   </trkpt>
   <trkpt lat="46.2347602844238" lon="6.91295957565308">
    <ele>1007.02496337891</ele>
    <time>2012-04-02T15:57:34Z</time>
   </trkpt>
   <trkpt lat="46.2347793579102" lon="6.91299247741699">
    <ele>1007.20001220703</ele>
    <time>2012-04-02T15:57:35Z</time>
   </trkpt>
   <trkpt lat="46.234790802002" lon="6.9130220413208">
    <ele>1007.375</ele>
    <time>2012-04-02T15:57:36Z</time>
   </trkpt>
   <trkpt lat="46.234806060791" lon="6.91305112838745">
    <ele>1007.54998779297</ele>
    <time>2012-04-02T15:57:37Z</time>
   </trkpt>
   <trkpt lat="46.2348213195801" lon="6.91307973861694">
    <ele>1007.72497558594</ele>
    <time>2012-04-02T15:57:38Z</time>
   </trkpt>
   <trkpt lat="46.2348327636719" lon="6.9131121635437">
    <ele>1007.90002441406</ele>
    <time>2012-04-02T15:57:39Z</time>
   </trkpt>
   <trkpt lat="46.2349548339844" lon="6.91338872909546">
    <ele>1009.47497558594</ele>
    <time>2012-04-02T15:57:48Z</time>
   </trkpt>
   <trkpt lat="46.2349739074707" lon="6.91341924667358">
    <ele>1009.65002441406</ele>
    <time>2012-04-02T15:57:49Z</time>
   </trkpt>
   <trkpt lat="46.2349891662598" lon="6.91344738006592">
    <ele>1009.82501220703</ele>
    <time>2012-04-02T15:57:50Z</time>
   </trkpt>
   <trkpt lat="46.2350044250488" lon="6.91347885131836">
    <ele>1010</ele>
    <time>2012-04-02T15:57:51Z</time>
   </trkpt>
   <trkpt lat="46.2351303100586" lon="6.9136552810669">
    <ele>1010</ele>
    <time>2012-04-02T15:57:58Z</time>
   </trkpt>
   <trkpt lat="46.2351913452148" lon="6.9137282371521">
    <ele>1010.94287109375</ele>
    <time>2012-04-02T15:58:01Z</time>
   </trkpt>
   <trkpt lat="46.2352066040039" lon="6.91375589370728">
    <ele>1011.25714111328</ele>
    <time>2012-04-02T15:58:02Z</time>
   </trkpt>
   <trkpt lat="46.2352256774902" lon="6.91377878189087">
    <ele>1011.57141113281</ele>
    <time>2012-04-02T15:58:03Z</time>
   </trkpt>
   <trkpt lat="46.2352485656738" lon="6.91380310058594">
    <ele>1011.8857421875</ele>
    <time>2012-04-02T15:58:04Z</time>
   </trkpt>
   <trkpt lat="46.2352638244629" lon="6.91382741928101">
    <ele>1012.20001220703</ele>
    <time>2012-04-02T15:58:05Z</time>
   </trkpt>
   <trkpt lat="46.2352867126465" lon="6.91385269165039">
    <ele>1012.20001220703</ele>
    <time>2012-04-02T15:58:06Z</time>
   </trkpt>
   <trkpt lat="46.2354469299316" lon="6.91403532028198">
    <ele>1013.66668701172</ele>
    <time>2012-04-02T15:58:14Z</time>
   </trkpt>
   <trkpt lat="46.235466003418" lon="6.91406011581421">
    <ele>1013.85003662109</ele>
    <time>2012-04-02T15:58:15Z</time>
   </trkpt>
   <trkpt lat="46.2354850769043" lon="6.91408491134644">
    <ele>1014.03332519531</ele>
    <time>2012-04-02T15:58:16Z</time>
   </trkpt>
   <trkpt lat="46.2355041503906" lon="6.91410779953003">
    <ele>1014.21667480469</ele>
    <time>2012-04-02T15:58:17Z</time>
   </trkpt>
   <trkpt lat="46.235523223877" lon="6.91413164138794">
    <ele>1014.40002441406</ele>
    <time>2012-04-02T15:58:18Z</time>
   </trkpt>
   <trkpt lat="46.2356452941894" lon="6.91429758071899">
    <ele>1014.40002441406</ele>
    <time>2012-04-02T15:58:25Z</time>
   </trkpt>
   <trkpt lat="46.2356643676758" lon="6.91432094573975">
    <ele>1014.84002685547</ele>
    <time>2012-04-02T15:58:26Z</time>
   </trkpt>
   <trkpt lat="46.2356872558594" lon="6.9143443107605">
    <ele>1015.28002929688</ele>
    <time>2012-04-02T15:58:27Z</time>
   </trkpt>
   <trkpt lat="46.235710144043" lon="6.91437387466431">
    <ele>1015.71997070312</ele>
    <time>2012-04-02T15:58:28Z</time>
   </trkpt>
   <trkpt lat="46.235725402832" lon="6.91439867019653">
    <ele>1016.15997314453</ele>
    <time>2012-04-02T15:58:29Z</time>
   </trkpt>
   <trkpt lat="46.2357406616211" lon="6.91442441940308">
    <ele>1016.59997558594</ele>
    <time>2012-04-02T15:58:30Z</time>
   </trkpt>
   <trkpt lat="46.235782623291" lon="6.91447162628174">
    <ele>1016.59997558594</ele>
    <time>2012-04-02T15:58:32Z</time>
   </trkpt>
   <trkpt lat="46.2358932495117" lon="6.91462755203247">
    <ele>1017.79998779297</ele>
    <time>2012-04-02T15:58:38Z</time>
   </trkpt>
   <trkpt lat="46.2359085083008" lon="6.91465473175049">
    <ele>1018</ele>
    <time>2012-04-02T15:58:39Z</time>
   </trkpt>
   <trkpt lat="46.2359275817871" lon="6.91468048095703">
    <ele>1018.19995117188</ele>
    <time>2012-04-02T15:58:40Z</time>
   </trkpt>
   <trkpt lat="46.2359466552734" lon="6.91470241546631">
    <ele>1018.39996337891</ele>
    <time>2012-04-02T15:58:41Z</time>
   </trkpt>
   <trkpt lat="46.2360687255859" lon="6.91486930847168">
    <ele>1019.79998779297</ele>
    <time>2012-04-02T15:58:48Z</time>
   </trkpt>
   <trkpt lat="46.2360877990723" lon="6.91489219665527">
    <ele>1020</ele>
    <time>2012-04-02T15:58:49Z</time>
   </trkpt>
   <trkpt lat="46.2361106872559" lon="6.9149112701416">
    <ele>1020.20001220703</ele>
    <time>2012-04-02T15:58:50Z</time>
   </trkpt>
   <trkpt lat="46.2361297607422" lon="6.91492891311646">
    <ele>1020.39996337891</ele>
    <time>2012-04-02T15:58:51Z</time>
   </trkpt>
   <trkpt lat="46.2361526489258" lon="6.91494703292847">
    <ele>1020.59997558594</ele>
    <time>2012-04-02T15:58:52Z</time>
   </trkpt>
   <trkpt lat="46.2363090515137" lon="6.91505575180054">
    <ele>1022</ele>
    <time>2012-04-02T15:58:59Z</time>
   </trkpt>
   <trkpt lat="46.2363319396973" lon="6.91506671905518">
    <ele>1022.20001220703</ele>
    <time>2012-04-02T15:59:00Z</time>
   </trkpt>
   <trkpt lat="46.2363548278809" lon="6.91508150100708">
    <ele>1022.39996337891</ele>
    <time>2012-04-02T15:59:01Z</time>
   </trkpt>
   <trkpt lat="46.2363739013672" lon="6.91509485244751">
    <ele>1022.59997558594</ele>
    <time>2012-04-02T15:59:02Z</time>
   </trkpt>
   <trkpt lat="46.2363967895508" lon="6.91510725021362">
    <ele>1022.79998779297</ele>
    <time>2012-04-02T15:59:03Z</time>
   </trkpt>
   <trkpt lat="46.2364883422852" lon="6.91516876220703">
    <ele>1022.79998779297</ele>
    <time>2012-04-02T15:59:07Z</time>
   </trkpt>
   <trkpt lat="46.2365570068359" lon="6.91520690917969">
    <ele>1023.54113769531</ele>
    <time>2012-04-02T15:59:10Z</time>
   </trkpt>
   <trkpt lat="46.2365760803223" lon="6.91522216796875">
    <ele>1023.78820800781</ele>
    <time>2012-04-02T15:59:11Z</time>
   </trkpt>
   <trkpt lat="46.2365989685059" lon="6.91523742675781">
    <ele>1024.03527832031</ele>
    <time>2012-04-02T15:59:12Z</time>
   </trkpt>
   <trkpt lat="46.2366180419922" lon="6.9152512550354">
    <ele>1024.28234863281</ele>
    <time>2012-04-02T15:59:13Z</time>
   </trkpt>
   <trkpt lat="46.2366371154785" lon="6.91526556015015">
    <ele>1024.52941894531</ele>
    <time>2012-04-02T15:59:14Z</time>
   </trkpt>
   <trkpt lat="46.2367630004883" lon="6.91537570953369">
    <ele>1026.01171875</ele>
    <time>2012-04-02T15:59:20Z</time>
   </trkpt>
   <trkpt lat="46.2367858886719" lon="6.91539716720581">
    <ele>1026.2587890625</ele>
    <time>2012-04-02T15:59:21Z</time>
   </trkpt>
   <trkpt lat="46.2368049621582" lon="6.91541481018066">
    <ele>1026.505859375</ele>
    <time>2012-04-02T15:59:22Z</time>
   </trkpt>
   <trkpt lat="46.2368240356445" lon="6.91543292999268">
    <ele>1026.7529296875</ele>
    <time>2012-04-02T15:59:23Z</time>
   </trkpt>
   <trkpt lat="46.2368469238281" lon="6.91544771194458">
    <ele>1027</ele>
    <time>2012-04-02T15:59:24Z</time>
   </trkpt>
   <trkpt lat="46.2369003295898" lon="6.91551637649536">
    <ele>1027</ele>
    <time>2012-04-02T15:59:27Z</time>
   </trkpt>
   <trkpt lat="46.2369422912598" lon="6.91555833816528">
    <ele>1027.73327636719</ele>
    <time>2012-04-02T15:59:29Z</time>
   </trkpt>
   <trkpt lat="46.2369575500488" lon="6.91558170318604">
    <ele>1028.09997558594</ele>
    <time>2012-04-02T15:59:30Z</time>
   </trkpt>
   <trkpt lat="46.2369766235352" lon="6.91560745239258">
    <ele>1028.46667480469</ele>
    <time>2012-04-02T15:59:31Z</time>
   </trkpt>
   <trkpt lat="46.2369956970215" lon="6.91563034057617">
    <ele>1028.83325195312</ele>
    <time>2012-04-02T15:59:32Z</time>
   </trkpt>
   <trkpt lat="46.2370109558106" lon="6.91565561294556">
    <ele>1029.19995117188</ele>
    <time>2012-04-02T15:59:33Z</time>
   </trkpt>
   <trkpt lat="46.2371292114258" lon="6.91581678390503">
    <ele>1029.19995117188</ele>
    <time>2012-04-02T15:59:40Z</time>
   </trkpt>
   <trkpt lat="46.2371520996094" lon="6.91583728790283">
    <ele>1029.59997558594</ele>
    <time>2012-04-02T15:59:41Z</time>
   </trkpt>
   <trkpt lat="46.2371673583984" lon="6.91586303710938">
    <ele>1030</ele>
    <time>2012-04-02T15:59:42Z</time>
   </trkpt>
   <trkpt lat="46.2371864318848" lon="6.9158878326416">
    <ele>1030.39990234375</ele>
    <time>2012-04-02T15:59:43Z</time>
   </trkpt>
   <trkpt lat="46.2372055053711" lon="6.91591262817383">
    <ele>1030.79992675781</ele>
    <time>2012-04-02T15:59:44Z</time>
   </trkpt>
   <trkpt lat="46.2372245788574" lon="6.91593503952026">
    <ele>1031.19995117188</ele>
    <time>2012-04-02T15:59:45Z</time>
   </trkpt>
   <trkpt lat="46.2372436523438" lon="6.91595458984375">
    <ele>1031.19995117188</ele>
    <time>2012-04-02T15:59:46Z</time>
   </trkpt>
   <trkpt lat="46.2373809814453" lon="6.91613531112671">
    <ele>1032.59997558594</ele>
    <time>2012-04-02T15:59:53Z</time>
   </trkpt>
   <trkpt lat="46.2373962402344" lon="6.91615915298462">
    <ele>1032.79992675781</ele>
    <time>2012-04-02T15:59:54Z</time>
   </trkpt>
   <trkpt lat="46.2374153137207" lon="6.91618919372559">
    <ele>1033</ele>
    <time>2012-04-02T15:59:55Z</time>
   </trkpt>
   <trkpt lat="46.2374382019043" lon="6.91621828079224">
    <ele>1033.19995117188</ele>
    <time>2012-04-02T15:59:56Z</time>
   </trkpt>
   <trkpt lat="46.2375106811523" lon="6.91629695892334">
    <ele>1033.19995117188</ele>
    <time>2012-04-02T15:59:59Z</time>
   </trkpt>
   <trkpt lat="46.237621307373" lon="6.91645097732544">
    <ele>1034.30004882812</ele>
    <time>2012-04-02T16:00:04Z</time>
   </trkpt>
   <trkpt lat="46.2376441955566" lon="6.91648244857788">
    <ele>1034.52001953125</ele>
    <time>2012-04-02T16:00:05Z</time>
   </trkpt>
   <trkpt lat="46.2376708984375" lon="6.91652011871338">
    <ele>1034.73999023438</ele>
    <time>2012-04-02T16:00:06Z</time>
   </trkpt>
   <trkpt lat="46.2376899719238" lon="6.91655349731445">
    <ele>1034.9599609375</ele>
    <time>2012-04-02T16:00:07Z</time>
   </trkpt>
   <trkpt lat="46.2377128601074" lon="6.91658210754394">
    <ele>1035.18005371094</ele>
    <time>2012-04-02T16:00:08Z</time>
   </trkpt>
   <trkpt lat="46.2377433776856" lon="6.91660785675049">
    <ele>1035.40002441406</ele>
    <time>2012-04-02T16:00:09Z</time>
   </trkpt>
   <trkpt lat="46.2377662658691" lon="6.91664361953735">
    <ele>1035.40002441406</ele>
    <time>2012-04-02T16:00:10Z</time>
   </trkpt>
   <trkpt lat="46.2379150390625" lon="6.916832447052">
    <ele>1036.66320800781</ele>
    <time>2012-04-02T16:00:16Z</time>
   </trkpt>
   <trkpt lat="46.2379379272461" lon="6.91686248779297">
    <ele>1036.87365722656</ele>
    <time>2012-04-02T16:00:17Z</time>
   </trkpt>
   <trkpt lat="46.2379570007324" lon="6.91688537597656">
    <ele>1037.08422851562</ele>
    <time>2012-04-02T16:00:18Z</time>
   </trkpt>
   <trkpt lat="46.237979888916" lon="6.91691207885742">
    <ele>1037.29479980469</ele>
    <time>2012-04-02T16:00:19Z</time>
   </trkpt>
   <trkpt lat="46.2381324768066" lon="6.91705274581909">
    <ele>1038.55786132812</ele>
    <time>2012-04-02T16:00:25Z</time>
   </trkpt>
   <trkpt lat="46.2381629943848" lon="6.91708278656006">
    <ele>1038.76843261719</ele>
    <time>2012-04-02T16:00:26Z</time>
   </trkpt>
   <trkpt lat="46.2381935119629" lon="6.91710329055786">
    <ele>1038.97900390625</ele>
    <time>2012-04-02T16:00:27Z</time>
   </trkpt>
   <trkpt lat="46.2382202148438" lon="6.91712427139282">
    <ele>1039.189453125</ele>
    <time>2012-04-02T16:00:28Z</time>
   </trkpt>
   <trkpt lat="46.2382545471191" lon="6.91714763641357">
    <ele>1039.40002441406</ele>
    <time>2012-04-02T16:00:29Z</time>
   </trkpt>
   <trkpt lat="46.2383232116699" lon="6.91717386245728">
    <ele>1039.40002441406</ele>
    <time>2012-04-02T16:00:31Z</time>
   </trkpt>
   <trkpt lat="46.2384948730469" lon="6.91721630096436">
    <ele>1040.59997558594</ele>
    <time>2012-04-02T16:00:37Z</time>
   </trkpt>
   <trkpt lat="46.2385177612305" lon="6.91722059249878">
    <ele>1040.80004882812</ele>
    <time>2012-04-02T16:00:38Z</time>
   </trkpt>
   <trkpt lat="46.2385482788086" lon="6.91722726821899">
    <ele>1041</ele>
    <time>2012-04-02T16:00:39Z</time>
   </trkpt>
   <trkpt lat="46.2385711669922" lon="6.91723346710205">
    <ele>1041.19995117188</ele>
    <time>2012-04-02T16:00:40Z</time>
   </trkpt>
   <trkpt lat="46.238597869873" lon="6.91723728179932">
    <ele>1041.40002441406</ele>
    <time>2012-04-02T16:00:41Z</time>
   </trkpt>
   <trkpt lat="46.2386245727539" lon="6.91723871231079">
    <ele>1041.59997558594</ele>
    <time>2012-04-02T16:00:42Z</time>
   </trkpt>
   <trkpt lat="46.2387046813965" lon="6.91723775863648">
    <ele>1041.59997558594</ele>
    <time>2012-04-02T16:00:45Z</time>
   </trkpt>
   <trkpt lat="46.2387580871582" lon="6.91723442077637">
    <ele>1042.33337402344</ele>
    <time>2012-04-02T16:00:47Z</time>
   </trkpt>
   <trkpt lat="46.2387809753418" lon="6.91723155975342">
    <ele>1042.69995117188</ele>
    <time>2012-04-02T16:00:48Z</time>
   </trkpt>
   <trkpt lat="46.2388076782227" lon="6.91723346710205">
    <ele>1043.06665039062</ele>
    <time>2012-04-02T16:00:49Z</time>
   </trkpt>
   <trkpt lat="46.2388343811035" lon="6.91723394393921">
    <ele>1043.43334960938</ele>
    <time>2012-04-02T16:00:50Z</time>
   </trkpt>
   <trkpt lat="46.2388648986816" lon="6.91724014282226">
    <ele>1043.80004882812</ele>
    <time>2012-04-02T16:00:51Z</time>
   </trkpt>
   <trkpt lat="46.2389183044434" lon="6.91724395751953">
    <ele>1043.80004882812</ele>
    <time>2012-04-02T16:00:53Z</time>
   </trkpt>
   <trkpt lat="46.2390556335449" lon="6.91725635528564">
    <ele>1044.85009765625</ele>
    <time>2012-04-02T16:00:58Z</time>
   </trkpt>
   <trkpt lat="46.2390823364258" lon="6.91725873947144">
    <ele>1045.06005859375</ele>
    <time>2012-04-02T16:00:59Z</time>
   </trkpt>
   <trkpt lat="46.2391090393066" lon="6.91726303100586">
    <ele>1045.27001953125</ele>
    <time>2012-04-02T16:01:00Z</time>
   </trkpt>
   <trkpt lat="46.2391357421875" lon="6.91726636886597">
    <ele>1045.47998046875</ele>
    <time>2012-04-02T16:01:01Z</time>
   </trkpt>
   <trkpt lat="46.2391624450684" lon="6.91727113723755">
    <ele>1045.69006347656</ele>
    <time>2012-04-02T16:01:02Z</time>
   </trkpt>
   <trkpt lat="46.2393608093262" lon="6.91733264923096">
    <ele>1047.16003417969</ele>
    <time>2012-04-02T16:01:09Z</time>
   </trkpt>
   <trkpt lat="46.2393951416016" lon="6.91734170913696">
    <ele>1047.36999511719</ele>
    <time>2012-04-02T16:01:10Z</time>
   </trkpt>
   <trkpt lat="46.2394256591797" lon="6.91735172271728">
    <ele>1047.57995605469</ele>
    <time>2012-04-02T16:01:11Z</time>
   </trkpt>
   <trkpt lat="46.2394561767578" lon="6.91736268997192">
    <ele>1047.7900390625</ele>
    <time>2012-04-02T16:01:12Z</time>
   </trkpt>
   <trkpt lat="46.2394828796387" lon="6.91737461090088">
    <ele>1048</ele>
    <time>2012-04-02T16:01:13Z</time>
   </trkpt>
   <trkpt lat="46.2396621704102" lon="6.9174165725708">
    <ele>1048</ele>
    <time>2012-04-02T16:01:19Z</time>
   </trkpt>
   <trkpt lat="46.239688873291" lon="6.91741943359375">
    <ele>1048.43994140625</ele>
    <time>2012-04-02T16:01:20Z</time>
   </trkpt>
   <trkpt lat="46.2397155761719" lon="6.91741895675659">
    <ele>1048.88000488281</ele>
    <time>2012-04-02T16:01:21Z</time>
   </trkpt>
   <trkpt lat="46.23974609375" lon="6.9174165725708">
    <ele>1049.31994628906</ele>
    <time>2012-04-02T16:01:22Z</time>
   </trkpt>
   <trkpt lat="46.2397727966309" lon="6.91740369796753">
    <ele>1049.76000976562</ele>
    <time>2012-04-02T16:01:23Z</time>
   </trkpt>
   <trkpt lat="46.2397994995117" lon="6.91738319396973">
    <ele>1050.19995117188</ele>
    <time>2012-04-02T16:01:24Z</time>
   </trkpt>
   <trkpt lat="46.239818572998" lon="6.91735792160034">
    <ele>1050.19995117188</ele>
    <time>2012-04-02T16:01:25Z</time>
   </trkpt>
   <trkpt lat="46.2398567199707" lon="6.91720294952393">
    <ele>1050.81530761719</ele>
    <time>2012-04-02T16:01:29Z</time>
   </trkpt>
   <trkpt lat="46.2398071289062" lon="6.9170389175415">
    <ele>1051.4306640625</ele>
    <time>2012-04-02T16:01:33Z</time>
   </trkpt>
   <trkpt lat="46.2397880554199" lon="6.91701936721802">
    <ele>1051.58459472656</ele>
    <time>2012-04-02T16:01:34Z</time>
   </trkpt>
   <trkpt lat="46.2397575378418" lon="6.91699886322022">
    <ele>1051.73840332031</ele>
    <time>2012-04-02T16:01:35Z</time>
   </trkpt>
   <trkpt lat="46.2397308349609" lon="6.91698312759399">
    <ele>1051.89221191406</ele>
    <time>2012-04-02T16:01:36Z</time>
   </trkpt>
   <trkpt lat="46.2397003173828" lon="6.91696929931641">
    <ele>1052.04614257812</ele>
    <time>2012-04-02T16:01:37Z</time>
   </trkpt>
   <trkpt lat="46.2396659851074" lon="6.91696166992188">
    <ele>1052.19995117188</ele>
    <time>2012-04-02T16:01:38Z</time>
   </trkpt>
   <trkpt lat="46.2394485473633" lon="6.91693210601807">
    <ele>1052.19995117188</ele>
    <time>2012-04-02T16:01:45Z</time>
   </trkpt>
   <trkpt lat="46.2393646240234" lon="6.9169135093689">
    <ele>1053.14282226562</ele>
    <time>2012-04-02T16:01:48Z</time>
   </trkpt>
   <trkpt lat="46.2393379211426" lon="6.916907787323">
    <ele>1053.45715332031</ele>
    <time>2012-04-02T16:01:49Z</time>
   </trkpt>
   <trkpt lat="46.2393112182617" lon="6.91690492630005">
    <ele>1053.771484375</ele>
    <time>2012-04-02T16:01:50Z</time>
   </trkpt>
   <trkpt lat="46.2392807006836" lon="6.91689872741699">
    <ele>1054.08569335938</ele>
    <time>2012-04-02T16:01:51Z</time>
   </trkpt>
   <trkpt lat="46.2392539978027" lon="6.91688871383667">
    <ele>1054.40002441406</ele>
    <time>2012-04-02T16:01:52Z</time>
   </trkpt>
   <trkpt lat="46.2390975952148" lon="6.91682529449463">
    <ele>1054.40002441406</ele>
    <time>2012-04-02T16:01:58Z</time>
   </trkpt>
   <trkpt lat="46.239070892334" lon="6.91681241989136">
    <ele>1054.80004882812</ele>
    <time>2012-04-02T16:01:59Z</time>
   </trkpt>
   <trkpt lat="46.2390441894531" lon="6.91680335998535">
    <ele>1055.20007324219</ele>
    <time>2012-04-02T16:02:00Z</time>
   </trkpt>
   <trkpt lat="46.2390174865723" lon="6.91679334640503">
    <ele>1055.59997558594</ele>
    <time>2012-04-02T16:02:01Z</time>
   </trkpt>
   <trkpt lat="46.2389907836914" lon="6.91678714752197">
    <ele>1056</ele>
    <time>2012-04-02T16:02:02Z</time>
   </trkpt>
   <trkpt lat="46.2389678955078" lon="6.91677951812744">
    <ele>1056.40002441406</ele>
    <time>2012-04-02T16:02:03Z</time>
   </trkpt>
   <trkpt lat="46.2388916015625" lon="6.9167652130127">
    <ele>1056.40002441406</ele>
    <time>2012-04-02T16:02:06Z</time>
   </trkpt>
   <trkpt lat="46.2388381958008" lon="6.91675662994385">
    <ele>1057.06665039062</ele>
    <time>2012-04-02T16:02:08Z</time>
   </trkpt>
   <trkpt lat="46.2388153076172" lon="6.91675138473511">
    <ele>1057.40002441406</ele>
    <time>2012-04-02T16:02:09Z</time>
   </trkpt>
   <trkpt lat="46.2387924194336" lon="6.91673946380615">
    <ele>1057.7333984375</ele>
    <time>2012-04-02T16:02:10Z</time>
   </trkpt>
   <trkpt lat="46.2387657165527" lon="6.91673040390015">
    <ele>1058.06665039062</ele>
    <time>2012-04-02T16:02:11Z</time>
   </trkpt>
   <trkpt lat="46.2387428283691" lon="6.91671895980835">
    <ele>1058.40002441406</ele>
    <time>2012-04-02T16:02:12Z</time>
   </trkpt>
   <trkpt lat="46.2387199401856" lon="6.91671323776245">
    <ele>1058.40002441406</ele>
    <time>2012-04-02T16:02:13Z</time>
   </trkpt>
   <trkpt lat="46.2386131286621" lon="6.91668462753296">
    <ele>1059.62219238281</ele>
    <time>2012-04-02T16:02:18Z</time>
   </trkpt>
   <trkpt lat="46.2386016845703" lon="6.91667652130127">
    <ele>1059.86669921875</ele>
    <time>2012-04-02T16:02:19Z</time>
   </trkpt>
   <trkpt lat="46.238582611084" lon="6.91666507720947">
    <ele>1060.11108398438</ele>
    <time>2012-04-02T16:02:20Z</time>
   </trkpt>
   <trkpt lat="46.2385597229004" lon="6.91665649414062">
    <ele>1060.35559082031</ele>
    <time>2012-04-02T16:02:21Z</time>
   </trkpt>
   <trkpt lat="46.2385368347168" lon="6.91665029525757">
    <ele>1060.59997558594</ele>
    <time>2012-04-02T16:02:22Z</time>
   </trkpt>
   <trkpt lat="46.2384872436523" lon="6.91662740707398">
    <ele>1060.59997558594</ele>
    <time>2012-04-02T16:02:24Z</time>
   </trkpt>
   <trkpt lat="46.2384414672852" lon="6.9166088104248">
    <ele>1061.2666015625</ele>
    <time>2012-04-02T16:02:26Z</time>
   </trkpt>
   <trkpt lat="46.2384185791016" lon="6.91659593582153">
    <ele>1061.59997558594</ele>
    <time>2012-04-02T16:02:27Z</time>
   </trkpt>
   <trkpt lat="46.2383995056152" lon="6.91658163070679">
    <ele>1061.93334960938</ele>
    <time>2012-04-02T16:02:28Z</time>
   </trkpt>
   <trkpt lat="46.2383766174316" lon="6.91656970977783">
    <ele>1062.2666015625</ele>
    <time>2012-04-02T16:02:29Z</time>
   </trkpt>
   <trkpt lat="46.2383575439453" lon="6.9165563583374">
    <ele>1062.59997558594</ele>
    <time>2012-04-02T16:02:30Z</time>
   </trkpt>
   <trkpt lat="46.2383422851562" lon="6.91653347015381">
    <ele>1062.59997558594</ele>
    <time>2012-04-02T16:02:31Z</time>
   </trkpt>
   <trkpt lat="46.2382926940918" lon="6.91646003723144">
    <ele>1063.38745117188</ele>
    <time>2012-04-02T16:02:34Z</time>
   </trkpt>
   <trkpt lat="46.23828125" lon="6.91643762588501">
    <ele>1063.65002441406</ele>
    <time>2012-04-02T16:02:35Z</time>
   </trkpt>
   <trkpt lat="46.2382659912109" lon="6.91641187667847">
    <ele>1063.91247558594</ele>
    <time>2012-04-02T16:02:36Z</time>
   </trkpt>
   <trkpt lat="46.2382507324219" lon="6.91638469696045">
    <ele>1064.17504882812</ele>
    <time>2012-04-02T16:02:37Z</time>
   </trkpt>
   <trkpt lat="46.2382392883301" lon="6.91635847091675">
    <ele>1064.4375</ele>
    <time>2012-04-02T16:02:38Z</time>
   </trkpt>
   <trkpt lat="46.2381820678711" lon="6.91620683670044">
    <ele>1065.75</ele>
    <time>2012-04-02T16:02:43Z</time>
   </trkpt>
   <trkpt lat="46.2381744384766" lon="6.91617679595947">
    <ele>1066.01257324219</ele>
    <time>2012-04-02T16:02:44Z</time>
   </trkpt>
   <trkpt lat="46.2381591796875" lon="6.91614770889282">
    <ele>1066.27502441406</ele>
    <time>2012-04-02T16:02:45Z</time>
   </trkpt>
   <trkpt lat="46.2381477355957" lon="6.91611623764038">
    <ele>1066.53759765625</ele>
    <time>2012-04-02T16:02:46Z</time>
   </trkpt>
   <trkpt lat="46.2381401062012" lon="6.91608428955078">
    <ele>1066.80004882812</ele>
    <time>2012-04-02T16:02:47Z</time>
   </trkpt>
   <trkpt lat="46.2381172180176" lon="6.91598510742188">
    <ele>1066.80004882812</ele>
    <time>2012-04-02T16:02:50Z</time>
   </trkpt>
   <trkpt lat="46.2381057739258" lon="6.91594934463501">
    <ele>1067.20007324219</ele>
    <time>2012-04-02T16:02:51Z</time>
   </trkpt>
   <trkpt lat="46.238094329834" lon="6.91591453552246">
    <ele>1067.60009765625</ele>
    <time>2012-04-02T16:02:52Z</time>
   </trkpt>
   <trkpt lat="46.2380867004394" lon="6.91588306427002">
    <ele>1068</ele>
    <time>2012-04-02T16:02:53Z</time>
   </trkpt>
   <trkpt lat="46.2380714416504" lon="6.9158501625061">
    <ele>1068.40002441406</ele>
    <time>2012-04-02T16:02:54Z</time>
   </trkpt>
   <trkpt lat="46.2380599975586" lon="6.91581392288208">
    <ele>1068.80004882812</ele>
    <time>2012-04-02T16:02:55Z</time>
   </trkpt>
   <trkpt lat="46.2380485534668" lon="6.91577911376953">
    <ele>1068.80004882812</ele>
    <time>2012-04-02T16:02:56Z</time>
   </trkpt>
   <trkpt lat="46.2380104064941" lon="6.91568899154663">
    <ele>1069.55004882812</ele>
    <time>2012-04-02T16:02:59Z</time>
   </trkpt>
   <trkpt lat="46.2379989624023" lon="6.91566038131714">
    <ele>1069.80004882812</ele>
    <time>2012-04-02T16:03:00Z</time>
   </trkpt>
   <trkpt lat="46.2379837036133" lon="6.91563129425049">
    <ele>1070.05004882812</ele>
    <time>2012-04-02T16:03:01Z</time>
   </trkpt>
   <trkpt lat="46.2379684448242" lon="6.91560554504394">
    <ele>1070.30004882812</ele>
    <time>2012-04-02T16:03:02Z</time>
   </trkpt>
   <trkpt lat="46.2379531860352" lon="6.91558122634888">
    <ele>1070.55004882812</ele>
    <time>2012-04-02T16:03:03Z</time>
   </trkpt>
   <trkpt lat="46.2378540039062" lon="6.91541862487793">
    <ele>1072.05004882812</ele>
    <time>2012-04-02T16:03:09Z</time>
   </trkpt>
   <trkpt lat="46.2378349304199" lon="6.91539525985718">
    <ele>1072.30004882812</ele>
    <time>2012-04-02T16:03:10Z</time>
   </trkpt>
   <trkpt lat="46.2378158569336" lon="6.9153733253479">
    <ele>1072.55004882812</ele>
    <time>2012-04-02T16:03:11Z</time>
   </trkpt>
   <trkpt lat="46.2378005981445" lon="6.91534519195557">
    <ele>1072.80004882812</ele>
    <time>2012-04-02T16:03:12Z</time>
   </trkpt>
   <trkpt lat="46.237720489502" lon="6.91524410247803">
    <ele>1072.80004882812</ele>
    <time>2012-04-02T16:03:17Z</time>
   </trkpt>
   <trkpt lat="46.2376861572266" lon="6.91519689559936">
    <ele>1073.53332519531</ele>
    <time>2012-04-02T16:03:19Z</time>
   </trkpt>
   <trkpt lat="46.2376708984375" lon="6.91516876220703">
    <ele>1073.90002441406</ele>
    <time>2012-04-02T16:03:20Z</time>
   </trkpt>
   <trkpt lat="46.2376556396484" lon="6.91514348983765">
    <ele>1074.26672363281</ele>
    <time>2012-04-02T16:03:21Z</time>
   </trkpt>
   <trkpt lat="46.2376441955566" lon="6.91511344909668">
    <ele>1074.63330078125</ele>
    <time>2012-04-02T16:03:22Z</time>
   </trkpt>
   <trkpt lat="46.2376289367676" lon="6.91508436203003">
    <ele>1075</ele>
    <time>2012-04-02T16:03:23Z</time>
   </trkpt>
   <trkpt lat="46.237606048584" lon="6.91504859924316">
    <ele>1075</ele>
    <time>2012-04-02T16:03:24Z</time>
   </trkpt>
   <trkpt lat="46.2375526428223" lon="6.91493368148804">
    <ele>1076</ele>
    <time>2012-04-02T16:03:28Z</time>
   </trkpt>
   <trkpt lat="46.2375373840332" lon="6.91490364074707">
    <ele>1076.25</ele>
    <time>2012-04-02T16:03:29Z</time>
   </trkpt>
   <trkpt lat="46.2375297546387" lon="6.91487264633179">
    <ele>1076.5</ele>
    <time>2012-04-02T16:03:30Z</time>
   </trkpt>
   <trkpt lat="46.2375297546387" lon="6.91483640670776">
    <ele>1076.75</ele>
    <time>2012-04-02T16:03:31Z</time>
   </trkpt>
   <trkpt lat="46.2375259399414" lon="6.91480875015259">
    <ele>1077</ele>
    <time>2012-04-02T16:03:32Z</time>
   </trkpt>
   <trkpt lat="46.2375183105469" lon="6.91464805603027">
    <ele>1078.25</ele>
    <time>2012-04-02T16:03:37Z</time>
   </trkpt>
   <trkpt lat="46.2375183105469" lon="6.91461420059204">
    <ele>1078.5</ele>
    <time>2012-04-02T16:03:38Z</time>
   </trkpt>
   <trkpt lat="46.2375144958496" lon="6.91458129882812">
    <ele>1078.75</ele>
    <time>2012-04-02T16:03:39Z</time>
   </trkpt>
   <trkpt lat="46.2375106811523" lon="6.91454887390137">
    <ele>1079</ele>
    <time>2012-04-02T16:03:40Z</time>
   </trkpt>
   <trkpt lat="46.2375068664551" lon="6.9144606590271">
    <ele>1079</ele>
    <time>2012-04-02T16:03:43Z</time>
   </trkpt>
   <trkpt lat="46.237491607666" lon="6.91440486907959">
    <ele>1079.73327636719</ele>
    <time>2012-04-02T16:03:45Z</time>
   </trkpt>
   <trkpt lat="46.2374839782715" lon="6.91438293457031">
    <ele>1080.09997558594</ele>
    <time>2012-04-02T16:03:46Z</time>
   </trkpt>
   <trkpt lat="46.2374725341797" lon="6.91435670852661">
    <ele>1080.46667480469</ele>
    <time>2012-04-02T16:03:47Z</time>
   </trkpt>
   <trkpt lat="46.2374610900879" lon="6.9143271446228">
    <ele>1080.83325195312</ele>
    <time>2012-04-02T16:03:48Z</time>
   </trkpt>
   <trkpt lat="46.2374496459961" lon="6.91429805755615">
    <ele>1081.19995117188</ele>
    <time>2012-04-02T16:03:49Z</time>
   </trkpt>
   <trkpt lat="46.237419128418" lon="6.91422939300537">
    <ele>1081.19995117188</ele>
    <time>2012-04-02T16:03:52Z</time>
   </trkpt>
   <trkpt lat="46.2373847961426" lon="6.91415643692017">
    <ele>1082.05712890625</ele>
    <time>2012-04-02T16:03:55Z</time>
   </trkpt>
   <trkpt lat="46.237377166748" lon="6.9141354560852">
    <ele>1082.3427734375</ele>
    <time>2012-04-02T16:03:56Z</time>
   </trkpt>
   <trkpt lat="46.2373542785644" lon="6.91410732269287">
    <ele>1082.62854003906</ele>
    <time>2012-04-02T16:03:57Z</time>
   </trkpt>
   <trkpt lat="46.2373542785644" lon="6.91407680511475">
    <ele>1082.91418457031</ele>
    <time>2012-04-02T16:03:58Z</time>
   </trkpt>
   <trkpt lat="46.2373428344727" lon="6.91404676437378">
    <ele>1083.19995117188</ele>
    <time>2012-04-02T16:03:59Z</time>
   </trkpt>
   <trkpt lat="46.2373275756836" lon="6.91401624679565">
    <ele>1083.19995117188</ele>
    <time>2012-04-02T16:04:00Z</time>
   </trkpt>
   <trkpt lat="46.2372703552246" lon="6.91390419006348">
    <ele>1084</ele>
    <time>2012-04-02T16:04:04Z</time>
   </trkpt>
   <trkpt lat="46.2372436523438" lon="6.91385364532471">
    <ele>1084.39990234375</ele>
    <time>2012-04-02T16:04:06Z</time>
   </trkpt>
   <trkpt lat="46.2372245788574" lon="6.91382312774658">
    <ele>1084.59997558594</ele>
    <time>2012-04-02T16:04:07Z</time>
   </trkpt>
   <trkpt lat="46.2372055053711" lon="6.91379022598267">
    <ele>1084.79992675781</ele>
    <time>2012-04-02T16:04:08Z</time>
   </trkpt>
   <trkpt lat="46.2371826171875" lon="6.91375970840454">
    <ele>1085</ele>
    <time>2012-04-02T16:04:09Z</time>
   </trkpt>
   <trkpt lat="46.2371635437012" lon="6.91373205184936">
    <ele>1085.19995117188</ele>
    <time>2012-04-02T16:04:10Z</time>
   </trkpt>
   <trkpt lat="46.2371063232422" lon="6.91365146636963">
    <ele>1085.19995117188</ele>
    <time>2012-04-02T16:04:13Z</time>
   </trkpt>
   <trkpt lat="46.237060546875" lon="6.91356182098389">
    <ele>1085.99194335938</ele>
    <time>2012-04-02T16:04:16Z</time>
   </trkpt>
   <trkpt lat="46.2370414733887" lon="6.91353225708008">
    <ele>1086.25598144531</ele>
    <time>2012-04-02T16:04:17Z</time>
   </trkpt>
   <trkpt lat="46.2370223999023" lon="6.91349983215332">
    <ele>1086.52001953125</ele>
    <time>2012-04-02T16:04:18Z</time>
   </trkpt>
   <trkpt lat="46.2370071411133" lon="6.91346836090088">
    <ele>1086.78393554688</ele>
    <time>2012-04-02T16:04:19Z</time>
   </trkpt>
   <trkpt lat="46.2369842529297" lon="6.91343927383423">
    <ele>1087.04797363281</ele>
    <time>2012-04-02T16:04:20Z</time>
   </trkpt>
   <trkpt lat="46.2369041442871" lon="6.91331577301025">
    <ele>1088.10400390625</ele>
    <time>2012-04-02T16:04:24Z</time>
   </trkpt>
   <trkpt lat="46.2368850708008" lon="6.9132890701294">
    <ele>1088.36804199219</ele>
    <time>2012-04-02T16:04:25Z</time>
   </trkpt>
   <trkpt lat="46.2368659973144" lon="6.9132604598999">
    <ele>1088.63195800781</ele>
    <time>2012-04-02T16:04:26Z</time>
   </trkpt>
   <trkpt lat="46.2368431091309" lon="6.91324710845947">
    <ele>1088.89599609375</ele>
    <time>2012-04-02T16:04:27Z</time>
   </trkpt>
   <trkpt lat="46.2367401123047" lon="6.91309881210327">
    <ele>1090.74401855469</ele>
    <time>2012-04-02T16:04:34Z</time>
   </trkpt>
   <trkpt lat="46.2367286682129" lon="6.91308259963989">
    <ele>1091.00805664062</ele>
    <time>2012-04-02T16:04:35Z</time>
   </trkpt>
   <trkpt lat="46.2367057800293" lon="6.9130597114563">
    <ele>1091.27209472656</ele>
    <time>2012-04-02T16:04:36Z</time>
   </trkpt>
   <trkpt lat="46.2366905212402" lon="6.9130368232727">
    <ele>1091.53601074219</ele>
    <time>2012-04-02T16:04:37Z</time>
   </trkpt>
   <trkpt lat="46.2366714477539" lon="6.91301441192627">
    <ele>1091.80004882812</ele>
    <time>2012-04-02T16:04:38Z</time>
   </trkpt>
   <trkpt lat="46.2366333007812" lon="6.91295766830444">
    <ele>1091.80004882812</ele>
    <time>2012-04-02T16:04:40Z</time>
   </trkpt>
   <trkpt lat="46.2365570068359" lon="6.91282558441162">
    <ele>1092.9111328125</ele>
    <time>2012-04-02T16:04:45Z</time>
   </trkpt>
   <trkpt lat="46.2365455627441" lon="6.9128007888794">
    <ele>1093.13342285156</ele>
    <time>2012-04-02T16:04:46Z</time>
   </trkpt>
   <trkpt lat="46.2365264892578" lon="6.91277456283569">
    <ele>1093.35559082031</ele>
    <time>2012-04-02T16:04:47Z</time>
   </trkpt>
   <trkpt lat="46.2365112304688" lon="6.91275596618652">
    <ele>1093.57788085938</ele>
    <time>2012-04-02T16:04:48Z</time>
   </trkpt>
   <trkpt lat="46.2364921569824" lon="6.91273736953735">
    <ele>1093.80004882812</ele>
    <time>2012-04-02T16:04:49Z</time>
   </trkpt>
   <trkpt lat="46.2364616394043" lon="6.91262769699097">
    <ele>1093.80004882812</ele>
    <time>2012-04-02T16:04:52Z</time>
   </trkpt>
   <trkpt lat="46.2364463806152" lon="6.91257190704346">
    <ele>1094.46667480469</ele>
    <time>2012-04-02T16:04:54Z</time>
   </trkpt>
   <trkpt lat="46.2364349365234" lon="6.91255855560303">
    <ele>1094.80004882812</ele>
    <time>2012-04-02T16:04:55Z</time>
   </trkpt>
   <trkpt lat="46.2364234924316" lon="6.91252279281616">
    <ele>1095.13342285156</ele>
    <time>2012-04-02T16:04:56Z</time>
   </trkpt>
   <trkpt lat="46.2364082336426" lon="6.91249513626099">
    <ele>1095.46667480469</ele>
    <time>2012-04-02T16:04:57Z</time>
   </trkpt>
   <trkpt lat="46.2363967895508" lon="6.91246128082275">
    <ele>1095.80004882812</ele>
    <time>2012-04-02T16:04:58Z</time>
   </trkpt>
   <trkpt lat="46.2363510131836" lon="6.91233015060425">
    <ele>1095.80004882812</ele>
    <time>2012-04-02T16:05:03Z</time>
   </trkpt>
   <trkpt lat="46.2363471984863" lon="6.91231441497803">
    <ele>1096.09338378906</ele>
    <time>2012-04-02T16:05:04Z</time>
   </trkpt>
   <trkpt lat="46.2363357543945" lon="6.91228914260864">
    <ele>1096.38671875</ele>
    <time>2012-04-02T16:05:05Z</time>
   </trkpt>
   <trkpt lat="46.2363243103027" lon="6.91226387023926">
    <ele>1096.68005371094</ele>
    <time>2012-04-02T16:05:06Z</time>
   </trkpt>
   <trkpt lat="46.2363090515137" lon="6.91224145889282">
    <ele>1096.97338867188</ele>
    <time>2012-04-02T16:05:07Z</time>
   </trkpt>
   <trkpt lat="46.2362937927246" lon="6.91221475601196">
    <ele>1097.26672363281</ele>
    <time>2012-04-02T16:05:08Z</time>
   </trkpt>
   <trkpt lat="46.2362823486328" lon="6.91218566894531">
    <ele>1097.56005859375</ele>
    <time>2012-04-02T16:05:09Z</time>
   </trkpt>
   <trkpt lat="46.2362060546875" lon="6.91200017929077">
    <ele>1099.31994628906</ele>
    <time>2012-04-02T16:05:15Z</time>
   </trkpt>
   <trkpt lat="46.2361907958984" lon="6.91197395324707">
    <ele>1099.61328125</ele>
    <time>2012-04-02T16:05:16Z</time>
   </trkpt>
   <trkpt lat="46.2361793518066" lon="6.91195011138916">
    <ele>1099.90661621094</ele>
    <time>2012-04-02T16:05:17Z</time>
   </trkpt>
   <trkpt lat="46.2361602783203" lon="6.91192007064819">
    <ele>1100.19995117188</ele>
    <time>2012-04-02T16:05:18Z</time>
   </trkpt>
   <trkpt lat="46.2360916137695" lon="6.91178750991821">
    <ele>1100.19995117188</ele>
    <time>2012-04-02T16:05:23Z</time>
   </trkpt>
   <trkpt lat="46.2360610961914" lon="6.91169595718384">
    <ele>1101.14282226562</ele>
    <time>2012-04-02T16:05:26Z</time>
   </trkpt>
   <trkpt lat="46.2360458374023" lon="6.9116702079773">
    <ele>1101.45715332031</ele>
    <time>2012-04-02T16:05:27Z</time>
   </trkpt>
   <trkpt lat="46.2360305786133" lon="6.91165113449097">
    <ele>1101.771484375</ele>
    <time>2012-04-02T16:05:28Z</time>
   </trkpt>
   <trkpt lat="46.2360191345215" lon="6.91162586212158">
    <ele>1102.08569335938</ele>
    <time>2012-04-02T16:05:29Z</time>
   </trkpt>
   <trkpt lat="46.2360076904297" lon="6.91159868240356">
    <ele>1102.40002441406</ele>
    <time>2012-04-02T16:05:30Z</time>
   </trkpt>
   <trkpt lat="46.2359962463379" lon="6.91156721115112">
    <ele>1102.40002441406</ele>
    <time>2012-04-02T16:05:31Z</time>
   </trkpt>
   <trkpt lat="46.2359466552734" lon="6.91143226623535">
    <ele>1103.51110839844</ele>
    <time>2012-04-02T16:05:36Z</time>
   </trkpt>
   <trkpt lat="46.2359390258789" lon="6.91139078140259">
    <ele>1103.7333984375</ele>
    <time>2012-04-02T16:05:37Z</time>
   </trkpt>
   <trkpt lat="46.2359313964844" lon="6.91135263442993">
    <ele>1103.95556640625</ele>
    <time>2012-04-02T16:05:38Z</time>
   </trkpt>
   <trkpt lat="46.2359199523926" lon="6.91131162643433">
    <ele>1104.17785644531</ele>
    <time>2012-04-02T16:05:39Z</time>
   </trkpt>
   <trkpt lat="46.2359161376953" lon="6.91127395629883">
    <ele>1104.40002441406</ele>
    <time>2012-04-02T16:05:40Z</time>
   </trkpt>
   <trkpt lat="46.2359046936035" lon="6.91117191314697">
    <ele>1104.40002441406</ele>
    <time>2012-04-02T16:05:43Z</time>
   </trkpt>
   <trkpt lat="46.2358894348144" lon="6.91110372543335">
    <ele>1105.13330078125</ele>
    <time>2012-04-02T16:05:45Z</time>
   </trkpt>
   <trkpt lat="46.2358741760254" lon="6.91106796264648">
    <ele>1105.5</ele>
    <time>2012-04-02T16:05:46Z</time>
   </trkpt>
   <trkpt lat="46.2358589172363" lon="6.91102743148804">
    <ele>1105.86669921875</ele>
    <time>2012-04-02T16:05:47Z</time>
   </trkpt>
   <trkpt lat="46.2358474731445" lon="6.91098785400391">
    <ele>1106.23327636719</ele>
    <time>2012-04-02T16:05:48Z</time>
   </trkpt>
   <trkpt lat="46.2358322143555" lon="6.91095161437988">
    <ele>1106.59997558594</ele>
    <time>2012-04-02T16:05:49Z</time>
   </trkpt>
   <trkpt lat="46.2357902526856" lon="6.91081094741821">
    <ele>1106.59997558594</ele>
    <time>2012-04-02T16:05:53Z</time>
   </trkpt>
   <trkpt lat="46.2357711791992" lon="6.91073369979858">
    <ele>1107.125</ele>
    <time>2012-04-02T16:05:55Z</time>
   </trkpt>
   <trkpt lat="46.235767364502" lon="6.9106936454773">
    <ele>1107.38745117188</ele>
    <time>2012-04-02T16:05:56Z</time>
   </trkpt>
   <trkpt lat="46.2357635498047" lon="6.91065168380737">
    <ele>1107.65002441406</ele>
    <time>2012-04-02T16:05:57Z</time>
   </trkpt>
   <trkpt lat="46.2357559204102" lon="6.91061210632324">
    <ele>1107.91247558594</ele>
    <time>2012-04-02T16:05:58Z</time>
   </trkpt>
   <trkpt lat="46.2357521057129" lon="6.91057682037354">
    <ele>1108.17492675781</ele>
    <time>2012-04-02T16:05:59Z</time>
   </trkpt>
   <trkpt lat="46.2357482910156" lon="6.91041040420532">
    <ele>1109.48742675781</ele>
    <time>2012-04-02T16:06:04Z</time>
   </trkpt>
   <trkpt lat="46.2357482910156" lon="6.91037034988403">
    <ele>1109.75</ele>
    <time>2012-04-02T16:06:05Z</time>
   </trkpt>
   <trkpt lat="46.2357521057129" lon="6.91033458709717">
    <ele>1110.01245117188</ele>
    <time>2012-04-02T16:06:06Z</time>
   </trkpt>
   <trkpt lat="46.2357521057129" lon="6.91029739379883">
    <ele>1110.27502441406</ele>
    <time>2012-04-02T16:06:07Z</time>
   </trkpt>
   <trkpt lat="46.2357597351074" lon="6.9100980758667">
    <ele>1111.58752441406</ele>
    <time>2012-04-02T16:06:12Z</time>
   </trkpt>
   <trkpt lat="46.235767364502" lon="6.91006088256836">
    <ele>1111.84997558594</ele>
    <time>2012-04-02T16:06:13Z</time>
   </trkpt>
   <trkpt lat="46.235767364502" lon="6.91002416610718">
    <ele>1112.11254882812</ele>
    <time>2012-04-02T16:06:14Z</time>
   </trkpt>
   <trkpt lat="46.235767364502" lon="6.90998601913452">
    <ele>1112.375</ele>
    <time>2012-04-02T16:06:15Z</time>
   </trkpt>
   <trkpt lat="46.2357635498047" lon="6.90994215011597">
    <ele>1112.63745117188</ele>
    <time>2012-04-02T16:06:16Z</time>
   </trkpt>
   <trkpt lat="46.235767364502" lon="6.90973377227783">
    <ele>1113.94995117188</ele>
    <time>2012-04-02T16:06:21Z</time>
   </trkpt>
   <trkpt lat="46.2357635498047" lon="6.90968751907349">
    <ele>1114.21252441406</ele>
    <time>2012-04-02T16:06:22Z</time>
   </trkpt>
   <trkpt lat="46.2357635498047" lon="6.90964794158936">
    <ele>1114.47497558594</ele>
    <time>2012-04-02T16:06:23Z</time>
   </trkpt>
   <trkpt lat="46.2357711791992" lon="6.90961170196533">
    <ele>1114.73754882812</ele>
    <time>2012-04-02T16:06:24Z</time>
   </trkpt>
   <trkpt lat="46.235767364502" lon="6.90956926345825">
    <ele>1115</ele>
    <time>2012-04-02T16:06:25Z</time>
   </trkpt>
   <trkpt lat="46.235767364502" lon="6.90952491760254">
    <ele>1115</ele>
    <time>2012-04-02T16:06:26Z</time>
   </trkpt>
   <trkpt lat="46.2357788085938" lon="6.9093804359436">
    <ele>1115.98828125</ele>
    <time>2012-04-02T16:06:30Z</time>
   </trkpt>
   <trkpt lat="46.2357788085938" lon="6.9093451499939">
    <ele>1116.23522949219</ele>
    <time>2012-04-02T16:06:31Z</time>
   </trkpt>
   <trkpt lat="46.2357749938965" lon="6.90931081771851">
    <ele>1116.48229980469</ele>
    <time>2012-04-02T16:06:32Z</time>
   </trkpt>
   <trkpt lat="46.2357749938965" lon="6.90927219390869">
    <ele>1116.72937011719</ele>
    <time>2012-04-02T16:06:33Z</time>
   </trkpt>
   <trkpt lat="46.2357978820801" lon="6.90907096862793">
    <ele>1118.21166992188</ele>
    <time>2012-04-02T16:06:39Z</time>
   </trkpt>
   <trkpt lat="46.2358055114746" lon="6.90903472900391">
    <ele>1118.45874023438</ele>
    <time>2012-04-02T16:06:40Z</time>
   </trkpt>
   <trkpt lat="46.2358131408691" lon="6.90900325775146">
    <ele>1118.70581054688</ele>
    <time>2012-04-02T16:06:41Z</time>
   </trkpt>
   <trkpt lat="46.2358207702637" lon="6.90896654129028">
    <ele>1118.95288085938</ele>
    <time>2012-04-02T16:06:42Z</time>
   </trkpt>
   <trkpt lat="46.2358322143555" lon="6.90893507003784">
    <ele>1119.19995117188</ele>
    <time>2012-04-02T16:06:43Z</time>
   </trkpt>
   <trkpt lat="46.23583984375" lon="6.90886735916138">
    <ele>1119.19995117188</ele>
    <time>2012-04-02T16:06:45Z</time>
   </trkpt>
   <trkpt lat="46.2358551025391" lon="6.90872955322266">
    <ele>1120.22216796875</ele>
    <time>2012-04-02T16:06:49Z</time>
   </trkpt>
   <trkpt lat="46.2358589172363" lon="6.90869426727295">
    <ele>1120.47778320312</ele>
    <time>2012-04-02T16:06:50Z</time>
   </trkpt>
   <trkpt lat="46.2358665466309" lon="6.90866422653198">
    <ele>1120.73327636719</ele>
    <time>2012-04-02T16:06:51Z</time>
   </trkpt>
   <trkpt lat="46.2358741760254" lon="6.9086332321167">
    <ele>1120.98889160156</ele>
    <time>2012-04-02T16:06:52Z</time>
   </trkpt>
   <trkpt lat="46.2358818054199" lon="6.90859985351562">
    <ele>1121.24438476562</ele>
    <time>2012-04-02T16:06:53Z</time>
   </trkpt>
   <trkpt lat="46.2359313964844" lon="6.90840673446655">
    <ele>1122.77783203125</ele>
    <time>2012-04-02T16:06:59Z</time>
   </trkpt>
   <trkpt lat="46.2359390258789" lon="6.908371925354">
    <ele>1123.03332519531</ele>
    <time>2012-04-02T16:07:00Z</time>
   </trkpt>
   <trkpt lat="46.2359466552734" lon="6.90833377838135">
    <ele>1123.28894042969</ele>
    <time>2012-04-02T16:07:01Z</time>
   </trkpt>
   <trkpt lat="46.235954284668" lon="6.90829658508301">
    <ele>1123.54443359375</ele>
    <time>2012-04-02T16:07:02Z</time>
   </trkpt>
   <trkpt lat="46.2359580993652" lon="6.90825653076172">
    <ele>1123.80004882812</ele>
    <time>2012-04-02T16:07:03Z</time>
   </trkpt>
   <trkpt lat="46.2359924316406" lon="6.90810680389404">
    <ele>1123.80004882812</ele>
    <time>2012-04-02T16:07:07Z</time>
   </trkpt>
   <trkpt lat="46.236011505127" lon="6.90804195404053">
    <ele>1124.53332519531</ele>
    <time>2012-04-02T16:07:09Z</time>
   </trkpt>
   <trkpt lat="46.2360191345215" lon="6.9080114364624">
    <ele>1124.90002441406</ele>
    <time>2012-04-02T16:07:10Z</time>
   </trkpt>
   <trkpt lat="46.236026763916" lon="6.90797853469849">
    <ele>1125.26672363281</ele>
    <time>2012-04-02T16:07:11Z</time>
   </trkpt>
   <trkpt lat="46.2360343933106" lon="6.90795183181763">
    <ele>1125.63330078125</ele>
    <time>2012-04-02T16:07:12Z</time>
   </trkpt>
   <trkpt lat="46.2360458374023" lon="6.90791988372803">
    <ele>1126</ele>
    <time>2012-04-02T16:07:13Z</time>
   </trkpt>
   <trkpt lat="46.2360610961914" lon="6.90785694122314">
    <ele>1126</ele>
    <time>2012-04-02T16:07:15Z</time>
   </trkpt>
   <trkpt lat="46.2360687255859" lon="6.907790184021">
    <ele>1126.88000488281</ele>
    <time>2012-04-02T16:07:17Z</time>
   </trkpt>
   <trkpt lat="46.2360801696777" lon="6.90775871276856">
    <ele>1127.31994628906</ele>
    <time>2012-04-02T16:07:18Z</time>
   </trkpt>
   <trkpt lat="46.236083984375" lon="6.90772438049316">
    <ele>1127.76000976562</ele>
    <time>2012-04-02T16:07:19Z</time>
   </trkpt>
   <trkpt lat="46.2360877990723" lon="6.90768814086914">
    <ele>1128.19995117188</ele>
    <time>2012-04-02T16:07:20Z</time>
   </trkpt>
   <trkpt lat="46.2360954284668" lon="6.90765285491943">
    <ele>1128.19995117188</ele>
    <time>2012-04-02T16:07:21Z</time>
   </trkpt>
   <trkpt lat="46.2361145019531" lon="6.90744018554688">
    <ele>1129.52001953125</ele>
    <time>2012-04-02T16:07:27Z</time>
   </trkpt>
   <trkpt lat="46.2361145019531" lon="6.90740156173706">
    <ele>1129.73999023438</ele>
    <time>2012-04-02T16:07:28Z</time>
   </trkpt>
   <trkpt lat="46.2361145019531" lon="6.90736198425293">
    <ele>1129.9599609375</ele>
    <time>2012-04-02T16:07:29Z</time>
   </trkpt>
   <trkpt lat="46.2361145019531" lon="6.90732622146606">
    <ele>1130.18005371094</ele>
    <time>2012-04-02T16:07:30Z</time>
   </trkpt>
   <trkpt lat="46.2361183166504" lon="6.90729284286499">
    <ele>1130.40002441406</ele>
    <time>2012-04-02T16:07:31Z</time>
   </trkpt>
   <trkpt lat="46.2361106872559" lon="6.90712356567383">
    <ele>1130.40002441406</ele>
    <time>2012-04-02T16:07:36Z</time>
   </trkpt>
   <trkpt lat="46.2360954284668" lon="6.90698575973511">
    <ele>1131.5</ele>
    <time>2012-04-02T16:07:40Z</time>
   </trkpt>
   <trkpt lat="46.2360877990723" lon="6.90695190429688">
    <ele>1131.77502441406</ele>
    <time>2012-04-02T16:07:41Z</time>
   </trkpt>
   <trkpt lat="46.2360801696777" lon="6.90691328048706">
    <ele>1132.05004882812</ele>
    <time>2012-04-02T16:07:42Z</time>
   </trkpt>
   <trkpt lat="46.2360725402832" lon="6.90687799453735">
    <ele>1132.32495117188</ele>
    <time>2012-04-02T16:07:43Z</time>
   </trkpt>
   <trkpt lat="46.2360649108887" lon="6.90684127807617">
    <ele>1132.59997558594</ele>
    <time>2012-04-02T16:07:44Z</time>
   </trkpt>
   <trkpt lat="46.2360496520996" lon="6.90670919418335">
    <ele>1132.59997558594</ele>
    <time>2012-04-02T16:07:48Z</time>
   </trkpt>
   <trkpt lat="46.2360382080078" lon="6.90667819976807">
    <ele>1133</ele>
    <time>2012-04-02T16:07:49Z</time>
   </trkpt>
   <trkpt lat="46.2360343933106" lon="6.90664291381836">
    <ele>1133.40002441406</ele>
    <time>2012-04-02T16:07:50Z</time>
   </trkpt>
   <trkpt lat="46.236026763916" lon="6.90660572052002">
    <ele>1133.79992675781</ele>
    <time>2012-04-02T16:07:51Z</time>
   </trkpt>
   <trkpt lat="46.2360153198242" lon="6.90657234191894">
    <ele>1134.19995117188</ele>
    <time>2012-04-02T16:07:52Z</time>
   </trkpt>
   <trkpt lat="46.2360000610352" lon="6.90653419494629">
    <ele>1134.59997558594</ele>
    <time>2012-04-02T16:07:53Z</time>
   </trkpt>
   <trkpt lat="46.2360000610352" lon="6.90650081634522">
    <ele>1134.59997558594</ele>
    <time>2012-04-02T16:07:54Z</time>
   </trkpt>
   <trkpt lat="46.2359657287598" lon="6.90633058547974">
    <ele>1135.70336914062</ele>
    <time>2012-04-02T16:07:59Z</time>
   </trkpt>
   <trkpt lat="46.235954284668" lon="6.9062991142273">
    <ele>1135.92407226562</ele>
    <time>2012-04-02T16:08:00Z</time>
   </trkpt>
   <trkpt lat="46.2359504699707" lon="6.90626335144043">
    <ele>1136.14477539062</ele>
    <time>2012-04-02T16:08:01Z</time>
   </trkpt>
   <trkpt lat="46.2359428405762" lon="6.90622901916504">
    <ele>1136.36547851562</ele>
    <time>2012-04-02T16:08:02Z</time>
   </trkpt>
   <trkpt lat="46.2359390258789" lon="6.90619611740112">
    <ele>1136.58618164062</ele>
    <time>2012-04-02T16:08:03Z</time>
   </trkpt>
   <trkpt lat="46.235897064209" lon="6.90600824356079">
    <ele>1137.91027832031</ele>
    <time>2012-04-02T16:08:09Z</time>
   </trkpt>
   <trkpt lat="46.2358894348144" lon="6.9059739112854">
    <ele>1138.13098144531</ele>
    <time>2012-04-02T16:08:10Z</time>
   </trkpt>
   <trkpt lat="46.2358856201172" lon="6.90593814849854">
    <ele>1138.35168457031</ele>
    <time>2012-04-02T16:08:11Z</time>
   </trkpt>
   <trkpt lat="46.2358779907227" lon="6.90590000152588">
    <ele>1138.57238769531</ele>
    <time>2012-04-02T16:08:12Z</time>
   </trkpt>
   <trkpt lat="46.2358436584473" lon="6.90565156936646">
    <ele>1140.1171875</ele>
    <time>2012-04-02T16:08:19Z</time>
   </trkpt>
   <trkpt lat="46.23583984375" lon="6.90561962127686">
    <ele>1140.337890625</ele>
    <time>2012-04-02T16:08:20Z</time>
   </trkpt>
   <trkpt lat="46.2358360290527" lon="6.90558481216431">
    <ele>1140.55859375</ele>
    <time>2012-04-02T16:08:21Z</time>
   </trkpt>
   <trkpt lat="46.2358360290527" lon="6.90555095672607">
    <ele>1140.779296875</ele>
    <time>2012-04-02T16:08:22Z</time>
   </trkpt>
   <trkpt lat="46.2358322143555" lon="6.90551948547363">
    <ele>1141</ele>
    <time>2012-04-02T16:08:23Z</time>
   </trkpt>
   <trkpt lat="46.2358093261719" lon="6.90535116195679">
    <ele>1141</ele>
    <time>2012-04-02T16:08:28Z</time>
   </trkpt>
   <trkpt lat="46.2358055114746" lon="6.90531873703003">
    <ele>1141.40002441406</ele>
    <time>2012-04-02T16:08:29Z</time>
   </trkpt>
   <trkpt lat="46.2358055114746" lon="6.90528202056885">
    <ele>1141.80004882812</ele>
    <time>2012-04-02T16:08:30Z</time>
   </trkpt>
   <trkpt lat="46.2358016967773" lon="6.90524530410767">
    <ele>1142.19995117188</ele>
    <time>2012-04-02T16:08:31Z</time>
   </trkpt>
   <trkpt lat="46.2357978820801" lon="6.90521383285522">
    <ele>1142.59997558594</ele>
    <time>2012-04-02T16:08:32Z</time>
   </trkpt>
   <trkpt lat="46.2357940673828" lon="6.9051775932312">
    <ele>1143</ele>
    <time>2012-04-02T16:08:33Z</time>
   </trkpt>
   <trkpt lat="46.2357940673828" lon="6.90514373779297">
    <ele>1143</ele>
    <time>2012-04-02T16:08:34Z</time>
   </trkpt>
   <trkpt lat="46.2357902526856" lon="6.90497875213623">
    <ele>1144.22216796875</ele>
    <time>2012-04-02T16:08:39Z</time>
   </trkpt>
   <trkpt lat="46.2357902526856" lon="6.904944896698">
    <ele>1144.46667480469</ele>
    <time>2012-04-02T16:08:40Z</time>
   </trkpt>
   <trkpt lat="46.2357940673828" lon="6.90491199493408">
    <ele>1144.71105957031</ele>
    <time>2012-04-02T16:08:41Z</time>
   </trkpt>
   <trkpt lat="46.2357940673828" lon="6.90487909317017">
    <ele>1144.95556640625</ele>
    <time>2012-04-02T16:08:42Z</time>
   </trkpt>
   <trkpt lat="46.2357940673828" lon="6.90484714508057">
    <ele>1145.19995117188</ele>
    <time>2012-04-02T16:08:43Z</time>
   </trkpt>
   <trkpt lat="46.2358093261719" lon="6.90467214584351">
    <ele>1145.19995117188</ele>
    <time>2012-04-02T16:08:48Z</time>
   </trkpt>
   <trkpt lat="46.2358093261719" lon="6.90463542938232">
    <ele>1145.64001464844</ele>
    <time>2012-04-02T16:08:49Z</time>
   </trkpt>
   <trkpt lat="46.2358131408691" lon="6.90460348129272">
    <ele>1146.07995605469</ele>
    <time>2012-04-02T16:08:50Z</time>
   </trkpt>
   <trkpt lat="46.2358207702637" lon="6.90457439422607">
    <ele>1146.52001953125</ele>
    <time>2012-04-02T16:08:51Z</time>
   </trkpt>
   <trkpt lat="46.2358169555664" lon="6.90453958511352">
    <ele>1146.9599609375</ele>
    <time>2012-04-02T16:08:52Z</time>
   </trkpt>
   <trkpt lat="46.2358207702637" lon="6.90450429916382">
    <ele>1147.40002441406</ele>
    <time>2012-04-02T16:08:53Z</time>
   </trkpt>
   <trkpt lat="46.2358283996582" lon="6.90443563461304">
    <ele>1147.40002441406</ele>
    <time>2012-04-02T16:08:55Z</time>
   </trkpt>
   <trkpt lat="46.2358360290527" lon="6.90436410903931">
    <ele>1148.20007324219</ele>
    <time>2012-04-02T16:08:57Z</time>
   </trkpt>
   <trkpt lat="46.2358360290527" lon="6.90433025360107">
    <ele>1148.59997558594</ele>
    <time>2012-04-02T16:08:58Z</time>
   </trkpt>
   <trkpt lat="46.2358360290527" lon="6.90429162979126">
    <ele>1149</ele>
    <time>2012-04-02T16:08:59Z</time>
   </trkpt>
   <trkpt lat="46.2358322143555" lon="6.90424966812134">
    <ele>1149.40002441406</ele>
    <time>2012-04-02T16:09:00Z</time>
   </trkpt>
   <trkpt lat="46.2358169555664" lon="6.90414047241211">
    <ele>1149.40002441406</ele>
    <time>2012-04-02T16:09:03Z</time>
   </trkpt>
   <trkpt lat="46.2357940673828" lon="6.90400409698486">
    <ele>1150.2841796875</ele>
    <time>2012-04-02T16:09:07Z</time>
   </trkpt>
   <trkpt lat="46.235782623291" lon="6.90396308898926">
    <ele>1150.50524902344</ele>
    <time>2012-04-02T16:09:08Z</time>
   </trkpt>
   <trkpt lat="46.2357749938965" lon="6.90392827987671">
    <ele>1150.72631835938</ele>
    <time>2012-04-02T16:09:09Z</time>
   </trkpt>
   <trkpt lat="46.2357635498047" lon="6.90389490127564">
    <ele>1150.94738769531</ele>
    <time>2012-04-02T16:09:10Z</time>
   </trkpt>
   <trkpt lat="46.2357521057129" lon="6.90385627746582">
    <ele>1151.16845703125</ele>
    <time>2012-04-02T16:09:11Z</time>
   </trkpt>
   <trkpt lat="46.2356910705566" lon="6.90363168716431">
    <ele>1152.7158203125</ele>
    <time>2012-04-02T16:09:18Z</time>
   </trkpt>
   <trkpt lat="46.2356796264648" lon="6.90359687805176">
    <ele>1152.93676757812</ele>
    <time>2012-04-02T16:09:19Z</time>
   </trkpt>
   <trkpt lat="46.2356719970703" lon="6.90356588363648">
    <ele>1153.15783691406</ele>
    <time>2012-04-02T16:09:20Z</time>
   </trkpt>
   <trkpt lat="46.2356643676758" lon="6.90353345870972">
    <ele>1153.37890625</ele>
    <time>2012-04-02T16:09:21Z</time>
   </trkpt>
   <trkpt lat="46.2356491088867" lon="6.90349626541138">
    <ele>1153.59997558594</ele>
    <time>2012-04-02T16:09:22Z</time>
   </trkpt>
   <trkpt lat="46.2356300354004" lon="6.90339279174805">
    <ele>1153.59997558594</ele>
    <time>2012-04-02T16:09:25Z</time>
   </trkpt>
   <trkpt lat="46.2356147766113" lon="6.90332794189453">
    <ele>1154.2666015625</ele>
    <time>2012-04-02T16:09:27Z</time>
   </trkpt>
   <trkpt lat="46.2356071472168" lon="6.90329551696777">
    <ele>1154.59997558594</ele>
    <time>2012-04-02T16:09:28Z</time>
   </trkpt>
   <trkpt lat="46.2355995178223" lon="6.90326166152954">
    <ele>1154.93334960938</ele>
    <time>2012-04-02T16:09:29Z</time>
   </trkpt>
   <trkpt lat="46.2355918884277" lon="6.90322780609131">
    <ele>1155.2666015625</ele>
    <time>2012-04-02T16:09:30Z</time>
   </trkpt>
   <trkpt lat="46.2355804443359" lon="6.90319776535034">
    <ele>1155.59997558594</ele>
    <time>2012-04-02T16:09:31Z</time>
   </trkpt>
   <trkpt lat="46.2355651855469" lon="6.90314340591431">
    <ele>1155.59997558594</ele>
    <time>2012-04-02T16:09:33Z</time>
   </trkpt>
   <trkpt lat="46.2355499267578" lon="6.90304899215698">
    <ele>1156.42492675781</ele>
    <time>2012-04-02T16:09:36Z</time>
   </trkpt>
   <trkpt lat="46.2355346679688" lon="6.90301322937012">
    <ele>1156.69995117188</ele>
    <time>2012-04-02T16:09:37Z</time>
   </trkpt>
   <trkpt lat="46.235523223877" lon="6.90297269821167">
    <ele>1156.97497558594</ele>
    <time>2012-04-02T16:09:38Z</time>
   </trkpt>
   <trkpt lat="46.2355155944824" lon="6.90293884277344">
    <ele>1157.25</ele>
    <time>2012-04-02T16:09:39Z</time>
   </trkpt>
   <trkpt lat="46.2355079650879" lon="6.90290451049805">
    <ele>1157.52502441406</ele>
    <time>2012-04-02T16:09:40Z</time>
   </trkpt>
   <trkpt lat="46.2354736328125" lon="6.90269947052002">
    <ele>1159.17504882812</ele>
    <time>2012-04-02T16:09:46Z</time>
   </trkpt>
   <trkpt lat="46.2354698181152" lon="6.90266370773315">
    <ele>1159.44995117188</ele>
    <time>2012-04-02T16:09:47Z</time>
   </trkpt>
   <trkpt lat="46.2354736328125" lon="6.90263080596924">
    <ele>1159.72497558594</ele>
    <time>2012-04-02T16:09:48Z</time>
   </trkpt>
   <trkpt lat="46.2354698181152" lon="6.90259456634522">
    <ele>1160</ele>
    <time>2012-04-02T16:09:49Z</time>
   </trkpt>
   <trkpt lat="46.2354698181152" lon="6.90256071090698">
    <ele>1160</ele>
    <time>2012-04-02T16:09:50Z</time>
   </trkpt>
   <trkpt lat="46.2354927062988" lon="6.90243434906006">
    <ele>1161</ele>
    <time>2012-04-02T16:09:54Z</time>
   </trkpt>
   <trkpt lat="46.2355003356934" lon="6.90240526199341">
    <ele>1161.25</ele>
    <time>2012-04-02T16:09:55Z</time>
   </trkpt>
   <trkpt lat="46.2355117797852" lon="6.90237140655518">
    <ele>1161.5</ele>
    <time>2012-04-02T16:09:56Z</time>
   </trkpt>
   <trkpt lat="46.235523223877" lon="6.90234184265137">
    <ele>1161.75</ele>
    <time>2012-04-02T16:09:57Z</time>
   </trkpt>
   <trkpt lat="46.2355461120606" lon="6.90232038497925">
    <ele>1162</ele>
    <time>2012-04-02T16:09:58Z</time>
   </trkpt>
   <trkpt lat="46.2355842590332" lon="6.90223693847656">
    <ele>1162</ele>
    <time>2012-04-02T16:10:01Z</time>
   </trkpt>
   <trkpt lat="46.2356071472168" lon="6.90217733383179">
    <ele>1162.73327636719</ele>
    <time>2012-04-02T16:10:03Z</time>
   </trkpt>
   <trkpt lat="46.2356185913086" lon="6.9021463394165">
    <ele>1163.09997558594</ele>
    <time>2012-04-02T16:10:04Z</time>
   </trkpt>
   <trkpt lat="46.2356300354004" lon="6.90211772918701">
    <ele>1163.46667480469</ele>
    <time>2012-04-02T16:10:05Z</time>
   </trkpt>
   <trkpt lat="46.2356376647949" lon="6.90208625793457">
    <ele>1163.83325195312</ele>
    <time>2012-04-02T16:10:06Z</time>
   </trkpt>
   <trkpt lat="46.2356452941894" lon="6.90205240249634">
    <ele>1164.19995117188</ele>
    <time>2012-04-02T16:10:07Z</time>
   </trkpt>
   <trkpt lat="46.235652923584" lon="6.90201711654663">
    <ele>1164.19995117188</ele>
    <time>2012-04-02T16:10:08Z</time>
   </trkpt>
   <trkpt lat="46.2356796264648" lon="6.90192317962646">
    <ele>1165.19995117188</ele>
    <time>2012-04-02T16:10:11Z</time>
   </trkpt>
   <trkpt lat="46.2356948852539" lon="6.90189456939697">
    <ele>1165.53332519531</ele>
    <time>2012-04-02T16:10:12Z</time>
   </trkpt>
   <trkpt lat="46.2357025146484" lon="6.90186548233032">
    <ele>1165.86657714844</ele>
    <time>2012-04-02T16:10:13Z</time>
   </trkpt>
   <trkpt lat="46.2357139587402" lon="6.9018383026123">
    <ele>1166.19995117188</ele>
    <time>2012-04-02T16:10:14Z</time>
   </trkpt>
   <trkpt lat="46.2357292175293" lon="6.90181064605713">
    <ele>1166.19995117188</ele>
    <time>2012-04-02T16:10:15Z</time>
   </trkpt>
   <trkpt lat="46.2357902526856" lon="6.9016432762146">
    <ele>1167.52001953125</ele>
    <time>2012-04-02T16:10:21Z</time>
   </trkpt>
   <trkpt lat="46.2357978820801" lon="6.90161418914795">
    <ele>1167.73999023438</ele>
    <time>2012-04-02T16:10:22Z</time>
   </trkpt>
   <trkpt lat="46.2358131408691" lon="6.90158319473267">
    <ele>1167.9599609375</ele>
    <time>2012-04-02T16:10:23Z</time>
   </trkpt>
   <trkpt lat="46.2358245849609" lon="6.90155029296875">
    <ele>1168.18005371094</ele>
    <time>2012-04-02T16:10:24Z</time>
   </trkpt>
   <trkpt lat="46.2358283996582" lon="6.90151882171631">
    <ele>1168.40002441406</ele>
    <time>2012-04-02T16:10:25Z</time>
   </trkpt>
   <trkpt lat="46.2358741760254" lon="6.90144062042236">
    <ele>1168.40002441406</ele>
    <time>2012-04-02T16:10:28Z</time>
   </trkpt>
   <trkpt lat="46.2359085083008" lon="6.90135192871094">
    <ele>1169.25720214844</ele>
    <time>2012-04-02T16:10:31Z</time>
   </trkpt>
   <trkpt lat="46.2359161376953" lon="6.9013180732727">
    <ele>1169.54284667969</ele>
    <time>2012-04-02T16:10:32Z</time>
   </trkpt>
   <trkpt lat="46.2359237670898" lon="6.90128469467163">
    <ele>1169.82861328125</ele>
    <time>2012-04-02T16:10:33Z</time>
   </trkpt>
   <trkpt lat="46.2359313964844" lon="6.90125560760498">
    <ele>1170.1142578125</ele>
    <time>2012-04-02T16:10:34Z</time>
   </trkpt>
   <trkpt lat="46.2359352111816" lon="6.90122270584106">
    <ele>1170.40002441406</ele>
    <time>2012-04-02T16:10:35Z</time>
   </trkpt>
   <trkpt lat="46.2359466552734" lon="6.90119695663452">
    <ele>1170.40002441406</ele>
    <time>2012-04-02T16:10:36Z</time>
   </trkpt>
   <trkpt lat="46.235954284668" lon="6.90112495422363">
    <ele>1171.13330078125</ele>
    <time>2012-04-02T16:10:38Z</time>
   </trkpt>
   <trkpt lat="46.2359580993652" lon="6.90109491348267">
    <ele>1171.5</ele>
    <time>2012-04-02T16:10:39Z</time>
   </trkpt>
   <trkpt lat="46.235969543457" lon="6.90106773376465">
    <ele>1171.86669921875</ele>
    <time>2012-04-02T16:10:40Z</time>
   </trkpt>
   <trkpt lat="46.2359848022461" lon="6.90105056762695">
    <ele>1172.23327636719</ele>
    <time>2012-04-02T16:10:41Z</time>
   </trkpt>
   <trkpt lat="46.2359924316406" lon="6.90102481842041">
    <ele>1172.59997558594</ele>
    <time>2012-04-02T16:10:42Z</time>
   </trkpt>
   <trkpt lat="46.2360038757324" lon="6.90085411071777">
    <ele>1172.59997558594</ele>
    <time>2012-04-02T16:10:47Z</time>
   </trkpt>
   <trkpt lat="46.2360076904297" lon="6.90081596374512">
    <ele>1172.8857421875</ele>
    <time>2012-04-02T16:10:48Z</time>
   </trkpt>
   <trkpt lat="46.2360191345215" lon="6.90077781677246">
    <ele>1173.17138671875</ele>
    <time>2012-04-02T16:10:49Z</time>
   </trkpt>
   <trkpt lat="46.2360229492188" lon="6.90073490142822">
    <ele>1173.45715332031</ele>
    <time>2012-04-02T16:10:50Z</time>
   </trkpt>
   <trkpt lat="46.2360153198242" lon="6.9006838798523">
    <ele>1173.74279785156</ele>
    <time>2012-04-02T16:10:51Z</time>
   </trkpt>
   <trkpt lat="46.2360229492188" lon="6.90064382553101">
    <ele>1174.02856445312</ele>
    <time>2012-04-02T16:10:52Z</time>
   </trkpt>
   <trkpt lat="46.2360877990723" lon="6.90045404434204">
    <ele>1175.45715332031</ele>
    <time>2012-04-02T16:10:57Z</time>
   </trkpt>
   <trkpt lat="46.2360954284668" lon="6.90041828155518">
    <ele>1175.74279785156</ele>
    <time>2012-04-02T16:10:58Z</time>
   </trkpt>
   <trkpt lat="46.2361145019531" lon="6.90039253234863">
    <ele>1176.02856445312</ele>
    <time>2012-04-02T16:10:59Z</time>
   </trkpt>
   <trkpt lat="46.2361221313477" lon="6.90035104751587">
    <ele>1176.31420898438</ele>
    <time>2012-04-02T16:11:00Z</time>
   </trkpt>
   <trkpt lat="46.2361297607422" lon="6.90031480789185">
    <ele>1176.59997558594</ele>
    <time>2012-04-02T16:11:01Z</time>
   </trkpt>
   <trkpt lat="46.236141204834" lon="6.9002799987793">
    <ele>1176.59997558594</ele>
    <time>2012-04-02T16:11:02Z</time>
   </trkpt>
   <trkpt lat="46.2361640930176" lon="6.90013885498047">
    <ele>1177.69995117188</ele>
    <time>2012-04-02T16:11:06Z</time>
   </trkpt>
   <trkpt lat="46.2361755371094" lon="6.90010690689087">
    <ele>1177.97497558594</ele>
    <time>2012-04-02T16:11:07Z</time>
   </trkpt>
   <trkpt lat="46.2361755371094" lon="6.90006971359253">
    <ele>1178.25</ele>
    <time>2012-04-02T16:11:08Z</time>
   </trkpt>
   <trkpt lat="46.2361831665039" lon="6.90003061294556">
    <ele>1178.52502441406</ele>
    <time>2012-04-02T16:11:09Z</time>
   </trkpt>
   <trkpt lat="46.2361946105957" lon="6.8999834060669">
    <ele>1178.80004882812</ele>
    <time>2012-04-02T16:11:10Z</time>
   </trkpt>
   <trkpt lat="46.2362174987793" lon="6.89986991882324">
    <ele>1178.80004882812</ele>
    <time>2012-04-02T16:11:13Z</time>
   </trkpt>
   <trkpt lat="46.2362289428711" lon="6.89980268478394">
    <ele>1179.35998535156</ele>
    <time>2012-04-02T16:11:15Z</time>
   </trkpt>
   <trkpt lat="46.2362365722656" lon="6.89976930618286">
    <ele>1179.64001464844</ele>
    <time>2012-04-02T16:11:16Z</time>
   </trkpt>
   <trkpt lat="46.2362480163574" lon="6.89973831176758">
    <ele>1179.92004394531</ele>
    <time>2012-04-02T16:11:17Z</time>
   </trkpt>
   <trkpt lat="46.2362594604492" lon="6.89971446990967">
    <ele>1180.20007324219</ele>
    <time>2012-04-02T16:11:18Z</time>
   </trkpt>
   <trkpt lat="46.2362670898438" lon="6.89969396591186">
    <ele>1180.47998046875</ele>
    <time>2012-04-02T16:11:19Z</time>
   </trkpt>
   <trkpt lat="46.2363357543945" lon="6.89955806732178">
    <ele>1181.88000488281</ele>
    <time>2012-04-02T16:11:24Z</time>
   </trkpt>
   <trkpt lat="46.2363510131836" lon="6.89953279495239">
    <ele>1182.16003417969</ele>
    <time>2012-04-02T16:11:25Z</time>
   </trkpt>
   <trkpt lat="46.2363662719727" lon="6.89951229095459">
    <ele>1182.44006347656</ele>
    <time>2012-04-02T16:11:26Z</time>
   </trkpt>
   <trkpt lat="46.2363777160644" lon="6.8994836807251">
    <ele>1182.71997070312</ele>
    <time>2012-04-02T16:11:27Z</time>
   </trkpt>
   <trkpt lat="46.236385345459" lon="6.89945459365845">
    <ele>1183</ele>
    <time>2012-04-02T16:11:28Z</time>
   </trkpt>
   <trkpt lat="46.2364158630371" lon="6.89940309524536">
    <ele>1183</ele>
    <time>2012-04-02T16:11:30Z</time>
   </trkpt>
   <trkpt lat="46.2364349365234" lon="6.89937925338745">
    <ele>1183.40002441406</ele>
    <time>2012-04-02T16:11:31Z</time>
   </trkpt>
   <trkpt lat="46.2364463806152" lon="6.89933729171753">
    <ele>1183.80004882812</ele>
    <time>2012-04-02T16:11:32Z</time>
   </trkpt>
   <trkpt lat="46.236457824707" lon="6.89930391311646">
    <ele>1184.19995117188</ele>
    <time>2012-04-02T16:11:33Z</time>
   </trkpt>
   <trkpt lat="46.2364654541016" lon="6.89926815032959">
    <ele>1184.59997558594</ele>
    <time>2012-04-02T16:11:34Z</time>
   </trkpt>
   <trkpt lat="46.2364883422852" lon="6.89925050735474">
    <ele>1185</ele>
    <time>2012-04-02T16:11:35Z</time>
   </trkpt>
   <trkpt lat="46.2365493774414" lon="6.89909934997559">
    <ele>1185</ele>
    <time>2012-04-02T16:11:40Z</time>
   </trkpt>
   <trkpt lat="46.2365646362305" lon="6.89907360076904">
    <ele>1185.33337402344</ele>
    <time>2012-04-02T16:11:41Z</time>
   </trkpt>
   <trkpt lat="46.236572265625" lon="6.89904069900513">
    <ele>1185.66662597656</ele>
    <time>2012-04-02T16:11:42Z</time>
   </trkpt>
   <trkpt lat="46.2365798950195" lon="6.89900588989258">
    <ele>1186</ele>
    <time>2012-04-02T16:11:43Z</time>
   </trkpt>
   <trkpt lat="46.2365875244141" lon="6.89897680282593">
    <ele>1186.33337402344</ele>
    <time>2012-04-02T16:11:44Z</time>
   </trkpt>
   <trkpt lat="46.2365989685059" lon="6.89894485473633">
    <ele>1186.66662597656</ele>
    <time>2012-04-02T16:11:45Z</time>
   </trkpt>
   <trkpt lat="46.2366065979004" lon="6.89892101287842">
    <ele>1187</ele>
    <time>2012-04-02T16:11:46Z</time>
   </trkpt>
   <trkpt lat="46.2366180419922" lon="6.89889287948608">
    <ele>1187</ele>
    <time>2012-04-02T16:11:47Z</time>
   </trkpt>
   <trkpt lat="46.2366752624512" lon="6.89873933792114">
    <ele>1188.2646484375</ele>
    <time>2012-04-02T16:11:52Z</time>
   </trkpt>
   <trkpt lat="46.236686706543" lon="6.89871025085449">
    <ele>1188.51770019531</ele>
    <time>2012-04-02T16:11:53Z</time>
   </trkpt>
   <trkpt lat="46.2366943359375" lon="6.89867305755615">
    <ele>1188.77062988281</ele>
    <time>2012-04-02T16:11:54Z</time>
   </trkpt>
   <trkpt lat="46.2367057800293" lon="6.89862871170044">
    <ele>1189.02355957031</ele>
    <time>2012-04-02T16:11:55Z</time>
   </trkpt>
   <trkpt lat="46.2367706298828" lon="6.89848947525024">
    <ele>1190.28820800781</ele>
    <time>2012-04-02T16:12:00Z</time>
   </trkpt>
   <trkpt lat="46.2367858886719" lon="6.89846515655518">
    <ele>1190.54113769531</ele>
    <time>2012-04-02T16:12:01Z</time>
   </trkpt>
   <trkpt lat="46.2367973327637" lon="6.89843320846558">
    <ele>1190.79406738281</ele>
    <time>2012-04-02T16:12:02Z</time>
   </trkpt>
   <trkpt lat="46.2368087768555" lon="6.8983998298645">
    <ele>1191.04699707031</ele>
    <time>2012-04-02T16:12:03Z</time>
   </trkpt>
   <trkpt lat="46.2368240356445" lon="6.8983736038208">
    <ele>1191.30004882812</ele>
    <time>2012-04-02T16:12:04Z</time>
   </trkpt>
   <trkpt lat="46.2368965148926" lon="6.89825057983398">
    <ele>1192.56469726562</ele>
    <time>2012-04-02T16:12:09Z</time>
   </trkpt>
   <trkpt lat="46.2369155883789" lon="6.89822435379028">
    <ele>1192.81762695312</ele>
    <time>2012-04-02T16:12:10Z</time>
   </trkpt>
   <trkpt lat="46.2369346618652" lon="6.89820528030396">
    <ele>1193.07055664062</ele>
    <time>2012-04-02T16:12:11Z</time>
   </trkpt>
   <trkpt lat="46.2369499206543" lon="6.89818239212036">
    <ele>1193.32348632812</ele>
    <time>2012-04-02T16:12:12Z</time>
   </trkpt>
   <trkpt lat="46.2369613647461" lon="6.8981614112854">
    <ele>1193.57641601562</ele>
    <time>2012-04-02T16:12:13Z</time>
   </trkpt>
   <trkpt lat="46.2370223999023" lon="6.89807558059692">
    <ele>1194.58825683594</ele>
    <time>2012-04-02T16:12:17Z</time>
   </trkpt>
   <trkpt lat="46.2370376586914" lon="6.89805221557617">
    <ele>1194.84118652344</ele>
    <time>2012-04-02T16:12:18Z</time>
   </trkpt>
   <trkpt lat="46.2370567321777" lon="6.89803886413574">
    <ele>1195.09411621094</ele>
    <time>2012-04-02T16:12:19Z</time>
   </trkpt>
   <trkpt lat="46.2370719909668" lon="6.89801597595215">
    <ele>1195.34704589844</ele>
    <time>2012-04-02T16:12:20Z</time>
   </trkpt>
   <trkpt lat="46.2370948791504" lon="6.8979959487915">
    <ele>1195.59997558594</ele>
    <time>2012-04-02T16:12:21Z</time>
   </trkpt>
   <trkpt lat="46.2371635437012" lon="6.89791584014893">
    <ele>1195.59997558594</ele>
    <time>2012-04-02T16:12:25Z</time>
   </trkpt>
   <trkpt lat="46.2371788024902" lon="6.89788961410522">
    <ele>1196</ele>
    <time>2012-04-02T16:12:26Z</time>
   </trkpt>
   <trkpt lat="46.237190246582" lon="6.89786243438721">
    <ele>1196.40002441406</ele>
    <time>2012-04-02T16:12:27Z</time>
   </trkpt>
   <trkpt lat="46.2372055053711" lon="6.89784002304077">
    <ele>1196.79992675781</ele>
    <time>2012-04-02T16:12:28Z</time>
   </trkpt>
   <trkpt lat="46.2372283935547" lon="6.89782238006592">
    <ele>1197.19995117188</ele>
    <time>2012-04-02T16:12:29Z</time>
   </trkpt>
   <trkpt lat="46.2372436523438" lon="6.89779376983643">
    <ele>1197.59997558594</ele>
    <time>2012-04-02T16:12:30Z</time>
   </trkpt>
   <trkpt lat="46.2372894287109" lon="6.89777231216431">
    <ele>1197.59997558594</ele>
    <time>2012-04-02T16:12:32Z</time>
   </trkpt>
   <trkpt lat="46.2373275756836" lon="6.89773416519165">
    <ele>1198</ele>
    <time>2012-04-02T16:12:34Z</time>
   </trkpt>
   <trkpt lat="46.2374267578125" lon="6.89759969711304">
    <ele>1199</ele>
    <time>2012-04-02T16:12:39Z</time>
   </trkpt>
   <trkpt lat="46.2374496459961" lon="6.89758062362671">
    <ele>1199.19995117188</ele>
    <time>2012-04-02T16:12:40Z</time>
   </trkpt>
   <trkpt lat="46.237476348877" lon="6.8975625038147">
    <ele>1199.40002441406</ele>
    <time>2012-04-02T16:12:41Z</time>
   </trkpt>
   <trkpt lat="46.2374992370606" lon="6.89754772186279">
    <ele>1199.59997558594</ele>
    <time>2012-04-02T16:12:42Z</time>
   </trkpt>
   <trkpt lat="46.2376251220703" lon="6.89742422103882">
    <ele>1199.59997558594</ele>
    <time>2012-04-02T16:12:48Z</time>
   </trkpt>
   <trkpt lat="46.2376441955566" lon="6.89735651016235">
    <ele>1200.40002441406</ele>
    <time>2012-04-02T16:12:50Z</time>
   </trkpt>
   <trkpt lat="46.2376556396484" lon="6.89731550216675">
    <ele>1200.80004882812</ele>
    <time>2012-04-02T16:12:51Z</time>
   </trkpt>
   <trkpt lat="46.2376747131348" lon="6.89728498458862">
    <ele>1201.19995117188</ele>
    <time>2012-04-02T16:12:52Z</time>
   </trkpt>
   <trkpt lat="46.2376747131348" lon="6.89723205566406">
    <ele>1201.59997558594</ele>
    <time>2012-04-02T16:12:53Z</time>
   </trkpt>
   <trkpt lat="46.2376861572266" lon="6.8972053527832">
    <ele>1202</ele>
    <time>2012-04-02T16:12:54Z</time>
   </trkpt>
   <trkpt lat="46.2376937866211" lon="6.89716196060181">
    <ele>1202</ele>
    <time>2012-04-02T16:12:55Z</time>
   </trkpt>
   <trkpt lat="46.2378082275391" lon="6.89698457717896">
    <ele>1203.27270507812</ele>
    <time>2012-04-02T16:13:02Z</time>
   </trkpt>
   <trkpt lat="46.2378273010254" lon="6.89695882797241">
    <ele>1203.45458984375</ele>
    <time>2012-04-02T16:13:03Z</time>
   </trkpt>
   <trkpt lat="46.2378387451172" lon="6.89692449569702">
    <ele>1203.63635253906</ele>
    <time>2012-04-02T16:13:04Z</time>
   </trkpt>
   <trkpt lat="46.237850189209" lon="6.89689111709595">
    <ele>1203.81823730469</ele>
    <time>2012-04-02T16:13:05Z</time>
   </trkpt>
   <trkpt lat="46.2378578186035" lon="6.89685678482056">
    <ele>1204</ele>
    <time>2012-04-02T16:13:06Z</time>
   </trkpt>
   <trkpt lat="46.2379035949707" lon="6.89674711227417">
    <ele>1204</ele>
    <time>2012-04-02T16:13:10Z</time>
   </trkpt>
   <trkpt lat="46.2379302978516" lon="6.89669227600098">
    <ele>1204.73327636719</ele>
    <time>2012-04-02T16:13:12Z</time>
   </trkpt>
   <trkpt lat="46.2379455566406" lon="6.89666938781738">
    <ele>1205.09997558594</ele>
    <time>2012-04-02T16:13:13Z</time>
   </trkpt>
   <trkpt lat="46.2379608154297" lon="6.89664173126221">
    <ele>1205.46667480469</ele>
    <time>2012-04-02T16:13:14Z</time>
   </trkpt>
   <trkpt lat="46.2379837036133" lon="6.89662027359009">
    <ele>1205.83325195312</ele>
    <time>2012-04-02T16:13:15Z</time>
   </trkpt>
   <trkpt lat="46.2380065917969" lon="6.89660310745239">
    <ele>1206.19995117188</ele>
    <time>2012-04-02T16:13:16Z</time>
   </trkpt>
   <trkpt lat="46.2380485534668" lon="6.89656782150268">
    <ele>1206.19995117188</ele>
    <time>2012-04-02T16:13:18Z</time>
   </trkpt>
   <trkpt lat="46.2381248474121" lon="6.89646816253662">
    <ele>1207.19995117188</ele>
    <time>2012-04-02T16:13:22Z</time>
   </trkpt>
   <trkpt lat="46.2381439208984" lon="6.8964524269104">
    <ele>1207.44995117188</ele>
    <time>2012-04-02T16:13:23Z</time>
   </trkpt>
   <trkpt lat="46.238166809082" lon="6.89643383026123">
    <ele>1207.69995117188</ele>
    <time>2012-04-02T16:13:24Z</time>
   </trkpt>
   <trkpt lat="46.2381782531738" lon="6.8964033126831">
    <ele>1207.94995117188</ele>
    <time>2012-04-02T16:13:25Z</time>
   </trkpt>
   <trkpt lat="46.2381896972656" lon="6.89637088775635">
    <ele>1208.19995117188</ele>
    <time>2012-04-02T16:13:26Z</time>
   </trkpt>
   <trkpt lat="46.2382354736328" lon="6.89624261856079">
    <ele>1208.19995117188</ele>
    <time>2012-04-02T16:13:30Z</time>
   </trkpt>
   <trkpt lat="46.2382621765137" lon="6.89611959457398">
    <ele>1209.19995117188</ele>
    <time>2012-04-02T16:13:34Z</time>
   </trkpt>
   <trkpt lat="46.2382621765137" lon="6.89608907699585">
    <ele>1209.44995117188</ele>
    <time>2012-04-02T16:13:35Z</time>
   </trkpt>
   <trkpt lat="46.2382659912109" lon="6.89605140686035">
    <ele>1209.69995117188</ele>
    <time>2012-04-02T16:13:36Z</time>
   </trkpt>
   <trkpt lat="46.2382736206055" lon="6.89601564407349">
    <ele>1209.94995117188</ele>
    <time>2012-04-02T16:13:37Z</time>
   </trkpt>
   <trkpt lat="46.2382850646973" lon="6.89598083496094">
    <ele>1210.19995117188</ele>
    <time>2012-04-02T16:13:38Z</time>
   </trkpt>
   <trkpt lat="46.2383041381836" lon="6.8959174156189">
    <ele>1210.19995117188</ele>
    <time>2012-04-02T16:13:40Z</time>
   </trkpt>
   <trkpt lat="46.2383117675781" lon="6.8958330154419">
    <ele>1210.68884277344</ele>
    <time>2012-04-02T16:13:42Z</time>
   </trkpt>
   <trkpt lat="46.2383499145508" lon="6.89573192596436">
    <ele>1211.42224121094</ele>
    <time>2012-04-02T16:13:45Z</time>
   </trkpt>
   <trkpt lat="46.238353729248" lon="6.89569568634033">
    <ele>1211.66662597656</ele>
    <time>2012-04-02T16:13:46Z</time>
   </trkpt>
   <trkpt lat="46.2383613586426" lon="6.89565992355347">
    <ele>1211.9111328125</ele>
    <time>2012-04-02T16:13:47Z</time>
   </trkpt>
   <trkpt lat="46.2383689880371" lon="6.89563322067261">
    <ele>1212.15551757812</ele>
    <time>2012-04-02T16:13:48Z</time>
   </trkpt>
   <trkpt lat="46.2383804321289" lon="6.89559602737427">
    <ele>1212.40002441406</ele>
    <time>2012-04-02T16:13:49Z</time>
   </trkpt>
   <trkpt lat="46.2384223937988" lon="6.89542055130005">
    <ele>1212.40002441406</ele>
    <time>2012-04-02T16:13:54Z</time>
   </trkpt>
   <trkpt lat="46.2384414672852" lon="6.89535713195801">
    <ele>1213.35998535156</ele>
    <time>2012-04-02T16:13:56Z</time>
   </trkpt>
   <trkpt lat="46.2384490966797" lon="6.89531803131104">
    <ele>1213.84008789062</ele>
    <time>2012-04-02T16:13:57Z</time>
   </trkpt>
   <trkpt lat="46.2384605407715" lon="6.89528846740723">
    <ele>1214.32006835938</ele>
    <time>2012-04-02T16:13:58Z</time>
   </trkpt>
   <trkpt lat="46.238468170166" lon="6.89525842666626">
    <ele>1214.80004882812</ele>
    <time>2012-04-02T16:13:59Z</time>
   </trkpt>
   <trkpt lat="46.2384719848633" lon="6.89522981643677">
    <ele>1214.80004882812</ele>
    <time>2012-04-02T16:14:00Z</time>
   </trkpt>
   <trkpt lat="46.2385215759277" lon="6.89510250091553">
    <ele>1215.70910644531</ele>
    <time>2012-04-02T16:14:05Z</time>
   </trkpt>
   <trkpt lat="46.2385406494141" lon="6.89505195617676">
    <ele>1216.07275390625</ele>
    <time>2012-04-02T16:14:07Z</time>
   </trkpt>
   <trkpt lat="46.2385559082031" lon="6.89502191543579">
    <ele>1216.25463867188</ele>
    <time>2012-04-02T16:14:08Z</time>
   </trkpt>
   <trkpt lat="46.2385673522949" lon="6.89499092102051">
    <ele>1216.43640136719</ele>
    <time>2012-04-02T16:14:09Z</time>
   </trkpt>
   <trkpt lat="46.2385787963867" lon="6.89496326446533">
    <ele>1216.61828613281</ele>
    <time>2012-04-02T16:14:10Z</time>
   </trkpt>
   <trkpt lat="46.238597869873" lon="6.89493942260742">
    <ele>1216.80004882812</ele>
    <time>2012-04-02T16:14:11Z</time>
   </trkpt>
   <trkpt lat="46.238655090332" lon="6.89477682113648">
    <ele>1216.80004882812</ele>
    <time>2012-04-02T16:14:16Z</time>
   </trkpt>
   <trkpt lat="46.2386779785156" lon="6.89471244812012">
    <ele>1217.60009765625</ele>
    <time>2012-04-02T16:14:18Z</time>
   </trkpt>
   <trkpt lat="46.2386932373047" lon="6.89468002319336">
    <ele>1218</ele>
    <time>2012-04-02T16:14:19Z</time>
   </trkpt>
   <trkpt lat="46.2387046813965" lon="6.89465141296387">
    <ele>1218.40002441406</ele>
    <time>2012-04-02T16:14:20Z</time>
   </trkpt>
   <trkpt lat="46.2387161254883" lon="6.89462423324585">
    <ele>1218.80004882812</ele>
    <time>2012-04-02T16:14:21Z</time>
   </trkpt>
   <trkpt lat="46.2387237548828" lon="6.89459419250488">
    <ele>1218.80004882812</ele>
    <time>2012-04-02T16:14:22Z</time>
   </trkpt>
   <trkpt lat="46.2387809753418" lon="6.89442729949951">
    <ele>1219.80004882812</ele>
    <time>2012-04-02T16:14:27Z</time>
   </trkpt>
   <trkpt lat="46.2387886047363" lon="6.89439392089844">
    <ele>1220</ele>
    <time>2012-04-02T16:14:28Z</time>
   </trkpt>
   <trkpt lat="46.2387962341309" lon="6.89436292648315">
    <ele>1220.20007324219</ele>
    <time>2012-04-02T16:14:29Z</time>
   </trkpt>
   <trkpt lat="46.2388038635254" lon="6.89433193206787">
    <ele>1220.40002441406</ele>
    <time>2012-04-02T16:14:30Z</time>
   </trkpt>
   <trkpt lat="46.2388114929199" lon="6.89429616928101">
    <ele>1220.60009765625</ele>
    <time>2012-04-02T16:14:31Z</time>
   </trkpt>
   <trkpt lat="46.2388191223144" lon="6.8942666053772">
    <ele>1220.80004882812</ele>
    <time>2012-04-02T16:14:32Z</time>
   </trkpt>
   <trkpt lat="46.238842010498" lon="6.894202709198">
    <ele>1220.80004882812</ele>
    <time>2012-04-02T16:14:34Z</time>
   </trkpt>
   <trkpt lat="46.2388801574707" lon="6.89402151107788">
    <ele>1222.20007324219</ele>
    <time>2012-04-02T16:14:40Z</time>
   </trkpt>
   <trkpt lat="46.238883972168" lon="6.89398288726807">
    <ele>1222.43334960938</ele>
    <time>2012-04-02T16:14:41Z</time>
   </trkpt>
   <trkpt lat="46.2388877868652" lon="6.89394617080688">
    <ele>1222.66674804688</ele>
    <time>2012-04-02T16:14:42Z</time>
   </trkpt>
   <trkpt lat="46.2388916015625" lon="6.89391088485718">
    <ele>1222.90002441406</ele>
    <time>2012-04-02T16:14:43Z</time>
   </trkpt>
   <trkpt lat="46.238899230957" lon="6.89387321472168">
    <ele>1223.13330078125</ele>
    <time>2012-04-02T16:14:44Z</time>
   </trkpt>
   <trkpt lat="46.2389373779297" lon="6.89373254776001">
    <ele>1224.06665039062</ele>
    <time>2012-04-02T16:14:48Z</time>
   </trkpt>
   <trkpt lat="46.2389450073242" lon="6.89369773864746">
    <ele>1224.30004882812</ele>
    <time>2012-04-02T16:14:49Z</time>
   </trkpt>
   <trkpt lat="46.238956451416" lon="6.89366340637207">
    <ele>1224.53332519531</ele>
    <time>2012-04-02T16:14:50Z</time>
   </trkpt>
   <trkpt lat="46.2389640808106" lon="6.89363479614258">
    <ele>1224.76672363281</ele>
    <time>2012-04-02T16:14:51Z</time>
   </trkpt>
   <trkpt lat="46.2389678955078" lon="6.89360189437866">
    <ele>1225</ele>
    <time>2012-04-02T16:14:52Z</time>
   </trkpt>
   <trkpt lat="46.2389984130859" lon="6.89347648620606">
    <ele>1225</ele>
    <time>2012-04-02T16:14:56Z</time>
   </trkpt>
   <trkpt lat="46.2390327453613" lon="6.89338636398315">
    <ele>1225.78747558594</ele>
    <time>2012-04-02T16:14:59Z</time>
   </trkpt>
   <trkpt lat="46.2390403747559" lon="6.8933539390564">
    <ele>1226.05004882812</ele>
    <time>2012-04-02T16:15:00Z</time>
   </trkpt>
   <trkpt lat="46.2390480041504" lon="6.89332151412964">
    <ele>1226.3125</ele>
    <time>2012-04-02T16:15:01Z</time>
   </trkpt>
   <trkpt lat="46.2390556335449" lon="6.89328813552856">
    <ele>1226.57495117188</ele>
    <time>2012-04-02T16:15:02Z</time>
   </trkpt>
   <trkpt lat="46.2390670776367" lon="6.89325523376465">
    <ele>1226.83752441406</ele>
    <time>2012-04-02T16:15:03Z</time>
   </trkpt>
   <trkpt lat="46.2391471862793" lon="6.89308309555054">
    <ele>1228.41247558594</ele>
    <time>2012-04-02T16:15:09Z</time>
   </trkpt>
   <trkpt lat="46.2391662597656" lon="6.89305877685547">
    <ele>1228.67492675781</ele>
    <time>2012-04-02T16:15:10Z</time>
   </trkpt>
   <trkpt lat="46.2391891479492" lon="6.8930344581604">
    <ele>1228.9375</ele>
    <time>2012-04-02T16:15:11Z</time>
   </trkpt>
   <trkpt lat="46.2392044067383" lon="6.8930082321167">
    <ele>1229.19995117188</ele>
    <time>2012-04-02T16:15:12Z</time>
   </trkpt>
   <trkpt lat="46.2392768859863" lon="6.89290857315064">
    <ele>1229.19995117188</ele>
    <time>2012-04-02T16:15:16Z</time>
   </trkpt>
   <trkpt lat="46.2392959594727" lon="6.89288759231567">
    <ele>1229.64001464844</ele>
    <time>2012-04-02T16:15:17Z</time>
   </trkpt>
   <trkpt lat="46.239315032959" lon="6.89286375045776">
    <ele>1230.07995605469</ele>
    <time>2012-04-02T16:15:18Z</time>
   </trkpt>
   <trkpt lat="46.2393341064453" lon="6.89284563064575">
    <ele>1230.52001953125</ele>
    <time>2012-04-02T16:15:19Z</time>
   </trkpt>
   <trkpt lat="46.2393531799316" lon="6.89282083511352">
    <ele>1230.9599609375</ele>
    <time>2012-04-02T16:15:20Z</time>
   </trkpt>
   <trkpt lat="46.239372253418" lon="6.8927960395813">
    <ele>1231.40002441406</ele>
    <time>2012-04-02T16:15:21Z</time>
   </trkpt>
   <trkpt lat="46.239387512207" lon="6.89276885986328">
    <ele>1231.40002441406</ele>
    <time>2012-04-02T16:15:22Z</time>
   </trkpt>
   <trkpt lat="46.2394752502441" lon="6.89264440536499">
    <ele>1232.56665039062</ele>
    <time>2012-04-02T16:15:27Z</time>
   </trkpt>
   <trkpt lat="46.2394943237305" lon="6.89261865615845">
    <ele>1232.80004882812</ele>
    <time>2012-04-02T16:15:28Z</time>
   </trkpt>
   <trkpt lat="46.2395095825195" lon="6.89259099960327">
    <ele>1233.03332519531</ele>
    <time>2012-04-02T16:15:29Z</time>
   </trkpt>
   <trkpt lat="46.2395286560059" lon="6.8925633430481">
    <ele>1233.26672363281</ele>
    <time>2012-04-02T16:15:30Z</time>
   </trkpt>
   <trkpt lat="46.2395439147949" lon="6.89253568649292">
    <ele>1233.5</ele>
    <time>2012-04-02T16:15:31Z</time>
   </trkpt>
   <trkpt lat="46.239616394043" lon="6.89238929748535">
    <ele>1234.66662597656</ele>
    <time>2012-04-02T16:15:36Z</time>
   </trkpt>
   <trkpt lat="46.239631652832" lon="6.89235877990723">
    <ele>1234.90002441406</ele>
    <time>2012-04-02T16:15:37Z</time>
   </trkpt>
   <trkpt lat="46.2396430969238" lon="6.89232683181763">
    <ele>1235.13330078125</ele>
    <time>2012-04-02T16:15:38Z</time>
   </trkpt>
   <trkpt lat="46.2396507263184" lon="6.8922963142395">
    <ele>1235.36669921875</ele>
    <time>2012-04-02T16:15:39Z</time>
   </trkpt>
   <trkpt lat="46.2396545410156" lon="6.89226198196411">
    <ele>1235.59997558594</ele>
    <time>2012-04-02T16:15:40Z</time>
   </trkpt>
   <trkpt lat="46.2396659851074" lon="6.89219284057617">
    <ele>1235.59997558594</ele>
    <time>2012-04-02T16:15:42Z</time>
   </trkpt>
   <trkpt lat="46.2396965026856" lon="6.8919825553894">
    <ele>1236.92004394531</ele>
    <time>2012-04-02T16:15:48Z</time>
   </trkpt>
   <trkpt lat="46.2397003173828" lon="6.8919472694397">
    <ele>1237.14001464844</ele>
    <time>2012-04-02T16:15:49Z</time>
   </trkpt>
   <trkpt lat="46.2397003173828" lon="6.89191102981567">
    <ele>1237.35998535156</ele>
    <time>2012-04-02T16:15:50Z</time>
   </trkpt>
   <trkpt lat="46.2397041320801" lon="6.89187479019165">
    <ele>1237.580078125</ele>
    <time>2012-04-02T16:15:51Z</time>
   </trkpt>
   <trkpt lat="46.2397079467773" lon="6.89184093475342">
    <ele>1237.80004882812</ele>
    <time>2012-04-02T16:15:52Z</time>
   </trkpt>
   <trkpt lat="46.2397155761719" lon="6.89177465438843">
    <ele>1237.80004882812</ele>
    <time>2012-04-02T16:15:54Z</time>
   </trkpt>
   <trkpt lat="46.2397346496582" lon="6.89156866073608">
    <ele>1239.13342285156</ele>
    <time>2012-04-02T16:16:00Z</time>
   </trkpt>
   <trkpt lat="46.2397384643555" lon="6.89153480529785">
    <ele>1239.35559082031</ele>
    <time>2012-04-02T16:16:01Z</time>
   </trkpt>
   <trkpt lat="46.2397422790527" lon="6.89150190353394">
    <ele>1239.57788085938</ele>
    <time>2012-04-02T16:16:02Z</time>
   </trkpt>
   <trkpt lat="46.2397422790527" lon="6.8914680480957">
    <ele>1239.80004882812</ele>
    <time>2012-04-02T16:16:03Z</time>
   </trkpt>
   <trkpt lat="46.2397537231445" lon="6.8913311958313">
    <ele>1239.80004882812</ele>
    <time>2012-04-02T16:16:07Z</time>
   </trkpt>
   <trkpt lat="46.2397689819336" lon="6.8912239074707">
    <ele>1240.74291992188</ele>
    <time>2012-04-02T16:16:10Z</time>
   </trkpt>
   <trkpt lat="46.2397766113281" lon="6.89118957519531">
    <ele>1241.05712890625</ele>
    <time>2012-04-02T16:16:11Z</time>
   </trkpt>
   <trkpt lat="46.2397766113281" lon="6.89115571975708">
    <ele>1241.37145996094</ele>
    <time>2012-04-02T16:16:12Z</time>
   </trkpt>
   <trkpt lat="46.2397804260254" lon="6.89111995697022">
    <ele>1241.68566894531</ele>
    <time>2012-04-02T16:16:13Z</time>
   </trkpt>
   <trkpt lat="46.2397842407227" lon="6.89108276367188">
    <ele>1242</ele>
    <time>2012-04-02T16:16:14Z</time>
   </trkpt>
   <trkpt lat="46.2397842407227" lon="6.89105081558228">
    <ele>1242</ele>
    <time>2012-04-02T16:16:15Z</time>
   </trkpt>
   <trkpt lat="46.2397918701172" lon="6.89088106155396">
    <ele>1243.22216796875</ele>
    <time>2012-04-02T16:16:20Z</time>
   </trkpt>
   <trkpt lat="46.2397994995117" lon="6.89085006713867">
    <ele>1243.46667480469</ele>
    <time>2012-04-02T16:16:21Z</time>
   </trkpt>
   <trkpt lat="46.2398109436035" lon="6.8908200263977">
    <ele>1243.71105957031</ele>
    <time>2012-04-02T16:16:22Z</time>
   </trkpt>
   <trkpt lat="46.2398223876953" lon="6.89078998565674">
    <ele>1243.95556640625</ele>
    <time>2012-04-02T16:16:23Z</time>
   </trkpt>
   <trkpt lat="46.2398262023926" lon="6.89075756072998">
    <ele>1244.19995117188</ele>
    <time>2012-04-02T16:16:24Z</time>
   </trkpt>
   <trkpt lat="46.2398567199707" lon="6.89061498641968">
    <ele>1244.19995117188</ele>
    <time>2012-04-02T16:16:28Z</time>
   </trkpt>
   <trkpt lat="46.239875793457" lon="6.89051294326782">
    <ele>1244.86657714844</ele>
    <time>2012-04-02T16:16:31Z</time>
   </trkpt>
   <trkpt lat="46.2398834228516" lon="6.89047813415527">
    <ele>1245.0888671875</ele>
    <time>2012-04-02T16:16:32Z</time>
   </trkpt>
   <trkpt lat="46.2398872375488" lon="6.89044284820557">
    <ele>1245.31103515625</ele>
    <time>2012-04-02T16:16:33Z</time>
   </trkpt>
   <trkpt lat="46.2398872375488" lon="6.89041090011597">
    <ele>1245.53332519531</ele>
    <time>2012-04-02T16:16:34Z</time>
   </trkpt>
   <trkpt lat="46.2398910522461" lon="6.89037466049194">
    <ele>1245.75549316406</ele>
    <time>2012-04-02T16:16:35Z</time>
   </trkpt>
   <trkpt lat="46.2399253845215" lon="6.89010715484619">
    <ele>1247.31103515625</ele>
    <time>2012-04-02T16:16:42Z</time>
   </trkpt>
   <trkpt lat="46.2399291992188" lon="6.89006757736206">
    <ele>1247.53332519531</ele>
    <time>2012-04-02T16:16:43Z</time>
   </trkpt>
   <trkpt lat="46.2399368286133" lon="6.89003133773804">
    <ele>1247.75549316406</ele>
    <time>2012-04-02T16:16:44Z</time>
   </trkpt>
   <trkpt lat="46.2399444580078" lon="6.88999176025391">
    <ele>1247.97778320312</ele>
    <time>2012-04-02T16:16:45Z</time>
   </trkpt>
   <trkpt lat="46.2399559020996" lon="6.88995504379272">
    <ele>1248.19995117188</ele>
    <time>2012-04-02T16:16:46Z</time>
   </trkpt>
   <trkpt lat="46.2399826049805" lon="6.88984775543213">
    <ele>1248.19995117188</ele>
    <time>2012-04-02T16:16:49Z</time>
   </trkpt>
   <trkpt lat="46.2400093078613" lon="6.88970708847046">
    <ele>1249.19995117188</ele>
    <time>2012-04-02T16:16:53Z</time>
   </trkpt>
   <trkpt lat="46.2400169372559" lon="6.88967514038086">
    <ele>1249.44995117188</ele>
    <time>2012-04-02T16:16:54Z</time>
   </trkpt>
   <trkpt lat="46.2400283813477" lon="6.88964128494263">
    <ele>1249.69995117188</ele>
    <time>2012-04-02T16:16:55Z</time>
   </trkpt>
   <trkpt lat="46.2400321960449" lon="6.88960599899292">
    <ele>1249.94995117188</ele>
    <time>2012-04-02T16:16:56Z</time>
   </trkpt>
   <trkpt lat="46.2400398254394" lon="6.88957071304321">
    <ele>1250.19995117188</ele>
    <time>2012-04-02T16:16:57Z</time>
   </trkpt>
   <trkpt lat="46.240047454834" lon="6.88953638076782">
    <ele>1250.19995117188</ele>
    <time>2012-04-02T16:16:58Z</time>
   </trkpt>
   <trkpt lat="46.2401161193848" lon="6.88933372497559">
    <ele>1251.52001953125</ele>
    <time>2012-04-02T16:17:04Z</time>
   </trkpt>
   <trkpt lat="46.2401313781738" lon="6.88930368423462">
    <ele>1251.73999023438</ele>
    <time>2012-04-02T16:17:05Z</time>
   </trkpt>
   <trkpt lat="46.2401466369629" lon="6.88927221298218">
    <ele>1251.9599609375</ele>
    <time>2012-04-02T16:17:06Z</time>
   </trkpt>
   <trkpt lat="46.240161895752" lon="6.88923788070679">
    <ele>1252.18005371094</ele>
    <time>2012-04-02T16:17:07Z</time>
   </trkpt>
   <trkpt lat="46.2401733398438" lon="6.88920211791992">
    <ele>1252.40002441406</ele>
    <time>2012-04-02T16:17:08Z</time>
   </trkpt>
   <trkpt lat="46.2402610778809" lon="6.88900518417358">
    <ele>1252.40002441406</ele>
    <time>2012-04-02T16:17:14Z</time>
   </trkpt>
   <trkpt lat="46.2402801513672" lon="6.88897371292114">
    <ele>1252.83996582031</ele>
    <time>2012-04-02T16:17:15Z</time>
   </trkpt>
   <trkpt lat="46.2402954101562" lon="6.88894319534302">
    <ele>1253.28002929688</ele>
    <time>2012-04-02T16:17:16Z</time>
   </trkpt>
   <trkpt lat="46.240306854248" lon="6.88891410827637">
    <ele>1253.71997070312</ele>
    <time>2012-04-02T16:17:17Z</time>
   </trkpt>
   <trkpt lat="46.2403182983398" lon="6.88888216018677">
    <ele>1254.16003417969</ele>
    <time>2012-04-02T16:17:18Z</time>
   </trkpt>
   <trkpt lat="46.2403297424316" lon="6.88885068893433">
    <ele>1254.59997558594</ele>
    <time>2012-04-02T16:17:19Z</time>
   </trkpt>
   <trkpt lat="46.2403717041016" lon="6.88874006271362">
    <ele>1254.59997558594</ele>
    <time>2012-04-02T16:17:22Z</time>
   </trkpt>
   <trkpt lat="46.2404556274414" lon="6.88857936859131">
    <ele>1255.71105957031</ele>
    <time>2012-04-02T16:17:27Z</time>
   </trkpt>
   <trkpt lat="46.2404747009277" lon="6.88854455947876">
    <ele>1255.93334960938</ele>
    <time>2012-04-02T16:17:28Z</time>
   </trkpt>
   <trkpt lat="46.2404861450195" lon="6.88850736618042">
    <ele>1256.15551757812</ele>
    <time>2012-04-02T16:17:29Z</time>
   </trkpt>
   <trkpt lat="46.2405052185059" lon="6.88846826553345">
    <ele>1256.37780761719</ele>
    <time>2012-04-02T16:17:30Z</time>
   </trkpt>
   <trkpt lat="46.2405242919922" lon="6.88842821121216">
    <ele>1256.59997558594</ele>
    <time>2012-04-02T16:17:31Z</time>
   </trkpt>
   <trkpt lat="46.2406234741211" lon="6.8882303237915">
    <ele>1256.59997558594</ele>
    <time>2012-04-02T16:17:36Z</time>
   </trkpt>
   <trkpt lat="46.2406616210938" lon="6.88812065124512">
    <ele>1257.69995117188</ele>
    <time>2012-04-02T16:17:39Z</time>
   </trkpt>
   <trkpt lat="46.2406768798828" lon="6.88808488845825">
    <ele>1258.06665039062</ele>
    <time>2012-04-02T16:17:40Z</time>
   </trkpt>
   <trkpt lat="46.2406921386719" lon="6.8880500793457">
    <ele>1258.43334960938</ele>
    <time>2012-04-02T16:17:41Z</time>
   </trkpt>
   <trkpt lat="46.2407112121582" lon="6.88801002502441">
    <ele>1258.80004882812</ele>
    <time>2012-04-02T16:17:42Z</time>
   </trkpt>
   <trkpt lat="46.2407379150391" lon="6.88792991638184">
    <ele>1258.80004882812</ele>
    <time>2012-04-02T16:17:44Z</time>
   </trkpt>
   <trkpt lat="46.2408103942871" lon="6.88773679733276">
    <ele>1260.02221679688</ele>
    <time>2012-04-02T16:17:49Z</time>
   </trkpt>
   <trkpt lat="46.2408256530762" lon="6.88769865036011">
    <ele>1260.26672363281</ele>
    <time>2012-04-02T16:17:50Z</time>
   </trkpt>
   <trkpt lat="46.240837097168" lon="6.88766098022461">
    <ele>1260.51110839844</ele>
    <time>2012-04-02T16:17:51Z</time>
   </trkpt>
   <trkpt lat="46.2408485412598" lon="6.88762331008911">
    <ele>1260.75561523438</ele>
    <time>2012-04-02T16:17:52Z</time>
   </trkpt>
   <trkpt lat="46.2408599853516" lon="6.88758420944214">
    <ele>1261</ele>
    <time>2012-04-02T16:17:53Z</time>
   </trkpt>
   <trkpt lat="46.2408676147461" lon="6.88753986358643">
    <ele>1261</ele>
    <time>2012-04-02T16:17:54Z</time>
   </trkpt>
   <trkpt lat="46.2409324645996" lon="6.88722991943359">
    <ele>1262.40002441406</ele>
    <time>2012-04-02T16:18:01Z</time>
   </trkpt>
   <trkpt lat="46.2409400939941" lon="6.88718605041504">
    <ele>1262.59997558594</ele>
    <time>2012-04-02T16:18:02Z</time>
   </trkpt>
   <trkpt lat="46.2409477233887" lon="6.88714456558228">
    <ele>1262.80004882812</ele>
    <time>2012-04-02T16:18:03Z</time>
   </trkpt>
   <trkpt lat="46.2409591674805" lon="6.88710117340088">
    <ele>1263</ele>
    <time>2012-04-02T16:18:04Z</time>
   </trkpt>
   <trkpt lat="46.2409973144531" lon="6.88688135147095">
    <ele>1263</ele>
    <time>2012-04-02T16:18:09Z</time>
   </trkpt>
   <trkpt lat="46.2410125732422" lon="6.88674068450928">
    <ele>1263.7412109375</ele>
    <time>2012-04-02T16:18:12Z</time>
   </trkpt>
   <trkpt lat="46.2410163879394" lon="6.88669490814209">
    <ele>1263.98828125</ele>
    <time>2012-04-02T16:18:13Z</time>
   </trkpt>
   <trkpt lat="46.241024017334" lon="6.8866491317749">
    <ele>1264.23522949219</ele>
    <time>2012-04-02T16:18:14Z</time>
   </trkpt>
   <trkpt lat="46.2410316467285" lon="6.8866024017334">
    <ele>1264.48229980469</ele>
    <time>2012-04-02T16:18:15Z</time>
   </trkpt>
   <trkpt lat="46.2410354614258" lon="6.88655233383179">
    <ele>1264.72937011719</ele>
    <time>2012-04-02T16:18:16Z</time>
   </trkpt>
   <trkpt lat="46.2410469055176" lon="6.88627767562866">
    <ele>1266.21166992188</ele>
    <time>2012-04-02T16:18:22Z</time>
   </trkpt>
   <trkpt lat="46.2410469055176" lon="6.88623046875">
    <ele>1266.45874023438</ele>
    <time>2012-04-02T16:18:23Z</time>
   </trkpt>
   <trkpt lat="46.2410507202148" lon="6.88618326187134">
    <ele>1266.70581054688</ele>
    <time>2012-04-02T16:18:24Z</time>
   </trkpt>
   <trkpt lat="46.2410507202148" lon="6.88613367080688">
    <ele>1266.95288085938</ele>
    <time>2012-04-02T16:18:25Z</time>
   </trkpt>
   <trkpt lat="46.2410507202148" lon="6.88608598709106">
    <ele>1267.19995117188</ele>
    <time>2012-04-02T16:18:26Z</time>
   </trkpt>
   <trkpt lat="46.2410545349121" lon="6.8858060836792">
    <ele>1267.19995117188</ele>
    <time>2012-04-02T16:18:32Z</time>
   </trkpt>
   <trkpt lat="46.2410583496094" lon="6.88555383682251">
    <ele>1268.31103515625</ele>
    <time>2012-04-02T16:18:37Z</time>
   </trkpt>
   <trkpt lat="46.2410621643066" lon="6.88549661636352">
    <ele>1268.53332519531</ele>
    <time>2012-04-02T16:18:38Z</time>
   </trkpt>
   <trkpt lat="46.2410621643066" lon="6.88544321060181">
    <ele>1268.75549316406</ele>
    <time>2012-04-02T16:18:39Z</time>
   </trkpt>
   <trkpt lat="46.2410621643066" lon="6.8853907585144">
    <ele>1268.97778320312</ele>
    <time>2012-04-02T16:18:40Z</time>
   </trkpt>
   <trkpt lat="46.2410621643066" lon="6.88533926010132">
    <ele>1269.19995117188</ele>
    <time>2012-04-02T16:18:41Z</time>
   </trkpt>
   <trkpt lat="46.2410697937012" lon="6.8850827217102">
    <ele>1269.19995117188</ele>
    <time>2012-04-02T16:18:46Z</time>
   </trkpt>
   <trkpt lat="46.2410507202148" lon="6.88479709625244">
    <ele>1270.66662597656</ele>
    <time>2012-04-02T16:18:52Z</time>
   </trkpt>
   <trkpt lat="46.2410507202148" lon="6.88474893569946">
    <ele>1270.9111328125</ele>
    <time>2012-04-02T16:18:53Z</time>
   </trkpt>
   <trkpt lat="46.2410507202148" lon="6.88470315933228">
    <ele>1271.15551757812</ele>
    <time>2012-04-02T16:18:54Z</time>
   </trkpt>
   <trkpt lat="46.2410545349121" lon="6.88466262817383">
    <ele>1271.40002441406</ele>
    <time>2012-04-02T16:18:55Z</time>
   </trkpt>
   <trkpt lat="46.2410659790039" lon="6.88444232940674">
    <ele>1271.40002441406</ele>
    <time>2012-04-02T16:19:00Z</time>
   </trkpt>
   <trkpt lat="46.2410850524902" lon="6.88417720794678">
    <ele>1272.40002441406</ele>
    <time>2012-04-02T16:19:05Z</time>
   </trkpt>
   <trkpt lat="46.241096496582" lon="6.88408041000366">
    <ele>1272.80004882812</ele>
    <time>2012-04-02T16:19:07Z</time>
   </trkpt>
   <trkpt lat="46.2411041259766" lon="6.88402986526489">
    <ele>1273</ele>
    <time>2012-04-02T16:19:08Z</time>
   </trkpt>
   <trkpt lat="46.2411041259766" lon="6.88397979736328">
    <ele>1273.19995117188</ele>
    <time>2012-04-02T16:19:09Z</time>
   </trkpt>
   <trkpt lat="46.2411079406738" lon="6.88392925262451">
    <ele>1273.40002441406</ele>
    <time>2012-04-02T16:19:10Z</time>
   </trkpt>
   <trkpt lat="46.2411117553711" lon="6.88387966156006">
    <ele>1273.59997558594</ele>
    <time>2012-04-02T16:19:11Z</time>
   </trkpt>
   <trkpt lat="46.2411155700684" lon="6.8838267326355">
    <ele>1273.59997558594</ele>
    <time>2012-04-02T16:19:12Z</time>
   </trkpt>
   <trkpt lat="46.2411193847656" lon="6.88371706008911">
    <ele>1274.0400390625</ele>
    <time>2012-04-02T16:19:14Z</time>
   </trkpt>
   <trkpt lat="46.2411308288574" lon="6.88350486755371">
    <ele>1274.92004394531</ele>
    <time>2012-04-02T16:19:18Z</time>
   </trkpt>
   <trkpt lat="46.241138458252" lon="6.88345098495483">
    <ele>1275.14001464844</ele>
    <time>2012-04-02T16:19:19Z</time>
   </trkpt>
   <trkpt lat="46.2411422729492" lon="6.88339996337891">
    <ele>1275.35998535156</ele>
    <time>2012-04-02T16:19:20Z</time>
   </trkpt>
   <trkpt lat="46.2411460876465" lon="6.8833441734314">
    <ele>1275.580078125</ele>
    <time>2012-04-02T16:19:21Z</time>
   </trkpt>
   <trkpt lat="46.2411422729492" lon="6.88328647613525">
    <ele>1275.80004882812</ele>
    <time>2012-04-02T16:19:22Z</time>
   </trkpt>
   <trkpt lat="46.2411422729492" lon="6.88322973251343">
    <ele>1275.80004882812</ele>
    <time>2012-04-02T16:19:23Z</time>
   </trkpt>
   <trkpt lat="46.2411460876465" lon="6.88317728042602">
    <ele>1275.93334960938</ele>
    <time>2012-04-02T16:19:24Z</time>
   </trkpt>
   <trkpt lat="46.2411460876465" lon="6.88306379318237">
    <ele>1276.20007324219</ele>
    <time>2012-04-02T16:19:26Z</time>
   </trkpt>
   <trkpt lat="46.2411499023438" lon="6.88289546966553">
    <ele>1276.60009765625</ele>
    <time>2012-04-02T16:19:29Z</time>
   </trkpt>
   <trkpt lat="46.2411499023438" lon="6.88284158706665">
    <ele>1276.7333984375</ele>
    <time>2012-04-02T16:19:30Z</time>
   </trkpt>
   <trkpt lat="46.2411460876465" lon="6.88278341293335">
    <ele>1276.86669921875</ele>
    <time>2012-04-02T16:19:31Z</time>
   </trkpt>
   <trkpt lat="46.2411422729492" lon="6.8826003074646">
    <ele>1277.26672363281</ele>
    <time>2012-04-02T16:19:34Z</time>
   </trkpt>
   <trkpt lat="46.2411422729492" lon="6.88254308700562">
    <ele>1277.40002441406</ele>
    <time>2012-04-02T16:19:35Z</time>
   </trkpt>
   <trkpt lat="46.2411422729492" lon="6.882483959198">
    <ele>1277.53332519531</ele>
    <time>2012-04-02T16:19:36Z</time>
   </trkpt>
   <trkpt lat="46.2411460876465" lon="6.88242101669312">
    <ele>1277.66674804688</ele>
    <time>2012-04-02T16:19:37Z</time>
   </trkpt>
   <trkpt lat="46.2411422729492" lon="6.88236141204834">
    <ele>1277.80004882812</ele>
    <time>2012-04-02T16:19:38Z</time>
   </trkpt>
   <trkpt lat="46.241138458252" lon="6.88230037689209">
    <ele>1277.80004882812</ele>
    <time>2012-04-02T16:19:39Z</time>
   </trkpt>
   <trkpt lat="46.2411422729492" lon="6.88211965560913">
    <ele>1278.46667480469</ele>
    <time>2012-04-02T16:19:42Z</time>
   </trkpt>
   <trkpt lat="46.2411308288574" lon="6.8819899559021">
    <ele>1278.9111328125</ele>
    <time>2012-04-02T16:19:44Z</time>
   </trkpt>
   <trkpt lat="46.2411270141602" lon="6.88192653656006">
    <ele>1279.13342285156</ele>
    <time>2012-04-02T16:19:45Z</time>
   </trkpt>
   <trkpt lat="46.2411270141602" lon="6.88186454772949">
    <ele>1279.35559082031</ele>
    <time>2012-04-02T16:19:46Z</time>
   </trkpt>
   <trkpt lat="46.2411193847656" lon="6.88180351257324">
    <ele>1279.57788085938</ele>
    <time>2012-04-02T16:19:47Z</time>
   </trkpt>
   <trkpt lat="46.2411117553711" lon="6.88174343109131">
    <ele>1279.80004882812</ele>
    <time>2012-04-02T16:19:48Z</time>
   </trkpt>
   <trkpt lat="46.2411079406738" lon="6.88167905807495">
    <ele>1279.80004882812</ele>
    <time>2012-04-02T16:19:49Z</time>
   </trkpt>
   <trkpt lat="46.2411041259766" lon="6.88161754608154">
    <ele>1279.92504882812</ele>
    <time>2012-04-02T16:19:50Z</time>
   </trkpt>
   <trkpt lat="46.2410621643066" lon="6.88139772415161">
    <ele>1280.42504882812</ele>
    <time>2012-04-02T16:19:54Z</time>
   </trkpt>
   <trkpt lat="46.2410469055176" lon="6.88134098052978">
    <ele>1280.55004882812</ele>
    <time>2012-04-02T16:19:55Z</time>
   </trkpt>
   <trkpt lat="46.2410011291504" lon="6.88099241256714">
    <ele>1281.30004882812</ele>
    <time>2012-04-02T16:20:01Z</time>
   </trkpt>
   <trkpt lat="46.2409934997559" lon="6.88094091415405">
    <ele>1281.42504882812</ele>
    <time>2012-04-02T16:20:02Z</time>
   </trkpt>
   <trkpt lat="46.2409858703613" lon="6.88088750839233">
    <ele>1281.55004882812</ele>
    <time>2012-04-02T16:20:03Z</time>
   </trkpt>
   <trkpt lat="46.2409820556641" lon="6.88082838058472">
    <ele>1281.67504882812</ele>
    <time>2012-04-02T16:20:04Z</time>
   </trkpt>
   <trkpt lat="46.2409744262695" lon="6.88077449798584">
    <ele>1281.80004882812</ele>
    <time>2012-04-02T16:20:05Z</time>
   </trkpt>
   <trkpt lat="46.2409553527832" lon="6.8806619644165">
    <ele>1281.80004882812</ele>
    <time>2012-04-02T16:20:07Z</time>
   </trkpt>
   <trkpt lat="46.2408905029297" lon="6.88011932373047">
    <ele>1283.21435546875</ele>
    <time>2012-04-02T16:20:16Z</time>
   </trkpt>
   <trkpt lat="46.2408828735352" lon="6.88005828857422">
    <ele>1283.37145996094</ele>
    <time>2012-04-02T16:20:17Z</time>
   </trkpt>
   <trkpt lat="46.2408752441406" lon="6.87999725341797">
    <ele>1283.52856445312</ele>
    <time>2012-04-02T16:20:18Z</time>
   </trkpt>
   <trkpt lat="46.2408714294434" lon="6.87993240356445">
    <ele>1283.68566894531</ele>
    <time>2012-04-02T16:20:19Z</time>
   </trkpt>
   <trkpt lat="46.2408676147461" lon="6.87986898422241">
    <ele>1283.84289550781</ele>
    <time>2012-04-02T16:20:20Z</time>
   </trkpt>
   <trkpt lat="46.2408638000488" lon="6.87980699539185">
    <ele>1284</ele>
    <time>2012-04-02T16:20:21Z</time>
   </trkpt>
   <trkpt lat="46.240852355957" lon="6.87962770462036">
    <ele>1284</ele>
    <time>2012-04-02T16:20:24Z</time>
   </trkpt>
   <trkpt lat="46.2408218383789" lon="6.87915277481079">
    <ele>1284.80004882812</ele>
    <time>2012-04-02T16:20:32Z</time>
   </trkpt>
   <trkpt lat="46.2408142089844" lon="6.87886190414429">
    <ele>1285.30004882812</ele>
    <time>2012-04-02T16:20:37Z</time>
   </trkpt>
   <trkpt lat="46.2408027648926" lon="6.87874937057495">
    <ele>1285.5</ele>
    <time>2012-04-02T16:20:39Z</time>
   </trkpt>
   <trkpt lat="46.240795135498" lon="6.87869119644165">
    <ele>1285.59997558594</ele>
    <time>2012-04-02T16:20:40Z</time>
   </trkpt>
   <trkpt lat="46.2407913208008" lon="6.87862968444824">
    <ele>1285.69995117188</ele>
    <time>2012-04-02T16:20:41Z</time>
   </trkpt>
   <trkpt lat="46.2407875061035" lon="6.87857055664062">
    <ele>1285.80004882812</ele>
    <time>2012-04-02T16:20:42Z</time>
   </trkpt>
   <trkpt lat="46.2407836914062" lon="6.87851190567017">
    <ele>1285.90002441406</ele>
    <time>2012-04-02T16:20:43Z</time>
   </trkpt>
   <trkpt lat="46.2407760620117" lon="6.87845087051392">
    <ele>1286</ele>
    <time>2012-04-02T16:20:44Z</time>
   </trkpt>
   <trkpt lat="46.2407569885254" lon="6.87832498550415">
    <ele>1286</ele>
    <time>2012-04-02T16:20:46Z</time>
   </trkpt>
   <trkpt lat="46.2406997680664" lon="6.87790441513062">
    <ele>1286.427734375</ele>
    <time>2012-04-02T16:20:53Z</time>
   </trkpt>
   <trkpt lat="46.2406845092773" lon="6.87779092788696">
    <ele>1286.55004882812</ele>
    <time>2012-04-02T16:20:55Z</time>
   </trkpt>
   <trkpt lat="46.2406730651856" lon="6.87767267227173">
    <ele>1286.67224121094</ele>
    <time>2012-04-02T16:20:57Z</time>
   </trkpt>
   <trkpt lat="46.2406425476074" lon="6.87749910354614">
    <ele>1286.85559082031</ele>
    <time>2012-04-02T16:21:00Z</time>
   </trkpt>
   <trkpt lat="46.2406120300293" lon="6.87738752365112">
    <ele>1286.97778320312</ele>
    <time>2012-04-02T16:21:02Z</time>
   </trkpt>
   <trkpt lat="46.2405776977539" lon="6.87726449966431">
    <ele>1287.09997558594</ele>
    <time>2012-04-02T16:21:04Z</time>
   </trkpt>
   <trkpt lat="46.2405700683594" lon="6.87720489501953">
    <ele>1287.1611328125</ele>
    <time>2012-04-02T16:21:05Z</time>
   </trkpt>
   <trkpt lat="46.2405052185059" lon="6.87682390213013">
    <ele>1287.52770996094</ele>
    <time>2012-04-02T16:21:11Z</time>
   </trkpt>
   <trkpt lat="46.2404937744141" lon="6.87675952911377">
    <ele>1287.5888671875</ele>
    <time>2012-04-02T16:21:12Z</time>
   </trkpt>
   <trkpt lat="46.2404479980469" lon="6.87656831741333">
    <ele>1287.77221679688</ele>
    <time>2012-04-02T16:21:15Z</time>
   </trkpt>
   <trkpt lat="46.2404365539551" lon="6.8765025138855">
    <ele>1287.83325195312</ele>
    <time>2012-04-02T16:21:16Z</time>
   </trkpt>
   <trkpt lat="46.2404251098633" lon="6.87643384933472">
    <ele>1287.89440917969</ele>
    <time>2012-04-02T16:21:17Z</time>
   </trkpt>
   <trkpt lat="46.2403907775879" lon="6.87628793716431">
    <ele>1288.0166015625</ele>
    <time>2012-04-02T16:21:19Z</time>
   </trkpt>
   <trkpt lat="46.2403793334961" lon="6.87621450424194">
    <ele>1288.07775878906</ele>
    <time>2012-04-02T16:21:20Z</time>
   </trkpt>
   <trkpt lat="46.2403717041016" lon="6.87614345550537">
    <ele>1288.13879394531</ele>
    <time>2012-04-02T16:21:21Z</time>
   </trkpt>
   <trkpt lat="46.2403602600098" lon="6.87607383728027">
    <ele>1288.19995117188</ele>
    <time>2012-04-02T16:21:22Z</time>
   </trkpt>
   <trkpt lat="46.240306854248" lon="6.8757266998291">
    <ele>1288.19995117188</ele>
    <time>2012-04-02T16:21:27Z</time>
   </trkpt>
   <trkpt lat="46.2402839660644" lon="6.87558555603027">
    <ele>1288.30249023438</ele>
    <time>2012-04-02T16:21:29Z</time>
   </trkpt>
   <trkpt lat="46.2401885986328" lon="6.87495946884155">
    <ele>1288.76403808594</ele>
    <time>2012-04-02T16:21:38Z</time>
   </trkpt>
   <trkpt lat="46.2401580810547" lon="6.87474536895752">
    <ele>1288.91784667969</ele>
    <time>2012-04-02T16:21:41Z</time>
   </trkpt>
   <trkpt lat="46.2401428222656" lon="6.87459945678711">
    <ele>1289.0205078125</ele>
    <time>2012-04-02T16:21:43Z</time>
   </trkpt>
   <trkpt lat="46.2401237487793" lon="6.87445402145386">
    <ele>1289.123046875</ele>
    <time>2012-04-02T16:21:45Z</time>
   </trkpt>
   <trkpt lat="46.2400856018066" lon="6.87416076660156">
    <ele>1289.328125</ele>
    <time>2012-04-02T16:21:49Z</time>
   </trkpt>
   <trkpt lat="46.2400398254394" lon="6.87373161315918">
    <ele>1289.63586425781</ele>
    <time>2012-04-02T16:21:55Z</time>
   </trkpt>
   <trkpt lat="46.239990234375" lon="6.8733320236206">
    <ele>1289.94348144531</ele>
    <time>2012-04-02T16:22:01Z</time>
   </trkpt>
   <trkpt lat="46.2399787902832" lon="6.87326908111572">
    <ele>1289.99487304688</ele>
    <time>2012-04-02T16:22:02Z</time>
   </trkpt>
   <trkpt lat="46.2399673461914" lon="6.87320756912232">
    <ele>1290.04614257812</ele>
    <time>2012-04-02T16:22:03Z</time>
   </trkpt>
   <trkpt lat="46.2399559020996" lon="6.87314605712891">
    <ele>1290.09741210938</ele>
    <time>2012-04-02T16:22:04Z</time>
   </trkpt>
   <trkpt lat="46.2399482727051" lon="6.87308073043823">
    <ele>1290.14868164062</ele>
    <time>2012-04-02T16:22:05Z</time>
   </trkpt>
   <trkpt lat="46.2399406433106" lon="6.87302160263062">
    <ele>1290.19995117188</ele>
    <time>2012-04-02T16:22:06Z</time>
   </trkpt>
   <trkpt lat="46.2399139404297" lon="6.87289953231812">
    <ele>1290.19995117188</ele>
    <time>2012-04-02T16:22:08Z</time>
   </trkpt>
   <trkpt lat="46.2398338317871" lon="6.87242460250854">
    <ele>1291</ele>
    <time>2012-04-02T16:22:16Z</time>
   </trkpt>
   <trkpt lat="46.2397346496582" lon="6.8720211982727">
    <ele>1291.69995117188</ele>
    <time>2012-04-02T16:22:23Z</time>
   </trkpt>
   <trkpt lat="46.2397193908691" lon="6.8719630241394">
    <ele>1291.79992675781</ele>
    <time>2012-04-02T16:22:24Z</time>
   </trkpt>
   <trkpt lat="46.2397041320801" lon="6.87190580368042">
    <ele>1291.89990234375</ele>
    <time>2012-04-02T16:22:25Z</time>
   </trkpt>
   <trkpt lat="46.239688873291" lon="6.87184906005859">
    <ele>1292</ele>
    <time>2012-04-02T16:22:26Z</time>
   </trkpt>
   <trkpt lat="46.239673614502" lon="6.87179279327393">
    <ele>1292.09997558594</ele>
    <time>2012-04-02T16:22:27Z</time>
   </trkpt>
   <trkpt lat="46.2396583557129" lon="6.87173557281494">
    <ele>1292.19995117188</ele>
    <time>2012-04-02T16:22:28Z</time>
   </trkpt>
   <trkpt lat="46.2396240234375" lon="6.87162446975708">
    <ele>1292.19995117188</ele>
    <time>2012-04-02T16:22:30Z</time>
   </trkpt>
   <trkpt lat="46.239559173584" lon="6.87140607833862">
    <ele>1292.71765136719</ele>
    <time>2012-04-02T16:22:34Z</time>
   </trkpt>
   <trkpt lat="46.2395248413086" lon="6.87129497528076">
    <ele>1292.97644042969</ele>
    <time>2012-04-02T16:22:36Z</time>
   </trkpt>
   <trkpt lat="46.2394104003906" lon="6.87090253829956">
    <ele>1293.88232421875</ele>
    <time>2012-04-02T16:22:43Z</time>
   </trkpt>
   <trkpt lat="46.2393989562988" lon="6.87084865570068">
    <ele>1294.01171875</ele>
    <time>2012-04-02T16:22:44Z</time>
   </trkpt>
   <trkpt lat="46.2393836975098" lon="6.87079572677612">
    <ele>1294.14123535156</ele>
    <time>2012-04-02T16:22:45Z</time>
   </trkpt>
   <trkpt lat="46.2393684387207" lon="6.8707423210144">
    <ele>1294.27062988281</ele>
    <time>2012-04-02T16:22:46Z</time>
   </trkpt>
   <trkpt lat="46.2393493652344" lon="6.87068700790405">
    <ele>1294.40002441406</ele>
    <time>2012-04-02T16:22:47Z</time>
   </trkpt>
   <trkpt lat="46.2392921447754" lon="6.87046718597412">
    <ele>1294.40002441406</ele>
    <time>2012-04-02T16:22:51Z</time>
   </trkpt>
   <trkpt lat="46.2391891479492" lon="6.87001180648804">
    <ele>1295.57336425781</ele>
    <time>2012-04-02T16:22:59Z</time>
   </trkpt>
   <trkpt lat="46.2391548156738" lon="6.86984157562256">
    <ele>1296.01330566406</ele>
    <time>2012-04-02T16:23:02Z</time>
   </trkpt>
   <trkpt lat="46.2391471862793" lon="6.86978197097778">
    <ele>1296.16003417969</ele>
    <time>2012-04-02T16:23:03Z</time>
   </trkpt>
   <trkpt lat="46.2391395568848" lon="6.86972284317017">
    <ele>1296.306640625</ele>
    <time>2012-04-02T16:23:04Z</time>
   </trkpt>
   <trkpt lat="46.2391319274902" lon="6.86966180801392">
    <ele>1296.45336914062</ele>
    <time>2012-04-02T16:23:05Z</time>
   </trkpt>
   <trkpt lat="46.2391242980957" lon="6.86960458755493">
    <ele>1296.59997558594</ele>
    <time>2012-04-02T16:23:06Z</time>
   </trkpt>
   <trkpt lat="46.2391166687012" lon="6.86954593658447">
    <ele>1296.59997558594</ele>
    <time>2012-04-02T16:23:07Z</time>
   </trkpt>
   <trkpt lat="46.2390785217285" lon="6.8691782951355">
    <ele>1297.79992675781</ele>
    <time>2012-04-02T16:23:13Z</time>
   </trkpt>
   <trkpt lat="46.239070892334" lon="6.86911678314209">
    <ele>1298</ele>
    <time>2012-04-02T16:23:14Z</time>
   </trkpt>
   <trkpt lat="46.2390670776367" lon="6.86905574798584">
    <ele>1298.19995117188</ele>
    <time>2012-04-02T16:23:15Z</time>
   </trkpt>
   <trkpt lat="46.2390670776367" lon="6.86899662017822">
    <ele>1298.40002441406</ele>
    <time>2012-04-02T16:23:16Z</time>
   </trkpt>
   <trkpt lat="46.2390632629394" lon="6.86893796920776">
    <ele>1298.59997558594</ele>
    <time>2012-04-02T16:23:17Z</time>
   </trkpt>
   <trkpt lat="46.239070892334" lon="6.86876106262207">
    <ele>1298.59997558594</ele>
    <time>2012-04-02T16:23:20Z</time>
   </trkpt>
   <trkpt lat="46.2390670776367" lon="6.86858701705933">
    <ele>1299</ele>
    <time>2012-04-02T16:23:23Z</time>
   </trkpt>
   <trkpt lat="46.2390747070312" lon="6.86846923828125">
    <ele>1299.2666015625</ele>
    <time>2012-04-02T16:23:25Z</time>
   </trkpt>
   <trkpt lat="46.2390747070312" lon="6.86815643310547">
    <ele>1299.93334960938</ele>
    <time>2012-04-02T16:23:30Z</time>
   </trkpt>
   <trkpt lat="46.2390747070312" lon="6.86809301376343">
    <ele>1300.06665039062</ele>
    <time>2012-04-02T16:23:31Z</time>
   </trkpt>
   <trkpt lat="46.2390747070312" lon="6.86803388595581">
    <ele>1300.19995117188</ele>
    <time>2012-04-02T16:23:32Z</time>
   </trkpt>
   <trkpt lat="46.2390785217285" lon="6.86797332763672">
    <ele>1300.33325195312</ele>
    <time>2012-04-02T16:23:33Z</time>
   </trkpt>
   <trkpt lat="46.2390785217285" lon="6.86791086196899">
    <ele>1300.46667480469</ele>
    <time>2012-04-02T16:23:34Z</time>
   </trkpt>
   <trkpt lat="46.2390823364258" lon="6.86785173416138">
    <ele>1300.59997558594</ele>
    <time>2012-04-02T16:23:35Z</time>
   </trkpt>
   <trkpt lat="46.2390899658203" lon="6.86766815185547">
    <ele>1300.59997558594</ele>
    <time>2012-04-02T16:23:38Z</time>
   </trkpt>
   <trkpt lat="46.239086151123" lon="6.86741828918457">
    <ele>1301.04443359375</ele>
    <time>2012-04-02T16:23:42Z</time>
   </trkpt>
   <trkpt lat="46.2390899658203" lon="6.86729431152344">
    <ele>1301.2666015625</ele>
    <time>2012-04-02T16:23:44Z</time>
   </trkpt>
   <trkpt lat="46.2390937805176" lon="6.86691188812256">
    <ele>1301.93334960938</ele>
    <time>2012-04-02T16:23:50Z</time>
   </trkpt>
   <trkpt lat="46.2390937805176" lon="6.8668532371521">
    <ele>1302.04443359375</ele>
    <time>2012-04-02T16:23:51Z</time>
   </trkpt>
   <trkpt lat="46.2390937805176" lon="6.86679267883301">
    <ele>1302.15551757812</ele>
    <time>2012-04-02T16:23:52Z</time>
   </trkpt>
   <trkpt lat="46.2390937805176" lon="6.86673307418823">
    <ele>1302.2666015625</ele>
    <time>2012-04-02T16:23:53Z</time>
   </trkpt>
   <trkpt lat="46.2390937805176" lon="6.86667203903198">
    <ele>1302.37780761719</ele>
    <time>2012-04-02T16:23:54Z</time>
   </trkpt>
   <trkpt lat="46.2390899658203" lon="6.86661148071289">
    <ele>1302.48889160156</ele>
    <time>2012-04-02T16:23:55Z</time>
   </trkpt>
   <trkpt lat="46.239086151123" lon="6.86655235290527">
    <ele>1302.59997558594</ele>
    <time>2012-04-02T16:23:56Z</time>
   </trkpt>
   <trkpt lat="46.2390785217285" lon="6.8664927482605">
    <ele>1302.59997558594</ele>
    <time>2012-04-02T16:23:57Z</time>
   </trkpt>
   <trkpt lat="46.2390670776367" lon="6.8663763999939">
    <ele>1302.80944824219</ele>
    <time>2012-04-02T16:23:59Z</time>
   </trkpt>
   <trkpt lat="46.2390403747559" lon="6.86620140075684">
    <ele>1303.12377929688</ele>
    <time>2012-04-02T16:24:02Z</time>
   </trkpt>
   <trkpt lat="46.2390327453613" lon="6.8661470413208">
    <ele>1303.228515625</ele>
    <time>2012-04-02T16:24:03Z</time>
   </trkpt>
   <trkpt lat="46.2389259338379" lon="6.86570978164673">
    <ele>1304.06665039062</ele>
    <time>2012-04-02T16:24:11Z</time>
   </trkpt>
   <trkpt lat="46.2388725280762" lon="6.86554288864136">
    <ele>1304.38098144531</ele>
    <time>2012-04-02T16:24:14Z</time>
   </trkpt>
   <trkpt lat="46.2388610839844" lon="6.86548328399658">
    <ele>1304.48571777344</ele>
    <time>2012-04-02T16:24:15Z</time>
   </trkpt>
   <trkpt lat="46.2388458251953" lon="6.86542749404907">
    <ele>1304.59057617188</ele>
    <time>2012-04-02T16:24:16Z</time>
   </trkpt>
   <trkpt lat="46.2388343811035" lon="6.86537265777588">
    <ele>1304.6953125</ele>
    <time>2012-04-02T16:24:17Z</time>
   </trkpt>
   <trkpt lat="46.238826751709" lon="6.86532258987427">
    <ele>1304.80004882812</ele>
    <time>2012-04-02T16:24:18Z</time>
   </trkpt>
   <trkpt lat="46.2387504577637" lon="6.8650803565979">
    <ele>1304.80004882812</ele>
    <time>2012-04-02T16:24:22Z</time>
   </trkpt>
   <trkpt lat="46.2387275695801" lon="6.86501932144165">
    <ele>1304.91772460938</ele>
    <time>2012-04-02T16:24:23Z</time>
   </trkpt>
   <trkpt lat="46.2386169433594" lon="6.86452198028564">
    <ele>1305.85888671875</ele>
    <time>2012-04-02T16:24:31Z</time>
   </trkpt>
   <trkpt lat="46.2385940551758" lon="6.86433267593384">
    <ele>1306.21179199219</ele>
    <time>2012-04-02T16:24:34Z</time>
   </trkpt>
   <trkpt lat="46.2385902404785" lon="6.86426591873169">
    <ele>1306.32946777344</ele>
    <time>2012-04-02T16:24:35Z</time>
   </trkpt>
   <trkpt lat="46.2385864257812" lon="6.86420011520386">
    <ele>1306.44714355469</ele>
    <time>2012-04-02T16:24:36Z</time>
   </trkpt>
   <trkpt lat="46.238582611084" lon="6.8641357421875">
    <ele>1306.56469726562</ele>
    <time>2012-04-02T16:24:37Z</time>
   </trkpt>
   <trkpt lat="46.238582611084" lon="6.86407423019409">
    <ele>1306.68237304688</ele>
    <time>2012-04-02T16:24:38Z</time>
   </trkpt>
   <trkpt lat="46.238582611084" lon="6.86401462554932">
    <ele>1306.80004882812</ele>
    <time>2012-04-02T16:24:39Z</time>
   </trkpt>
   <trkpt lat="46.2385787963867" lon="6.86365699768066">
    <ele>1306.80004882812</ele>
    <time>2012-04-02T16:24:45Z</time>
   </trkpt>
   <trkpt lat="46.2385787963867" lon="6.86359643936157">
    <ele>1307.04443359375</ele>
    <time>2012-04-02T16:24:46Z</time>
   </trkpt>
   <trkpt lat="46.2385902404785" lon="6.86335611343384">
    <ele>1308.02221679688</ele>
    <time>2012-04-02T16:24:50Z</time>
   </trkpt>
   <trkpt lat="46.2385902404785" lon="6.86329698562622">
    <ele>1308.26672363281</ele>
    <time>2012-04-02T16:24:51Z</time>
   </trkpt>
   <trkpt lat="46.2385902404785" lon="6.86323642730713">
    <ele>1308.51110839844</ele>
    <time>2012-04-02T16:24:52Z</time>
   </trkpt>
   <trkpt lat="46.2385902404785" lon="6.86317777633667">
    <ele>1308.75561523438</ele>
    <time>2012-04-02T16:24:53Z</time>
   </trkpt>
   <trkpt lat="46.2385902404785" lon="6.86311912536621">
    <ele>1309</ele>
    <time>2012-04-02T16:24:54Z</time>
   </trkpt>
   <trkpt lat="46.2385940551758" lon="6.86286640167236">
    <ele>1309</ele>
    <time>2012-04-02T16:24:58Z</time>
   </trkpt>
   <trkpt lat="46.2386016845703" lon="6.86249494552612">
    <ele>1309.80004882812</ele>
    <time>2012-04-02T16:25:04Z</time>
   </trkpt>
   <trkpt lat="46.238597869873" lon="6.86218070983887">
    <ele>1310.46667480469</ele>
    <time>2012-04-02T16:25:09Z</time>
   </trkpt>
   <trkpt lat="46.2385940551758" lon="6.86211967468262">
    <ele>1310.59997558594</ele>
    <time>2012-04-02T16:25:10Z</time>
   </trkpt>
   <trkpt lat="46.2385940551758" lon="6.862060546875">
    <ele>1310.73327636719</ele>
    <time>2012-04-02T16:25:11Z</time>
   </trkpt>
   <trkpt lat="46.2385902404785" lon="6.86199855804443">
    <ele>1310.86669921875</ele>
    <time>2012-04-02T16:25:12Z</time>
   </trkpt>
   <trkpt lat="46.2385902404785" lon="6.86193418502808">
    <ele>1311</ele>
    <time>2012-04-02T16:25:13Z</time>
   </trkpt>
   <trkpt lat="46.2385482788086" lon="6.86158990859985">
    <ele>1311</ele>
    <time>2012-04-02T16:25:19Z</time>
   </trkpt>
   <trkpt lat="46.2385368347168" lon="6.86153221130371">
    <ele>1311.18176269531</ele>
    <time>2012-04-02T16:25:20Z</time>
   </trkpt>
   <trkpt lat="46.2384300231934" lon="6.86126613616943">
    <ele>1312.09094238281</ele>
    <time>2012-04-02T16:25:25Z</time>
   </trkpt>
   <trkpt lat="46.2384033203125" lon="6.86122369766235">
    <ele>1312.27270507812</ele>
    <time>2012-04-02T16:25:26Z</time>
   </trkpt>
   <trkpt lat="46.2383766174316" lon="6.86117553710938">
    <ele>1312.45458984375</ele>
    <time>2012-04-02T16:25:27Z</time>
   </trkpt>
   <trkpt lat="46.2383460998535" lon="6.86112928390503">
    <ele>1312.63635253906</ele>
    <time>2012-04-02T16:25:28Z</time>
   </trkpt>
   <trkpt lat="46.2383193969727" lon="6.86108684539795">
    <ele>1312.81823730469</ele>
    <time>2012-04-02T16:25:29Z</time>
   </trkpt>
   <trkpt lat="46.2382850646973" lon="6.86104583740234">
    <ele>1313</ele>
    <time>2012-04-02T16:25:30Z</time>
   </trkpt>
   <trkpt lat="46.2382507324219" lon="6.86100196838379">
    <ele>1313</ele>
    <time>2012-04-02T16:25:31Z</time>
   </trkpt>
   <trkpt lat="46.238208770752" lon="6.86096477508545">
    <ele>1313.09228515625</ele>
    <time>2012-04-02T16:25:32Z</time>
   </trkpt>
   <trkpt lat="46.2380523681641" lon="6.86082172393799">
    <ele>1313.46154785156</ele>
    <time>2012-04-02T16:25:36Z</time>
   </trkpt>
   <trkpt lat="46.2378540039062" lon="6.86064338684082">
    <ele>1313.92309570312</ele>
    <time>2012-04-02T16:25:41Z</time>
   </trkpt>
   <trkpt lat="46.2377738952637" lon="6.86056041717529">
    <ele>1314.10766601562</ele>
    <time>2012-04-02T16:25:43Z</time>
   </trkpt>
   <trkpt lat="46.2374877929688" lon="6.86021518707275">
    <ele>1314.84619140625</ele>
    <time>2012-04-02T16:25:51Z</time>
   </trkpt>
   <trkpt lat="46.2374305725098" lon="6.86012268066406">
    <ele>1315.03076171875</ele>
    <time>2012-04-02T16:25:53Z</time>
   </trkpt>
   <trkpt lat="46.2374076843262" lon="6.86007308959961">
    <ele>1315.123046875</ele>
    <time>2012-04-02T16:25:54Z</time>
   </trkpt>
   <trkpt lat="46.2373847961426" lon="6.86001491546631">
    <ele>1315.21545410156</ele>
    <time>2012-04-02T16:25:55Z</time>
   </trkpt>
   <trkpt lat="46.2373733520508" lon="6.85995244979858">
    <ele>1315.30773925781</ele>
    <time>2012-04-02T16:25:56Z</time>
   </trkpt>
   <trkpt lat="46.2373695373535" lon="6.85988903045654">
    <ele>1315.40002441406</ele>
    <time>2012-04-02T16:25:57Z</time>
   </trkpt>
   <trkpt lat="46.2374038696289" lon="6.85971641540527">
    <ele>1315.40002441406</ele>
    <time>2012-04-02T16:26:00Z</time>
   </trkpt>
   <trkpt lat="46.2374382019043" lon="6.85961961746216">
    <ele>1315.90002441406</ele>
    <time>2012-04-02T16:26:02Z</time>
   </trkpt>
   <trkpt lat="46.2374687194824" lon="6.85951900482178">
    <ele>1316.40002441406</ele>
    <time>2012-04-02T16:26:04Z</time>
   </trkpt>
   <trkpt lat="46.237491607666" lon="6.85946941375732">
    <ele>1316.65002441406</ele>
    <time>2012-04-02T16:26:05Z</time>
   </trkpt>
   <trkpt lat="46.2375144958496" lon="6.85941886901856">
    <ele>1316.90002441406</ele>
    <time>2012-04-02T16:26:06Z</time>
   </trkpt>
   <trkpt lat="46.2375297546387" lon="6.85936498641968">
    <ele>1317.15002441406</ele>
    <time>2012-04-02T16:26:07Z</time>
   </trkpt>
   <trkpt lat="46.2375411987305" lon="6.85931444168091">
    <ele>1317.40002441406</ele>
    <time>2012-04-02T16:26:08Z</time>
   </trkpt>
   <trkpt lat="46.2376251220703" lon="6.85894584655762">
    <ele>1317.40002441406</ele>
    <time>2012-04-02T16:26:15Z</time>
   </trkpt>
   <trkpt lat="46.2376327514648" lon="6.8588809967041">
    <ele>1317.90002441406</ele>
    <time>2012-04-02T16:26:16Z</time>
   </trkpt>
   <trkpt lat="46.2376327514648" lon="6.85881948471069">
    <ele>1318.40002441406</ele>
    <time>2012-04-02T16:26:17Z</time>
   </trkpt>
   <trkpt lat="46.2376327514648" lon="6.85876178741455">
    <ele>1318.90002441406</ele>
    <time>2012-04-02T16:26:18Z</time>
   </trkpt>
   <trkpt lat="46.2376289367676" lon="6.8587007522583">
    <ele>1319.40002441406</ele>
    <time>2012-04-02T16:26:19Z</time>
   </trkpt>
   <trkpt lat="46.2375907897949" lon="6.8583459854126">
    <ele>1319.40002441406</ele>
    <time>2012-04-02T16:26:25Z</time>
   </trkpt>
   <trkpt lat="46.2375564575195" lon="6.85802221298218">
    <ele>1320.13330078125</ele>
    <time>2012-04-02T16:26:31Z</time>
   </trkpt>
   <trkpt lat="46.2375183105469" lon="6.8577446937561">
    <ele>1320.74438476562</ele>
    <time>2012-04-02T16:26:36Z</time>
   </trkpt>
   <trkpt lat="46.2374992370606" lon="6.85763788223267">
    <ele>1320.98889160156</ele>
    <time>2012-04-02T16:26:38Z</time>
   </trkpt>
   <trkpt lat="46.2374801635742" lon="6.8575234413147">
    <ele>1321.23327636719</ele>
    <time>2012-04-02T16:26:40Z</time>
   </trkpt>
   <trkpt lat="46.2374687194824" lon="6.85746812820435">
    <ele>1321.35559082031</ele>
    <time>2012-04-02T16:26:41Z</time>
   </trkpt>
   <trkpt lat="46.2374534606934" lon="6.85741376876831">
    <ele>1321.47778320312</ele>
    <time>2012-04-02T16:26:42Z</time>
   </trkpt>
   <trkpt lat="46.2374382019043" lon="6.85736179351807">
    <ele>1321.59997558594</ele>
    <time>2012-04-02T16:26:43Z</time>
   </trkpt>
   <trkpt lat="46.2374000549316" lon="6.85719585418701">
    <ele>1321.59997558594</ele>
    <time>2012-04-02T16:26:46Z</time>
   </trkpt>
   <trkpt lat="46.2372970581055" lon="6.85682439804077">
    <ele>1322.505859375</ele>
    <time>2012-04-02T16:26:53Z</time>
   </trkpt>
   <trkpt lat="46.2372283935547" lon="6.85656881332398">
    <ele>1323.15295410156</ele>
    <time>2012-04-02T16:26:58Z</time>
   </trkpt>
   <trkpt lat="46.2372169494629" lon="6.85651874542236">
    <ele>1323.28234863281</ele>
    <time>2012-04-02T16:26:59Z</time>
   </trkpt>
   <trkpt lat="46.2372055053711" lon="6.85646820068359">
    <ele>1323.41174316406</ele>
    <time>2012-04-02T16:27:00Z</time>
   </trkpt>
   <trkpt lat="46.2371978759766" lon="6.8564190864563">
    <ele>1323.54125976562</ele>
    <time>2012-04-02T16:27:01Z</time>
   </trkpt>
   <trkpt lat="46.237190246582" lon="6.856369972229">
    <ele>1323.67065429688</ele>
    <time>2012-04-02T16:27:02Z</time>
   </trkpt>
   <trkpt lat="46.2371826171875" lon="6.85632181167602">
    <ele>1323.80004882812</ele>
    <time>2012-04-02T16:27:03Z</time>
   </trkpt>
   <trkpt lat="46.2371711730957" lon="6.8562741279602">
    <ele>1323.80004882812</ele>
    <time>2012-04-02T16:27:04Z</time>
   </trkpt>
   <trkpt lat="46.237133026123" lon="6.85613918304443">
    <ele>1324.6572265625</ele>
    <time>2012-04-02T16:27:07Z</time>
   </trkpt>
   <trkpt lat="46.237117767334" lon="6.85610055923462">
    <ele>1324.94287109375</ele>
    <time>2012-04-02T16:27:08Z</time>
   </trkpt>
   <trkpt lat="46.2371025085449" lon="6.85606050491333">
    <ele>1325.22863769531</ele>
    <time>2012-04-02T16:27:09Z</time>
   </trkpt>
   <trkpt lat="46.2370910644531" lon="6.85601615905762">
    <ele>1325.51428222656</ele>
    <time>2012-04-02T16:27:10Z</time>
   </trkpt>
   <trkpt lat="46.2370796203613" lon="6.85596895217896">
    <ele>1325.80004882812</ele>
    <time>2012-04-02T16:27:11Z</time>
   </trkpt>
   <trkpt lat="46.2370262145996" lon="6.85579681396484">
    <ele>1325.80004882812</ele>
    <time>2012-04-02T16:27:15Z</time>
   </trkpt>
   <trkpt lat="46.2370147705078" lon="6.85574579238892">
    <ele>1326.28002929688</ele>
    <time>2012-04-02T16:27:16Z</time>
   </trkpt>
   <trkpt lat="46.2370109558106" lon="6.85569953918457">
    <ele>1326.76000976562</ele>
    <time>2012-04-02T16:27:17Z</time>
   </trkpt>
   <trkpt lat="46.2370071411133" lon="6.85565567016602">
    <ele>1327.23999023438</ele>
    <time>2012-04-02T16:27:18Z</time>
   </trkpt>
   <trkpt lat="46.2370071411133" lon="6.85561180114746">
    <ele>1327.71997070312</ele>
    <time>2012-04-02T16:27:19Z</time>
   </trkpt>
   <trkpt lat="46.237003326416" lon="6.85556602478027">
    <ele>1328.19995117188</ele>
    <time>2012-04-02T16:27:20Z</time>
   </trkpt>
   <trkpt lat="46.237003326416" lon="6.85552024841309">
    <ele>1328.19995117188</ele>
    <time>2012-04-02T16:27:21Z</time>
   </trkpt>
   <trkpt lat="46.236988067627" lon="6.85534143447876">
    <ele>1329.2666015625</ele>
    <time>2012-04-02T16:27:25Z</time>
   </trkpt>
   <trkpt lat="46.236988067627" lon="6.8552975654602">
    <ele>1329.53332519531</ele>
    <time>2012-04-02T16:27:26Z</time>
   </trkpt>
   <trkpt lat="46.2369842529297" lon="6.85524988174438">
    <ele>1329.79992675781</ele>
    <time>2012-04-02T16:27:27Z</time>
   </trkpt>
   <trkpt lat="46.2369842529297" lon="6.85520029067993">
    <ele>1330.06665039062</ele>
    <time>2012-04-02T16:27:28Z</time>
   </trkpt>
   <trkpt lat="46.236988067627" lon="6.85515785217285">
    <ele>1330.33325195312</ele>
    <time>2012-04-02T16:27:29Z</time>
   </trkpt>
   <trkpt lat="46.2370071411133" lon="6.85500717163086">
    <ele>1331.13330078125</ele>
    <time>2012-04-02T16:27:32Z</time>
   </trkpt>
   <trkpt lat="46.237003326416" lon="6.8549599647522">
    <ele>1331.39990234375</ele>
    <time>2012-04-02T16:27:33Z</time>
   </trkpt>
   <trkpt lat="46.2370071411133" lon="6.85491609573364">
    <ele>1331.66662597656</ele>
    <time>2012-04-02T16:27:34Z</time>
   </trkpt>
   <trkpt lat="46.2370071411133" lon="6.85487174987793">
    <ele>1331.93322753906</ele>
    <time>2012-04-02T16:27:35Z</time>
   </trkpt>
   <trkpt lat="46.2370071411133" lon="6.85482835769653">
    <ele>1332.19995117188</ele>
    <time>2012-04-02T16:27:36Z</time>
   </trkpt>
   <trkpt lat="46.2370147705078" lon="6.85474109649658">
    <ele>1332.19995117188</ele>
    <time>2012-04-02T16:27:38Z</time>
   </trkpt>
   <trkpt lat="46.2370185852051" lon="6.85470008850098">
    <ele>1332.64001464844</ele>
    <time>2012-04-02T16:27:39Z</time>
   </trkpt>
   <trkpt lat="46.2370185852051" lon="6.85465955734253">
    <ele>1333.07995605469</ele>
    <time>2012-04-02T16:27:40Z</time>
   </trkpt>
   <trkpt lat="46.2370147705078" lon="6.85461664199829">
    <ele>1333.52001953125</ele>
    <time>2012-04-02T16:27:41Z</time>
   </trkpt>
   <trkpt lat="46.2370109558106" lon="6.8545732498169">
    <ele>1333.9599609375</ele>
    <time>2012-04-02T16:27:42Z</time>
   </trkpt>
   <trkpt lat="46.2370109558106" lon="6.8545355796814">
    <ele>1334.40002441406</ele>
    <time>2012-04-02T16:27:43Z</time>
   </trkpt>
   <trkpt lat="46.237003326416" lon="6.85445070266724">
    <ele>1334.40002441406</ele>
    <time>2012-04-02T16:27:45Z</time>
   </trkpt>
   <trkpt lat="46.2369384765625" lon="6.85421895980835">
    <ele>1335.59997558594</ele>
    <time>2012-04-02T16:27:51Z</time>
   </trkpt>
   <trkpt lat="46.2369270324707" lon="6.85418224334717">
    <ele>1335.80004882812</ele>
    <time>2012-04-02T16:27:52Z</time>
   </trkpt>
   <trkpt lat="46.2369117736816" lon="6.85414505004883">
    <ele>1336</ele>
    <time>2012-04-02T16:27:53Z</time>
   </trkpt>
   <trkpt lat="46.236888885498" lon="6.85411071777344">
    <ele>1336.20007324219</ele>
    <time>2012-04-02T16:27:54Z</time>
   </trkpt>
   <trkpt lat="46.2368698120117" lon="6.85408163070679">
    <ele>1336.40002441406</ele>
    <time>2012-04-02T16:27:55Z</time>
   </trkpt>
   <trkpt lat="46.2368087768555" lon="6.85401153564453">
    <ele>1336.40002441406</ele>
    <time>2012-04-02T16:27:58Z</time>
   </trkpt>
   <trkpt lat="46.2367134094238" lon="6.853928565979">
    <ele>1337.40002441406</ele>
    <time>2012-04-02T16:28:02Z</time>
   </trkpt>
   <trkpt lat="46.2366905212402" lon="6.85390615463257">
    <ele>1337.65002441406</ele>
    <time>2012-04-02T16:28:03Z</time>
   </trkpt>
   <trkpt lat="46.2366676330566" lon="6.85388565063476">
    <ele>1337.90002441406</ele>
    <time>2012-04-02T16:28:04Z</time>
   </trkpt>
   <trkpt lat="46.236644744873" lon="6.85386562347412">
    <ele>1338.15002441406</ele>
    <time>2012-04-02T16:28:05Z</time>
   </trkpt>
   <trkpt lat="46.2366218566894" lon="6.85384559631348">
    <ele>1338.40002441406</ele>
    <time>2012-04-02T16:28:06Z</time>
   </trkpt>
   <trkpt lat="46.2365951538086" lon="6.85382270812988">
    <ele>1338.40002441406</ele>
    <time>2012-04-02T16:28:07Z</time>
   </trkpt>
   <trkpt lat="46.2364540100098" lon="6.85369825363159">
    <ele>1339.71997070312</ele>
    <time>2012-04-02T16:28:13Z</time>
   </trkpt>
   <trkpt lat="46.2364349365234" lon="6.8536787033081">
    <ele>1339.93994140625</ele>
    <time>2012-04-02T16:28:14Z</time>
   </trkpt>
   <trkpt lat="46.2364120483398" lon="6.85365533828735">
    <ele>1340.16003417969</ele>
    <time>2012-04-02T16:28:15Z</time>
   </trkpt>
   <trkpt lat="46.2363929748535" lon="6.85363292694092">
    <ele>1340.38000488281</ele>
    <time>2012-04-02T16:28:16Z</time>
   </trkpt>
   <trkpt lat="46.2363739013672" lon="6.85360527038574">
    <ele>1340.59997558594</ele>
    <time>2012-04-02T16:28:17Z</time>
   </trkpt>
   <trkpt lat="46.2363243103027" lon="6.85346841812134">
    <ele>1340.59997558594</ele>
    <time>2012-04-02T16:28:21Z</time>
   </trkpt>
   <trkpt lat="46.236328125" lon="6.85339689254761">
    <ele>1341.33337402344</ele>
    <time>2012-04-02T16:28:23Z</time>
   </trkpt>
   <trkpt lat="46.236328125" lon="6.85335683822632">
    <ele>1341.69995117188</ele>
    <time>2012-04-02T16:28:24Z</time>
   </trkpt>
   <trkpt lat="46.2363319396973" lon="6.85331583023071">
    <ele>1342.06665039062</ele>
    <time>2012-04-02T16:28:25Z</time>
   </trkpt>
   <trkpt lat="46.2363357543945" lon="6.85327768325806">
    <ele>1342.43334960938</ele>
    <time>2012-04-02T16:28:26Z</time>
   </trkpt>
   <trkpt lat="46.2363433837891" lon="6.8532395362854">
    <ele>1342.80004882812</ele>
    <time>2012-04-02T16:28:27Z</time>
   </trkpt>
   <trkpt lat="46.2364158630371" lon="6.85308933258057">
    <ele>1342.80004882812</ele>
    <time>2012-04-02T16:28:32Z</time>
   </trkpt>
   <trkpt lat="46.2364387512207" lon="6.8530650138855">
    <ele>1343.23999023438</ele>
    <time>2012-04-02T16:28:33Z</time>
   </trkpt>
   <trkpt lat="46.2364654541016" lon="6.8530421257019">
    <ele>1343.68005371094</ele>
    <time>2012-04-02T16:28:34Z</time>
   </trkpt>
   <trkpt lat="46.2364845275879" lon="6.85302114486694">
    <ele>1344.11999511719</ele>
    <time>2012-04-02T16:28:35Z</time>
   </trkpt>
   <trkpt lat="46.2365112304688" lon="6.85299921035767">
    <ele>1344.56005859375</ele>
    <time>2012-04-02T16:28:36Z</time>
   </trkpt>
   <trkpt lat="46.2365341186523" lon="6.85298156738281">
    <ele>1345</ele>
    <time>2012-04-02T16:28:37Z</time>
   </trkpt>
   <trkpt lat="46.2365913391113" lon="6.85294675827026">
    <ele>1345</ele>
    <time>2012-04-02T16:28:39Z</time>
   </trkpt>
   <trkpt lat="46.2366638183594" lon="6.85289430618286">
    <ele>1346.09997558594</ele>
    <time>2012-04-02T16:28:42Z</time>
   </trkpt>
   <trkpt lat="46.2366943359375" lon="6.85287952423096">
    <ele>1346.46667480469</ele>
    <time>2012-04-02T16:28:43Z</time>
   </trkpt>
   <trkpt lat="46.2367172241211" lon="6.85286474227905">
    <ele>1346.83325195312</ele>
    <time>2012-04-02T16:28:44Z</time>
   </trkpt>
   <trkpt lat="46.2367401123047" lon="6.85285186767578">
    <ele>1347.19995117188</ele>
    <time>2012-04-02T16:28:45Z</time>
   </trkpt>
   <trkpt lat="46.2367858886719" lon="6.85282564163208">
    <ele>1347.19995117188</ele>
    <time>2012-04-02T16:28:47Z</time>
   </trkpt>
   <trkpt lat="46.2369079589844" lon="6.85275840759277">
    <ele>1348.31103515625</ele>
    <time>2012-04-02T16:28:52Z</time>
   </trkpt>
   <trkpt lat="46.2369346618652" lon="6.85273790359497">
    <ele>1348.53332519531</ele>
    <time>2012-04-02T16:28:53Z</time>
   </trkpt>
   <trkpt lat="46.2369613647461" lon="6.85271644592285">
    <ele>1348.75549316406</ele>
    <time>2012-04-02T16:28:54Z</time>
   </trkpt>
   <trkpt lat="46.236988067627" lon="6.85269069671631">
    <ele>1348.97778320312</ele>
    <time>2012-04-02T16:28:55Z</time>
   </trkpt>
   <trkpt lat="46.2370071411133" lon="6.85266447067261">
    <ele>1349.19995117188</ele>
    <time>2012-04-02T16:28:56Z</time>
   </trkpt>
   <trkpt lat="46.2370986938477" lon="6.85254764556885">
    <ele>1349.19995117188</ele>
    <time>2012-04-02T16:29:00Z</time>
   </trkpt>
   <trkpt lat="46.2372055053711" lon="6.85234975814819">
    <ele>1350.25</ele>
    <time>2012-04-02T16:29:05Z</time>
   </trkpt>
   <trkpt lat="46.2372245788574" lon="6.85231018066406">
    <ele>1350.4599609375</ele>
    <time>2012-04-02T16:29:06Z</time>
   </trkpt>
   <trkpt lat="46.2372398376465" lon="6.85226583480835">
    <ele>1350.669921875</ele>
    <time>2012-04-02T16:29:07Z</time>
   </trkpt>
   <trkpt lat="46.2372550964356" lon="6.85222148895264">
    <ele>1350.88000488281</ele>
    <time>2012-04-02T16:29:08Z</time>
   </trkpt>
   <trkpt lat="46.2372703552246" lon="6.85218095779419">
    <ele>1351.08996582031</ele>
    <time>2012-04-02T16:29:09Z</time>
   </trkpt>
   <trkpt lat="46.2374114990234" lon="6.85194206237793">
    <ele>1352.56005859375</ele>
    <time>2012-04-02T16:29:16Z</time>
   </trkpt>
   <trkpt lat="46.237434387207" lon="6.85191297531128">
    <ele>1352.77001953125</ele>
    <time>2012-04-02T16:29:17Z</time>
   </trkpt>
   <trkpt lat="46.2374610900879" lon="6.85188674926758">
    <ele>1352.97998046875</ele>
    <time>2012-04-02T16:29:18Z</time>
   </trkpt>
   <trkpt lat="46.2374839782715" lon="6.85186243057251">
    <ele>1353.19006347656</ele>
    <time>2012-04-02T16:29:19Z</time>
   </trkpt>
   <trkpt lat="46.2375068664551" lon="6.85183954238892">
    <ele>1353.40002441406</ele>
    <time>2012-04-02T16:29:20Z</time>
   </trkpt>
   <trkpt lat="46.2376098632812" lon="6.85175943374634">
    <ele>1353.40002441406</ele>
    <time>2012-04-02T16:29:24Z</time>
   </trkpt>
   <trkpt lat="46.2376403808594" lon="6.85173988342285">
    <ele>1353.83996582031</ele>
    <time>2012-04-02T16:29:25Z</time>
   </trkpt>
   <trkpt lat="46.2376670837402" lon="6.85172033309936">
    <ele>1354.28002929688</ele>
    <time>2012-04-02T16:29:26Z</time>
   </trkpt>
   <trkpt lat="46.2376937866211" lon="6.85170412063599">
    <ele>1354.71997070312</ele>
    <time>2012-04-02T16:29:27Z</time>
   </trkpt>
   <trkpt lat="46.2377243041992" lon="6.85169172286987">
    <ele>1355.16003417969</ele>
    <time>2012-04-02T16:29:28Z</time>
   </trkpt>
   <trkpt lat="46.2377510070801" lon="6.85167837142944">
    <ele>1355.59997558594</ele>
    <time>2012-04-02T16:29:29Z</time>
   </trkpt>
   <trkpt lat="46.2378349304199" lon="6.85163736343384">
    <ele>1355.59997558594</ele>
    <time>2012-04-02T16:29:32Z</time>
   </trkpt>
   <trkpt lat="46.237964630127" lon="6.85158443450928">
    <ele>1356.59997558594</ele>
    <time>2012-04-02T16:29:36Z</time>
   </trkpt>
   <trkpt lat="46.2379989624023" lon="6.85156869888306">
    <ele>1356.84997558594</ele>
    <time>2012-04-02T16:29:37Z</time>
   </trkpt>
   <trkpt lat="46.2380294799805" lon="6.85155630111694">
    <ele>1357.09997558594</ele>
    <time>2012-04-02T16:29:38Z</time>
   </trkpt>
   <trkpt lat="46.2380638122559" lon="6.85154247283936">
    <ele>1357.34997558594</ele>
    <time>2012-04-02T16:29:39Z</time>
   </trkpt>
   <trkpt lat="46.2380981445312" lon="6.85152721405029">
    <ele>1357.59997558594</ele>
    <time>2012-04-02T16:29:40Z</time>
   </trkpt>
   <trkpt lat="46.2382545471191" lon="6.85144090652466">
    <ele>1357.59997558594</ele>
    <time>2012-04-02T16:29:45Z</time>
   </trkpt>
   <trkpt lat="46.2384452819824" lon="6.85130167007446">
    <ele>1358.59997558594</ele>
    <time>2012-04-02T16:29:51Z</time>
   </trkpt>
   <trkpt lat="46.2385063171387" lon="6.85125398635864">
    <ele>1358.93334960938</ele>
    <time>2012-04-02T16:29:53Z</time>
   </trkpt>
   <trkpt lat="46.2385368347168" lon="6.85122776031494">
    <ele>1359.09997558594</ele>
    <time>2012-04-02T16:29:54Z</time>
   </trkpt>
   <trkpt lat="46.2385635375977" lon="6.85120153427124">
    <ele>1359.2666015625</ele>
    <time>2012-04-02T16:29:55Z</time>
   </trkpt>
   <trkpt lat="46.2385940551758" lon="6.85117101669312">
    <ele>1359.43334960938</ele>
    <time>2012-04-02T16:29:56Z</time>
   </trkpt>
   <trkpt lat="46.2386245727539" lon="6.8511471748352">
    <ele>1359.59997558594</ele>
    <time>2012-04-02T16:29:57Z</time>
   </trkpt>
   <trkpt lat="46.2387161254883" lon="6.85108804702759">
    <ele>1359.59997558594</ele>
    <time>2012-04-02T16:30:00Z</time>
   </trkpt>
   <trkpt lat="46.2388381958008" lon="6.85102081298828">
    <ele>1360.57775878906</ele>
    <time>2012-04-02T16:30:04Z</time>
   </trkpt>
   <trkpt lat="46.2388687133789" lon="6.85100603103638">
    <ele>1360.822265625</ele>
    <time>2012-04-02T16:30:05Z</time>
   </trkpt>
   <trkpt lat="46.2388954162598" lon="6.850989818573">
    <ele>1361.06665039062</ele>
    <time>2012-04-02T16:30:06Z</time>
   </trkpt>
   <trkpt lat="46.2389297485352" lon="6.85097742080688">
    <ele>1361.31103515625</ele>
    <time>2012-04-02T16:30:07Z</time>
   </trkpt>
   <trkpt lat="46.2389602661133" lon="6.8509669303894">
    <ele>1361.55554199219</ele>
    <time>2012-04-02T16:30:08Z</time>
   </trkpt>
   <trkpt lat="46.239143371582" lon="6.85094165802002">
    <ele>1363.02221679688</ele>
    <time>2012-04-02T16:30:14Z</time>
   </trkpt>
   <trkpt lat="46.2391738891602" lon="6.85093927383423">
    <ele>1363.2666015625</ele>
    <time>2012-04-02T16:30:15Z</time>
   </trkpt>
   <trkpt lat="46.2392044067383" lon="6.85093784332275">
    <ele>1363.51110839844</ele>
    <time>2012-04-02T16:30:16Z</time>
   </trkpt>
   <trkpt lat="46.2392349243164" lon="6.85093832015991">
    <ele>1363.75561523438</ele>
    <time>2012-04-02T16:30:17Z</time>
   </trkpt>
   <trkpt lat="46.2392616271973" lon="6.85094022750854">
    <ele>1364</ele>
    <time>2012-04-02T16:30:18Z</time>
   </trkpt>
   <trkpt lat="46.239387512207" lon="6.85096454620361">
    <ele>1364</ele>
    <time>2012-04-02T16:30:22Z</time>
   </trkpt>
   <trkpt lat="46.2394218444824" lon="6.85097599029541">
    <ele>1364.55004882812</ele>
    <time>2012-04-02T16:30:23Z</time>
   </trkpt>
   <trkpt lat="46.2394523620606" lon="6.85099411010742">
    <ele>1365.09997558594</ele>
    <time>2012-04-02T16:30:24Z</time>
   </trkpt>
   <trkpt lat="46.2394866943359" lon="6.85101222991943">
    <ele>1365.64990234375</ele>
    <time>2012-04-02T16:30:25Z</time>
   </trkpt>
   <trkpt lat="46.2395210266113" lon="6.85103225708008">
    <ele>1366.19995117188</ele>
    <time>2012-04-02T16:30:26Z</time>
   </trkpt>
   <trkpt lat="46.2396087646484" lon="6.8510913848877">
    <ele>1366.19995117188</ele>
    <time>2012-04-02T16:30:29Z</time>
   </trkpt>
   <trkpt lat="46.2396697998047" lon="6.85111045837402">
    <ele>1366.77136230469</ele>
    <time>2012-04-02T16:30:31Z</time>
   </trkpt>
   <trkpt lat="46.2397003173828" lon="6.85111570358276">
    <ele>1367.05712890625</ele>
    <time>2012-04-02T16:30:32Z</time>
   </trkpt>
   <trkpt lat="46.2397270202637" lon="6.85112190246582">
    <ele>1367.3427734375</ele>
    <time>2012-04-02T16:30:33Z</time>
   </trkpt>
   <trkpt lat="46.2397651672363" lon="6.85113048553467">
    <ele>1367.62854003906</ele>
    <time>2012-04-02T16:30:34Z</time>
   </trkpt>
   <trkpt lat="46.2397956848144" lon="6.85113859176636">
    <ele>1367.91418457031</ele>
    <time>2012-04-02T16:30:35Z</time>
   </trkpt>
   <trkpt lat="46.2399253845215" lon="6.85119390487671">
    <ele>1369.05712890625</ele>
    <time>2012-04-02T16:30:39Z</time>
   </trkpt>
   <trkpt lat="46.2399559020996" lon="6.85120010375976">
    <ele>1369.3427734375</ele>
    <time>2012-04-02T16:30:40Z</time>
   </trkpt>
   <trkpt lat="46.239990234375" lon="6.85120534896851">
    <ele>1369.62854003906</ele>
    <time>2012-04-02T16:30:41Z</time>
   </trkpt>
   <trkpt lat="46.2400245666504" lon="6.85121202468872">
    <ele>1369.91418457031</ele>
    <time>2012-04-02T16:30:42Z</time>
   </trkpt>
   <trkpt lat="46.2400550842285" lon="6.85121822357178">
    <ele>1370.19995117188</ele>
    <time>2012-04-02T16:30:43Z</time>
   </trkpt>
   <trkpt lat="46.2401924133301" lon="6.8512167930603">
    <ele>1370.19995117188</ele>
    <time>2012-04-02T16:30:47Z</time>
   </trkpt>
   <trkpt lat="46.2402534484863" lon="6.85120725631714">
    <ele>1370.86657714844</ele>
    <time>2012-04-02T16:30:49Z</time>
   </trkpt>
   <trkpt lat="46.2402801513672" lon="6.85119485855102">
    <ele>1371.19995117188</ele>
    <time>2012-04-02T16:30:50Z</time>
   </trkpt>
   <trkpt lat="46.240306854248" lon="6.85118055343628">
    <ele>1371.53332519531</ele>
    <time>2012-04-02T16:30:51Z</time>
   </trkpt>
   <trkpt lat="46.2403335571289" lon="6.85116863250732">
    <ele>1371.86657714844</ele>
    <time>2012-04-02T16:30:52Z</time>
   </trkpt>
   <trkpt lat="46.2403678894043" lon="6.85115337371826">
    <ele>1372.19995117188</ele>
    <time>2012-04-02T16:30:53Z</time>
   </trkpt>
   <trkpt lat="46.2405700683594" lon="6.8510856628418">
    <ele>1372.19995117188</ele>
    <time>2012-04-02T16:30:59Z</time>
   </trkpt>
   <trkpt lat="46.2406005859375" lon="6.85107088088989">
    <ele>1372.64001464844</ele>
    <time>2012-04-02T16:31:00Z</time>
   </trkpt>
   <trkpt lat="46.2406311035156" lon="6.85105848312378">
    <ele>1373.07995605469</ele>
    <time>2012-04-02T16:31:01Z</time>
   </trkpt>
   <trkpt lat="46.2406616210938" lon="6.85104370117188">
    <ele>1373.52001953125</ele>
    <time>2012-04-02T16:31:02Z</time>
   </trkpt>
   <trkpt lat="46.2406959533691" lon="6.85102939605713">
    <ele>1373.9599609375</ele>
    <time>2012-04-02T16:31:03Z</time>
   </trkpt>
   <trkpt lat="46.2407264709473" lon="6.8510160446167">
    <ele>1374.40002441406</ele>
    <time>2012-04-02T16:31:04Z</time>
   </trkpt>
   <trkpt lat="46.2408218383789" lon="6.85098886489868">
    <ele>1374.40002441406</ele>
    <time>2012-04-02T16:31:07Z</time>
   </trkpt>
   <trkpt lat="46.2409782409668" lon="6.85095262527466">
    <ele>1375.65002441406</ele>
    <time>2012-04-02T16:31:12Z</time>
   </trkpt>
   <trkpt lat="46.2410087585449" lon="6.85094404220581">
    <ele>1375.90002441406</ele>
    <time>2012-04-02T16:31:13Z</time>
   </trkpt>
   <trkpt lat="46.241039276123" lon="6.8509373664856">
    <ele>1376.15002441406</ele>
    <time>2012-04-02T16:31:14Z</time>
   </trkpt>
   <trkpt lat="46.2410736083984" lon="6.85093021392822">
    <ele>1376.40002441406</ele>
    <time>2012-04-02T16:31:15Z</time>
   </trkpt>
   <trkpt lat="46.2411003112793" lon="6.85092449188232">
    <ele>1376.40002441406</ele>
    <time>2012-04-02T16:31:16Z</time>
   </trkpt>
   <trkpt lat="46.2413024902344" lon="6.85090970993042">
    <ele>1377.59997558594</ele>
    <time>2012-04-02T16:31:22Z</time>
   </trkpt>
   <trkpt lat="46.2413368225098" lon="6.85090255737305">
    <ele>1377.80004882812</ele>
    <time>2012-04-02T16:31:23Z</time>
   </trkpt>
   <trkpt lat="46.2413749694824" lon="6.8509030342102">
    <ele>1378</ele>
    <time>2012-04-02T16:31:24Z</time>
   </trkpt>
   <trkpt lat="46.2414131164551" lon="6.8509030342102">
    <ele>1378.19995117188</ele>
    <time>2012-04-02T16:31:25Z</time>
   </trkpt>
   <trkpt lat="46.2414512634277" lon="6.85090446472168">
    <ele>1378.40002441406</ele>
    <time>2012-04-02T16:31:26Z</time>
   </trkpt>
   <trkpt lat="46.2414855957031" lon="6.85090494155884">
    <ele>1378.59997558594</ele>
    <time>2012-04-02T16:31:27Z</time>
   </trkpt>
   <trkpt lat="46.2415618896484" lon="6.850905418396">
    <ele>1378.59997558594</ele>
    <time>2012-04-02T16:31:29Z</time>
   </trkpt>
   <trkpt lat="46.241771697998" lon="6.85091400146484">
    <ele>1379.04443359375</ele>
    <time>2012-04-02T16:31:35Z</time>
   </trkpt>
   <trkpt lat="46.2420463562012" lon="6.85092496871948">
    <ele>1379.56298828125</ele>
    <time>2012-04-02T16:31:42Z</time>
   </trkpt>
   <trkpt lat="46.2421760559082" lon="6.85092496871948">
    <ele>1379.78515625</ele>
    <time>2012-04-02T16:31:45Z</time>
   </trkpt>
   <trkpt lat="46.2423095703125" lon="6.85092401504517">
    <ele>1380.00732421875</ele>
    <time>2012-04-02T16:31:48Z</time>
   </trkpt>
   <trkpt lat="46.2424697875977" lon="6.85092687606812">
    <ele>1380.3037109375</ele>
    <time>2012-04-02T16:31:52Z</time>
   </trkpt>
   <trkpt lat="46.2425117492676" lon="6.85092401504517">
    <ele>1380.37780761719</ele>
    <time>2012-04-02T16:31:53Z</time>
   </trkpt>
   <trkpt lat="46.2425537109375" lon="6.85091876983643">
    <ele>1380.45178222656</ele>
    <time>2012-04-02T16:31:54Z</time>
   </trkpt>
   <trkpt lat="46.2425956726074" lon="6.85091733932495">
    <ele>1380.52587890625</ele>
    <time>2012-04-02T16:31:55Z</time>
   </trkpt>
   <trkpt lat="46.2426376342773" lon="6.85091972351074">
    <ele>1380.59997558594</ele>
    <time>2012-04-02T16:31:56Z</time>
   </trkpt>
   <trkpt lat="46.2428741455078" lon="6.85090684890747">
    <ele>1380.59997558594</ele>
    <time>2012-04-02T16:32:01Z</time>
   </trkpt>
   <trkpt lat="46.2431411743164" lon="6.85086917877197">
    <ele>1381.26000976562</ele>
    <time>2012-04-02T16:32:07Z</time>
   </trkpt>
   <trkpt lat="46.2435150146484" lon="6.85081768035889">
    <ele>1382.14001464844</ele>
    <time>2012-04-02T16:32:15Z</time>
   </trkpt>
   <trkpt lat="46.2436065673828" lon="6.8508038520813">
    <ele>1382.35998535156</ele>
    <time>2012-04-02T16:32:17Z</time>
   </trkpt>
   <trkpt lat="46.24365234375" lon="6.85080051422119">
    <ele>1382.47009277344</ele>
    <time>2012-04-02T16:32:18Z</time>
   </trkpt>
   <trkpt lat="46.2436943054199" lon="6.85079479217529">
    <ele>1382.580078125</ele>
    <time>2012-04-02T16:32:19Z</time>
   </trkpt>
   <trkpt lat="46.2437400817871" lon="6.85079002380371">
    <ele>1382.69006347656</ele>
    <time>2012-04-02T16:32:20Z</time>
   </trkpt>
   <trkpt lat="46.243782043457" lon="6.85078239440918">
    <ele>1382.80004882812</ele>
    <time>2012-04-02T16:32:21Z</time>
   </trkpt>
   <trkpt lat="46.2438278198242" lon="6.85077333450317">
    <ele>1382.80004882812</ele>
    <time>2012-04-02T16:32:22Z</time>
   </trkpt>
   <trkpt lat="46.2441635131836" lon="6.85070419311524">
    <ele>1384.13342285156</ele>
    <time>2012-04-02T16:32:30Z</time>
   </trkpt>
   <trkpt lat="46.2442054748535" lon="6.85069227218628">
    <ele>1384.30004882812</ele>
    <time>2012-04-02T16:32:31Z</time>
   </trkpt>
   <trkpt lat="46.2442474365234" lon="6.85068273544312">
    <ele>1384.46667480469</ele>
    <time>2012-04-02T16:32:32Z</time>
   </trkpt>
   <trkpt lat="46.2442893981934" lon="6.85067224502564">
    <ele>1384.63342285156</ele>
    <time>2012-04-02T16:32:33Z</time>
   </trkpt>
   <trkpt lat="46.2443313598633" lon="6.85065841674805">
    <ele>1384.80004882812</ele>
    <time>2012-04-02T16:32:34Z</time>
   </trkpt>
   <trkpt lat="46.244457244873" lon="6.85062646865845">
    <ele>1384.80004882812</ele>
    <time>2012-04-02T16:32:37Z</time>
   </trkpt>
   <trkpt lat="46.2446556091309" lon="6.8505711555481">
    <ele>1385.63342285156</ele>
    <time>2012-04-02T16:32:42Z</time>
   </trkpt>
   <trkpt lat="46.2447319030762" lon="6.85054302215576">
    <ele>1385.96667480469</ele>
    <time>2012-04-02T16:32:44Z</time>
   </trkpt>
   <trkpt lat="46.2447700500488" lon="6.85052871704102">
    <ele>1386.13342285156</ele>
    <time>2012-04-02T16:32:45Z</time>
   </trkpt>
   <trkpt lat="46.2448081970215" lon="6.8505129814148">
    <ele>1386.30004882812</ele>
    <time>2012-04-02T16:32:46Z</time>
   </trkpt>
   <trkpt lat="46.2448463439941" lon="6.85049962997436">
    <ele>1386.46667480469</ele>
    <time>2012-04-02T16:32:47Z</time>
   </trkpt>
   <trkpt lat="46.2448806762695" lon="6.85048913955688">
    <ele>1386.63342285156</ele>
    <time>2012-04-02T16:32:48Z</time>
   </trkpt>
   <trkpt lat="46.2449188232422" lon="6.8504810333252">
    <ele>1386.80004882812</ele>
    <time>2012-04-02T16:32:49Z</time>
   </trkpt>
   <trkpt lat="46.2449913024902" lon="6.85045671463013">
    <ele>1386.80004882812</ele>
    <time>2012-04-02T16:32:51Z</time>
   </trkpt>
   <trkpt lat="46.2452926635742" lon="6.85033893585205">
    <ele>1388.03076171875</ele>
    <time>2012-04-02T16:32:59Z</time>
   </trkpt>
   <trkpt lat="46.2453308105469" lon="6.85032653808594">
    <ele>1388.18469238281</ele>
    <time>2012-04-02T16:33:00Z</time>
   </trkpt>
   <trkpt lat="46.2453689575195" lon="6.85031175613403">
    <ele>1388.33850097656</ele>
    <time>2012-04-02T16:33:01Z</time>
   </trkpt>
   <trkpt lat="46.2454071044922" lon="6.85029554367065">
    <ele>1388.49230957031</ele>
    <time>2012-04-02T16:33:02Z</time>
   </trkpt>
   <trkpt lat="46.2454452514648" lon="6.85027933120728">
    <ele>1388.64624023438</ele>
    <time>2012-04-02T16:33:03Z</time>
   </trkpt>
   <trkpt lat="46.2454795837402" lon="6.85026454925537">
    <ele>1388.80004882812</ele>
    <time>2012-04-02T16:33:04Z</time>
   </trkpt>
   <trkpt lat="46.2456398010254" lon="6.85020446777344">
    <ele>1388.80004882812</ele>
    <time>2012-04-02T16:33:08Z</time>
   </trkpt>
   <trkpt lat="46.2459716796875" lon="6.85006856918335">
    <ele>1388.32946777344</ele>
    <time>2012-04-02T16:33:16Z</time>
   </trkpt>
   <trkpt lat="46.2462730407715" lon="6.84993648529053">
    <ele>1387.91772460938</ele>
    <time>2012-04-02T16:33:23Z</time>
   </trkpt>
   <trkpt lat="46.2465324401856" lon="6.8497838973999">
    <ele>1387.56469726562</ele>
    <time>2012-04-02T16:33:29Z</time>
   </trkpt>
   <trkpt lat="46.2465782165527" lon="6.8497486114502">
    <ele>1387.50598144531</ele>
    <time>2012-04-02T16:33:30Z</time>
   </trkpt>
   <trkpt lat="46.2468605041504" lon="6.8495192527771">
    <ele>1387.15295410156</ele>
    <time>2012-04-02T16:33:36Z</time>
   </trkpt>
   <trkpt lat="46.2469596862793" lon="6.84941530227661">
    <ele>1387.03540039062</ele>
    <time>2012-04-02T16:33:38Z</time>
   </trkpt>
   <trkpt lat="46.2470054626465" lon="6.84935903549194">
    <ele>1386.9765625</ele>
    <time>2012-04-02T16:33:39Z</time>
   </trkpt>
   <trkpt lat="46.2470512390137" lon="6.84929895401001">
    <ele>1386.91772460938</ele>
    <time>2012-04-02T16:33:40Z</time>
   </trkpt>
   <trkpt lat="46.2471008300781" lon="6.84924030303955">
    <ele>1386.85888671875</ele>
    <time>2012-04-02T16:33:41Z</time>
   </trkpt>
   <trkpt lat="46.2471466064453" lon="6.84917640686035">
    <ele>1386.80004882812</ele>
    <time>2012-04-02T16:33:42Z</time>
   </trkpt>
   <trkpt lat="46.2471885681152" lon="6.84911394119263">
    <ele>1386.80004882812</ele>
    <time>2012-04-02T16:33:43Z</time>
   </trkpt>
   <trkpt lat="46.2473907470703" lon="6.8487696647644">
    <ele>1385.40002441406</ele>
    <time>2012-04-02T16:33:48Z</time>
   </trkpt>
   <trkpt lat="46.2474365234375" lon="6.84870052337646">
    <ele>1385.11999511719</ele>
    <time>2012-04-02T16:33:49Z</time>
   </trkpt>
   <trkpt lat="46.2474784851074" lon="6.84863138198852">
    <ele>1384.83996582031</ele>
    <time>2012-04-02T16:33:50Z</time>
   </trkpt>
   <trkpt lat="46.2475242614746" lon="6.84856271743774">
    <ele>1384.56005859375</ele>
    <time>2012-04-02T16:33:51Z</time>
   </trkpt>
   <trkpt lat="46.2475700378418" lon="6.84848737716675">
    <ele>1384.28002929688</ele>
    <time>2012-04-02T16:33:52Z</time>
   </trkpt>
   <trkpt lat="46.2476196289062" lon="6.84842157363892">
    <ele>1384</ele>
    <time>2012-04-02T16:33:53Z</time>
   </trkpt>
   <trkpt lat="46.2478294372559" lon="6.84817838668823">
    <ele>1384</ele>
    <time>2012-04-02T16:33:57Z</time>
   </trkpt>
   <trkpt lat="46.2480583190918" lon="6.84801149368286">
    <ele>1383.61901855469</ele>
    <time>2012-04-02T16:34:01Z</time>
   </trkpt>
   <trkpt lat="46.248119354248" lon="6.84798192977905">
    <ele>1383.52380371094</ele>
    <time>2012-04-02T16:34:02Z</time>
   </trkpt>
   <trkpt lat="46.2481727600098" lon="6.8479642868042">
    <ele>1383.42858886719</ele>
    <time>2012-04-02T16:34:03Z</time>
   </trkpt>
   <trkpt lat="46.248348236084" lon="6.84789943695068">
    <ele>1383.14282226562</ele>
    <time>2012-04-02T16:34:06Z</time>
   </trkpt>
   <trkpt lat="46.248405456543" lon="6.8478741645813">
    <ele>1383.04760742188</ele>
    <time>2012-04-02T16:34:07Z</time>
   </trkpt>
   <trkpt lat="46.2488212585449" lon="6.84769487380982">
    <ele>1382.38098144531</ele>
    <time>2012-04-02T16:34:14Z</time>
   </trkpt>
   <trkpt lat="46.2488784790039" lon="6.84766912460327">
    <ele>1382.28576660156</ele>
    <time>2012-04-02T16:34:15Z</time>
   </trkpt>
   <trkpt lat="46.2489395141602" lon="6.84764337539673">
    <ele>1382.1904296875</ele>
    <time>2012-04-02T16:34:16Z</time>
   </trkpt>
   <trkpt lat="46.2489929199219" lon="6.84761381149292">
    <ele>1382.09521484375</ele>
    <time>2012-04-02T16:34:17Z</time>
   </trkpt>
   <trkpt lat="46.2490463256836" lon="6.84758043289185">
    <ele>1382</ele>
    <time>2012-04-02T16:34:18Z</time>
   </trkpt>
   <trkpt lat="46.2491493225098" lon="6.84750032424927">
    <ele>1382</ele>
    <time>2012-04-02T16:34:20Z</time>
   </trkpt>
   <trkpt lat="46.2491989135742" lon="6.84745264053345">
    <ele>1381.93334960938</ele>
    <time>2012-04-02T16:34:21Z</time>
   </trkpt>
   <trkpt lat="46.2493324279785" lon="6.84726858139038">
    <ele>1381.73327636719</ele>
    <time>2012-04-02T16:34:24Z</time>
   </trkpt>
   <trkpt lat="46.2494239807129" lon="6.84694385528564">
    <ele>1381.46667480469</ele>
    <time>2012-04-02T16:34:28Z</time>
   </trkpt>
   <trkpt lat="46.2494430541992" lon="6.84685659408569">
    <ele>1381.40002441406</ele>
    <time>2012-04-02T16:34:29Z</time>
   </trkpt>
   <trkpt lat="46.2495346069336" lon="6.84644222259522">
    <ele>1381.06665039062</ele>
    <time>2012-04-02T16:34:34Z</time>
   </trkpt>
   <trkpt lat="46.2495727539062" lon="6.84631204605102">
    <ele>1380.93334960938</ele>
    <time>2012-04-02T16:34:36Z</time>
   </trkpt>
   <trkpt lat="46.2496185302734" lon="6.84617710113525">
    <ele>1380.73327636719</ele>
    <time>2012-04-02T16:34:39Z</time>
   </trkpt>
   <trkpt lat="46.2496337890625" lon="6.84615564346314">
    <ele>1380.66662597656</ele>
    <time>2012-04-02T16:34:40Z</time>
   </trkpt>
   <trkpt lat="46.249641418457" lon="6.84614372253418">
    <ele>1380.59997558594</ele>
    <time>2012-04-02T16:34:41Z</time>
   </trkpt>
   <trkpt lat="46.249641418457" lon="6.84614276885986">
    <ele>1381</ele>
    <time>2012-04-02T16:34:42Z</time>
   </trkpt>
   <trkpt lat="46.249641418457" lon="6.84614276885986">
    <ele>1381.34997558594</ele>
    <time>2012-04-02T16:34:43Z</time>
   </trkpt>
   <trkpt lat="46.249641418457" lon="6.84614276885986">
    <ele>1381.69995117188</ele>
    <time>2012-04-02T16:34:44Z</time>
   </trkpt>
   <trkpt lat="46.249641418457" lon="6.84614276885986">
    <ele>1382.05004882812</ele>
    <time>2012-04-02T16:34:45Z</time>
   </trkpt>
   <trkpt lat="46.249641418457" lon="6.84614276885986">
    <ele>1382.40002441406</ele>
    <time>2012-04-02T16:34:46Z</time>
   </trkpt>
  </trkseg>
 </trk>
</gpx>